<?xml version="1.0" encoding="UTF-8" standalone="no" ?>
<gpx xmlns="http://www.topografix.com/GPX/1/1" xmlns:xsi="http://www.w3.org/2001/XMLSchema-instance" xsi:schemaLocation="http://www.topografix.com/GPX/1/1 http://www.topografix.com/GPX/1/1/gpx.xsd" version="1.1" creator="VisuGPX - https://www.visugpx.com">
  <metadata>
    <name>Rando vtt Poitiers 2018</name>
    <desc><![CDATA[Belle rando malgré les pierres et racines glissantes!!!
Pas mal de dénivelé!]]></desc>
  </metadata>
  <trk>
    <name><![CDATA[Rando vtt Poitiers 2018]]></name>
    <trkseg>
      <trkpt lat="46.55948" lon="0.32953">
        <ele>122.99</ele>
        <time>2018-06-03T06:37:20.090Z</time>
      </trkpt>
      <trkpt lat="46.55957" lon="0.32954">
        <ele>133.86</ele>
        <time>2018-06-03T06:37:26.089Z</time>
      </trkpt>
      <trkpt lat="46.55955" lon="0.32967">
        <ele>137.81</ele>
        <time>2018-06-03T06:38:19.999Z</time>
      </trkpt>
      <trkpt lat="46.55942" lon="0.32972">
        <ele>137.79</ele>
        <time>2018-06-03T06:38:23.999Z</time>
      </trkpt>
      <trkpt lat="46.55933" lon="0.32972">
        <ele>137.41</ele>
        <time>2018-06-03T06:38:29.999Z</time>
      </trkpt>
      <trkpt lat="46.55925" lon="0.32964">
        <ele>137.27</ele>
        <time>2018-06-03T06:38:35.999Z</time>
      </trkpt>
      <trkpt lat="46.55924" lon="0.3295">
        <ele>137.27</ele>
        <time>2018-06-03T06:38:39.999Z</time>
      </trkpt>
      <trkpt lat="46.55932" lon="0.32938">
        <ele>137</ele>
        <time>2018-06-03T06:38:42.999Z</time>
      </trkpt>
      <trkpt lat="46.55938" lon="0.32929">
        <ele>136.77</ele>
        <time>2018-06-03T06:38:44.999Z</time>
      </trkpt>
      <trkpt lat="46.55945" lon="0.32914">
        <ele>136.38</ele>
        <time>2018-06-03T06:38:47.999Z</time>
      </trkpt>
      <trkpt lat="46.55943" lon="0.32896">
        <ele>132.88</ele>
        <time>2018-06-03T06:38:50.999Z</time>
      </trkpt>
      <trkpt lat="46.55944" lon="0.32878">
        <ele>131.1</ele>
        <time>2018-06-03T06:38:53.999Z</time>
      </trkpt>
      <trkpt lat="46.55951" lon="0.32862">
        <ele>128.43</ele>
        <time>2018-06-03T06:38:56.999Z</time>
      </trkpt>
      <trkpt lat="46.55953" lon="0.32847">
        <ele>127.96</ele>
        <time>2018-06-03T06:38:59.999Z</time>
      </trkpt>
      <trkpt lat="46.55957" lon="0.32831">
        <ele>127.46</ele>
        <time>2018-06-03T06:39:03.999Z</time>
      </trkpt>
      <trkpt lat="46.55964" lon="0.32821">
        <ele>127.26</ele>
        <time>2018-06-03T06:39:06.999Z</time>
      </trkpt>
      <trkpt lat="46.55974" lon="0.3281">
        <ele>127.01</ele>
        <time>2018-06-03T06:39:09.999Z</time>
      </trkpt>
      <trkpt lat="46.55985" lon="0.32806">
        <ele>126.71</ele>
        <time>2018-06-03T06:39:12.999Z</time>
      </trkpt>
      <trkpt lat="46.55997" lon="0.32803">
        <ele>126.31</ele>
        <time>2018-06-03T06:39:15.999Z</time>
      </trkpt>
      <trkpt lat="46.56007" lon="0.32804">
        <ele>125.92</ele>
        <time>2018-06-03T06:39:18.999Z</time>
      </trkpt>
      <trkpt lat="46.56021" lon="0.32809">
        <ele>125.64</ele>
        <time>2018-06-03T06:39:21.999Z</time>
      </trkpt>
      <trkpt lat="46.5603" lon="0.32813">
        <ele>124.95</ele>
        <time>2018-06-03T06:39:23.999Z</time>
      </trkpt>
      <trkpt lat="46.5604" lon="0.32822">
        <ele>124.55</ele>
        <time>2018-06-03T06:39:26.999Z</time>
      </trkpt>
      <trkpt lat="46.56051" lon="0.32829">
        <ele>124.52</ele>
        <time>2018-06-03T06:39:29.999Z</time>
      </trkpt>
      <trkpt lat="46.56062" lon="0.32838">
        <ele>124.48</ele>
        <time>2018-06-03T06:39:32.999Z</time>
      </trkpt>
      <trkpt lat="46.56073" lon="0.32845">
        <ele>124.37</ele>
        <time>2018-06-03T06:39:34.999Z</time>
      </trkpt>
      <trkpt lat="46.5608" lon="0.32853">
        <ele>124.28</ele>
        <time>2018-06-03T06:39:36.999Z</time>
      </trkpt>
      <trkpt lat="46.56089" lon="0.32859">
        <ele>124.24</ele>
        <time>2018-06-03T06:39:39.999Z</time>
      </trkpt>
      <trkpt lat="46.56097" lon="0.32866">
        <ele>124.27</ele>
        <time>2018-06-03T06:39:42.999Z</time>
      </trkpt>
      <trkpt lat="46.56107" lon="0.32868">
        <ele>124.51</ele>
        <time>2018-06-03T06:39:46.999Z</time>
      </trkpt>
      <trkpt lat="46.56117" lon="0.32872">
        <ele>124.79</ele>
        <time>2018-06-03T06:39:48.999Z</time>
      </trkpt>
      <trkpt lat="46.56128" lon="0.32872">
        <ele>125.31</ele>
        <time>2018-06-03T06:39:51.999Z</time>
      </trkpt>
      <trkpt lat="46.56136" lon="0.32875">
        <ele>126.06</ele>
        <time>2018-06-03T06:39:55.999Z</time>
      </trkpt>
      <trkpt lat="46.56146" lon="0.32878">
        <ele>126.42</ele>
        <time>2018-06-03T06:39:57.999Z</time>
      </trkpt>
      <trkpt lat="46.56158" lon="0.32887">
        <ele>126.96</ele>
        <time>2018-06-03T06:40:00.999Z</time>
      </trkpt>
      <trkpt lat="46.5617" lon="0.32892">
        <ele>127.49</ele>
        <time>2018-06-03T06:40:04.999Z</time>
      </trkpt>
      <trkpt lat="46.56175" lon="0.32906">
        <ele>128.49</ele>
        <time>2018-06-03T06:40:07.999Z</time>
      </trkpt>
      <trkpt lat="46.56179" lon="0.32924">
        <ele>128.6</ele>
        <time>2018-06-03T06:40:08.999Z</time>
      </trkpt>
      <trkpt lat="46.56186" lon="0.32937">
        <ele>128.83</ele>
        <time>2018-06-03T06:40:10.999Z</time>
      </trkpt>
      <trkpt lat="46.56196" lon="0.32948">
        <ele>129.44</ele>
        <time>2018-06-03T06:40:12.999Z</time>
      </trkpt>
      <trkpt lat="46.56207" lon="0.32954">
        <ele>130.7</ele>
        <time>2018-06-03T06:40:15.999Z</time>
      </trkpt>
      <trkpt lat="46.56213" lon="0.32967">
        <ele>131.67</ele>
        <time>2018-06-03T06:40:17.999Z</time>
      </trkpt>
      <trkpt lat="46.56224" lon="0.32982">
        <ele>131.32</ele>
        <time>2018-06-03T06:40:19.999Z</time>
      </trkpt>
      <trkpt lat="46.56234" lon="0.32991">
        <ele>130.98</ele>
        <time>2018-06-03T06:40:22.999Z</time>
      </trkpt>
      <trkpt lat="46.56241" lon="0.33">
        <ele>130.98</ele>
        <time>2018-06-03T06:40:25.999Z</time>
      </trkpt>
      <trkpt lat="46.5625" lon="0.33012">
        <ele>131.21</ele>
        <time>2018-06-03T06:40:29.999Z</time>
      </trkpt>
      <trkpt lat="46.56258" lon="0.33026">
        <ele>131.26</ele>
        <time>2018-06-03T06:40:32.999Z</time>
      </trkpt>
      <trkpt lat="46.56263" lon="0.33036">
        <ele>131.22</ele>
        <time>2018-06-03T06:40:34.999Z</time>
      </trkpt>
      <trkpt lat="46.56268" lon="0.3305">
        <ele>131.06</ele>
        <time>2018-06-03T06:40:36.999Z</time>
      </trkpt>
      <trkpt lat="46.56271" lon="0.33065">
        <ele>129.29</ele>
        <time>2018-06-03T06:40:38.999Z</time>
      </trkpt>
      <trkpt lat="46.56273" lon="0.3308">
        <ele>128.38</ele>
        <time>2018-06-03T06:40:40.999Z</time>
      </trkpt>
      <trkpt lat="46.56274" lon="0.33097">
        <ele>128.24</ele>
        <time>2018-06-03T06:40:43.999Z</time>
      </trkpt>
      <trkpt lat="46.56275" lon="0.33111">
        <ele>128.12</ele>
        <time>2018-06-03T06:40:46.999Z</time>
      </trkpt>
      <trkpt lat="46.56275" lon="0.33126">
        <ele>128.13</ele>
        <time>2018-06-03T06:40:49.999Z</time>
      </trkpt>
      <trkpt lat="46.56275" lon="0.33143">
        <ele>128.23</ele>
        <time>2018-06-03T06:40:53.999Z</time>
      </trkpt>
      <trkpt lat="46.56276" lon="0.33157">
        <ele>128.46</ele>
        <time>2018-06-03T06:40:56.999Z</time>
      </trkpt>
      <trkpt lat="46.56271" lon="0.33173">
        <ele>128.67</ele>
        <time>2018-06-03T06:40:58.999Z</time>
      </trkpt>
      <trkpt lat="46.56266" lon="0.33187">
        <ele>128.74</ele>
        <time>2018-06-03T06:41:00.999Z</time>
      </trkpt>
      <trkpt lat="46.5626" lon="0.33198">
        <ele>128.8</ele>
        <time>2018-06-03T06:41:02.999Z</time>
      </trkpt>
      <trkpt lat="46.56254" lon="0.33209">
        <ele>128.83</ele>
        <time>2018-06-03T06:41:04.999Z</time>
      </trkpt>
      <trkpt lat="46.5625" lon="0.33221">
        <ele>128.83</ele>
        <time>2018-06-03T06:41:06.999Z</time>
      </trkpt>
      <trkpt lat="46.56245" lon="0.33238">
        <ele>128.56</ele>
        <time>2018-06-03T06:41:09.999Z</time>
      </trkpt>
      <trkpt lat="46.56242" lon="0.33256">
        <ele>128.23</ele>
        <time>2018-06-03T06:41:12.999Z</time>
      </trkpt>
      <trkpt lat="46.56242" lon="0.33274">
        <ele>127.33</ele>
        <time>2018-06-03T06:41:15.999Z</time>
      </trkpt>
      <trkpt lat="46.56242" lon="0.33292">
        <ele>126.72</ele>
        <time>2018-06-03T06:41:18.999Z</time>
      </trkpt>
      <trkpt lat="46.56239" lon="0.3331">
        <ele>126.65</ele>
        <time>2018-06-03T06:41:21.999Z</time>
      </trkpt>
      <trkpt lat="46.56236" lon="0.33327">
        <ele>126.64</ele>
        <time>2018-06-03T06:41:24.999Z</time>
      </trkpt>
      <trkpt lat="46.56231" lon="0.33343">
        <ele>126.49</ele>
        <time>2018-06-03T06:41:27.999Z</time>
      </trkpt>
      <trkpt lat="46.56226" lon="0.33361">
        <ele>126.69</ele>
        <time>2018-06-03T06:41:30.999Z</time>
      </trkpt>
      <trkpt lat="46.56223" lon="0.33375">
        <ele>126.77</ele>
        <time>2018-06-03T06:41:32.999Z</time>
      </trkpt>
      <trkpt lat="46.56219" lon="0.33392">
        <ele>127.39</ele>
        <time>2018-06-03T06:41:35.999Z</time>
      </trkpt>
      <trkpt lat="46.56212" lon="0.33405">
        <ele>127.47</ele>
        <time>2018-06-03T06:41:37.999Z</time>
      </trkpt>
      <trkpt lat="46.56204" lon="0.33412">
        <ele>127.82</ele>
        <time>2018-06-03T06:41:39.999Z</time>
      </trkpt>
      <trkpt lat="46.5619" lon="0.33418">
        <ele>128.67</ele>
        <time>2018-06-03T06:41:42.999Z</time>
      </trkpt>
      <trkpt lat="46.56179" lon="0.33412">
        <ele>129.94</ele>
        <time>2018-06-03T06:41:44.999Z</time>
      </trkpt>
      <trkpt lat="46.5617" lon="0.33405">
        <ele>131.35</ele>
        <time>2018-06-03T06:41:46.999Z</time>
      </trkpt>
      <trkpt lat="46.56158" lon="0.33397">
        <ele>131.82</ele>
        <time>2018-06-03T06:41:49.999Z</time>
      </trkpt>
      <trkpt lat="46.56146" lon="0.3339">
        <ele>131.84</ele>
        <time>2018-06-03T06:41:52.999Z</time>
      </trkpt>
      <trkpt lat="46.56134" lon="0.33386">
        <ele>132.48</ele>
        <time>2018-06-03T06:41:54.999Z</time>
      </trkpt>
      <trkpt lat="46.56122" lon="0.33387">
        <ele>132.78</ele>
        <time>2018-06-03T06:41:56.999Z</time>
      </trkpt>
      <trkpt lat="46.56112" lon="0.33398">
        <ele>133.15</ele>
        <time>2018-06-03T06:41:58.999Z</time>
      </trkpt>
      <trkpt lat="46.56105" lon="0.33409">
        <ele>133.49</ele>
        <time>2018-06-03T06:42:00.999Z</time>
      </trkpt>
      <trkpt lat="46.56099" lon="0.3342">
        <ele>133.69</ele>
        <time>2018-06-03T06:42:02.999Z</time>
      </trkpt>
      <trkpt lat="46.56092" lon="0.33437">
        <ele>133.73</ele>
        <time>2018-06-03T06:42:05.999Z</time>
      </trkpt>
      <trkpt lat="46.56088" lon="0.33449">
        <ele>133.81</ele>
        <time>2018-06-03T06:42:07.999Z</time>
      </trkpt>
      <trkpt lat="46.56078" lon="0.33461">
        <ele>133.7</ele>
        <time>2018-06-03T06:42:10.999Z</time>
      </trkpt>
      <trkpt lat="46.56069" lon="0.3347">
        <ele>133.6</ele>
        <time>2018-06-03T06:42:12.999Z</time>
      </trkpt>
      <trkpt lat="46.56057" lon="0.33481">
        <ele>133.13</ele>
        <time>2018-06-03T06:42:14.999Z</time>
      </trkpt>
      <trkpt lat="46.56046" lon="0.33486">
        <ele>132.84</ele>
        <time>2018-06-03T06:42:16.999Z</time>
      </trkpt>
      <trkpt lat="46.56041" lon="0.33497">
        <ele>132.1</ele>
        <time>2018-06-03T06:42:23.999Z</time>
      </trkpt>
      <trkpt lat="46.56041" lon="0.33518">
        <ele>133.14</ele>
        <time>2018-06-03T06:42:28.999Z</time>
      </trkpt>
      <trkpt lat="46.56036" lon="0.3353">
        <ele>133.3</ele>
        <time>2018-06-03T06:42:30.999Z</time>
      </trkpt>
      <trkpt lat="46.56031" lon="0.33544">
        <ele>133.35</ele>
        <time>2018-06-03T06:42:32.999Z</time>
      </trkpt>
      <trkpt lat="46.5603" lon="0.33559">
        <ele>133.32</ele>
        <time>2018-06-03T06:42:34.999Z</time>
      </trkpt>
      <trkpt lat="46.56029" lon="0.33572">
        <ele>133.31</ele>
        <time>2018-06-03T06:42:36.999Z</time>
      </trkpt>
      <trkpt lat="46.56022" lon="0.33585">
        <ele>133.31</ele>
        <time>2018-06-03T06:42:39.999Z</time>
      </trkpt>
      <trkpt lat="46.56018" lon="0.33599">
        <ele>133.31</ele>
        <time>2018-06-03T06:42:42.999Z</time>
      </trkpt>
      <trkpt lat="46.56009" lon="0.33607">
        <ele>133.31</ele>
        <time>2018-06-03T06:42:44.999Z</time>
      </trkpt>
      <trkpt lat="46.56002" lon="0.33614">
        <ele>133.29</ele>
        <time>2018-06-03T06:42:46.999Z</time>
      </trkpt>
      <trkpt lat="46.55991" lon="0.33627">
        <ele>133.3</ele>
        <time>2018-06-03T06:42:49.999Z</time>
      </trkpt>
      <trkpt lat="46.55981" lon="0.33636">
        <ele>133.22</ele>
        <time>2018-06-03T06:42:52.999Z</time>
      </trkpt>
      <trkpt lat="46.55973" lon="0.33641">
        <ele>133.22</ele>
        <time>2018-06-03T06:42:55.999Z</time>
      </trkpt>
      <trkpt lat="46.55966" lon="0.33656">
        <ele>132.99</ele>
        <time>2018-06-03T06:42:58.999Z</time>
      </trkpt>
      <trkpt lat="46.55954" lon="0.33658">
        <ele>132.83</ele>
        <time>2018-06-03T06:43:01.999Z</time>
      </trkpt>
      <trkpt lat="46.55944" lon="0.33661">
        <ele>132.71</ele>
        <time>2018-06-03T06:43:02.999Z</time>
      </trkpt>
      <trkpt lat="46.55933" lon="0.33667">
        <ele>129.67</ele>
        <time>2018-06-03T06:43:04.999Z</time>
      </trkpt>
      <trkpt lat="46.55924" lon="0.33673">
        <ele>128.01</ele>
        <time>2018-06-03T06:43:06.999Z</time>
      </trkpt>
      <trkpt lat="46.55917" lon="0.33685">
        <ele>127.79</ele>
        <time>2018-06-03T06:43:09.999Z</time>
      </trkpt>
      <trkpt lat="46.55909" lon="0.33693">
        <ele>127.29</ele>
        <time>2018-06-03T06:43:11.999Z</time>
      </trkpt>
      <trkpt lat="46.55901" lon="0.33699">
        <ele>127.12</ele>
        <time>2018-06-03T06:43:13.999Z</time>
      </trkpt>
      <trkpt lat="46.5589" lon="0.33706">
        <ele>126.91</ele>
        <time>2018-06-03T06:43:15.999Z</time>
      </trkpt>
      <trkpt lat="46.55881" lon="0.33714">
        <ele>125.8</ele>
        <time>2018-06-03T06:43:17.999Z</time>
      </trkpt>
      <trkpt lat="46.55869" lon="0.33719">
        <ele>124</ele>
        <time>2018-06-03T06:43:20.999Z</time>
      </trkpt>
      <trkpt lat="46.55858" lon="0.33717">
        <ele>123.89</ele>
        <time>2018-06-03T06:43:23.999Z</time>
      </trkpt>
      <trkpt lat="46.5585" lon="0.33715">
        <ele>123.89</ele>
        <time>2018-06-03T06:43:25.999Z</time>
      </trkpt>
      <trkpt lat="46.5584" lon="0.33711">
        <ele>123.89</ele>
        <time>2018-06-03T06:43:27.999Z</time>
      </trkpt>
      <trkpt lat="46.55828" lon="0.3371">
        <ele>124.01</ele>
        <time>2018-06-03T06:43:30.999Z</time>
      </trkpt>
      <trkpt lat="46.55816" lon="0.33718">
        <ele>124</ele>
        <time>2018-06-03T06:43:33.999Z</time>
      </trkpt>
      <trkpt lat="46.55805" lon="0.33728">
        <ele>123.9</ele>
        <time>2018-06-03T06:43:36.999Z</time>
      </trkpt>
      <trkpt lat="46.55797" lon="0.33735">
        <ele>123.8</ele>
        <time>2018-06-03T06:43:38.999Z</time>
      </trkpt>
      <trkpt lat="46.55788" lon="0.33741">
        <ele>123.61</ele>
        <time>2018-06-03T06:43:41.999Z</time>
      </trkpt>
      <trkpt lat="46.55779" lon="0.33748">
        <ele>123.47</ele>
        <time>2018-06-03T06:43:43.999Z</time>
      </trkpt>
      <trkpt lat="46.55771" lon="0.33755">
        <ele>123.34</ele>
        <time>2018-06-03T06:43:45.999Z</time>
      </trkpt>
      <trkpt lat="46.55761" lon="0.33758">
        <ele>122.81</ele>
        <time>2018-06-03T06:43:48.999Z</time>
      </trkpt>
      <trkpt lat="46.55749" lon="0.33762">
        <ele>122.64</ele>
        <time>2018-06-03T06:43:51.999Z</time>
      </trkpt>
      <trkpt lat="46.5574" lon="0.33767">
        <ele>120.69</ele>
        <time>2018-06-03T06:43:53.999Z</time>
      </trkpt>
      <trkpt lat="46.5573" lon="0.33774">
        <ele>120.51</ele>
        <time>2018-06-03T06:43:55.999Z</time>
      </trkpt>
      <trkpt lat="46.55719" lon="0.33782">
        <ele>120.3</ele>
        <time>2018-06-03T06:43:59.999Z</time>
      </trkpt>
      <trkpt lat="46.5571" lon="0.33794">
        <ele>120.35</ele>
        <time>2018-06-03T06:44:02.999Z</time>
      </trkpt>
      <trkpt lat="46.55703" lon="0.33803">
        <ele>120.57</ele>
        <time>2018-06-03T06:44:05.999Z</time>
      </trkpt>
      <trkpt lat="46.55699" lon="0.33821">
        <ele>122.08</ele>
        <time>2018-06-03T06:44:08.999Z</time>
      </trkpt>
      <trkpt lat="46.55692" lon="0.33833">
        <ele>122.77</ele>
        <time>2018-06-03T06:44:10.999Z</time>
      </trkpt>
      <trkpt lat="46.55692" lon="0.33848">
        <ele>123.28</ele>
        <time>2018-06-03T06:44:13.999Z</time>
      </trkpt>
      <trkpt lat="46.55679" lon="0.33849">
        <ele>128</ele>
        <time>2018-06-03T06:44:15.999Z</time>
      </trkpt>
      <trkpt lat="46.5567" lon="0.33862">
        <ele>130.52</ele>
        <time>2018-06-03T06:44:16.999Z</time>
      </trkpt>
      <trkpt lat="46.5566" lon="0.3387">
        <ele>132.37</ele>
        <time>2018-06-03T06:44:17.999Z</time>
      </trkpt>
      <trkpt lat="46.55646" lon="0.33869">
        <ele>134.06</ele>
        <time>2018-06-03T06:44:18.999Z</time>
      </trkpt>
      <trkpt lat="46.55632" lon="0.33866">
        <ele>136.24</ele>
        <time>2018-06-03T06:44:20.999Z</time>
      </trkpt>
      <trkpt lat="46.55624" lon="0.33855">
        <ele>136.63</ele>
        <time>2018-06-03T06:44:22.999Z</time>
      </trkpt>
      <trkpt lat="46.55615" lon="0.33843">
        <ele>136.03</ele>
        <time>2018-06-03T06:44:24.999Z</time>
      </trkpt>
      <trkpt lat="46.55604" lon="0.33836">
        <ele>134.95</ele>
        <time>2018-06-03T06:44:26.999Z</time>
      </trkpt>
      <trkpt lat="46.55592" lon="0.33838">
        <ele>134.03</ele>
        <time>2018-06-03T06:44:28.999Z</time>
      </trkpt>
      <trkpt lat="46.55583" lon="0.33835">
        <ele>133.23</ele>
        <time>2018-06-03T06:44:30.999Z</time>
      </trkpt>
      <trkpt lat="46.55575" lon="0.33828">
        <ele>132.58</ele>
        <time>2018-06-03T06:44:32.999Z</time>
      </trkpt>
      <trkpt lat="46.55568" lon="0.33817">
        <ele>131.82</ele>
        <time>2018-06-03T06:44:34.999Z</time>
      </trkpt>
      <trkpt lat="46.55563" lon="0.338">
        <ele>129.37</ele>
        <time>2018-06-03T06:44:36.999Z</time>
      </trkpt>
      <trkpt lat="46.5556" lon="0.33783">
        <ele>127.15</ele>
        <time>2018-06-03T06:44:38.999Z</time>
      </trkpt>
      <trkpt lat="46.55553" lon="0.33772">
        <ele>125.98</ele>
        <time>2018-06-03T06:44:40.999Z</time>
      </trkpt>
      <trkpt lat="46.55545" lon="0.33761">
        <ele>125.35</ele>
        <time>2018-06-03T06:44:42.999Z</time>
      </trkpt>
      <trkpt lat="46.55536" lon="0.33751">
        <ele>124.87</ele>
        <time>2018-06-03T06:44:44.999Z</time>
      </trkpt>
      <trkpt lat="46.55529" lon="0.33743">
        <ele>124.52</ele>
        <time>2018-06-03T06:44:46.999Z</time>
      </trkpt>
      <trkpt lat="46.55518" lon="0.3374">
        <ele>123.4</ele>
        <time>2018-06-03T06:44:48.999Z</time>
      </trkpt>
      <trkpt lat="46.55509" lon="0.33736">
        <ele>123.08</ele>
        <time>2018-06-03T06:44:50.999Z</time>
      </trkpt>
      <trkpt lat="46.555" lon="0.33727">
        <ele>123.7</ele>
        <time>2018-06-03T06:44:52.999Z</time>
      </trkpt>
      <trkpt lat="46.5549" lon="0.33719">
        <ele>124.79</ele>
        <time>2018-06-03T06:44:54.999Z</time>
      </trkpt>
      <trkpt lat="46.55479" lon="0.33714">
        <ele>125.37</ele>
        <time>2018-06-03T06:44:56.999Z</time>
      </trkpt>
      <trkpt lat="46.55466" lon="0.33714">
        <ele>125.97</ele>
        <time>2018-06-03T06:44:59.999Z</time>
      </trkpt>
      <trkpt lat="46.55456" lon="0.33714">
        <ele>126.87</ele>
        <time>2018-06-03T06:45:01.999Z</time>
      </trkpt>
      <trkpt lat="46.55444" lon="0.33712">
        <ele>127.41</ele>
        <time>2018-06-03T06:45:04.999Z</time>
      </trkpt>
      <trkpt lat="46.5543" lon="0.33712">
        <ele>129.99</ele>
        <time>2018-06-03T06:45:07.999Z</time>
      </trkpt>
      <trkpt lat="46.55419" lon="0.33714">
        <ele>130.06</ele>
        <time>2018-06-03T06:45:09.999Z</time>
      </trkpt>
      <trkpt lat="46.55407" lon="0.33713">
        <ele>131.33</ele>
        <time>2018-06-03T06:45:12.999Z</time>
      </trkpt>
      <trkpt lat="46.55395" lon="0.3371">
        <ele>131.67</ele>
        <time>2018-06-03T06:45:14.999Z</time>
      </trkpt>
      <trkpt lat="46.55384" lon="0.33711">
        <ele>132.17</ele>
        <time>2018-06-03T06:45:17.999Z</time>
      </trkpt>
      <trkpt lat="46.55375" lon="0.33707">
        <ele>132.48</ele>
        <time>2018-06-03T06:45:19.999Z</time>
      </trkpt>
      <trkpt lat="46.55367" lon="0.33701">
        <ele>132.81</ele>
        <time>2018-06-03T06:45:21.999Z</time>
      </trkpt>
      <trkpt lat="46.55354" lon="0.33696">
        <ele>133.19</ele>
        <time>2018-06-03T06:45:25.999Z</time>
      </trkpt>
      <trkpt lat="46.55348" lon="0.33681">
        <ele>133.35</ele>
        <time>2018-06-03T06:45:27.999Z</time>
      </trkpt>
      <trkpt lat="46.55355" lon="0.33672">
        <ele>135.57</ele>
        <time>2018-06-03T06:45:51.999Z</time>
      </trkpt>
      <trkpt lat="46.55363" lon="0.33663">
        <ele>136.66</ele>
        <time>2018-06-03T06:45:58.999Z</time>
      </trkpt>
      <trkpt lat="46.55372" lon="0.33656">
        <ele>137.82</ele>
        <time>2018-06-03T06:46:05.999Z</time>
      </trkpt>
      <trkpt lat="46.5538" lon="0.33647">
        <ele>138.87</ele>
        <time>2018-06-03T06:46:14.999Z</time>
      </trkpt>
      <trkpt lat="46.55387" lon="0.33638">
        <ele>139.47</ele>
        <time>2018-06-03T06:46:21.999Z</time>
      </trkpt>
      <trkpt lat="46.55395" lon="0.3363">
        <ele>140.38</ele>
        <time>2018-06-03T06:46:34.999Z</time>
      </trkpt>
      <trkpt lat="46.55403" lon="0.33621">
        <ele>142.41</ele>
        <time>2018-06-03T06:46:50.999Z</time>
      </trkpt>
      <trkpt lat="46.55409" lon="0.3361">
        <ele>144.45</ele>
        <time>2018-06-03T06:47:07.999Z</time>
      </trkpt>
      <trkpt lat="46.55415" lon="0.33598">
        <ele>145.32</ele>
        <time>2018-06-03T06:47:24.999Z</time>
      </trkpt>
      <trkpt lat="46.55418" lon="0.33586">
        <ele>146</ele>
        <time>2018-06-03T06:47:39.999Z</time>
      </trkpt>
      <trkpt lat="46.55425" lon="0.33571">
        <ele>147.77</ele>
        <time>2018-06-03T06:47:53.999Z</time>
      </trkpt>
      <trkpt lat="46.55431" lon="0.33559">
        <ele>148.21</ele>
        <time>2018-06-03T06:47:57.999Z</time>
      </trkpt>
      <trkpt lat="46.55436" lon="0.33546">
        <ele>148.68</ele>
        <time>2018-06-03T06:48:02.999Z</time>
      </trkpt>
      <trkpt lat="46.5543" lon="0.33536">
        <ele>148.97</ele>
        <time>2018-06-03T06:48:06.999Z</time>
      </trkpt>
      <trkpt lat="46.55421" lon="0.33529">
        <ele>149.28</ele>
        <time>2018-06-03T06:48:10.999Z</time>
      </trkpt>
      <trkpt lat="46.55414" lon="0.33517">
        <ele>149.77</ele>
        <time>2018-06-03T06:48:15.999Z</time>
      </trkpt>
      <trkpt lat="46.55412" lon="0.33502">
        <ele>150.27</ele>
        <time>2018-06-03T06:48:20.999Z</time>
      </trkpt>
      <trkpt lat="46.55403" lon="0.335">
        <ele>151.12</ele>
        <time>2018-06-03T06:48:27.999Z</time>
      </trkpt>
      <trkpt lat="46.55393" lon="0.33489">
        <ele>151.7</ele>
        <time>2018-06-03T06:48:31.999Z</time>
      </trkpt>
      <trkpt lat="46.55384" lon="0.33481">
        <ele>152.23</ele>
        <time>2018-06-03T06:48:34.999Z</time>
      </trkpt>
      <trkpt lat="46.55375" lon="0.33476">
        <ele>153.18</ele>
        <time>2018-06-03T06:48:39.999Z</time>
      </trkpt>
      <trkpt lat="46.55366" lon="0.33469">
        <ele>154.12</ele>
        <time>2018-06-03T06:48:43.999Z</time>
      </trkpt>
      <trkpt lat="46.55357" lon="0.3347">
        <ele>154.8</ele>
        <time>2018-06-03T06:48:46.999Z</time>
      </trkpt>
      <trkpt lat="46.55347" lon="0.33474">
        <ele>155.73</ele>
        <time>2018-06-03T06:48:50.999Z</time>
      </trkpt>
      <trkpt lat="46.5534" lon="0.33485">
        <ele>156.3</ele>
        <time>2018-06-03T06:48:53.999Z</time>
      </trkpt>
      <trkpt lat="46.55329" lon="0.33497">
        <ele>158.41</ele>
        <time>2018-06-03T06:48:56.999Z</time>
      </trkpt>
      <trkpt lat="46.55317" lon="0.33504">
        <ele>160.16</ele>
        <time>2018-06-03T06:48:59.999Z</time>
      </trkpt>
      <trkpt lat="46.55307" lon="0.33511">
        <ele>160.44</ele>
        <time>2018-06-03T06:49:02.999Z</time>
      </trkpt>
      <trkpt lat="46.55297" lon="0.33516">
        <ele>160.72</ele>
        <time>2018-06-03T06:49:05.999Z</time>
      </trkpt>
      <trkpt lat="46.55286" lon="0.3352">
        <ele>161.12</ele>
        <time>2018-06-03T06:49:08.999Z</time>
      </trkpt>
      <trkpt lat="46.55275" lon="0.33523">
        <ele>161.55</ele>
        <time>2018-06-03T06:49:11.999Z</time>
      </trkpt>
      <trkpt lat="46.55265" lon="0.33525">
        <ele>161.82</ele>
        <time>2018-06-03T06:49:13.999Z</time>
      </trkpt>
      <trkpt lat="46.55254" lon="0.33526">
        <ele>162.3</ele>
        <time>2018-06-03T06:49:16.999Z</time>
      </trkpt>
      <trkpt lat="46.55243" lon="0.33524">
        <ele>165.97</ele>
        <time>2018-06-03T06:49:18.999Z</time>
      </trkpt>
      <trkpt lat="46.55232" lon="0.33522">
        <ele>167.73</ele>
        <time>2018-06-03T06:49:20.999Z</time>
      </trkpt>
      <trkpt lat="46.5522" lon="0.33519">
        <ele>170.52</ele>
        <time>2018-06-03T06:49:22.999Z</time>
      </trkpt>
      <trkpt lat="46.55207" lon="0.33518">
        <ele>172.94</ele>
        <time>2018-06-03T06:49:24.999Z</time>
      </trkpt>
      <trkpt lat="46.55192" lon="0.33515">
        <ele>174.27</ele>
        <time>2018-06-03T06:49:26.999Z</time>
      </trkpt>
      <trkpt lat="46.5518" lon="0.3351">
        <ele>175.4</ele>
        <time>2018-06-03T06:49:28.999Z</time>
      </trkpt>
      <trkpt lat="46.55169" lon="0.33507">
        <ele>176.19</ele>
        <time>2018-06-03T06:49:30.999Z</time>
      </trkpt>
      <trkpt lat="46.55156" lon="0.33498">
        <ele>176.64</ele>
        <time>2018-06-03T06:49:32.999Z</time>
      </trkpt>
      <trkpt lat="46.55144" lon="0.33491">
        <ele>177.31</ele>
        <time>2018-06-03T06:49:34.999Z</time>
      </trkpt>
      <trkpt lat="46.55133" lon="0.33481">
        <ele>176.65</ele>
        <time>2018-06-03T06:49:36.999Z</time>
      </trkpt>
      <trkpt lat="46.55123" lon="0.33475">
        <ele>176.39</ele>
        <time>2018-06-03T06:49:38.999Z</time>
      </trkpt>
      <trkpt lat="46.55109" lon="0.3347">
        <ele>177.1</ele>
        <time>2018-06-03T06:49:40.999Z</time>
      </trkpt>
      <trkpt lat="46.551" lon="0.33466">
        <ele>177.18</ele>
        <time>2018-06-03T06:49:41.999Z</time>
      </trkpt>
      <trkpt lat="46.55085" lon="0.33457">
        <ele>177.27</ele>
        <time>2018-06-03T06:49:43.999Z</time>
      </trkpt>
      <trkpt lat="46.55072" lon="0.3345">
        <ele>176.71</ele>
        <time>2018-06-03T06:49:45.999Z</time>
      </trkpt>
      <trkpt lat="46.55061" lon="0.33443">
        <ele>177.45</ele>
        <time>2018-06-03T06:49:47.999Z</time>
      </trkpt>
      <trkpt lat="46.55049" lon="0.33435">
        <ele>177.28</ele>
        <time>2018-06-03T06:49:49.999Z</time>
      </trkpt>
      <trkpt lat="46.55035" lon="0.33425">
        <ele>176.6</ele>
        <time>2018-06-03T06:49:51.999Z</time>
      </trkpt>
      <trkpt lat="46.55022" lon="0.33415">
        <ele>176.71</ele>
        <time>2018-06-03T06:49:53.999Z</time>
      </trkpt>
      <trkpt lat="46.55009" lon="0.33406">
        <ele>176.48</ele>
        <time>2018-06-03T06:49:55.999Z</time>
      </trkpt>
      <trkpt lat="46.54998" lon="0.33399">
        <ele>177.9</ele>
        <time>2018-06-03T06:49:57.999Z</time>
      </trkpt>
      <trkpt lat="46.54988" lon="0.33393">
        <ele>179.81</ele>
        <time>2018-06-03T06:49:59.999Z</time>
      </trkpt>
      <trkpt lat="46.54979" lon="0.33385">
        <ele>181.96</ele>
        <time>2018-06-03T06:50:01.999Z</time>
      </trkpt>
      <trkpt lat="46.5497" lon="0.33381">
        <ele>184.07</ele>
        <time>2018-06-03T06:50:03.999Z</time>
      </trkpt>
      <trkpt lat="46.54961" lon="0.33374">
        <ele>184.24</ele>
        <time>2018-06-03T06:50:06.999Z</time>
      </trkpt>
      <trkpt lat="46.5495" lon="0.33367">
        <ele>184.29</ele>
        <time>2018-06-03T06:50:15.999Z</time>
      </trkpt>
      <trkpt lat="46.54942" lon="0.33361">
        <ele>184.08</ele>
        <time>2018-06-03T06:50:29.999Z</time>
      </trkpt>
      <trkpt lat="46.54934" lon="0.33349">
        <ele>184.18</ele>
        <time>2018-06-03T06:50:35.999Z</time>
      </trkpt>
      <trkpt lat="46.54929" lon="0.33337">
        <ele>184.43</ele>
        <time>2018-06-03T06:50:39.999Z</time>
      </trkpt>
      <trkpt lat="46.54923" lon="0.33325">
        <ele>185.06</ele>
        <time>2018-06-03T06:50:46.999Z</time>
      </trkpt>
      <trkpt lat="46.54917" lon="0.33312">
        <ele>184.86</ele>
        <time>2018-06-03T06:50:50.999Z</time>
      </trkpt>
      <trkpt lat="46.54909" lon="0.33302">
        <ele>184.16</ele>
        <time>2018-06-03T06:50:56.999Z</time>
      </trkpt>
      <trkpt lat="46.54899" lon="0.33293">
        <ele>183.5</ele>
        <time>2018-06-03T06:51:01.999Z</time>
      </trkpt>
      <trkpt lat="46.54895" lon="0.33278">
        <ele>182.55</ele>
        <time>2018-06-03T06:51:05.999Z</time>
      </trkpt>
      <trkpt lat="46.54888" lon="0.33269">
        <ele>181.08</ele>
        <time>2018-06-03T06:51:13.999Z</time>
      </trkpt>
      <trkpt lat="46.5488" lon="0.33261">
        <ele>179.11</ele>
        <time>2018-06-03T06:51:26.999Z</time>
      </trkpt>
      <trkpt lat="46.54879" lon="0.33247">
        <ele>177.33</ele>
        <time>2018-06-03T06:51:41.999Z</time>
      </trkpt>
      <trkpt lat="46.5487" lon="0.33239">
        <ele>176.53</ele>
        <time>2018-06-03T06:51:48.999Z</time>
      </trkpt>
      <trkpt lat="46.54863" lon="0.33231">
        <ele>176.05</ele>
        <time>2018-06-03T06:51:53.999Z</time>
      </trkpt>
      <trkpt lat="46.54857" lon="0.33217">
        <ele>175.36</ele>
        <time>2018-06-03T06:51:59.999Z</time>
      </trkpt>
      <trkpt lat="46.54852" lon="0.33204">
        <ele>174.77</ele>
        <time>2018-06-03T06:52:06.999Z</time>
      </trkpt>
      <trkpt lat="46.54845" lon="0.3319">
        <ele>174.4</ele>
        <time>2018-06-03T06:52:12.999Z</time>
      </trkpt>
      <trkpt lat="46.54839" lon="0.33179">
        <ele>173.98</ele>
        <time>2018-06-03T06:52:17.999Z</time>
      </trkpt>
      <trkpt lat="46.54835" lon="0.33166">
        <ele>173.76</ele>
        <time>2018-06-03T06:52:21.999Z</time>
      </trkpt>
      <trkpt lat="46.54832" lon="0.33152">
        <ele>173.74</ele>
        <time>2018-06-03T06:52:26.999Z</time>
      </trkpt>
      <trkpt lat="46.54829" lon="0.33138">
        <ele>174.18</ele>
        <time>2018-06-03T06:52:32.999Z</time>
      </trkpt>
      <trkpt lat="46.54825" lon="0.33126">
        <ele>174.55</ele>
        <time>2018-06-03T06:52:36.999Z</time>
      </trkpt>
      <trkpt lat="46.54821" lon="0.33111">
        <ele>174.97</ele>
        <time>2018-06-03T06:52:40.999Z</time>
      </trkpt>
      <trkpt lat="46.54821" lon="0.33097">
        <ele>175.41</ele>
        <time>2018-06-03T06:52:44.999Z</time>
      </trkpt>
      <trkpt lat="46.5482" lon="0.33083">
        <ele>175.96</ele>
        <time>2018-06-03T06:52:48.999Z</time>
      </trkpt>
      <trkpt lat="46.54819" lon="0.3307">
        <ele>176.71</ele>
        <time>2018-06-03T06:52:52.999Z</time>
      </trkpt>
      <trkpt lat="46.54817" lon="0.33057">
        <ele>177.43</ele>
        <time>2018-06-03T06:52:56.999Z</time>
      </trkpt>
      <trkpt lat="46.54815" lon="0.33038">
        <ele>178.16</ele>
        <time>2018-06-03T06:53:00.999Z</time>
      </trkpt>
      <trkpt lat="46.54815" lon="0.33023">
        <ele>178.98</ele>
        <time>2018-06-03T06:53:04.999Z</time>
      </trkpt>
      <trkpt lat="46.54815" lon="0.33009">
        <ele>179.4</ele>
        <time>2018-06-03T06:53:07.999Z</time>
      </trkpt>
      <trkpt lat="46.54816" lon="0.32994">
        <ele>179.88</ele>
        <time>2018-06-03T06:53:11.999Z</time>
      </trkpt>
      <trkpt lat="46.54814" lon="0.3298">
        <ele>180.35</ele>
        <time>2018-06-03T06:53:14.999Z</time>
      </trkpt>
      <trkpt lat="46.54814" lon="0.32963">
        <ele>180.91</ele>
        <time>2018-06-03T06:53:18.999Z</time>
      </trkpt>
      <trkpt lat="46.54815" lon="0.32946">
        <ele>181.17</ele>
        <time>2018-06-03T06:53:21.999Z</time>
      </trkpt>
      <trkpt lat="46.54816" lon="0.3293">
        <ele>181.3</ele>
        <time>2018-06-03T06:53:24.999Z</time>
      </trkpt>
      <trkpt lat="46.54817" lon="0.32912">
        <ele>181.34</ele>
        <time>2018-06-03T06:53:27.999Z</time>
      </trkpt>
      <trkpt lat="46.54813" lon="0.32897">
        <ele>181.42</ele>
        <time>2018-06-03T06:53:30.999Z</time>
      </trkpt>
      <trkpt lat="46.54809" lon="0.32883">
        <ele>181.5</ele>
        <time>2018-06-03T06:53:32.999Z</time>
      </trkpt>
      <trkpt lat="46.54805" lon="0.32869">
        <ele>181.64</ele>
        <time>2018-06-03T06:53:34.999Z</time>
      </trkpt>
      <trkpt lat="46.54797" lon="0.32874">
        <ele>181.93</ele>
        <time>2018-06-03T06:53:38.999Z</time>
      </trkpt>
      <trkpt lat="46.54791" lon="0.32884">
        <ele>182.05</ele>
        <time>2018-06-03T06:53:40.999Z</time>
      </trkpt>
      <trkpt lat="46.54786" lon="0.32903">
        <ele>182.33</ele>
        <time>2018-06-03T06:53:43.999Z</time>
      </trkpt>
      <trkpt lat="46.54784" lon="0.32917">
        <ele>182.52</ele>
        <time>2018-06-03T06:53:45.999Z</time>
      </trkpt>
      <trkpt lat="46.54778" lon="0.32931">
        <ele>182.84</ele>
        <time>2018-06-03T06:53:49.999Z</time>
      </trkpt>
      <trkpt lat="46.5477" lon="0.32938">
        <ele>183.06</ele>
        <time>2018-06-03T06:53:51.999Z</time>
      </trkpt>
      <trkpt lat="46.5476" lon="0.32946">
        <ele>183.39</ele>
        <time>2018-06-03T06:53:53.999Z</time>
      </trkpt>
      <trkpt lat="46.54746" lon="0.32956">
        <ele>184.01</ele>
        <time>2018-06-03T06:53:56.999Z</time>
      </trkpt>
      <trkpt lat="46.54734" lon="0.32966">
        <ele>184.44</ele>
        <time>2018-06-03T06:53:58.999Z</time>
      </trkpt>
      <trkpt lat="46.54726" lon="0.32978">
        <ele>185.05</ele>
        <time>2018-06-03T06:54:01.999Z</time>
      </trkpt>
      <trkpt lat="46.54716" lon="0.32971">
        <ele>185.75</ele>
        <time>2018-06-03T06:54:04.999Z</time>
      </trkpt>
      <trkpt lat="46.54705" lon="0.32961">
        <ele>186.2</ele>
        <time>2018-06-03T06:54:06.999Z</time>
      </trkpt>
      <trkpt lat="46.54697" lon="0.32951">
        <ele>186.74</ele>
        <time>2018-06-03T06:54:08.999Z</time>
      </trkpt>
      <trkpt lat="46.54687" lon="0.32948">
        <ele>186.96</ele>
        <time>2018-06-03T06:54:10.999Z</time>
      </trkpt>
      <trkpt lat="46.54679" lon="0.32937">
        <ele>186.99</ele>
        <time>2018-06-03T06:54:13.999Z</time>
      </trkpt>
      <trkpt lat="46.54685" lon="0.32923">
        <ele>186.95</ele>
        <time>2018-06-03T06:54:16.999Z</time>
      </trkpt>
      <trkpt lat="46.54683" lon="0.32905">
        <ele>186.86</ele>
        <time>2018-06-03T06:54:19.999Z</time>
      </trkpt>
      <trkpt lat="46.54673" lon="0.32896">
        <ele>186.72</ele>
        <time>2018-06-03T06:54:23.999Z</time>
      </trkpt>
      <trkpt lat="46.54664" lon="0.32892">
        <ele>186.76</ele>
        <time>2018-06-03T06:54:26.999Z</time>
      </trkpt>
      <trkpt lat="46.54659" lon="0.3288">
        <ele>187.04</ele>
        <time>2018-06-03T06:54:29.999Z</time>
      </trkpt>
      <trkpt lat="46.54648" lon="0.32872">
        <ele>187.6</ele>
        <time>2018-06-03T06:54:32.999Z</time>
      </trkpt>
      <trkpt lat="46.5464" lon="0.32863">
        <ele>188.16</ele>
        <time>2018-06-03T06:54:35.999Z</time>
      </trkpt>
      <trkpt lat="46.5463" lon="0.32858">
        <ele>188.97</ele>
        <time>2018-06-03T06:54:40.999Z</time>
      </trkpt>
      <trkpt lat="46.5462" lon="0.32848">
        <ele>189.27</ele>
        <time>2018-06-03T06:54:43.999Z</time>
      </trkpt>
      <trkpt lat="46.54614" lon="0.32834">
        <ele>189.37</ele>
        <time>2018-06-03T06:54:46.999Z</time>
      </trkpt>
      <trkpt lat="46.54607" lon="0.32817">
        <ele>189.31</ele>
        <time>2018-06-03T06:54:49.999Z</time>
      </trkpt>
      <trkpt lat="46.54597" lon="0.32803">
        <ele>189.08</ele>
        <time>2018-06-03T06:54:52.999Z</time>
      </trkpt>
      <trkpt lat="46.54591" lon="0.32791">
        <ele>188.51</ele>
        <time>2018-06-03T06:54:54.999Z</time>
      </trkpt>
      <trkpt lat="46.5458" lon="0.32786">
        <ele>188.49</ele>
        <time>2018-06-03T06:54:58.999Z</time>
      </trkpt>
      <trkpt lat="46.54573" lon="0.32767">
        <ele>188.45</ele>
        <time>2018-06-03T06:55:01.999Z</time>
      </trkpt>
      <trkpt lat="46.54567" lon="0.32757">
        <ele>188.31</ele>
        <time>2018-06-03T06:55:04.999Z</time>
      </trkpt>
      <trkpt lat="46.54561" lon="0.32743">
        <ele>187.99</ele>
        <time>2018-06-03T06:55:08.999Z</time>
      </trkpt>
      <trkpt lat="46.54553" lon="0.32733">
        <ele>187.67</ele>
        <time>2018-06-03T06:55:11.999Z</time>
      </trkpt>
      <trkpt lat="46.54543" lon="0.32726">
        <ele>186</ele>
        <time>2018-06-03T06:55:13.999Z</time>
      </trkpt>
      <trkpt lat="46.54533" lon="0.32715">
        <ele>185.73</ele>
        <time>2018-06-03T06:55:15.999Z</time>
      </trkpt>
      <trkpt lat="46.54524" lon="0.32707">
        <ele>185.23</ele>
        <time>2018-06-03T06:55:18.999Z</time>
      </trkpt>
      <trkpt lat="46.54524" lon="0.32691">
        <ele>184.44</ele>
        <time>2018-06-03T06:55:21.999Z</time>
      </trkpt>
      <trkpt lat="46.54521" lon="0.32675">
        <ele>183.49</ele>
        <time>2018-06-03T06:55:24.999Z</time>
      </trkpt>
      <trkpt lat="46.54512" lon="0.32679">
        <ele>182.54</ele>
        <time>2018-06-03T06:55:28.999Z</time>
      </trkpt>
      <trkpt lat="46.54502" lon="0.32686">
        <ele>182</ele>
        <time>2018-06-03T06:55:32.999Z</time>
      </trkpt>
      <trkpt lat="46.54493" lon="0.32688">
        <ele>181.97</ele>
        <time>2018-06-03T06:55:35.999Z</time>
      </trkpt>
      <trkpt lat="46.54481" lon="0.32691">
        <ele>183.3</ele>
        <time>2018-06-03T06:55:38.999Z</time>
      </trkpt>
      <trkpt lat="46.54469" lon="0.32692">
        <ele>184.56</ele>
        <time>2018-06-03T06:55:40.999Z</time>
      </trkpt>
      <trkpt lat="46.54458" lon="0.32696">
        <ele>184.88</ele>
        <time>2018-06-03T06:55:42.999Z</time>
      </trkpt>
      <trkpt lat="46.54441" lon="0.32702">
        <ele>183.3</ele>
        <time>2018-06-03T06:55:44.999Z</time>
      </trkpt>
      <trkpt lat="46.5443" lon="0.32702">
        <ele>180.94</ele>
        <time>2018-06-03T06:55:46.999Z</time>
      </trkpt>
      <trkpt lat="46.54418" lon="0.32703">
        <ele>179.18</ele>
        <time>2018-06-03T06:55:48.999Z</time>
      </trkpt>
      <trkpt lat="46.54406" lon="0.32699">
        <ele>178.85</ele>
        <time>2018-06-03T06:55:51.999Z</time>
      </trkpt>
      <trkpt lat="46.54396" lon="0.32701">
        <ele>178.54</ele>
        <time>2018-06-03T06:55:53.999Z</time>
      </trkpt>
      <trkpt lat="46.54387" lon="0.32691">
        <ele>177.79</ele>
        <time>2018-06-03T06:55:56.999Z</time>
      </trkpt>
      <trkpt lat="46.54377" lon="0.32687">
        <ele>176.87</ele>
        <time>2018-06-03T06:55:59.999Z</time>
      </trkpt>
      <trkpt lat="46.54371" lon="0.32675">
        <ele>175.24</ele>
        <time>2018-06-03T06:56:03.999Z</time>
      </trkpt>
      <trkpt lat="46.54364" lon="0.32663">
        <ele>173.3</ele>
        <time>2018-06-03T06:56:08.999Z</time>
      </trkpt>
      <trkpt lat="46.54353" lon="0.32657">
        <ele>172.15</ele>
        <time>2018-06-03T06:56:12.999Z</time>
      </trkpt>
      <trkpt lat="46.54347" lon="0.32646">
        <ele>170.77</ele>
        <time>2018-06-03T06:56:18.999Z</time>
      </trkpt>
      <trkpt lat="46.54342" lon="0.32636">
        <ele>169.43</ele>
        <time>2018-06-03T06:56:38.999Z</time>
      </trkpt>
      <trkpt lat="46.54331" lon="0.32636">
        <ele>169.59</ele>
        <time>2018-06-03T06:57:02.999Z</time>
      </trkpt>
      <trkpt lat="46.54321" lon="0.32632">
        <ele>169.68</ele>
        <time>2018-06-03T06:57:05.999Z</time>
      </trkpt>
      <trkpt lat="46.54316" lon="0.32621">
        <ele>168.87</ele>
        <time>2018-06-03T06:57:10.999Z</time>
      </trkpt>
      <trkpt lat="46.54309" lon="0.32612">
        <ele>168.35</ele>
        <time>2018-06-03T06:57:14.999Z</time>
      </trkpt>
      <trkpt lat="46.54302" lon="0.3262">
        <ele>168.34</ele>
        <time>2018-06-03T06:57:22.999Z</time>
      </trkpt>
      <trkpt lat="46.54297" lon="0.32633">
        <ele>168.85</ele>
        <time>2018-06-03T06:57:28.999Z</time>
      </trkpt>
      <trkpt lat="46.5429" lon="0.32642">
        <ele>169.38</ele>
        <time>2018-06-03T06:57:36.999Z</time>
      </trkpt>
      <trkpt lat="46.54281" lon="0.32637">
        <ele>169.41</ele>
        <time>2018-06-03T06:57:41.999Z</time>
      </trkpt>
      <trkpt lat="46.54274" lon="0.3263">
        <ele>169.19</ele>
        <time>2018-06-03T06:57:48.999Z</time>
      </trkpt>
      <trkpt lat="46.54263" lon="0.32627">
        <ele>168.55</ele>
        <time>2018-06-03T06:58:02.999Z</time>
      </trkpt>
      <trkpt lat="46.54255" lon="0.32624">
        <ele>168.65</ele>
        <time>2018-06-03T06:58:08.999Z</time>
      </trkpt>
      <trkpt lat="46.54247" lon="0.32616">
        <ele>169.17</ele>
        <time>2018-06-03T06:58:17.999Z</time>
      </trkpt>
      <trkpt lat="46.54241" lon="0.32604">
        <ele>169.64</ele>
        <time>2018-06-03T06:58:29.999Z</time>
      </trkpt>
      <trkpt lat="46.54236" lon="0.32593">
        <ele>170.3</ele>
        <time>2018-06-03T06:58:35.999Z</time>
      </trkpt>
      <trkpt lat="46.54235" lon="0.32578">
        <ele>170.7</ele>
        <time>2018-06-03T06:58:40.999Z</time>
      </trkpt>
      <trkpt lat="46.54227" lon="0.32572">
        <ele>171.28</ele>
        <time>2018-06-03T06:58:45.999Z</time>
      </trkpt>
      <trkpt lat="46.54219" lon="0.32581">
        <ele>173.26</ele>
        <time>2018-06-03T06:58:53.999Z</time>
      </trkpt>
      <trkpt lat="46.5421" lon="0.32592">
        <ele>174.29</ele>
        <time>2018-06-03T06:58:57.999Z</time>
      </trkpt>
      <trkpt lat="46.54199" lon="0.32593">
        <ele>174.61</ele>
        <time>2018-06-03T06:58:59.999Z</time>
      </trkpt>
      <trkpt lat="46.54188" lon="0.32597">
        <ele>175.04</ele>
        <time>2018-06-03T06:59:02.999Z</time>
      </trkpt>
      <trkpt lat="46.54178" lon="0.32598">
        <ele>175.41</ele>
        <time>2018-06-03T06:59:05.999Z</time>
      </trkpt>
      <trkpt lat="46.54165" lon="0.32603">
        <ele>177.09</ele>
        <time>2018-06-03T06:59:08.999Z</time>
      </trkpt>
      <trkpt lat="46.54152" lon="0.32608">
        <ele>177.04</ele>
        <time>2018-06-03T06:59:10.999Z</time>
      </trkpt>
      <trkpt lat="46.5414" lon="0.3261">
        <ele>176.66</ele>
        <time>2018-06-03T06:59:13.999Z</time>
      </trkpt>
      <trkpt lat="46.54129" lon="0.3261">
        <ele>176.17</ele>
        <time>2018-06-03T06:59:16.999Z</time>
      </trkpt>
      <trkpt lat="46.54122" lon="0.326">
        <ele>175.46</ele>
        <time>2018-06-03T06:59:20.999Z</time>
      </trkpt>
      <trkpt lat="46.54115" lon="0.32591">
        <ele>174.6</ele>
        <time>2018-06-03T06:59:24.999Z</time>
      </trkpt>
      <trkpt lat="46.54108" lon="0.32582">
        <ele>173.49</ele>
        <time>2018-06-03T06:59:28.999Z</time>
      </trkpt>
      <trkpt lat="46.54103" lon="0.3257">
        <ele>172.13</ele>
        <time>2018-06-03T06:59:32.999Z</time>
      </trkpt>
      <trkpt lat="46.54093" lon="0.32564">
        <ele>170.8</ele>
        <time>2018-06-03T06:59:37.999Z</time>
      </trkpt>
      <trkpt lat="46.54081" lon="0.32561">
        <ele>170.3</ele>
        <time>2018-06-03T06:59:42.999Z</time>
      </trkpt>
      <trkpt lat="46.54069" lon="0.32558">
        <ele>170.63</ele>
        <time>2018-06-03T06:59:47.999Z</time>
      </trkpt>
      <trkpt lat="46.54057" lon="0.32555">
        <ele>170.85</ele>
        <time>2018-06-03T06:59:50.999Z</time>
      </trkpt>
      <trkpt lat="46.5405" lon="0.32544">
        <ele>171.95</ele>
        <time>2018-06-03T06:59:56.999Z</time>
      </trkpt>
      <trkpt lat="46.54046" lon="0.32526">
        <ele>172.72</ele>
        <time>2018-06-03T06:59:59.999Z</time>
      </trkpt>
      <trkpt lat="46.54042" lon="0.32512">
        <ele>173.23</ele>
        <time>2018-06-03T07:00:02.999Z</time>
      </trkpt>
      <trkpt lat="46.54043" lon="0.32498">
        <ele>173.87</ele>
        <time>2018-06-03T07:00:06.999Z</time>
      </trkpt>
      <trkpt lat="46.54043" lon="0.32485">
        <ele>174.64</ele>
        <time>2018-06-03T07:00:11.999Z</time>
      </trkpt>
      <trkpt lat="46.54045" lon="0.3247">
        <ele>175.13</ele>
        <time>2018-06-03T07:00:15.999Z</time>
      </trkpt>
      <trkpt lat="46.54049" lon="0.32457">
        <ele>175.9</ele>
        <time>2018-06-03T07:00:19.999Z</time>
      </trkpt>
      <trkpt lat="46.54059" lon="0.32452">
        <ele>176.57</ele>
        <time>2018-06-03T07:00:27.999Z</time>
      </trkpt>
      <trkpt lat="46.5407" lon="0.32454">
        <ele>176.66</ele>
        <time>2018-06-03T07:00:30.999Z</time>
      </trkpt>
      <trkpt lat="46.5408" lon="0.32454">
        <ele>176.74</ele>
        <time>2018-06-03T07:00:33.999Z</time>
      </trkpt>
      <trkpt lat="46.54089" lon="0.32457">
        <ele>176.71</ele>
        <time>2018-06-03T07:00:35.999Z</time>
      </trkpt>
      <trkpt lat="46.54099" lon="0.32457">
        <ele>176.84</ele>
        <time>2018-06-03T07:00:38.999Z</time>
      </trkpt>
      <trkpt lat="46.54106" lon="0.32466">
        <ele>177.14</ele>
        <time>2018-06-03T07:00:41.999Z</time>
      </trkpt>
      <trkpt lat="46.54117" lon="0.32466">
        <ele>178.11</ele>
        <time>2018-06-03T07:00:47.999Z</time>
      </trkpt>
      <trkpt lat="46.54126" lon="0.32474">
        <ele>178.58</ele>
        <time>2018-06-03T07:00:50.999Z</time>
      </trkpt>
      <trkpt lat="46.54136" lon="0.32472">
        <ele>179.08</ele>
        <time>2018-06-03T07:00:55.999Z</time>
      </trkpt>
      <trkpt lat="46.54146" lon="0.32479">
        <ele>179.37</ele>
        <time>2018-06-03T07:00:59.999Z</time>
      </trkpt>
      <trkpt lat="46.54155" lon="0.32487">
        <ele>179.53</ele>
        <time>2018-06-03T07:01:01.999Z</time>
      </trkpt>
      <trkpt lat="46.54163" lon="0.32495">
        <ele>179.78</ele>
        <time>2018-06-03T07:01:03.999Z</time>
      </trkpt>
      <trkpt lat="46.54169" lon="0.32505">
        <ele>180.43</ele>
        <time>2018-06-03T07:01:07.999Z</time>
      </trkpt>
      <trkpt lat="46.54177" lon="0.3251">
        <ele>181.36</ele>
        <time>2018-06-03T07:01:15.999Z</time>
      </trkpt>
      <trkpt lat="46.54186" lon="0.32506">
        <ele>181.91</ele>
        <time>2018-06-03T07:01:18.999Z</time>
      </trkpt>
      <trkpt lat="46.54197" lon="0.32502">
        <ele>182.43</ele>
        <time>2018-06-03T07:01:22.999Z</time>
      </trkpt>
      <trkpt lat="46.54207" lon="0.32496">
        <ele>182.78</ele>
        <time>2018-06-03T07:01:26.999Z</time>
      </trkpt>
      <trkpt lat="46.54218" lon="0.32496">
        <ele>183.1</ele>
        <time>2018-06-03T07:01:29.999Z</time>
      </trkpt>
      <trkpt lat="46.54227" lon="0.32498">
        <ele>183.57</ele>
        <time>2018-06-03T07:01:33.999Z</time>
      </trkpt>
      <trkpt lat="46.54237" lon="0.32495">
        <ele>184.01</ele>
        <time>2018-06-03T07:01:37.999Z</time>
      </trkpt>
      <trkpt lat="46.54249" lon="0.32496">
        <ele>184.44</ele>
        <time>2018-06-03T07:01:40.999Z</time>
      </trkpt>
      <trkpt lat="46.5426" lon="0.32496">
        <ele>185.01</ele>
        <time>2018-06-03T07:01:43.999Z</time>
      </trkpt>
      <trkpt lat="46.5427" lon="0.32492">
        <ele>185.75</ele>
        <time>2018-06-03T07:01:46.999Z</time>
      </trkpt>
      <trkpt lat="46.54281" lon="0.3249">
        <ele>186.61</ele>
        <time>2018-06-03T07:01:49.999Z</time>
      </trkpt>
      <trkpt lat="46.54292" lon="0.3249">
        <ele>187.9</ele>
        <time>2018-06-03T07:01:54.999Z</time>
      </trkpt>
      <trkpt lat="46.54302" lon="0.32487">
        <ele>188.71</ele>
        <time>2018-06-03T07:01:57.999Z</time>
      </trkpt>
      <trkpt lat="46.54313" lon="0.32481">
        <ele>189.37</ele>
        <time>2018-06-03T07:02:00.999Z</time>
      </trkpt>
      <trkpt lat="46.54323" lon="0.32479">
        <ele>189.75</ele>
        <time>2018-06-03T07:02:02.999Z</time>
      </trkpt>
      <trkpt lat="46.54333" lon="0.32476">
        <ele>190.1</ele>
        <time>2018-06-03T07:02:04.999Z</time>
      </trkpt>
      <trkpt lat="46.54344" lon="0.32474">
        <ele>190.41</ele>
        <time>2018-06-03T07:02:07.999Z</time>
      </trkpt>
      <trkpt lat="46.54356" lon="0.32473">
        <ele>190.38</ele>
        <time>2018-06-03T07:02:09.999Z</time>
      </trkpt>
      <trkpt lat="46.54367" lon="0.32474">
        <ele>190.3</ele>
        <time>2018-06-03T07:02:12.999Z</time>
      </trkpt>
      <trkpt lat="46.54376" lon="0.32471">
        <ele>190.26</ele>
        <time>2018-06-03T07:02:15.999Z</time>
      </trkpt>
      <trkpt lat="46.54387" lon="0.32472">
        <ele>190.11</ele>
        <time>2018-06-03T07:02:18.999Z</time>
      </trkpt>
      <trkpt lat="46.54398" lon="0.32472">
        <ele>190.03</ele>
        <time>2018-06-03T07:02:21.999Z</time>
      </trkpt>
      <trkpt lat="46.54411" lon="0.32474">
        <ele>189.9</ele>
        <time>2018-06-03T07:02:24.999Z</time>
      </trkpt>
      <trkpt lat="46.54422" lon="0.32472">
        <ele>189.86</ele>
        <time>2018-06-03T07:02:26.999Z</time>
      </trkpt>
      <trkpt lat="46.54432" lon="0.32475">
        <ele>189.79</ele>
        <time>2018-06-03T07:02:28.999Z</time>
      </trkpt>
      <trkpt lat="46.54444" lon="0.32477">
        <ele>189.78</ele>
        <time>2018-06-03T07:02:31.999Z</time>
      </trkpt>
      <trkpt lat="46.54453" lon="0.32478">
        <ele>189.91</ele>
        <time>2018-06-03T07:02:33.999Z</time>
      </trkpt>
      <trkpt lat="46.54462" lon="0.32479">
        <ele>190.16</ele>
        <time>2018-06-03T07:02:36.999Z</time>
      </trkpt>
      <trkpt lat="46.54473" lon="0.32476">
        <ele>190.31</ele>
        <time>2018-06-03T07:02:39.999Z</time>
      </trkpt>
      <trkpt lat="46.54482" lon="0.3247">
        <ele>190.41</ele>
        <time>2018-06-03T07:02:41.999Z</time>
      </trkpt>
      <trkpt lat="46.54491" lon="0.32467">
        <ele>190.53</ele>
        <time>2018-06-03T07:02:43.999Z</time>
      </trkpt>
      <trkpt lat="46.54501" lon="0.32465">
        <ele>190.7</ele>
        <time>2018-06-03T07:02:45.999Z</time>
      </trkpt>
      <trkpt lat="46.54514" lon="0.32459">
        <ele>190.82</ele>
        <time>2018-06-03T07:02:47.999Z</time>
      </trkpt>
      <trkpt lat="46.54525" lon="0.32457">
        <ele>190.9</ele>
        <time>2018-06-03T07:02:50.999Z</time>
      </trkpt>
      <trkpt lat="46.54534" lon="0.3245">
        <ele>190.98</ele>
        <time>2018-06-03T07:02:52.999Z</time>
      </trkpt>
      <trkpt lat="46.54545" lon="0.32439">
        <ele>190.31</ele>
        <time>2018-06-03T07:02:55.999Z</time>
      </trkpt>
      <trkpt lat="46.54556" lon="0.32435">
        <ele>190.18</ele>
        <time>2018-06-03T07:02:58.999Z</time>
      </trkpt>
      <trkpt lat="46.54567" lon="0.3243">
        <ele>189.81</ele>
        <time>2018-06-03T07:03:01.999Z</time>
      </trkpt>
      <trkpt lat="46.54575" lon="0.3242">
        <ele>189.55</ele>
        <time>2018-06-03T07:03:04.999Z</time>
      </trkpt>
      <trkpt lat="46.54582" lon="0.3241">
        <ele>189.3</ele>
        <time>2018-06-03T07:03:07.999Z</time>
      </trkpt>
      <trkpt lat="46.54589" lon="0.32399">
        <ele>188.92</ele>
        <time>2018-06-03T07:03:10.999Z</time>
      </trkpt>
      <trkpt lat="46.54597" lon="0.32386">
        <ele>186.36</ele>
        <time>2018-06-03T07:03:13.999Z</time>
      </trkpt>
      <trkpt lat="46.54606" lon="0.32375">
        <ele>185.63</ele>
        <time>2018-06-03T07:03:16.999Z</time>
      </trkpt>
      <trkpt lat="46.54614" lon="0.32368">
        <ele>184.78</ele>
        <time>2018-06-03T07:03:18.999Z</time>
      </trkpt>
      <trkpt lat="46.54625" lon="0.3236">
        <ele>183.68</ele>
        <time>2018-06-03T07:03:21.999Z</time>
      </trkpt>
      <trkpt lat="46.54633" lon="0.32354">
        <ele>183.32</ele>
        <time>2018-06-03T07:03:23.999Z</time>
      </trkpt>
      <trkpt lat="46.54645" lon="0.32348">
        <ele>182.67</ele>
        <time>2018-06-03T07:03:26.999Z</time>
      </trkpt>
      <trkpt lat="46.54654" lon="0.32342">
        <ele>181.54</ele>
        <time>2018-06-03T07:03:28.999Z</time>
      </trkpt>
      <trkpt lat="46.54662" lon="0.32333">
        <ele>180.26</ele>
        <time>2018-06-03T07:03:30.999Z</time>
      </trkpt>
      <trkpt lat="46.54672" lon="0.32321">
        <ele>179.24</ele>
        <time>2018-06-03T07:03:33.999Z</time>
      </trkpt>
      <trkpt lat="46.54679" lon="0.32312">
        <ele>179.3</ele>
        <time>2018-06-03T07:03:35.999Z</time>
      </trkpt>
      <trkpt lat="46.54689" lon="0.323">
        <ele>179.9</ele>
        <time>2018-06-03T07:03:38.999Z</time>
      </trkpt>
      <trkpt lat="46.54697" lon="0.32292">
        <ele>180.02</ele>
        <time>2018-06-03T07:03:40.999Z</time>
      </trkpt>
      <trkpt lat="46.54705" lon="0.32282">
        <ele>180.03</ele>
        <time>2018-06-03T07:03:42.999Z</time>
      </trkpt>
      <trkpt lat="46.54713" lon="0.32273">
        <ele>179.99</ele>
        <time>2018-06-03T07:03:44.999Z</time>
      </trkpt>
      <trkpt lat="46.54721" lon="0.32265">
        <ele>180.55</ele>
        <time>2018-06-03T07:03:46.999Z</time>
      </trkpt>
      <trkpt lat="46.54731" lon="0.32254">
        <ele>182.23</ele>
        <time>2018-06-03T07:03:49.999Z</time>
      </trkpt>
      <trkpt lat="46.54739" lon="0.32247">
        <ele>183.47</ele>
        <time>2018-06-03T07:03:51.999Z</time>
      </trkpt>
      <trkpt lat="46.54747" lon="0.3224">
        <ele>184.58</ele>
        <time>2018-06-03T07:03:53.999Z</time>
      </trkpt>
      <trkpt lat="46.54755" lon="0.32233">
        <ele>185.64</ele>
        <time>2018-06-03T07:03:55.999Z</time>
      </trkpt>
      <trkpt lat="46.54767" lon="0.32225">
        <ele>186.44</ele>
        <time>2018-06-03T07:03:58.999Z</time>
      </trkpt>
      <trkpt lat="46.54778" lon="0.32218">
        <ele>186.74</ele>
        <time>2018-06-03T07:04:01.999Z</time>
      </trkpt>
      <trkpt lat="46.5479" lon="0.32212">
        <ele>186.47</ele>
        <time>2018-06-03T07:04:04.999Z</time>
      </trkpt>
      <trkpt lat="46.548" lon="0.32208">
        <ele>187.51</ele>
        <time>2018-06-03T07:04:07.999Z</time>
      </trkpt>
      <trkpt lat="46.54811" lon="0.32204">
        <ele>187.97</ele>
        <time>2018-06-03T07:04:10.999Z</time>
      </trkpt>
      <trkpt lat="46.54823" lon="0.32199">
        <ele>188.28</ele>
        <time>2018-06-03T07:04:13.999Z</time>
      </trkpt>
      <trkpt lat="46.54836" lon="0.32195">
        <ele>187.5</ele>
        <time>2018-06-03T07:04:16.999Z</time>
      </trkpt>
      <trkpt lat="46.54845" lon="0.32191">
        <ele>186.57</ele>
        <time>2018-06-03T07:04:18.999Z</time>
      </trkpt>
      <trkpt lat="46.54856" lon="0.32185">
        <ele>186.05</ele>
        <time>2018-06-03T07:04:21.999Z</time>
      </trkpt>
      <trkpt lat="46.54868" lon="0.32177">
        <ele>185.7</ele>
        <time>2018-06-03T07:04:24.999Z</time>
      </trkpt>
      <trkpt lat="46.54877" lon="0.32171">
        <ele>185.55</ele>
        <time>2018-06-03T07:04:26.999Z</time>
      </trkpt>
      <trkpt lat="46.54888" lon="0.32164">
        <ele>185.68</ele>
        <time>2018-06-03T07:04:29.999Z</time>
      </trkpt>
      <trkpt lat="46.54897" lon="0.32159">
        <ele>184.78</ele>
        <time>2018-06-03T07:04:32.999Z</time>
      </trkpt>
      <trkpt lat="46.54908" lon="0.32154">
        <ele>184.66</ele>
        <time>2018-06-03T07:04:35.999Z</time>
      </trkpt>
      <trkpt lat="46.54911" lon="0.3214">
        <ele>184.71</ele>
        <time>2018-06-03T07:04:38.999Z</time>
      </trkpt>
      <trkpt lat="46.54907" lon="0.32124">
        <ele>184.73</ele>
        <time>2018-06-03T07:04:41.999Z</time>
      </trkpt>
      <trkpt lat="46.54901" lon="0.32112">
        <ele>184.36</ele>
        <time>2018-06-03T07:04:43.999Z</time>
      </trkpt>
      <trkpt lat="46.54895" lon="0.321">
        <ele>183.86</ele>
        <time>2018-06-03T07:04:45.999Z</time>
      </trkpt>
      <trkpt lat="46.54891" lon="0.32088">
        <ele>183.34</ele>
        <time>2018-06-03T07:04:47.999Z</time>
      </trkpt>
      <trkpt lat="46.54886" lon="0.32077">
        <ele>182.82</ele>
        <time>2018-06-03T07:04:49.999Z</time>
      </trkpt>
      <trkpt lat="46.54876" lon="0.32065">
        <ele>182.66</ele>
        <time>2018-06-03T07:04:52.999Z</time>
      </trkpt>
      <trkpt lat="46.54866" lon="0.32066">
        <ele>182.4</ele>
        <time>2018-06-03T07:04:54.999Z</time>
      </trkpt>
      <trkpt lat="46.54858" lon="0.32071">
        <ele>182.77</ele>
        <time>2018-06-03T07:04:56.999Z</time>
      </trkpt>
      <trkpt lat="46.5485" lon="0.3208">
        <ele>183.16</ele>
        <time>2018-06-03T07:04:58.999Z</time>
      </trkpt>
      <trkpt lat="46.54837" lon="0.32087">
        <ele>183.24</ele>
        <time>2018-06-03T07:05:01.999Z</time>
      </trkpt>
      <trkpt lat="46.54825" lon="0.32086">
        <ele>182.51</ele>
        <time>2018-06-03T07:05:03.999Z</time>
      </trkpt>
      <trkpt lat="46.54811" lon="0.32084">
        <ele>181.51</ele>
        <time>2018-06-03T07:05:05.999Z</time>
      </trkpt>
      <trkpt lat="46.54802" lon="0.32081">
        <ele>181.09</ele>
        <time>2018-06-03T07:05:07.999Z</time>
      </trkpt>
      <trkpt lat="46.54795" lon="0.32066">
        <ele>179.86</ele>
        <time>2018-06-03T07:05:11.999Z</time>
      </trkpt>
      <trkpt lat="46.54796" lon="0.32047">
        <ele>179.71</ele>
        <time>2018-06-03T07:05:14.999Z</time>
      </trkpt>
      <trkpt lat="46.54795" lon="0.32029">
        <ele>179.5</ele>
        <time>2018-06-03T07:05:18.999Z</time>
      </trkpt>
      <trkpt lat="46.54799" lon="0.32015">
        <ele>179.56</ele>
        <time>2018-06-03T07:05:21.999Z</time>
      </trkpt>
      <trkpt lat="46.548" lon="0.31998">
        <ele>179.64</ele>
        <time>2018-06-03T07:05:25.999Z</time>
      </trkpt>
      <trkpt lat="46.54804" lon="0.31981">
        <ele>179.58</ele>
        <time>2018-06-03T07:05:28.999Z</time>
      </trkpt>
      <trkpt lat="46.54798" lon="0.3197">
        <ele>179.56</ele>
        <time>2018-06-03T07:05:31.999Z</time>
      </trkpt>
      <trkpt lat="46.54787" lon="0.31967">
        <ele>179.86</ele>
        <time>2018-06-03T07:05:34.999Z</time>
      </trkpt>
      <trkpt lat="46.54776" lon="0.31969">
        <ele>180.6</ele>
        <time>2018-06-03T07:05:38.999Z</time>
      </trkpt>
      <trkpt lat="46.54767" lon="0.31971">
        <ele>181</ele>
        <time>2018-06-03T07:05:40.999Z</time>
      </trkpt>
      <trkpt lat="46.54757" lon="0.31977">
        <ele>181.52</ele>
        <time>2018-06-03T07:05:43.999Z</time>
      </trkpt>
      <trkpt lat="46.54745" lon="0.31978">
        <ele>182.12</ele>
        <time>2018-06-03T07:05:46.999Z</time>
      </trkpt>
      <trkpt lat="46.54734" lon="0.31978">
        <ele>182.62</ele>
        <time>2018-06-03T07:05:50.999Z</time>
      </trkpt>
      <trkpt lat="46.54727" lon="0.31985">
        <ele>183.03</ele>
        <time>2018-06-03T07:05:54.999Z</time>
      </trkpt>
      <trkpt lat="46.54725" lon="0.31998">
        <ele>183.6</ele>
        <time>2018-06-03T07:05:58.999Z</time>
      </trkpt>
      <trkpt lat="46.54714" lon="0.32008">
        <ele>184.02</ele>
        <time>2018-06-03T07:06:01.999Z</time>
      </trkpt>
      <trkpt lat="46.54702" lon="0.32007">
        <ele>184.6</ele>
        <time>2018-06-03T07:06:05.999Z</time>
      </trkpt>
      <trkpt lat="46.54692" lon="0.32006">
        <ele>185.1</ele>
        <time>2018-06-03T07:06:09.999Z</time>
      </trkpt>
      <trkpt lat="46.54683" lon="0.32008">
        <ele>185.37</ele>
        <time>2018-06-03T07:06:12.999Z</time>
      </trkpt>
      <trkpt lat="46.54671" lon="0.32009">
        <ele>185.76</ele>
        <time>2018-06-03T07:06:16.999Z</time>
      </trkpt>
      <trkpt lat="46.5466" lon="0.32007">
        <ele>186.32</ele>
        <time>2018-06-03T07:06:20.999Z</time>
      </trkpt>
      <trkpt lat="46.54651" lon="0.32004">
        <ele>186.71</ele>
        <time>2018-06-03T07:06:23.999Z</time>
      </trkpt>
      <trkpt lat="46.5464" lon="0.32004">
        <ele>187.12</ele>
        <time>2018-06-03T07:06:27.999Z</time>
      </trkpt>
      <trkpt lat="46.54631" lon="0.32004">
        <ele>187.38</ele>
        <time>2018-06-03T07:06:30.999Z</time>
      </trkpt>
      <trkpt lat="46.54619" lon="0.32006">
        <ele>187.66</ele>
        <time>2018-06-03T07:06:33.999Z</time>
      </trkpt>
      <trkpt lat="46.54609" lon="0.32008">
        <ele>189.19</ele>
        <time>2018-06-03T07:06:35.999Z</time>
      </trkpt>
      <trkpt lat="46.546" lon="0.32008">
        <ele>189.53</ele>
        <time>2018-06-03T07:06:37.999Z</time>
      </trkpt>
      <trkpt lat="46.54591" lon="0.3201">
        <ele>188.86</ele>
        <time>2018-06-03T07:06:39.999Z</time>
      </trkpt>
      <trkpt lat="46.54578" lon="0.32013">
        <ele>188.21</ele>
        <time>2018-06-03T07:06:42.999Z</time>
      </trkpt>
      <trkpt lat="46.54567" lon="0.32014">
        <ele>188.63</ele>
        <time>2018-06-03T07:06:45.999Z</time>
      </trkpt>
      <trkpt lat="46.54557" lon="0.32013">
        <ele>189.38</ele>
        <time>2018-06-03T07:06:47.999Z</time>
      </trkpt>
      <trkpt lat="46.54548" lon="0.3201">
        <ele>189.81</ele>
        <time>2018-06-03T07:06:49.999Z</time>
      </trkpt>
      <trkpt lat="46.5454" lon="0.32005">
        <ele>190.12</ele>
        <time>2018-06-03T07:06:51.999Z</time>
      </trkpt>
      <trkpt lat="46.54531" lon="0.32">
        <ele>190.56</ele>
        <time>2018-06-03T07:06:53.999Z</time>
      </trkpt>
      <trkpt lat="46.54519" lon="0.32004">
        <ele>190.64</ele>
        <time>2018-06-03T07:06:56.999Z</time>
      </trkpt>
      <trkpt lat="46.54512" lon="0.32017">
        <ele>188.37</ele>
        <time>2018-06-03T07:06:59.999Z</time>
      </trkpt>
      <trkpt lat="46.54503" lon="0.32031">
        <ele>185.94</ele>
        <time>2018-06-03T07:07:02.999Z</time>
      </trkpt>
      <trkpt lat="46.54495" lon="0.32041">
        <ele>185.5</ele>
        <time>2018-06-03T07:07:05.999Z</time>
      </trkpt>
      <trkpt lat="46.54486" lon="0.32045">
        <ele>185.46</ele>
        <time>2018-06-03T07:07:10.999Z</time>
      </trkpt>
      <trkpt lat="46.54483" lon="0.32031">
        <ele>185.62</ele>
        <time>2018-06-03T07:07:15.999Z</time>
      </trkpt>
      <trkpt lat="46.5448" lon="0.32018">
        <ele>185.83</ele>
        <time>2018-06-03T07:07:18.999Z</time>
      </trkpt>
      <trkpt lat="46.54477" lon="0.32003">
        <ele>186.05</ele>
        <time>2018-06-03T07:07:22.999Z</time>
      </trkpt>
      <trkpt lat="46.54467" lon="0.31997">
        <ele>187.43</ele>
        <time>2018-06-03T07:07:25.999Z</time>
      </trkpt>
      <trkpt lat="46.54458" lon="0.31996">
        <ele>187.55</ele>
        <time>2018-06-03T07:07:29.999Z</time>
      </trkpt>
      <trkpt lat="46.54448" lon="0.31994">
        <ele>187.62</ele>
        <time>2018-06-03T07:07:31.999Z</time>
      </trkpt>
      <trkpt lat="46.54438" lon="0.31992">
        <ele>187.74</ele>
        <time>2018-06-03T07:07:33.999Z</time>
      </trkpt>
      <trkpt lat="46.54429" lon="0.31989">
        <ele>187.85</ele>
        <time>2018-06-03T07:07:36.999Z</time>
      </trkpt>
      <trkpt lat="46.54426" lon="0.31976">
        <ele>187.82</ele>
        <time>2018-06-03T07:07:39.999Z</time>
      </trkpt>
      <trkpt lat="46.54422" lon="0.31963">
        <ele>187.65</ele>
        <time>2018-06-03T07:07:41.999Z</time>
      </trkpt>
      <trkpt lat="46.54416" lon="0.31951">
        <ele>187.39</ele>
        <time>2018-06-03T07:07:44.999Z</time>
      </trkpt>
      <trkpt lat="46.54413" lon="0.31937">
        <ele>187.09</ele>
        <time>2018-06-03T07:07:47.999Z</time>
      </trkpt>
      <trkpt lat="46.54408" lon="0.31921">
        <ele>186.89</ele>
        <time>2018-06-03T07:07:49.999Z</time>
      </trkpt>
      <trkpt lat="46.54408" lon="0.31902">
        <ele>186.58</ele>
        <time>2018-06-03T07:07:53.999Z</time>
      </trkpt>
      <trkpt lat="46.54404" lon="0.31887">
        <ele>186.52</ele>
        <time>2018-06-03T07:07:56.999Z</time>
      </trkpt>
      <trkpt lat="46.54403" lon="0.31871">
        <ele>186.57</ele>
        <time>2018-06-03T07:08:00.999Z</time>
      </trkpt>
      <trkpt lat="46.54413" lon="0.31864">
        <ele>186.56</ele>
        <time>2018-06-03T07:08:05.999Z</time>
      </trkpt>
      <trkpt lat="46.54421" lon="0.31857">
        <ele>186.57</ele>
        <time>2018-06-03T07:08:07.999Z</time>
      </trkpt>
      <trkpt lat="46.5443" lon="0.31843">
        <ele>186.69</ele>
        <time>2018-06-03T07:08:10.999Z</time>
      </trkpt>
      <trkpt lat="46.5443" lon="0.31829">
        <ele>186.97</ele>
        <time>2018-06-03T07:08:13.999Z</time>
      </trkpt>
      <trkpt lat="46.5443" lon="0.31813">
        <ele>187.32</ele>
        <time>2018-06-03T07:08:16.999Z</time>
      </trkpt>
      <trkpt lat="46.54439" lon="0.31804">
        <ele>187.58</ele>
        <time>2018-06-03T07:08:19.999Z</time>
      </trkpt>
      <trkpt lat="46.54451" lon="0.31795">
        <ele>187.93</ele>
        <time>2018-06-03T07:08:22.999Z</time>
      </trkpt>
      <trkpt lat="46.54459" lon="0.31789">
        <ele>187.59</ele>
        <time>2018-06-03T07:08:24.999Z</time>
      </trkpt>
      <trkpt lat="46.54468" lon="0.3178">
        <ele>187.37</ele>
        <time>2018-06-03T07:08:27.999Z</time>
      </trkpt>
      <trkpt lat="46.54479" lon="0.31772">
        <ele>187.09</ele>
        <time>2018-06-03T07:08:32.999Z</time>
      </trkpt>
      <trkpt lat="46.54483" lon="0.3176">
        <ele>187.19</ele>
        <time>2018-06-03T07:08:35.999Z</time>
      </trkpt>
      <trkpt lat="46.54482" lon="0.31747">
        <ele>187.31</ele>
        <time>2018-06-03T07:08:38.999Z</time>
      </trkpt>
      <trkpt lat="46.54475" lon="0.31733">
        <ele>187.44</ele>
        <time>2018-06-03T07:08:41.999Z</time>
      </trkpt>
      <trkpt lat="46.54468" lon="0.31718">
        <ele>188.82</ele>
        <time>2018-06-03T07:08:44.999Z</time>
      </trkpt>
      <trkpt lat="46.54463" lon="0.31703">
        <ele>189.96</ele>
        <time>2018-06-03T07:08:47.999Z</time>
      </trkpt>
      <trkpt lat="46.54461" lon="0.31688">
        <ele>190.81</ele>
        <time>2018-06-03T07:08:50.999Z</time>
      </trkpt>
      <trkpt lat="46.54462" lon="0.31672">
        <ele>190.5</ele>
        <time>2018-06-03T07:08:53.999Z</time>
      </trkpt>
      <trkpt lat="46.54468" lon="0.31651">
        <ele>189.78</ele>
        <time>2018-06-03T07:08:56.999Z</time>
      </trkpt>
      <trkpt lat="46.54472" lon="0.31639">
        <ele>189.33</ele>
        <time>2018-06-03T07:08:58.999Z</time>
      </trkpt>
      <trkpt lat="46.54476" lon="0.31627">
        <ele>189.31</ele>
        <time>2018-06-03T07:09:00.999Z</time>
      </trkpt>
      <trkpt lat="46.5448" lon="0.31614">
        <ele>189.84</ele>
        <time>2018-06-03T07:09:02.999Z</time>
      </trkpt>
      <trkpt lat="46.54488" lon="0.31597">
        <ele>189.57</ele>
        <time>2018-06-03T07:09:05.999Z</time>
      </trkpt>
      <trkpt lat="46.54493" lon="0.31585">
        <ele>188.96</ele>
        <time>2018-06-03T07:09:07.999Z</time>
      </trkpt>
      <trkpt lat="46.54498" lon="0.31572">
        <ele>188.57</ele>
        <time>2018-06-03T07:09:09.999Z</time>
      </trkpt>
      <trkpt lat="46.54502" lon="0.31558">
        <ele>188.47</ele>
        <time>2018-06-03T07:09:11.999Z</time>
      </trkpt>
      <trkpt lat="46.54508" lon="0.31545">
        <ele>188.32</ele>
        <time>2018-06-03T07:09:13.999Z</time>
      </trkpt>
      <trkpt lat="46.54518" lon="0.31534">
        <ele>188.43</ele>
        <time>2018-06-03T07:09:16.999Z</time>
      </trkpt>
      <trkpt lat="46.5453" lon="0.31528">
        <ele>188.59</ele>
        <time>2018-06-03T07:09:19.999Z</time>
      </trkpt>
      <trkpt lat="46.54536" lon="0.31514">
        <ele>188.99</ele>
        <time>2018-06-03T07:09:22.999Z</time>
      </trkpt>
      <trkpt lat="46.54533" lon="0.315">
        <ele>189.01</ele>
        <time>2018-06-03T07:09:24.999Z</time>
      </trkpt>
      <trkpt lat="46.54524" lon="0.31492">
        <ele>189.26</ele>
        <time>2018-06-03T07:09:26.999Z</time>
      </trkpt>
      <trkpt lat="46.54514" lon="0.31489">
        <ele>189.91</ele>
        <time>2018-06-03T07:09:28.999Z</time>
      </trkpt>
      <trkpt lat="46.54504" lon="0.31482">
        <ele>190.39</ele>
        <time>2018-06-03T07:09:30.999Z</time>
      </trkpt>
      <trkpt lat="46.54496" lon="0.31473">
        <ele>190.86</ele>
        <time>2018-06-03T07:09:32.999Z</time>
      </trkpt>
      <trkpt lat="46.5449" lon="0.31461">
        <ele>191.28</ele>
        <time>2018-06-03T07:09:34.999Z</time>
      </trkpt>
      <trkpt lat="46.54483" lon="0.3145">
        <ele>191.9</ele>
        <time>2018-06-03T07:09:36.999Z</time>
      </trkpt>
      <trkpt lat="46.54475" lon="0.31438">
        <ele>192.26</ele>
        <time>2018-06-03T07:09:38.999Z</time>
      </trkpt>
      <trkpt lat="46.54467" lon="0.31423">
        <ele>192.37</ele>
        <time>2018-06-03T07:09:40.999Z</time>
      </trkpt>
      <trkpt lat="46.5446" lon="0.3141">
        <ele>192.51</ele>
        <time>2018-06-03T07:09:42.999Z</time>
      </trkpt>
      <trkpt lat="46.54454" lon="0.31397">
        <ele>192.77</ele>
        <time>2018-06-03T07:09:44.999Z</time>
      </trkpt>
      <trkpt lat="46.54446" lon="0.31385">
        <ele>192.91</ele>
        <time>2018-06-03T07:09:47.999Z</time>
      </trkpt>
      <trkpt lat="46.54441" lon="0.31372">
        <ele>192.93</ele>
        <time>2018-06-03T07:09:50.999Z</time>
      </trkpt>
      <trkpt lat="46.54444" lon="0.31358">
        <ele>192.84</ele>
        <time>2018-06-03T07:09:54.999Z</time>
      </trkpt>
      <trkpt lat="46.54453" lon="0.31355">
        <ele>192.61</ele>
        <time>2018-06-03T07:09:57.999Z</time>
      </trkpt>
      <trkpt lat="46.54465" lon="0.31353">
        <ele>192.46</ele>
        <time>2018-06-03T07:10:00.999Z</time>
      </trkpt>
      <trkpt lat="46.54478" lon="0.31353">
        <ele>192.47</ele>
        <time>2018-06-03T07:10:03.999Z</time>
      </trkpt>
      <trkpt lat="46.54489" lon="0.31353">
        <ele>192.56</ele>
        <time>2018-06-03T07:10:06.999Z</time>
      </trkpt>
      <trkpt lat="46.545" lon="0.31354">
        <ele>192.99</ele>
        <time>2018-06-03T07:10:09.999Z</time>
      </trkpt>
      <trkpt lat="46.5451" lon="0.31356">
        <ele>193.28</ele>
        <time>2018-06-03T07:10:11.999Z</time>
      </trkpt>
      <trkpt lat="46.5452" lon="0.31357">
        <ele>193.33</ele>
        <time>2018-06-03T07:10:13.999Z</time>
      </trkpt>
      <trkpt lat="46.5453" lon="0.31358">
        <ele>193.4</ele>
        <time>2018-06-03T07:10:16.999Z</time>
      </trkpt>
      <trkpt lat="46.5454" lon="0.31357">
        <ele>193.44</ele>
        <time>2018-06-03T07:10:18.999Z</time>
      </trkpt>
      <trkpt lat="46.54549" lon="0.31359">
        <ele>194.32</ele>
        <time>2018-06-03T07:10:20.999Z</time>
      </trkpt>
      <trkpt lat="46.54559" lon="0.31361">
        <ele>194.39</ele>
        <time>2018-06-03T07:10:22.999Z</time>
      </trkpt>
      <trkpt lat="46.54568" lon="0.31364">
        <ele>194.5</ele>
        <time>2018-06-03T07:10:24.999Z</time>
      </trkpt>
      <trkpt lat="46.54578" lon="0.31364">
        <ele>195.33</ele>
        <time>2018-06-03T07:10:26.999Z</time>
      </trkpt>
      <trkpt lat="46.54588" lon="0.31364">
        <ele>196.46</ele>
        <time>2018-06-03T07:10:28.999Z</time>
      </trkpt>
      <trkpt lat="46.54601" lon="0.31362">
        <ele>198.8</ele>
        <time>2018-06-03T07:10:31.999Z</time>
      </trkpt>
      <trkpt lat="46.54613" lon="0.31358">
        <ele>198.99</ele>
        <time>2018-06-03T07:10:33.999Z</time>
      </trkpt>
      <trkpt lat="46.54623" lon="0.31352">
        <ele>199.99</ele>
        <time>2018-06-03T07:10:35.999Z</time>
      </trkpt>
      <trkpt lat="46.54633" lon="0.31345">
        <ele>200.22</ele>
        <time>2018-06-03T07:10:38.999Z</time>
      </trkpt>
      <trkpt lat="46.54636" lon="0.31331">
        <ele>201.97</ele>
        <time>2018-06-03T07:10:41.999Z</time>
      </trkpt>
      <trkpt lat="46.54632" lon="0.31315">
        <ele>202.81</ele>
        <time>2018-06-03T07:10:44.999Z</time>
      </trkpt>
      <trkpt lat="46.5463" lon="0.313">
        <ele>202.81</ele>
        <time>2018-06-03T07:10:47.999Z</time>
      </trkpt>
      <trkpt lat="46.54627" lon="0.31284">
        <ele>202.66</ele>
        <time>2018-06-03T07:10:50.999Z</time>
      </trkpt>
      <trkpt lat="46.54623" lon="0.31268">
        <ele>201.77</ele>
        <time>2018-06-03T07:10:52.999Z</time>
      </trkpt>
      <trkpt lat="46.54617" lon="0.31255">
        <ele>200.72</ele>
        <time>2018-06-03T07:10:54.999Z</time>
      </trkpt>
      <trkpt lat="46.54612" lon="0.31242">
        <ele>200.53</ele>
        <time>2018-06-03T07:10:56.999Z</time>
      </trkpt>
      <trkpt lat="46.54608" lon="0.31225">
        <ele>200.99</ele>
        <time>2018-06-03T07:10:59.999Z</time>
      </trkpt>
      <trkpt lat="46.54601" lon="0.31211">
        <ele>201.27</ele>
        <time>2018-06-03T07:11:01.999Z</time>
      </trkpt>
      <trkpt lat="46.54598" lon="0.31197">
        <ele>201.17</ele>
        <time>2018-06-03T07:11:03.999Z</time>
      </trkpt>
      <trkpt lat="46.54593" lon="0.31176">
        <ele>200.32</ele>
        <time>2018-06-03T07:11:06.999Z</time>
      </trkpt>
      <trkpt lat="46.54589" lon="0.31162">
        <ele>200.17</ele>
        <time>2018-06-03T07:11:08.999Z</time>
      </trkpt>
      <trkpt lat="46.54584" lon="0.31149">
        <ele>199.73</ele>
        <time>2018-06-03T07:11:10.999Z</time>
      </trkpt>
      <trkpt lat="46.5458" lon="0.31137">
        <ele>199.16</ele>
        <time>2018-06-03T07:11:12.999Z</time>
      </trkpt>
      <trkpt lat="46.54575" lon="0.31125">
        <ele>198.67</ele>
        <time>2018-06-03T07:11:14.999Z</time>
      </trkpt>
      <trkpt lat="46.5457" lon="0.31114">
        <ele>198.62</ele>
        <time>2018-06-03T07:11:16.999Z</time>
      </trkpt>
      <trkpt lat="46.54562" lon="0.31099">
        <ele>199.35</ele>
        <time>2018-06-03T07:11:19.999Z</time>
      </trkpt>
      <trkpt lat="46.54557" lon="0.31087">
        <ele>200.22</ele>
        <time>2018-06-03T07:11:21.999Z</time>
      </trkpt>
      <trkpt lat="46.54552" lon="0.31075">
        <ele>201.51</ele>
        <time>2018-06-03T07:11:23.999Z</time>
      </trkpt>
      <trkpt lat="46.54548" lon="0.31061">
        <ele>203.32</ele>
        <time>2018-06-03T07:11:25.999Z</time>
      </trkpt>
      <trkpt lat="46.54544" lon="0.31047">
        <ele>203.91</ele>
        <time>2018-06-03T07:11:27.999Z</time>
      </trkpt>
      <trkpt lat="46.54539" lon="0.31032">
        <ele>204.04</ele>
        <time>2018-06-03T07:11:30.999Z</time>
      </trkpt>
      <trkpt lat="46.54535" lon="0.31019">
        <ele>205.27</ele>
        <time>2018-06-03T07:11:32.999Z</time>
      </trkpt>
      <trkpt lat="46.5453" lon="0.31006">
        <ele>206.18</ele>
        <time>2018-06-03T07:11:34.999Z</time>
      </trkpt>
      <trkpt lat="46.54524" lon="0.30994">
        <ele>207.3</ele>
        <time>2018-06-03T07:11:36.999Z</time>
      </trkpt>
      <trkpt lat="46.5452" lon="0.30979">
        <ele>208.88</ele>
        <time>2018-06-03T07:11:38.999Z</time>
      </trkpt>
      <trkpt lat="46.54514" lon="0.30961">
        <ele>209.95</ele>
        <time>2018-06-03T07:11:41.999Z</time>
      </trkpt>
      <trkpt lat="46.54509" lon="0.30945">
        <ele>210.28</ele>
        <time>2018-06-03T07:11:43.999Z</time>
      </trkpt>
      <trkpt lat="46.54504" lon="0.3093">
        <ele>210.07</ele>
        <time>2018-06-03T07:11:45.999Z</time>
      </trkpt>
      <trkpt lat="46.54499" lon="0.30914">
        <ele>209.88</ele>
        <time>2018-06-03T07:11:47.999Z</time>
      </trkpt>
      <trkpt lat="46.54495" lon="0.30902">
        <ele>210.1</ele>
        <time>2018-06-03T07:11:49.999Z</time>
      </trkpt>
      <trkpt lat="46.54491" lon="0.30887">
        <ele>209.7</ele>
        <time>2018-06-03T07:11:51.999Z</time>
      </trkpt>
      <trkpt lat="46.54489" lon="0.30871">
        <ele>209.7</ele>
        <time>2018-06-03T07:11:53.999Z</time>
      </trkpt>
      <trkpt lat="46.54486" lon="0.30857">
        <ele>209.65</ele>
        <time>2018-06-03T07:11:55.999Z</time>
      </trkpt>
      <trkpt lat="46.5448" lon="0.30837">
        <ele>209</ele>
        <time>2018-06-03T07:11:57.999Z</time>
      </trkpt>
      <trkpt lat="46.54474" lon="0.30822">
        <ele>208.2</ele>
        <time>2018-06-03T07:11:59.999Z</time>
      </trkpt>
      <trkpt lat="46.54469" lon="0.30808">
        <ele>208</ele>
        <time>2018-06-03T07:12:02.999Z</time>
      </trkpt>
      <trkpt lat="46.54463" lon="0.30791">
        <ele>207.77</ele>
        <time>2018-06-03T07:12:05.999Z</time>
      </trkpt>
      <trkpt lat="46.54458" lon="0.30777">
        <ele>207.63</ele>
        <time>2018-06-03T07:12:07.999Z</time>
      </trkpt>
      <trkpt lat="46.54453" lon="0.30764">
        <ele>206.85</ele>
        <time>2018-06-03T07:12:09.999Z</time>
      </trkpt>
      <trkpt lat="46.54446" lon="0.3075">
        <ele>205.73</ele>
        <time>2018-06-03T07:12:11.999Z</time>
      </trkpt>
      <trkpt lat="46.54439" lon="0.30734">
        <ele>204.3</ele>
        <time>2018-06-03T07:12:13.999Z</time>
      </trkpt>
      <trkpt lat="46.54433" lon="0.30719">
        <ele>201.08</ele>
        <time>2018-06-03T07:12:15.999Z</time>
      </trkpt>
      <trkpt lat="46.5443" lon="0.30702">
        <ele>198.36</ele>
        <time>2018-06-03T07:12:17.999Z</time>
      </trkpt>
      <trkpt lat="46.54427" lon="0.30688">
        <ele>195.37</ele>
        <time>2018-06-03T07:12:19.999Z</time>
      </trkpt>
      <trkpt lat="46.54422" lon="0.30675">
        <ele>193.32</ele>
        <time>2018-06-03T07:12:21.999Z</time>
      </trkpt>
      <trkpt lat="46.54417" lon="0.30662">
        <ele>192.17</ele>
        <time>2018-06-03T07:12:23.999Z</time>
      </trkpt>
      <trkpt lat="46.54413" lon="0.3065">
        <ele>191.2</ele>
        <time>2018-06-03T07:12:25.999Z</time>
      </trkpt>
      <trkpt lat="46.54409" lon="0.30633">
        <ele>189.88</ele>
        <time>2018-06-03T07:12:28.999Z</time>
      </trkpt>
      <trkpt lat="46.54409" lon="0.30618">
        <ele>189.62</ele>
        <time>2018-06-03T07:12:31.999Z</time>
      </trkpt>
      <trkpt lat="46.54401" lon="0.30612">
        <ele>189.03</ele>
        <time>2018-06-03T07:12:35.999Z</time>
      </trkpt>
      <trkpt lat="46.54391" lon="0.30613">
        <ele>189.59</ele>
        <time>2018-06-03T07:12:37.999Z</time>
      </trkpt>
      <trkpt lat="46.54382" lon="0.30607">
        <ele>189.69</ele>
        <time>2018-06-03T07:12:40.999Z</time>
      </trkpt>
      <trkpt lat="46.54371" lon="0.30601">
        <ele>189.98</ele>
        <time>2018-06-03T07:12:43.999Z</time>
      </trkpt>
      <trkpt lat="46.5436" lon="0.30596">
        <ele>190.44</ele>
        <time>2018-06-03T07:12:46.999Z</time>
      </trkpt>
      <trkpt lat="46.54351" lon="0.30593">
        <ele>190.71</ele>
        <time>2018-06-03T07:12:48.999Z</time>
      </trkpt>
      <trkpt lat="46.54339" lon="0.30586">
        <ele>191.07</ele>
        <time>2018-06-03T07:12:51.999Z</time>
      </trkpt>
      <trkpt lat="46.54326" lon="0.30582">
        <ele>191.51</ele>
        <time>2018-06-03T07:12:54.999Z</time>
      </trkpt>
      <trkpt lat="46.54315" lon="0.30579">
        <ele>191.84</ele>
        <time>2018-06-03T07:12:56.999Z</time>
      </trkpt>
      <trkpt lat="46.54304" lon="0.30576">
        <ele>192.34</ele>
        <time>2018-06-03T07:12:59.999Z</time>
      </trkpt>
      <trkpt lat="46.54292" lon="0.3057">
        <ele>192.86</ele>
        <time>2018-06-03T07:13:02.999Z</time>
      </trkpt>
      <trkpt lat="46.5428" lon="0.30566">
        <ele>194.73</ele>
        <time>2018-06-03T07:13:05.999Z</time>
      </trkpt>
      <trkpt lat="46.54269" lon="0.30562">
        <ele>196.54</ele>
        <time>2018-06-03T07:13:07.999Z</time>
      </trkpt>
      <trkpt lat="46.54258" lon="0.30558">
        <ele>196.71</ele>
        <time>2018-06-03T07:13:10.999Z</time>
      </trkpt>
      <trkpt lat="46.54248" lon="0.30556">
        <ele>197.4</ele>
        <time>2018-06-03T07:13:12.999Z</time>
      </trkpt>
      <trkpt lat="46.54237" lon="0.30555">
        <ele>198.19</ele>
        <time>2018-06-03T07:13:14.999Z</time>
      </trkpt>
      <trkpt lat="46.54225" lon="0.30555">
        <ele>198.05</ele>
        <time>2018-06-03T07:13:16.999Z</time>
      </trkpt>
      <trkpt lat="46.54213" lon="0.30555">
        <ele>197.83</ele>
        <time>2018-06-03T07:13:18.999Z</time>
      </trkpt>
      <trkpt lat="46.54201" lon="0.30554">
        <ele>196.64</ele>
        <time>2018-06-03T07:13:20.999Z</time>
      </trkpt>
      <trkpt lat="46.5419" lon="0.30557">
        <ele>194.9</ele>
        <time>2018-06-03T07:13:22.999Z</time>
      </trkpt>
      <trkpt lat="46.54179" lon="0.30561">
        <ele>193.92</ele>
        <time>2018-06-03T07:13:24.999Z</time>
      </trkpt>
      <trkpt lat="46.54169" lon="0.30564">
        <ele>193.71</ele>
        <time>2018-06-03T07:13:26.999Z</time>
      </trkpt>
      <trkpt lat="46.54156" lon="0.30569">
        <ele>193.68</ele>
        <time>2018-06-03T07:13:28.999Z</time>
      </trkpt>
      <trkpt lat="46.54144" lon="0.30574">
        <ele>193.95</ele>
        <time>2018-06-03T07:13:30.999Z</time>
      </trkpt>
      <trkpt lat="46.54131" lon="0.3058">
        <ele>193.93</ele>
        <time>2018-06-03T07:13:32.999Z</time>
      </trkpt>
      <trkpt lat="46.54118" lon="0.30586">
        <ele>193.68</ele>
        <time>2018-06-03T07:13:34.999Z</time>
      </trkpt>
      <trkpt lat="46.54106" lon="0.3059">
        <ele>192.96</ele>
        <time>2018-06-03T07:13:36.999Z</time>
      </trkpt>
      <trkpt lat="46.54094" lon="0.30595">
        <ele>193.01</ele>
        <time>2018-06-03T07:13:38.999Z</time>
      </trkpt>
      <trkpt lat="46.54081" lon="0.306">
        <ele>192.89</ele>
        <time>2018-06-03T07:13:40.999Z</time>
      </trkpt>
      <trkpt lat="46.54068" lon="0.30605">
        <ele>192.7</ele>
        <time>2018-06-03T07:13:42.999Z</time>
      </trkpt>
      <trkpt lat="46.54057" lon="0.3061">
        <ele>193.19</ele>
        <time>2018-06-03T07:13:44.999Z</time>
      </trkpt>
      <trkpt lat="46.54045" lon="0.30613">
        <ele>194.22</ele>
        <time>2018-06-03T07:13:46.999Z</time>
      </trkpt>
      <trkpt lat="46.54032" lon="0.30613">
        <ele>194.68</ele>
        <time>2018-06-03T07:13:48.999Z</time>
      </trkpt>
      <trkpt lat="46.54018" lon="0.30614">
        <ele>194.85</ele>
        <time>2018-06-03T07:13:50.999Z</time>
      </trkpt>
      <trkpt lat="46.54005" lon="0.30611">
        <ele>194.66</ele>
        <time>2018-06-03T07:13:52.999Z</time>
      </trkpt>
      <trkpt lat="46.53991" lon="0.30608">
        <ele>194.45</ele>
        <time>2018-06-03T07:13:54.999Z</time>
      </trkpt>
      <trkpt lat="46.53978" lon="0.30606">
        <ele>194.93</ele>
        <time>2018-06-03T07:13:56.999Z</time>
      </trkpt>
      <trkpt lat="46.53964" lon="0.30602">
        <ele>195.59</ele>
        <time>2018-06-03T07:13:58.999Z</time>
      </trkpt>
      <trkpt lat="46.53951" lon="0.306">
        <ele>196.18</ele>
        <time>2018-06-03T07:14:00.999Z</time>
      </trkpt>
      <trkpt lat="46.53938" lon="0.30597">
        <ele>196.67</ele>
        <time>2018-06-03T07:14:02.999Z</time>
      </trkpt>
      <trkpt lat="46.53925" lon="0.30594">
        <ele>197.02</ele>
        <time>2018-06-03T07:14:04.999Z</time>
      </trkpt>
      <trkpt lat="46.53914" lon="0.30591">
        <ele>197.21</ele>
        <time>2018-06-03T07:14:06.999Z</time>
      </trkpt>
      <trkpt lat="46.53902" lon="0.30588">
        <ele>197.37</ele>
        <time>2018-06-03T07:14:08.999Z</time>
      </trkpt>
      <trkpt lat="46.53891" lon="0.30587">
        <ele>197.63</ele>
        <time>2018-06-03T07:14:10.999Z</time>
      </trkpt>
      <trkpt lat="46.53879" lon="0.30584">
        <ele>197.55</ele>
        <time>2018-06-03T07:14:12.999Z</time>
      </trkpt>
      <trkpt lat="46.53868" lon="0.30581">
        <ele>197.65</ele>
        <time>2018-06-03T07:14:14.999Z</time>
      </trkpt>
      <trkpt lat="46.53858" lon="0.30579">
        <ele>197.97</ele>
        <time>2018-06-03T07:14:16.999Z</time>
      </trkpt>
      <trkpt lat="46.53848" lon="0.30577">
        <ele>198.48</ele>
        <time>2018-06-03T07:14:18.999Z</time>
      </trkpt>
      <trkpt lat="46.53838" lon="0.30575">
        <ele>199.88</ele>
        <time>2018-06-03T07:14:20.999Z</time>
      </trkpt>
      <trkpt lat="46.53829" lon="0.30568">
        <ele>201.34</ele>
        <time>2018-06-03T07:14:22.999Z</time>
      </trkpt>
      <trkpt lat="46.53818" lon="0.30562">
        <ele>202.56</ele>
        <time>2018-06-03T07:14:24.999Z</time>
      </trkpt>
      <trkpt lat="46.53806" lon="0.3056">
        <ele>202.72</ele>
        <time>2018-06-03T07:14:26.999Z</time>
      </trkpt>
      <trkpt lat="46.53793" lon="0.30558">
        <ele>202.86</ele>
        <time>2018-06-03T07:14:28.999Z</time>
      </trkpt>
      <trkpt lat="46.53782" lon="0.30557">
        <ele>202.42</ele>
        <time>2018-06-03T07:14:30.999Z</time>
      </trkpt>
      <trkpt lat="46.53768" lon="0.30555">
        <ele>201.99</ele>
        <time>2018-06-03T07:14:32.999Z</time>
      </trkpt>
      <trkpt lat="46.53753" lon="0.30552">
        <ele>200.87</ele>
        <time>2018-06-03T07:14:34.999Z</time>
      </trkpt>
      <trkpt lat="46.5374" lon="0.30549">
        <ele>199.32</ele>
        <time>2018-06-03T07:14:36.999Z</time>
      </trkpt>
      <trkpt lat="46.53727" lon="0.30547">
        <ele>198.01</ele>
        <time>2018-06-03T07:14:38.999Z</time>
      </trkpt>
      <trkpt lat="46.53714" lon="0.30547">
        <ele>196.71</ele>
        <time>2018-06-03T07:14:40.999Z</time>
      </trkpt>
      <trkpt lat="46.53701" lon="0.30546">
        <ele>195</ele>
        <time>2018-06-03T07:14:42.999Z</time>
      </trkpt>
      <trkpt lat="46.53686" lon="0.30549">
        <ele>192.97</ele>
        <time>2018-06-03T07:14:44.999Z</time>
      </trkpt>
      <trkpt lat="46.53672" lon="0.30552">
        <ele>190.86</ele>
        <time>2018-06-03T07:14:46.999Z</time>
      </trkpt>
      <trkpt lat="46.53659" lon="0.3055">
        <ele>188.8</ele>
        <time>2018-06-03T07:14:48.999Z</time>
      </trkpt>
      <trkpt lat="46.53645" lon="0.30548">
        <ele>187.47</ele>
        <time>2018-06-03T07:14:50.999Z</time>
      </trkpt>
      <trkpt lat="46.5363" lon="0.30545">
        <ele>186.58</ele>
        <time>2018-06-03T07:14:52.999Z</time>
      </trkpt>
      <trkpt lat="46.53613" lon="0.30544">
        <ele>185.29</ele>
        <time>2018-06-03T07:14:54.999Z</time>
      </trkpt>
      <trkpt lat="46.53597" lon="0.30542">
        <ele>184.02</ele>
        <time>2018-06-03T07:14:56.999Z</time>
      </trkpt>
      <trkpt lat="46.53582" lon="0.30541">
        <ele>182.71</ele>
        <time>2018-06-03T07:14:58.999Z</time>
      </trkpt>
      <trkpt lat="46.53571" lon="0.30543">
        <ele>181.75</ele>
        <time>2018-06-03T07:15:00.999Z</time>
      </trkpt>
      <trkpt lat="46.53561" lon="0.30548">
        <ele>181.42</ele>
        <time>2018-06-03T07:15:02.999Z</time>
      </trkpt>
      <trkpt lat="46.53552" lon="0.30552">
        <ele>181.11</ele>
        <time>2018-06-03T07:15:04.999Z</time>
      </trkpt>
      <trkpt lat="46.53538" lon="0.30556">
        <ele>181.72</ele>
        <time>2018-06-03T07:15:07.999Z</time>
      </trkpt>
      <trkpt lat="46.53528" lon="0.30559">
        <ele>183.27</ele>
        <time>2018-06-03T07:15:09.999Z</time>
      </trkpt>
      <trkpt lat="46.53517" lon="0.30559">
        <ele>183.56</ele>
        <time>2018-06-03T07:15:12.999Z</time>
      </trkpt>
      <trkpt lat="46.53509" lon="0.30564">
        <ele>184.21</ele>
        <time>2018-06-03T07:15:16.999Z</time>
      </trkpt>
      <trkpt lat="46.53512" lon="0.30583">
        <ele>186.47</ele>
        <time>2018-06-03T07:15:20.999Z</time>
      </trkpt>
      <trkpt lat="46.53516" lon="0.30598">
        <ele>187.09</ele>
        <time>2018-06-03T07:15:22.999Z</time>
      </trkpt>
      <trkpt lat="46.53521" lon="0.30615">
        <ele>186.83</ele>
        <time>2018-06-03T07:15:24.999Z</time>
      </trkpt>
      <trkpt lat="46.53528" lon="0.3063">
        <ele>185.91</ele>
        <time>2018-06-03T07:15:26.999Z</time>
      </trkpt>
      <trkpt lat="46.53531" lon="0.30645">
        <ele>184.89</ele>
        <time>2018-06-03T07:15:28.999Z</time>
      </trkpt>
      <trkpt lat="46.53534" lon="0.3066">
        <ele>184.11</ele>
        <time>2018-06-03T07:15:30.999Z</time>
      </trkpt>
      <trkpt lat="46.53539" lon="0.30671">
        <ele>183.97</ele>
        <time>2018-06-03T07:15:33.999Z</time>
      </trkpt>
      <trkpt lat="46.53548" lon="0.30677">
        <ele>184.18</ele>
        <time>2018-06-03T07:15:48.999Z</time>
      </trkpt>
      <trkpt lat="46.53559" lon="0.30692">
        <ele>185.1</ele>
        <time>2018-06-03T07:15:54.999Z</time>
      </trkpt>
      <trkpt lat="46.53568" lon="0.30706">
        <ele>185.82</ele>
        <time>2018-06-03T07:15:58.999Z</time>
      </trkpt>
      <trkpt lat="46.53577" lon="0.30715">
        <ele>186.24</ele>
        <time>2018-06-03T07:16:01.999Z</time>
      </trkpt>
      <trkpt lat="46.53583" lon="0.30726">
        <ele>186.33</ele>
        <time>2018-06-03T07:16:04.999Z</time>
      </trkpt>
      <trkpt lat="46.53588" lon="0.30738">
        <ele>186.12</ele>
        <time>2018-06-03T07:16:08.999Z</time>
      </trkpt>
      <trkpt lat="46.53595" lon="0.30748">
        <ele>185.93</ele>
        <time>2018-06-03T07:16:12.999Z</time>
      </trkpt>
      <trkpt lat="46.53599" lon="0.30761">
        <ele>185.86</ele>
        <time>2018-06-03T07:16:16.999Z</time>
      </trkpt>
      <trkpt lat="46.53595" lon="0.30774">
        <ele>186.03</ele>
        <time>2018-06-03T07:16:20.999Z</time>
      </trkpt>
      <trkpt lat="46.53585" lon="0.30775">
        <ele>186.49</ele>
        <time>2018-06-03T07:16:24.999Z</time>
      </trkpt>
      <trkpt lat="46.53571" lon="0.30771">
        <ele>187.05</ele>
        <time>2018-06-03T07:16:27.999Z</time>
      </trkpt>
      <trkpt lat="46.53561" lon="0.3077">
        <ele>191.19</ele>
        <time>2018-06-03T07:16:29.999Z</time>
      </trkpt>
      <trkpt lat="46.5355" lon="0.3077">
        <ele>194.56</ele>
        <time>2018-06-03T07:16:31.999Z</time>
      </trkpt>
      <trkpt lat="46.53535" lon="0.3077">
        <ele>197.11</ele>
        <time>2018-06-03T07:16:33.999Z</time>
      </trkpt>
      <trkpt lat="46.53524" lon="0.3077">
        <ele>199.72</ele>
        <time>2018-06-03T07:16:35.999Z</time>
      </trkpt>
      <trkpt lat="46.53511" lon="0.3077">
        <ele>201.04</ele>
        <time>2018-06-03T07:16:37.999Z</time>
      </trkpt>
      <trkpt lat="46.53499" lon="0.30771">
        <ele>200.97</ele>
        <time>2018-06-03T07:16:39.999Z</time>
      </trkpt>
      <trkpt lat="46.53487" lon="0.30773">
        <ele>200.68</ele>
        <time>2018-06-03T07:16:42.999Z</time>
      </trkpt>
      <trkpt lat="46.53478" lon="0.30775">
        <ele>200.28</ele>
        <time>2018-06-03T07:16:45.999Z</time>
      </trkpt>
      <trkpt lat="46.53468" lon="0.30767">
        <ele>197.92</ele>
        <time>2018-06-03T07:17:06.999Z</time>
      </trkpt>
      <trkpt lat="46.53458" lon="0.30765">
        <ele>196.87</ele>
        <time>2018-06-03T07:17:10.999Z</time>
      </trkpt>
      <trkpt lat="46.53449" lon="0.30769">
        <ele>196.07</ele>
        <time>2018-06-03T07:17:13.999Z</time>
      </trkpt>
      <trkpt lat="46.53438" lon="0.30772">
        <ele>195.4</ele>
        <time>2018-06-03T07:17:16.999Z</time>
      </trkpt>
      <trkpt lat="46.53429" lon="0.30778">
        <ele>195.02</ele>
        <time>2018-06-03T07:17:18.999Z</time>
      </trkpt>
      <trkpt lat="46.53417" lon="0.30788">
        <ele>194.48</ele>
        <time>2018-06-03T07:17:20.999Z</time>
      </trkpt>
      <trkpt lat="46.53408" lon="0.30795">
        <ele>193.92</ele>
        <time>2018-06-03T07:17:22.999Z</time>
      </trkpt>
      <trkpt lat="46.53397" lon="0.30804">
        <ele>190.18</ele>
        <time>2018-06-03T07:17:25.999Z</time>
      </trkpt>
      <trkpt lat="46.53386" lon="0.30804">
        <ele>189.06</ele>
        <time>2018-06-03T07:17:28.999Z</time>
      </trkpt>
      <trkpt lat="46.53372" lon="0.30808">
        <ele>187.66</ele>
        <time>2018-06-03T07:17:31.999Z</time>
      </trkpt>
      <trkpt lat="46.53361" lon="0.3081">
        <ele>186.3</ele>
        <time>2018-06-03T07:17:34.999Z</time>
      </trkpt>
      <trkpt lat="46.5335" lon="0.30818">
        <ele>181.57</ele>
        <time>2018-06-03T07:17:38.999Z</time>
      </trkpt>
      <trkpt lat="46.53337" lon="0.30827">
        <ele>180.65</ele>
        <time>2018-06-03T07:17:42.999Z</time>
      </trkpt>
      <trkpt lat="46.53328" lon="0.30833">
        <ele>180.28</ele>
        <time>2018-06-03T07:17:46.999Z</time>
      </trkpt>
      <trkpt lat="46.53321" lon="0.30844">
        <ele>181.22</ele>
        <time>2018-06-03T07:18:04.999Z</time>
      </trkpt>
      <trkpt lat="46.53312" lon="0.30849">
        <ele>181.36</ele>
        <time>2018-06-03T07:18:07.999Z</time>
      </trkpt>
      <trkpt lat="46.533" lon="0.30854">
        <ele>181.44</ele>
        <time>2018-06-03T07:18:10.999Z</time>
      </trkpt>
      <trkpt lat="46.53289" lon="0.30861">
        <ele>181.39</ele>
        <time>2018-06-03T07:18:15.999Z</time>
      </trkpt>
      <trkpt lat="46.5328" lon="0.30867">
        <ele>181.36</ele>
        <time>2018-06-03T07:18:18.999Z</time>
      </trkpt>
      <trkpt lat="46.5327" lon="0.30871">
        <ele>181.5</ele>
        <time>2018-06-03T07:18:26.999Z</time>
      </trkpt>
      <trkpt lat="46.53258" lon="0.30877">
        <ele>181.64</ele>
        <time>2018-06-03T07:18:30.999Z</time>
      </trkpt>
      <trkpt lat="46.5325" lon="0.30885">
        <ele>181.82</ele>
        <time>2018-06-03T07:18:32.999Z</time>
      </trkpt>
      <trkpt lat="46.53242" lon="0.30893">
        <ele>182.31</ele>
        <time>2018-06-03T07:18:37.999Z</time>
      </trkpt>
      <trkpt lat="46.53233" lon="0.30898">
        <ele>182.68</ele>
        <time>2018-06-03T07:18:41.999Z</time>
      </trkpt>
      <trkpt lat="46.53225" lon="0.30906">
        <ele>182.96</ele>
        <time>2018-06-03T07:18:44.999Z</time>
      </trkpt>
      <trkpt lat="46.53214" lon="0.30915">
        <ele>183.21</ele>
        <time>2018-06-03T07:18:47.999Z</time>
      </trkpt>
      <trkpt lat="46.53207" lon="0.30923">
        <ele>183.38</ele>
        <time>2018-06-03T07:18:50.999Z</time>
      </trkpt>
      <trkpt lat="46.53199" lon="0.30938">
        <ele>183.5</ele>
        <time>2018-06-03T07:18:52.999Z</time>
      </trkpt>
      <trkpt lat="46.53191" lon="0.3095">
        <ele>184.25</ele>
        <time>2018-06-03T07:18:54.999Z</time>
      </trkpt>
      <trkpt lat="46.53184" lon="0.30962">
        <ele>185.1</ele>
        <time>2018-06-03T07:18:56.999Z</time>
      </trkpt>
      <trkpt lat="46.53175" lon="0.30977">
        <ele>184.39</ele>
        <time>2018-06-03T07:18:58.999Z</time>
      </trkpt>
      <trkpt lat="46.53167" lon="0.30993">
        <ele>183.42</ele>
        <time>2018-06-03T07:19:00.999Z</time>
      </trkpt>
      <trkpt lat="46.53159" lon="0.31006">
        <ele>182.23</ele>
        <time>2018-06-03T07:19:02.999Z</time>
      </trkpt>
      <trkpt lat="46.53151" lon="0.31014">
        <ele>181.98</ele>
        <time>2018-06-03T07:19:04.999Z</time>
      </trkpt>
      <trkpt lat="46.53143" lon="0.31021">
        <ele>181.36</ele>
        <time>2018-06-03T07:19:05.999Z</time>
      </trkpt>
      <trkpt lat="46.53136" lon="0.31032">
        <ele>181.19</ele>
        <time>2018-06-03T07:19:07.999Z</time>
      </trkpt>
      <trkpt lat="46.53127" lon="0.31041">
        <ele>180.91</ele>
        <time>2018-06-03T07:19:10.999Z</time>
      </trkpt>
      <trkpt lat="46.53117" lon="0.31043">
        <ele>180.48</ele>
        <time>2018-06-03T07:19:13.999Z</time>
      </trkpt>
      <trkpt lat="46.53109" lon="0.31057">
        <ele>179.9</ele>
        <time>2018-06-03T07:19:17.999Z</time>
      </trkpt>
      <trkpt lat="46.53103" lon="0.31066">
        <ele>179.73</ele>
        <time>2018-06-03T07:19:20.999Z</time>
      </trkpt>
      <trkpt lat="46.53094" lon="0.31077">
        <ele>179.81</ele>
        <time>2018-06-03T07:19:23.999Z</time>
      </trkpt>
      <trkpt lat="46.53083" lon="0.31091">
        <ele>180.13</ele>
        <time>2018-06-03T07:19:26.999Z</time>
      </trkpt>
      <trkpt lat="46.53073" lon="0.31104">
        <ele>182.74</ele>
        <time>2018-06-03T07:19:28.999Z</time>
      </trkpt>
      <trkpt lat="46.53064" lon="0.31115">
        <ele>185.08</ele>
        <time>2018-06-03T07:19:30.999Z</time>
      </trkpt>
      <trkpt lat="46.53054" lon="0.31125">
        <ele>184.95</ele>
        <time>2018-06-03T07:19:32.999Z</time>
      </trkpt>
      <trkpt lat="46.53045" lon="0.31135">
        <ele>183.33</ele>
        <time>2018-06-03T07:19:34.999Z</time>
      </trkpt>
      <trkpt lat="46.53037" lon="0.31145">
        <ele>182.34</ele>
        <time>2018-06-03T07:19:36.999Z</time>
      </trkpt>
      <trkpt lat="46.53026" lon="0.31159">
        <ele>182.11</ele>
        <time>2018-06-03T07:19:39.999Z</time>
      </trkpt>
      <trkpt lat="46.53018" lon="0.31169">
        <ele>182.34</ele>
        <time>2018-06-03T07:19:41.999Z</time>
      </trkpt>
      <trkpt lat="46.53013" lon="0.31179">
        <ele>182.05</ele>
        <time>2018-06-03T07:19:43.999Z</time>
      </trkpt>
      <trkpt lat="46.53003" lon="0.31183">
        <ele>178.84</ele>
        <time>2018-06-03T07:19:57.999Z</time>
      </trkpt>
      <trkpt lat="46.53002" lon="0.31202">
        <ele>175.28</ele>
        <time>2018-06-03T07:20:04.999Z</time>
      </trkpt>
      <trkpt lat="46.52998" lon="0.31216">
        <ele>173.75</ele>
        <time>2018-06-03T07:20:07.999Z</time>
      </trkpt>
      <trkpt lat="46.52992" lon="0.31226">
        <ele>172.77</ele>
        <time>2018-06-03T07:20:09.999Z</time>
      </trkpt>
      <trkpt lat="46.52982" lon="0.31239">
        <ele>171.89</ele>
        <time>2018-06-03T07:20:11.999Z</time>
      </trkpt>
      <trkpt lat="46.52973" lon="0.31246">
        <ele>171.11</ele>
        <time>2018-06-03T07:20:13.999Z</time>
      </trkpt>
      <trkpt lat="46.52963" lon="0.31246">
        <ele>169.47</ele>
        <time>2018-06-03T07:20:17.999Z</time>
      </trkpt>
      <trkpt lat="46.52955" lon="0.31254">
        <ele>166.37</ele>
        <time>2018-06-03T07:20:25.999Z</time>
      </trkpt>
      <trkpt lat="46.52943" lon="0.31254">
        <ele>164.73</ele>
        <time>2018-06-03T07:20:31.999Z</time>
      </trkpt>
      <trkpt lat="46.52934" lon="0.31261">
        <ele>164.58</ele>
        <time>2018-06-03T07:20:33.999Z</time>
      </trkpt>
      <trkpt lat="46.52927" lon="0.31253">
        <ele>165</ele>
        <time>2018-06-03T07:20:41.999Z</time>
      </trkpt>
      <trkpt lat="46.52916" lon="0.31246">
        <ele>165.43</ele>
        <time>2018-06-03T07:20:46.999Z</time>
      </trkpt>
      <trkpt lat="46.52908" lon="0.31241">
        <ele>165.62</ele>
        <time>2018-06-03T07:20:49.999Z</time>
      </trkpt>
      <trkpt lat="46.529" lon="0.31229">
        <ele>165.71</ele>
        <time>2018-06-03T07:20:52.999Z</time>
      </trkpt>
      <trkpt lat="46.52893" lon="0.31219">
        <ele>165.69</ele>
        <time>2018-06-03T07:20:55.999Z</time>
      </trkpt>
      <trkpt lat="46.52885" lon="0.31206">
        <ele>165.63</ele>
        <time>2018-06-03T07:20:58.999Z</time>
      </trkpt>
      <trkpt lat="46.52878" lon="0.31194">
        <ele>165.49</ele>
        <time>2018-06-03T07:21:02.999Z</time>
      </trkpt>
      <trkpt lat="46.52871" lon="0.31182">
        <ele>165.45</ele>
        <time>2018-06-03T07:21:05.999Z</time>
      </trkpt>
      <trkpt lat="46.52865" lon="0.31171">
        <ele>165.53</ele>
        <time>2018-06-03T07:21:09.999Z</time>
      </trkpt>
      <trkpt lat="46.52859" lon="0.3116">
        <ele>165.92</ele>
        <time>2018-06-03T07:21:14.999Z</time>
      </trkpt>
      <trkpt lat="46.52852" lon="0.31146">
        <ele>166.34</ele>
        <time>2018-06-03T07:21:18.999Z</time>
      </trkpt>
      <trkpt lat="46.52846" lon="0.31136">
        <ele>166.55</ele>
        <time>2018-06-03T07:21:22.999Z</time>
      </trkpt>
      <trkpt lat="46.5284" lon="0.31125">
        <ele>166.94</ele>
        <time>2018-06-03T07:21:26.999Z</time>
      </trkpt>
      <trkpt lat="46.52832" lon="0.31116">
        <ele>167.46</ele>
        <time>2018-06-03T07:21:29.999Z</time>
      </trkpt>
      <trkpt lat="46.52825" lon="0.31104">
        <ele>168.61</ele>
        <time>2018-06-03T07:21:34.999Z</time>
      </trkpt>
      <trkpt lat="46.52817" lon="0.31092">
        <ele>169.48</ele>
        <time>2018-06-03T07:21:38.999Z</time>
      </trkpt>
      <trkpt lat="46.52809" lon="0.31081">
        <ele>170.48</ele>
        <time>2018-06-03T07:21:43.999Z</time>
      </trkpt>
      <trkpt lat="46.52804" lon="0.31069">
        <ele>171.4</ele>
        <time>2018-06-03T07:21:48.999Z</time>
      </trkpt>
      <trkpt lat="46.52797" lon="0.31058">
        <ele>172.23</ele>
        <time>2018-06-03T07:21:54.999Z</time>
      </trkpt>
      <trkpt lat="46.5279" lon="0.31047">
        <ele>173.15</ele>
        <time>2018-06-03T07:22:00.999Z</time>
      </trkpt>
      <trkpt lat="46.52785" lon="0.31036">
        <ele>173.99</ele>
        <time>2018-06-03T07:22:06.999Z</time>
      </trkpt>
      <trkpt lat="46.52778" lon="0.31022">
        <ele>174.81</ele>
        <time>2018-06-03T07:22:13.999Z</time>
      </trkpt>
      <trkpt lat="46.52773" lon="0.31011">
        <ele>175.66</ele>
        <time>2018-06-03T07:22:18.999Z</time>
      </trkpt>
      <trkpt lat="46.52772" lon="0.30994">
        <ele>176.45</ele>
        <time>2018-06-03T07:22:23.999Z</time>
      </trkpt>
      <trkpt lat="46.52766" lon="0.30984">
        <ele>176.56</ele>
        <time>2018-06-03T07:22:28.999Z</time>
      </trkpt>
      <trkpt lat="46.52766" lon="0.30971">
        <ele>177.29</ele>
        <time>2018-06-03T07:22:36.999Z</time>
      </trkpt>
      <trkpt lat="46.52764" lon="0.30958">
        <ele>177.86</ele>
        <time>2018-06-03T07:22:45.999Z</time>
      </trkpt>
      <trkpt lat="46.52758" lon="0.30946">
        <ele>178.76</ele>
        <time>2018-06-03T07:22:58.999Z</time>
      </trkpt>
      <trkpt lat="46.52755" lon="0.30934">
        <ele>179.14</ele>
        <time>2018-06-03T07:23:10.999Z</time>
      </trkpt>
      <trkpt lat="46.52752" lon="0.3092">
        <ele>179.79</ele>
        <time>2018-06-03T07:23:16.999Z</time>
      </trkpt>
      <trkpt lat="46.52748" lon="0.30909">
        <ele>180.14</ele>
        <time>2018-06-03T07:23:22.999Z</time>
      </trkpt>
      <trkpt lat="46.52742" lon="0.30892">
        <ele>180.12</ele>
        <time>2018-06-03T07:23:27.999Z</time>
      </trkpt>
      <trkpt lat="46.52738" lon="0.30879">
        <ele>179.88</ele>
        <time>2018-06-03T07:23:31.999Z</time>
      </trkpt>
      <trkpt lat="46.52736" lon="0.30865">
        <ele>179.46</ele>
        <time>2018-06-03T07:23:37.999Z</time>
      </trkpt>
      <trkpt lat="46.52729" lon="0.30855">
        <ele>179.27</ele>
        <time>2018-06-03T07:23:43.999Z</time>
      </trkpt>
      <trkpt lat="46.52728" lon="0.30841">
        <ele>179.56</ele>
        <time>2018-06-03T07:23:59.999Z</time>
      </trkpt>
      <trkpt lat="46.52726" lon="0.30829">
        <ele>179.96</ele>
        <time>2018-06-03T07:24:07.999Z</time>
      </trkpt>
      <trkpt lat="46.52718" lon="0.30821">
        <ele>181.25</ele>
        <time>2018-06-03T07:24:21.999Z</time>
      </trkpt>
      <trkpt lat="46.52713" lon="0.3081">
        <ele>182.96</ele>
        <time>2018-06-03T07:24:33.999Z</time>
      </trkpt>
      <trkpt lat="46.52707" lon="0.308">
        <ele>184.41</ele>
        <time>2018-06-03T07:24:39.999Z</time>
      </trkpt>
      <trkpt lat="46.52706" lon="0.30782">
        <ele>186.17</ele>
        <time>2018-06-03T07:24:45.999Z</time>
      </trkpt>
      <trkpt lat="46.52701" lon="0.3077">
        <ele>188.95</ele>
        <time>2018-06-03T07:24:54.999Z</time>
      </trkpt>
      <trkpt lat="46.52693" lon="0.30763">
        <ele>190.98</ele>
        <time>2018-06-03T07:25:01.999Z</time>
      </trkpt>
      <trkpt lat="46.52683" lon="0.30756">
        <ele>193.01</ele>
        <time>2018-06-03T07:25:09.999Z</time>
      </trkpt>
      <trkpt lat="46.52674" lon="0.30751">
        <ele>194.56</ele>
        <time>2018-06-03T07:25:15.999Z</time>
      </trkpt>
      <trkpt lat="46.52667" lon="0.30743">
        <ele>195.9</ele>
        <time>2018-06-03T07:25:21.999Z</time>
      </trkpt>
      <trkpt lat="46.52658" lon="0.30735">
        <ele>197.23</ele>
        <time>2018-06-03T07:25:28.999Z</time>
      </trkpt>
      <trkpt lat="46.52653" lon="0.30747">
        <ele>197.12</ele>
        <time>2018-06-03T07:25:43.999Z</time>
      </trkpt>
      <trkpt lat="46.52655" lon="0.3076">
        <ele>196.08</ele>
        <time>2018-06-03T07:25:50.999Z</time>
      </trkpt>
      <trkpt lat="46.52661" lon="0.3077">
        <ele>195.33</ele>
        <time>2018-06-03T07:25:54.999Z</time>
      </trkpt>
      <trkpt lat="46.52673" lon="0.30782">
        <ele>194.75</ele>
        <time>2018-06-03T07:25:57.999Z</time>
      </trkpt>
      <trkpt lat="46.52683" lon="0.30789">
        <ele>192.43</ele>
        <time>2018-06-03T07:26:00.999Z</time>
      </trkpt>
      <trkpt lat="46.52692" lon="0.30802">
        <ele>190.79</ele>
        <time>2018-06-03T07:26:02.999Z</time>
      </trkpt>
      <trkpt lat="46.52701" lon="0.30813">
        <ele>189.61</ele>
        <time>2018-06-03T07:26:04.999Z</time>
      </trkpt>
      <trkpt lat="46.52708" lon="0.30826">
        <ele>189.52</ele>
        <time>2018-06-03T07:26:07.999Z</time>
      </trkpt>
      <trkpt lat="46.52713" lon="0.30842">
        <ele>189.39</ele>
        <time>2018-06-03T07:26:09.999Z</time>
      </trkpt>
      <trkpt lat="46.5272" lon="0.30862">
        <ele>189.17</ele>
        <time>2018-06-03T07:26:11.999Z</time>
      </trkpt>
      <trkpt lat="46.52725" lon="0.3088">
        <ele>186.96</ele>
        <time>2018-06-03T07:26:13.999Z</time>
      </trkpt>
      <trkpt lat="46.5273" lon="0.30892">
        <ele>186.47</ele>
        <time>2018-06-03T07:26:17.999Z</time>
      </trkpt>
      <trkpt lat="46.52733" lon="0.30909">
        <ele>185.96</ele>
        <time>2018-06-03T07:26:21.999Z</time>
      </trkpt>
      <trkpt lat="46.52736" lon="0.30927">
        <ele>185.45</ele>
        <time>2018-06-03T07:26:24.999Z</time>
      </trkpt>
      <trkpt lat="46.52739" lon="0.30942">
        <ele>184.64</ele>
        <time>2018-06-03T07:26:28.999Z</time>
      </trkpt>
      <trkpt lat="46.5274" lon="0.30955">
        <ele>184.14</ele>
        <time>2018-06-03T07:26:30.999Z</time>
      </trkpt>
      <trkpt lat="46.52741" lon="0.3097">
        <ele>183.44</ele>
        <time>2018-06-03T07:26:33.999Z</time>
      </trkpt>
      <trkpt lat="46.52743" lon="0.30984">
        <ele>183.04</ele>
        <time>2018-06-03T07:26:35.999Z</time>
      </trkpt>
      <trkpt lat="46.52749" lon="0.30997">
        <ele>182.57</ele>
        <time>2018-06-03T07:26:38.999Z</time>
      </trkpt>
      <trkpt lat="46.52753" lon="0.3101">
        <ele>182.3</ele>
        <time>2018-06-03T07:26:40.999Z</time>
      </trkpt>
      <trkpt lat="46.52757" lon="0.31028">
        <ele>181.91</ele>
        <time>2018-06-03T07:26:43.999Z</time>
      </trkpt>
      <trkpt lat="46.5276" lon="0.31043">
        <ele>181.53</ele>
        <time>2018-06-03T07:26:46.999Z</time>
      </trkpt>
      <trkpt lat="46.52763" lon="0.31059">
        <ele>181.43</ele>
        <time>2018-06-03T07:26:49.999Z</time>
      </trkpt>
      <trkpt lat="46.52765" lon="0.31076">
        <ele>181.49</ele>
        <time>2018-06-03T07:26:51.999Z</time>
      </trkpt>
      <trkpt lat="46.52769" lon="0.31097">
        <ele>181.55</ele>
        <time>2018-06-03T07:26:54.999Z</time>
      </trkpt>
      <trkpt lat="46.5277" lon="0.31112">
        <ele>181.48</ele>
        <time>2018-06-03T07:26:57.999Z</time>
      </trkpt>
      <trkpt lat="46.52769" lon="0.31128">
        <ele>181.1</ele>
        <time>2018-06-03T07:27:02.999Z</time>
      </trkpt>
      <trkpt lat="46.52768" lon="0.31144">
        <ele>180.82</ele>
        <time>2018-06-03T07:27:05.999Z</time>
      </trkpt>
      <trkpt lat="46.52764" lon="0.31157">
        <ele>180.26</ele>
        <time>2018-06-03T07:27:09.999Z</time>
      </trkpt>
      <trkpt lat="46.52767" lon="0.31172">
        <ele>179.57</ele>
        <time>2018-06-03T07:27:17.999Z</time>
      </trkpt>
      <trkpt lat="46.52773" lon="0.31187">
        <ele>179.51</ele>
        <time>2018-06-03T07:27:21.999Z</time>
      </trkpt>
      <trkpt lat="46.52778" lon="0.31205">
        <ele>179.84</ele>
        <time>2018-06-03T07:27:25.999Z</time>
      </trkpt>
      <trkpt lat="46.52783" lon="0.31217">
        <ele>180.07</ele>
        <time>2018-06-03T07:27:29.999Z</time>
      </trkpt>
      <trkpt lat="46.52787" lon="0.3123">
        <ele>180.18</ele>
        <time>2018-06-03T07:27:32.999Z</time>
      </trkpt>
      <trkpt lat="46.52797" lon="0.31232">
        <ele>180.57</ele>
        <time>2018-06-03T07:27:40.999Z</time>
      </trkpt>
      <trkpt lat="46.52806" lon="0.3122">
        <ele>181.71</ele>
        <time>2018-06-03T07:27:43.999Z</time>
      </trkpt>
      <trkpt lat="46.52816" lon="0.31221">
        <ele>182.04</ele>
        <time>2018-06-03T07:27:46.999Z</time>
      </trkpt>
      <trkpt lat="46.52826" lon="0.31224">
        <ele>182.15</ele>
        <time>2018-06-03T07:27:48.999Z</time>
      </trkpt>
      <trkpt lat="46.52835" lon="0.31229">
        <ele>182.17</ele>
        <time>2018-06-03T07:27:50.999Z</time>
      </trkpt>
      <trkpt lat="46.52844" lon="0.31243">
        <ele>182.03</ele>
        <time>2018-06-03T07:27:53.999Z</time>
      </trkpt>
      <trkpt lat="46.52853" lon="0.31253">
        <ele>181.65</ele>
        <time>2018-06-03T07:27:56.999Z</time>
      </trkpt>
      <trkpt lat="46.52856" lon="0.31266">
        <ele>180.79</ele>
        <time>2018-06-03T07:28:00.999Z</time>
      </trkpt>
      <trkpt lat="46.52859" lon="0.31281">
        <ele>179.76</ele>
        <time>2018-06-03T07:28:04.999Z</time>
      </trkpt>
      <trkpt lat="46.52865" lon="0.31294">
        <ele>178.98</ele>
        <time>2018-06-03T07:28:07.999Z</time>
      </trkpt>
      <trkpt lat="46.5287" lon="0.31307">
        <ele>178.01</ele>
        <time>2018-06-03T07:28:11.999Z</time>
      </trkpt>
      <trkpt lat="46.52876" lon="0.31319">
        <ele>177.67</ele>
        <time>2018-06-03T07:28:13.999Z</time>
      </trkpt>
      <trkpt lat="46.52882" lon="0.3133">
        <ele>177.41</ele>
        <time>2018-06-03T07:28:17.999Z</time>
      </trkpt>
      <trkpt lat="46.52892" lon="0.31342">
        <ele>177.63</ele>
        <time>2018-06-03T07:28:21.999Z</time>
      </trkpt>
      <trkpt lat="46.529" lon="0.31357">
        <ele>177.83</ele>
        <time>2018-06-03T07:28:25.999Z</time>
      </trkpt>
      <trkpt lat="46.52908" lon="0.31372">
        <ele>177.99</ele>
        <time>2018-06-03T07:28:28.999Z</time>
      </trkpt>
      <trkpt lat="46.5291" lon="0.31385">
        <ele>177.95</ele>
        <time>2018-06-03T07:28:30.999Z</time>
      </trkpt>
      <trkpt lat="46.52917" lon="0.31398">
        <ele>177.75</ele>
        <time>2018-06-03T07:28:35.999Z</time>
      </trkpt>
      <trkpt lat="46.52927" lon="0.31412">
        <ele>177.48</ele>
        <time>2018-06-03T07:28:38.999Z</time>
      </trkpt>
      <trkpt lat="46.52936" lon="0.31426">
        <ele>177.09</ele>
        <time>2018-06-03T07:28:42.999Z</time>
      </trkpt>
      <trkpt lat="46.52944" lon="0.31435">
        <ele>176.99</ele>
        <time>2018-06-03T07:28:45.999Z</time>
      </trkpt>
      <trkpt lat="46.52954" lon="0.31449">
        <ele>176.97</ele>
        <time>2018-06-03T07:28:48.999Z</time>
      </trkpt>
      <trkpt lat="46.5296" lon="0.31461">
        <ele>176.94</ele>
        <time>2018-06-03T07:28:52.999Z</time>
      </trkpt>
      <trkpt lat="46.52966" lon="0.31473">
        <ele>176.84</ele>
        <time>2018-06-03T07:28:56.999Z</time>
      </trkpt>
      <trkpt lat="46.52972" lon="0.31489">
        <ele>177.19</ele>
        <time>2018-06-03T07:29:00.999Z</time>
      </trkpt>
      <trkpt lat="46.52974" lon="0.31503">
        <ele>177.34</ele>
        <time>2018-06-03T07:29:02.999Z</time>
      </trkpt>
      <trkpt lat="46.5298" lon="0.31522">
        <ele>177.35</ele>
        <time>2018-06-03T07:29:06.999Z</time>
      </trkpt>
      <trkpt lat="46.52984" lon="0.3154">
        <ele>177.46</ele>
        <time>2018-06-03T07:29:10.999Z</time>
      </trkpt>
      <trkpt lat="46.52987" lon="0.31556">
        <ele>177.58</ele>
        <time>2018-06-03T07:29:14.999Z</time>
      </trkpt>
      <trkpt lat="46.52988" lon="0.31569">
        <ele>177.6</ele>
        <time>2018-06-03T07:29:17.999Z</time>
      </trkpt>
      <trkpt lat="46.52996" lon="0.31587">
        <ele>177.19</ele>
        <time>2018-06-03T07:29:21.999Z</time>
      </trkpt>
      <trkpt lat="46.53" lon="0.31602">
        <ele>176.52</ele>
        <time>2018-06-03T07:29:24.999Z</time>
      </trkpt>
      <trkpt lat="46.53" lon="0.31615">
        <ele>175.77</ele>
        <time>2018-06-03T07:29:27.999Z</time>
      </trkpt>
      <trkpt lat="46.53002" lon="0.31633">
        <ele>174.2</ele>
        <time>2018-06-03T07:29:33.999Z</time>
      </trkpt>
      <trkpt lat="46.53006" lon="0.31645">
        <ele>173.46</ele>
        <time>2018-06-03T07:29:36.999Z</time>
      </trkpt>
      <trkpt lat="46.53014" lon="0.31655">
        <ele>172.26</ele>
        <time>2018-06-03T07:29:44.999Z</time>
      </trkpt>
      <trkpt lat="46.53023" lon="0.3166">
        <ele>171.96</ele>
        <time>2018-06-03T07:29:47.999Z</time>
      </trkpt>
      <trkpt lat="46.53029" lon="0.31676">
        <ele>171.84</ele>
        <time>2018-06-03T07:29:50.999Z</time>
      </trkpt>
      <trkpt lat="46.5303" lon="0.31691">
        <ele>171.71</ele>
        <time>2018-06-03T07:29:54.999Z</time>
      </trkpt>
      <trkpt lat="46.53035" lon="0.31706">
        <ele>171.51</ele>
        <time>2018-06-03T07:29:56.999Z</time>
      </trkpt>
      <trkpt lat="46.53035" lon="0.31721">
        <ele>171.18</ele>
        <time>2018-06-03T07:29:59.999Z</time>
      </trkpt>
      <trkpt lat="46.53037" lon="0.31734">
        <ele>170.8</ele>
        <time>2018-06-03T07:30:02.999Z</time>
      </trkpt>
      <trkpt lat="46.53042" lon="0.31745">
        <ele>170.59</ele>
        <time>2018-06-03T07:30:04.999Z</time>
      </trkpt>
      <trkpt lat="46.5304" lon="0.31764">
        <ele>170.16</ele>
        <time>2018-06-03T07:30:07.999Z</time>
      </trkpt>
      <trkpt lat="46.53043" lon="0.31776">
        <ele>169.08</ele>
        <time>2018-06-03T07:30:11.999Z</time>
      </trkpt>
      <trkpt lat="46.53048" lon="0.31798">
        <ele>164.79</ele>
        <time>2018-06-03T07:30:14.999Z</time>
      </trkpt>
      <trkpt lat="46.5305" lon="0.31812">
        <ele>164.5</ele>
        <time>2018-06-03T07:30:15.999Z</time>
      </trkpt>
      <trkpt lat="46.53047" lon="0.31827">
        <ele>163.45</ele>
        <time>2018-06-03T07:30:19.999Z</time>
      </trkpt>
      <trkpt lat="46.53037" lon="0.31829">
        <ele>162.5</ele>
        <time>2018-06-03T07:30:23.999Z</time>
      </trkpt>
      <trkpt lat="46.53025" lon="0.31834">
        <ele>161.94</ele>
        <time>2018-06-03T07:30:27.999Z</time>
      </trkpt>
      <trkpt lat="46.53015" lon="0.31838">
        <ele>161.9</ele>
        <time>2018-06-03T07:30:29.999Z</time>
      </trkpt>
      <trkpt lat="46.53003" lon="0.31834">
        <ele>162.32</ele>
        <time>2018-06-03T07:30:33.999Z</time>
      </trkpt>
      <trkpt lat="46.5299" lon="0.31838">
        <ele>162.7</ele>
        <time>2018-06-03T07:30:37.999Z</time>
      </trkpt>
      <trkpt lat="46.52979" lon="0.31837">
        <ele>163.12</ele>
        <time>2018-06-03T07:30:41.999Z</time>
      </trkpt>
      <trkpt lat="46.52968" lon="0.31835">
        <ele>163.37</ele>
        <time>2018-06-03T07:30:44.999Z</time>
      </trkpt>
      <trkpt lat="46.52957" lon="0.31835">
        <ele>163.92</ele>
        <time>2018-06-03T07:30:47.999Z</time>
      </trkpt>
      <trkpt lat="46.52947" lon="0.31836">
        <ele>164.75</ele>
        <time>2018-06-03T07:30:50.999Z</time>
      </trkpt>
      <trkpt lat="46.52937" lon="0.31838">
        <ele>165.67</ele>
        <time>2018-06-03T07:30:53.999Z</time>
      </trkpt>
      <trkpt lat="46.52926" lon="0.31836">
        <ele>166.99</ele>
        <time>2018-06-03T07:30:57.999Z</time>
      </trkpt>
      <trkpt lat="46.52915" lon="0.31832">
        <ele>168.54</ele>
        <time>2018-06-03T07:31:01.999Z</time>
      </trkpt>
      <trkpt lat="46.52906" lon="0.31826">
        <ele>169.89</ele>
        <time>2018-06-03T07:31:05.999Z</time>
      </trkpt>
      <trkpt lat="46.52896" lon="0.3182">
        <ele>170.92</ele>
        <time>2018-06-03T07:31:08.999Z</time>
      </trkpt>
      <trkpt lat="46.52887" lon="0.31814">
        <ele>172.06</ele>
        <time>2018-06-03T07:31:11.999Z</time>
      </trkpt>
      <trkpt lat="46.52873" lon="0.31812">
        <ele>173.63</ele>
        <time>2018-06-03T07:31:15.999Z</time>
      </trkpt>
      <trkpt lat="46.52864" lon="0.3181">
        <ele>174.72</ele>
        <time>2018-06-03T07:31:18.999Z</time>
      </trkpt>
      <trkpt lat="46.52853" lon="0.31811">
        <ele>176.17</ele>
        <time>2018-06-03T07:31:22.999Z</time>
      </trkpt>
      <trkpt lat="46.52844" lon="0.31814">
        <ele>177.7</ele>
        <time>2018-06-03T07:31:27.999Z</time>
      </trkpt>
      <trkpt lat="46.52835" lon="0.3181">
        <ele>178.51</ele>
        <time>2018-06-03T07:31:32.999Z</time>
      </trkpt>
      <trkpt lat="46.52826" lon="0.31812">
        <ele>178.9</ele>
        <time>2018-06-03T07:31:35.999Z</time>
      </trkpt>
      <trkpt lat="46.52815" lon="0.31809">
        <ele>179.46</ele>
        <time>2018-06-03T07:31:40.999Z</time>
      </trkpt>
      <trkpt lat="46.52805" lon="0.3181">
        <ele>179.96</ele>
        <time>2018-06-03T07:31:46.999Z</time>
      </trkpt>
      <trkpt lat="46.52794" lon="0.31814">
        <ele>180.43</ele>
        <time>2018-06-03T07:31:51.999Z</time>
      </trkpt>
      <trkpt lat="46.52784" lon="0.31812">
        <ele>181.21</ele>
        <time>2018-06-03T07:31:55.999Z</time>
      </trkpt>
      <trkpt lat="46.52778" lon="0.31801">
        <ele>182.27</ele>
        <time>2018-06-03T07:31:59.999Z</time>
      </trkpt>
      <trkpt lat="46.52771" lon="0.31788">
        <ele>183.76</ele>
        <time>2018-06-03T07:32:06.999Z</time>
      </trkpt>
      <trkpt lat="46.52767" lon="0.31777">
        <ele>185.4</ele>
        <time>2018-06-03T07:32:13.999Z</time>
      </trkpt>
      <trkpt lat="46.52762" lon="0.31764">
        <ele>186.92</ele>
        <time>2018-06-03T07:32:20.999Z</time>
      </trkpt>
      <trkpt lat="46.52759" lon="0.3175">
        <ele>187.86</ele>
        <time>2018-06-03T07:32:26.999Z</time>
      </trkpt>
      <trkpt lat="46.52753" lon="0.31739">
        <ele>189.18</ele>
        <time>2018-06-03T07:32:34.999Z</time>
      </trkpt>
      <trkpt lat="46.52749" lon="0.31727">
        <ele>190.53</ele>
        <time>2018-06-03T07:32:41.999Z</time>
      </trkpt>
      <trkpt lat="46.52748" lon="0.31713">
        <ele>191.43</ele>
        <time>2018-06-03T07:32:46.999Z</time>
      </trkpt>
      <trkpt lat="46.52745" lon="0.31699">
        <ele>192.16</ele>
        <time>2018-06-03T07:32:51.999Z</time>
      </trkpt>
      <trkpt lat="46.52746" lon="0.31686">
        <ele>193.64</ele>
        <time>2018-06-03T07:32:57.999Z</time>
      </trkpt>
      <trkpt lat="46.52752" lon="0.31675">
        <ele>195.06</ele>
        <time>2018-06-03T07:33:02.999Z</time>
      </trkpt>
      <trkpt lat="46.5276" lon="0.31665">
        <ele>196.53</ele>
        <time>2018-06-03T07:33:09.999Z</time>
      </trkpt>
      <trkpt lat="46.52765" lon="0.31654">
        <ele>196.54</ele>
        <time>2018-06-03T07:33:14.999Z</time>
      </trkpt>
      <trkpt lat="46.52774" lon="0.31647">
        <ele>195.47</ele>
        <time>2018-06-03T07:33:22.999Z</time>
      </trkpt>
      <trkpt lat="46.52777" lon="0.31634">
        <ele>194.54</ele>
        <time>2018-06-03T07:33:28.999Z</time>
      </trkpt>
      <trkpt lat="46.52779" lon="0.3162">
        <ele>193.3</ele>
        <time>2018-06-03T07:33:34.999Z</time>
      </trkpt>
      <trkpt lat="46.52779" lon="0.31607">
        <ele>192.56</ele>
        <time>2018-06-03T07:33:39.999Z</time>
      </trkpt>
      <trkpt lat="46.52781" lon="0.31593">
        <ele>192.17</ele>
        <time>2018-06-03T07:33:43.999Z</time>
      </trkpt>
      <trkpt lat="46.52785" lon="0.3158">
        <ele>191.97</ele>
        <time>2018-06-03T07:33:47.999Z</time>
      </trkpt>
      <trkpt lat="46.52786" lon="0.31564">
        <ele>191.93</ele>
        <time>2018-06-03T07:33:52.999Z</time>
      </trkpt>
      <trkpt lat="46.52779" lon="0.31552">
        <ele>192.37</ele>
        <time>2018-06-03T07:33:59.999Z</time>
      </trkpt>
      <trkpt lat="46.52771" lon="0.31541">
        <ele>192.61</ele>
        <time>2018-06-03T07:34:04.999Z</time>
      </trkpt>
      <trkpt lat="46.52766" lon="0.31528">
        <ele>192.95</ele>
        <time>2018-06-03T07:34:10.999Z</time>
      </trkpt>
      <trkpt lat="46.52761" lon="0.31517">
        <ele>193.39</ele>
        <time>2018-06-03T07:34:15.999Z</time>
      </trkpt>
      <trkpt lat="46.52753" lon="0.31509">
        <ele>193.79</ele>
        <time>2018-06-03T07:34:20.999Z</time>
      </trkpt>
      <trkpt lat="46.52747" lon="0.31497">
        <ele>193.94</ele>
        <time>2018-06-03T07:34:25.999Z</time>
      </trkpt>
      <trkpt lat="46.52741" lon="0.31485">
        <ele>194.06</ele>
        <time>2018-06-03T07:34:30.999Z</time>
      </trkpt>
      <trkpt lat="46.52733" lon="0.31473">
        <ele>194.27</ele>
        <time>2018-06-03T07:34:34.999Z</time>
      </trkpt>
      <trkpt lat="46.52724" lon="0.31464">
        <ele>194.48</ele>
        <time>2018-06-03T07:34:38.999Z</time>
      </trkpt>
      <trkpt lat="46.52714" lon="0.31454">
        <ele>194.6</ele>
        <time>2018-06-03T07:34:41.999Z</time>
      </trkpt>
      <trkpt lat="46.52702" lon="0.31453">
        <ele>194.67</ele>
        <time>2018-06-03T07:34:43.999Z</time>
      </trkpt>
      <trkpt lat="46.52692" lon="0.31449">
        <ele>194.76</ele>
        <time>2018-06-03T07:34:46.999Z</time>
      </trkpt>
      <trkpt lat="46.52682" lon="0.31448">
        <ele>194.97</ele>
        <time>2018-06-03T07:34:49.999Z</time>
      </trkpt>
      <trkpt lat="46.52672" lon="0.31447">
        <ele>195.18</ele>
        <time>2018-06-03T07:34:52.999Z</time>
      </trkpt>
      <trkpt lat="46.52662" lon="0.31448">
        <ele>195.37</ele>
        <time>2018-06-03T07:34:54.999Z</time>
      </trkpt>
      <trkpt lat="46.52649" lon="0.31448">
        <ele>195.69</ele>
        <time>2018-06-03T07:34:57.999Z</time>
      </trkpt>
      <trkpt lat="46.52637" lon="0.31449">
        <ele>196.25</ele>
        <time>2018-06-03T07:35:00.999Z</time>
      </trkpt>
      <trkpt lat="46.52627" lon="0.31448">
        <ele>196.97</ele>
        <time>2018-06-03T07:35:03.999Z</time>
      </trkpt>
      <trkpt lat="46.52616" lon="0.31442">
        <ele>202.79</ele>
        <time>2018-06-03T07:35:06.999Z</time>
      </trkpt>
      <trkpt lat="46.52606" lon="0.31438">
        <ele>203.42</ele>
        <time>2018-06-03T07:35:09.999Z</time>
      </trkpt>
      <trkpt lat="46.52595" lon="0.31438">
        <ele>207.29</ele>
        <time>2018-06-03T07:35:11.999Z</time>
      </trkpt>
      <trkpt lat="46.52584" lon="0.31433">
        <ele>208.73</ele>
        <time>2018-06-03T07:35:13.999Z</time>
      </trkpt>
      <trkpt lat="46.52574" lon="0.31427">
        <ele>210.36</ele>
        <time>2018-06-03T07:35:15.999Z</time>
      </trkpt>
      <trkpt lat="46.52564" lon="0.31422">
        <ele>210.69</ele>
        <time>2018-06-03T07:35:17.999Z</time>
      </trkpt>
      <trkpt lat="46.52549" lon="0.31415">
        <ele>212.41</ele>
        <time>2018-06-03T07:35:20.999Z</time>
      </trkpt>
      <trkpt lat="46.52539" lon="0.31409">
        <ele>213.56</ele>
        <time>2018-06-03T07:35:22.999Z</time>
      </trkpt>
      <trkpt lat="46.52529" lon="0.31405">
        <ele>215.46</ele>
        <time>2018-06-03T07:35:24.999Z</time>
      </trkpt>
      <trkpt lat="46.52522" lon="0.31393">
        <ele>216.91</ele>
        <time>2018-06-03T07:35:26.999Z</time>
      </trkpt>
      <trkpt lat="46.52511" lon="0.31381">
        <ele>217.23</ele>
        <time>2018-06-03T07:35:29.999Z</time>
      </trkpt>
      <trkpt lat="46.52501" lon="0.31372">
        <ele>217.36</ele>
        <time>2018-06-03T07:35:31.999Z</time>
      </trkpt>
      <trkpt lat="46.52489" lon="0.31365">
        <ele>218.3</ele>
        <time>2018-06-03T07:35:33.999Z</time>
      </trkpt>
      <trkpt lat="46.52477" lon="0.31356">
        <ele>218.14</ele>
        <time>2018-06-03T07:35:35.999Z</time>
      </trkpt>
      <trkpt lat="46.52468" lon="0.3135">
        <ele>218.56</ele>
        <time>2018-06-03T07:35:37.999Z</time>
      </trkpt>
      <trkpt lat="46.52465" lon="0.31336">
        <ele>218.61</ele>
        <time>2018-06-03T07:35:39.999Z</time>
      </trkpt>
      <trkpt lat="46.52461" lon="0.31324">
        <ele>219.07</ele>
        <time>2018-06-03T07:35:41.999Z</time>
      </trkpt>
      <trkpt lat="46.52453" lon="0.31311">
        <ele>218.71</ele>
        <time>2018-06-03T07:35:43.999Z</time>
      </trkpt>
      <trkpt lat="46.52451" lon="0.31293">
        <ele>218.61</ele>
        <time>2018-06-03T07:35:45.999Z</time>
      </trkpt>
      <trkpt lat="46.5244" lon="0.31279">
        <ele>218.41</ele>
        <time>2018-06-03T07:35:48.999Z</time>
      </trkpt>
      <trkpt lat="46.52436" lon="0.31264">
        <ele>218.19</ele>
        <time>2018-06-03T07:35:50.999Z</time>
      </trkpt>
      <trkpt lat="46.52438" lon="0.31251">
        <ele>216.89</ele>
        <time>2018-06-03T07:35:56.999Z</time>
      </trkpt>
      <trkpt lat="46.52438" lon="0.31231">
        <ele>215.75</ele>
        <time>2018-06-03T07:35:59.999Z</time>
      </trkpt>
      <trkpt lat="46.52441" lon="0.31215">
        <ele>214.49</ele>
        <time>2018-06-03T07:36:02.999Z</time>
      </trkpt>
      <trkpt lat="46.52444" lon="0.31201">
        <ele>212.82</ele>
        <time>2018-06-03T07:36:06.999Z</time>
      </trkpt>
      <trkpt lat="46.52447" lon="0.31187">
        <ele>211.6</ele>
        <time>2018-06-03T07:36:09.999Z</time>
      </trkpt>
      <trkpt lat="46.52452" lon="0.31173">
        <ele>210.03</ele>
        <time>2018-06-03T07:36:13.999Z</time>
      </trkpt>
      <trkpt lat="46.52456" lon="0.31157">
        <ele>208.61</ele>
        <time>2018-06-03T07:36:17.999Z</time>
      </trkpt>
      <trkpt lat="46.52458" lon="0.31143">
        <ele>207.68</ele>
        <time>2018-06-03T07:36:20.999Z</time>
      </trkpt>
      <trkpt lat="46.52462" lon="0.31127">
        <ele>206.73</ele>
        <time>2018-06-03T07:36:23.999Z</time>
      </trkpt>
      <trkpt lat="46.52468" lon="0.31115">
        <ele>205.62</ele>
        <time>2018-06-03T07:36:26.999Z</time>
      </trkpt>
      <trkpt lat="46.52475" lon="0.31103">
        <ele>204.11</ele>
        <time>2018-06-03T07:36:30.999Z</time>
      </trkpt>
      <trkpt lat="46.5248" lon="0.31089">
        <ele>202.81</ele>
        <time>2018-06-03T07:36:33.999Z</time>
      </trkpt>
      <trkpt lat="46.52485" lon="0.31077">
        <ele>201.19</ele>
        <time>2018-06-03T07:36:37.999Z</time>
      </trkpt>
      <trkpt lat="46.52491" lon="0.31064">
        <ele>200.04</ele>
        <time>2018-06-03T07:36:40.999Z</time>
      </trkpt>
      <trkpt lat="46.52496" lon="0.31048">
        <ele>198.92</ele>
        <time>2018-06-03T07:36:43.999Z</time>
      </trkpt>
      <trkpt lat="46.52501" lon="0.31032">
        <ele>197.54</ele>
        <time>2018-06-03T07:36:47.999Z</time>
      </trkpt>
      <trkpt lat="46.52505" lon="0.31015">
        <ele>196.3</ele>
        <time>2018-06-03T07:36:51.999Z</time>
      </trkpt>
      <trkpt lat="46.52509" lon="0.31">
        <ele>195.54</ele>
        <time>2018-06-03T07:36:54.999Z</time>
      </trkpt>
      <trkpt lat="46.52514" lon="0.30984">
        <ele>194.81</ele>
        <time>2018-06-03T07:36:57.999Z</time>
      </trkpt>
      <trkpt lat="46.52521" lon="0.30969">
        <ele>192.06</ele>
        <time>2018-06-03T07:37:00.999Z</time>
      </trkpt>
      <trkpt lat="46.52526" lon="0.30958">
        <ele>190.74</ele>
        <time>2018-06-03T07:37:02.999Z</time>
      </trkpt>
      <trkpt lat="46.5253" lon="0.30944">
        <ele>190.3</ele>
        <time>2018-06-03T07:37:05.999Z</time>
      </trkpt>
      <trkpt lat="46.52534" lon="0.3093">
        <ele>190.28</ele>
        <time>2018-06-03T07:37:08.999Z</time>
      </trkpt>
      <trkpt lat="46.52541" lon="0.30916">
        <ele>190.54</ele>
        <time>2018-06-03T07:37:11.999Z</time>
      </trkpt>
      <trkpt lat="46.52548" lon="0.30903">
        <ele>191.03</ele>
        <time>2018-06-03T07:37:14.999Z</time>
      </trkpt>
      <trkpt lat="46.52553" lon="0.30886">
        <ele>191.78</ele>
        <time>2018-06-03T07:37:17.999Z</time>
      </trkpt>
      <trkpt lat="46.52557" lon="0.30875">
        <ele>192.83</ele>
        <time>2018-06-03T07:37:19.999Z</time>
      </trkpt>
      <trkpt lat="46.52561" lon="0.30863">
        <ele>193.79</ele>
        <time>2018-06-03T07:37:21.999Z</time>
      </trkpt>
      <trkpt lat="46.52564" lon="0.30845">
        <ele>193.47</ele>
        <time>2018-06-03T07:37:24.999Z</time>
      </trkpt>
      <trkpt lat="46.52562" lon="0.30826">
        <ele>192.88</ele>
        <time>2018-06-03T07:37:27.999Z</time>
      </trkpt>
      <trkpt lat="46.52562" lon="0.30813">
        <ele>192.33</ele>
        <time>2018-06-03T07:37:29.999Z</time>
      </trkpt>
      <trkpt lat="46.52562" lon="0.30799">
        <ele>191.46</ele>
        <time>2018-06-03T07:37:31.999Z</time>
      </trkpt>
      <trkpt lat="46.52566" lon="0.3078">
        <ele>190.5</ele>
        <time>2018-06-03T07:37:34.999Z</time>
      </trkpt>
      <trkpt lat="46.5257" lon="0.30762">
        <ele>190.21</ele>
        <time>2018-06-03T07:37:37.999Z</time>
      </trkpt>
      <trkpt lat="46.52572" lon="0.30748">
        <ele>190.41</ele>
        <time>2018-06-03T07:37:39.999Z</time>
      </trkpt>
      <trkpt lat="46.52575" lon="0.30733">
        <ele>190.27</ele>
        <time>2018-06-03T07:37:41.999Z</time>
      </trkpt>
      <trkpt lat="46.52578" lon="0.30719">
        <ele>189.83</ele>
        <time>2018-06-03T07:37:43.999Z</time>
      </trkpt>
      <trkpt lat="46.52589" lon="0.30705">
        <ele>189.32</ele>
        <time>2018-06-03T07:37:46.999Z</time>
      </trkpt>
      <trkpt lat="46.52595" lon="0.30692">
        <ele>188.81</ele>
        <time>2018-06-03T07:37:48.999Z</time>
      </trkpt>
      <trkpt lat="46.52601" lon="0.30676">
        <ele>188.37</ele>
        <time>2018-06-03T07:37:50.999Z</time>
      </trkpt>
      <trkpt lat="46.52608" lon="0.3066">
        <ele>187.25</ele>
        <time>2018-06-03T07:37:52.999Z</time>
      </trkpt>
      <trkpt lat="46.52614" lon="0.30646">
        <ele>185.75</ele>
        <time>2018-06-03T07:37:54.999Z</time>
      </trkpt>
      <trkpt lat="46.52621" lon="0.30631">
        <ele>183.78</ele>
        <time>2018-06-03T07:37:56.999Z</time>
      </trkpt>
      <trkpt lat="46.52627" lon="0.30616">
        <ele>182.32</ele>
        <time>2018-06-03T07:37:58.999Z</time>
      </trkpt>
      <trkpt lat="46.52632" lon="0.30601">
        <ele>181.3</ele>
        <time>2018-06-03T07:38:00.999Z</time>
      </trkpt>
      <trkpt lat="46.52635" lon="0.30586">
        <ele>180.3</ele>
        <time>2018-06-03T07:38:02.999Z</time>
      </trkpt>
      <trkpt lat="46.52638" lon="0.30568">
        <ele>179.41</ele>
        <time>2018-06-03T07:38:04.999Z</time>
      </trkpt>
      <trkpt lat="46.52641" lon="0.30554">
        <ele>178.37</ele>
        <time>2018-06-03T07:38:06.999Z</time>
      </trkpt>
      <trkpt lat="46.52645" lon="0.30537">
        <ele>177.83</ele>
        <time>2018-06-03T07:38:09.999Z</time>
      </trkpt>
      <trkpt lat="46.52649" lon="0.30521">
        <ele>177.36</ele>
        <time>2018-06-03T07:38:12.999Z</time>
      </trkpt>
      <trkpt lat="46.52647" lon="0.30502">
        <ele>177.19</ele>
        <time>2018-06-03T07:38:15.999Z</time>
      </trkpt>
      <trkpt lat="46.52646" lon="0.30488">
        <ele>177.03</ele>
        <time>2018-06-03T07:38:18.999Z</time>
      </trkpt>
      <trkpt lat="46.52646" lon="0.30469">
        <ele>176.93</ele>
        <time>2018-06-03T07:38:21.999Z</time>
      </trkpt>
      <trkpt lat="46.52644" lon="0.30455">
        <ele>176.97</ele>
        <time>2018-06-03T07:38:24.999Z</time>
      </trkpt>
      <trkpt lat="46.52641" lon="0.30436">
        <ele>177.53</ele>
        <time>2018-06-03T07:38:30.999Z</time>
      </trkpt>
      <trkpt lat="46.52639" lon="0.30422">
        <ele>179.11</ele>
        <time>2018-06-03T07:38:41.999Z</time>
      </trkpt>
      <trkpt lat="46.52643" lon="0.30406">
        <ele>180.39</ele>
        <time>2018-06-03T07:38:46.999Z</time>
      </trkpt>
      <trkpt lat="46.52642" lon="0.30392">
        <ele>181.12</ele>
        <time>2018-06-03T07:38:50.999Z</time>
      </trkpt>
      <trkpt lat="46.52644" lon="0.30375">
        <ele>181.67</ele>
        <time>2018-06-03T07:38:55.999Z</time>
      </trkpt>
      <trkpt lat="46.52641" lon="0.30361">
        <ele>182</ele>
        <time>2018-06-03T07:38:59.999Z</time>
      </trkpt>
      <trkpt lat="46.52639" lon="0.30346">
        <ele>182.37</ele>
        <time>2018-06-03T07:39:03.999Z</time>
      </trkpt>
      <trkpt lat="46.52634" lon="0.30333">
        <ele>182.63</ele>
        <time>2018-06-03T07:39:06.999Z</time>
      </trkpt>
      <trkpt lat="46.52632" lon="0.30318">
        <ele>182.85</ele>
        <time>2018-06-03T07:39:11.999Z</time>
      </trkpt>
      <trkpt lat="46.52626" lon="0.30304">
        <ele>182.92</ele>
        <time>2018-06-03T07:39:15.999Z</time>
      </trkpt>
      <trkpt lat="46.52619" lon="0.30293">
        <ele>182.86</ele>
        <time>2018-06-03T07:39:19.999Z</time>
      </trkpt>
      <trkpt lat="46.52609" lon="0.30289">
        <ele>182.94</ele>
        <time>2018-06-03T07:39:22.999Z</time>
      </trkpt>
      <trkpt lat="46.526" lon="0.30283">
        <ele>183.06</ele>
        <time>2018-06-03T07:39:25.999Z</time>
      </trkpt>
      <trkpt lat="46.52593" lon="0.30274">
        <ele>183.44</ele>
        <time>2018-06-03T07:39:29.999Z</time>
      </trkpt>
      <trkpt lat="46.52584" lon="0.30268">
        <ele>183.77</ele>
        <time>2018-06-03T07:39:32.999Z</time>
      </trkpt>
      <trkpt lat="46.52574" lon="0.30262">
        <ele>184.15</ele>
        <time>2018-06-03T07:39:35.999Z</time>
      </trkpt>
      <trkpt lat="46.52563" lon="0.30254">
        <ele>184.25</ele>
        <time>2018-06-03T07:39:38.999Z</time>
      </trkpt>
      <trkpt lat="46.52553" lon="0.30245">
        <ele>184.16</ele>
        <time>2018-06-03T07:39:41.999Z</time>
      </trkpt>
      <trkpt lat="46.52544" lon="0.30245">
        <ele>183.84</ele>
        <time>2018-06-03T07:39:45.999Z</time>
      </trkpt>
      <trkpt lat="46.52532" lon="0.30248">
        <ele>183.49</ele>
        <time>2018-06-03T07:39:48.999Z</time>
      </trkpt>
      <trkpt lat="46.52521" lon="0.30251">
        <ele>183.05</ele>
        <time>2018-06-03T07:39:52.999Z</time>
      </trkpt>
      <trkpt lat="46.52509" lon="0.30252">
        <ele>182.87</ele>
        <time>2018-06-03T07:39:56.999Z</time>
      </trkpt>
      <trkpt lat="46.52501" lon="0.30248">
        <ele>182.84</ele>
        <time>2018-06-03T07:39:58.999Z</time>
      </trkpt>
      <trkpt lat="46.5249" lon="0.30249">
        <ele>183.19</ele>
        <time>2018-06-03T07:40:00.999Z</time>
      </trkpt>
      <trkpt lat="46.5248" lon="0.30251">
        <ele>183.24</ele>
        <time>2018-06-03T07:40:02.999Z</time>
      </trkpt>
      <trkpt lat="46.52469" lon="0.30252">
        <ele>183.36</ele>
        <time>2018-06-03T07:40:06.999Z</time>
      </trkpt>
      <trkpt lat="46.52458" lon="0.30256">
        <ele>183.05</ele>
        <time>2018-06-03T07:40:12.999Z</time>
      </trkpt>
      <trkpt lat="46.52448" lon="0.30259">
        <ele>182.95</ele>
        <time>2018-06-03T07:40:14.999Z</time>
      </trkpt>
      <trkpt lat="46.52439" lon="0.30264">
        <ele>182.92</ele>
        <time>2018-06-03T07:40:16.999Z</time>
      </trkpt>
      <trkpt lat="46.52425" lon="0.30268">
        <ele>182.84</ele>
        <time>2018-06-03T07:40:21.999Z</time>
      </trkpt>
      <trkpt lat="46.52413" lon="0.30272">
        <ele>183.04</ele>
        <time>2018-06-03T07:40:24.999Z</time>
      </trkpt>
      <trkpt lat="46.52404" lon="0.30274">
        <ele>183.02</ele>
        <time>2018-06-03T07:40:28.999Z</time>
      </trkpt>
      <trkpt lat="46.52394" lon="0.30276">
        <ele>183.07</ele>
        <time>2018-06-03T07:40:33.999Z</time>
      </trkpt>
      <trkpt lat="46.52383" lon="0.30276">
        <ele>183.44</ele>
        <time>2018-06-03T07:40:38.999Z</time>
      </trkpt>
      <trkpt lat="46.52373" lon="0.30274">
        <ele>183.85</ele>
        <time>2018-06-03T07:40:43.999Z</time>
      </trkpt>
      <trkpt lat="46.52364" lon="0.30275">
        <ele>184.32</ele>
        <time>2018-06-03T07:40:48.999Z</time>
      </trkpt>
      <trkpt lat="46.52355" lon="0.30274">
        <ele>184.89</ele>
        <time>2018-06-03T07:40:56.999Z</time>
      </trkpt>
      <trkpt lat="46.52346" lon="0.30277">
        <ele>185.13</ele>
        <time>2018-06-03T07:41:01.999Z</time>
      </trkpt>
      <trkpt lat="46.52337" lon="0.30279">
        <ele>185.56</ele>
        <time>2018-06-03T07:41:05.999Z</time>
      </trkpt>
      <trkpt lat="46.52327" lon="0.30282">
        <ele>186.2</ele>
        <time>2018-06-03T07:41:09.999Z</time>
      </trkpt>
      <trkpt lat="46.52318" lon="0.30283">
        <ele>187.36</ele>
        <time>2018-06-03T07:41:14.999Z</time>
      </trkpt>
      <trkpt lat="46.52309" lon="0.30286">
        <ele>188.39</ele>
        <time>2018-06-03T07:41:18.999Z</time>
      </trkpt>
      <trkpt lat="46.52298" lon="0.30286">
        <ele>189.55</ele>
        <time>2018-06-03T07:41:22.999Z</time>
      </trkpt>
      <trkpt lat="46.52287" lon="0.30283">
        <ele>190.7</ele>
        <time>2018-06-03T07:41:26.999Z</time>
      </trkpt>
      <trkpt lat="46.52279" lon="0.30275">
        <ele>191.69</ele>
        <time>2018-06-03T07:41:30.999Z</time>
      </trkpt>
      <trkpt lat="46.52271" lon="0.30267">
        <ele>192.99</ele>
        <time>2018-06-03T07:41:36.999Z</time>
      </trkpt>
      <trkpt lat="46.52264" lon="0.30259">
        <ele>194.05</ele>
        <time>2018-06-03T07:41:42.999Z</time>
      </trkpt>
      <trkpt lat="46.52259" lon="0.30245">
        <ele>195.25</ele>
        <time>2018-06-03T07:41:49.999Z</time>
      </trkpt>
      <trkpt lat="46.52256" lon="0.30232">
        <ele>196.05</ele>
        <time>2018-06-03T07:41:54.999Z</time>
      </trkpt>
      <trkpt lat="46.52256" lon="0.30219">
        <ele>196.88</ele>
        <time>2018-06-03T07:42:00.999Z</time>
      </trkpt>
      <trkpt lat="46.52255" lon="0.30206">
        <ele>197.17</ele>
        <time>2018-06-03T07:42:05.999Z</time>
      </trkpt>
      <trkpt lat="46.52256" lon="0.3019">
        <ele>197.3</ele>
        <time>2018-06-03T07:42:09.999Z</time>
      </trkpt>
      <trkpt lat="46.52256" lon="0.30175">
        <ele>197.56</ele>
        <time>2018-06-03T07:42:14.999Z</time>
      </trkpt>
      <trkpt lat="46.52251" lon="0.30163">
        <ele>197.65</ele>
        <time>2018-06-03T07:42:20.999Z</time>
      </trkpt>
      <trkpt lat="46.52248" lon="0.3015">
        <ele>197.72</ele>
        <time>2018-06-03T07:42:24.999Z</time>
      </trkpt>
      <trkpt lat="46.52243" lon="0.30136">
        <ele>197.83</ele>
        <time>2018-06-03T07:42:28.999Z</time>
      </trkpt>
      <trkpt lat="46.52242" lon="0.30122">
        <ele>197.92</ele>
        <time>2018-06-03T07:42:31.999Z</time>
      </trkpt>
      <trkpt lat="46.52245" lon="0.30106">
        <ele>198.03</ele>
        <time>2018-06-03T07:42:34.999Z</time>
      </trkpt>
      <trkpt lat="46.5225" lon="0.30092">
        <ele>198.13</ele>
        <time>2018-06-03T07:42:37.999Z</time>
      </trkpt>
      <trkpt lat="46.52255" lon="0.30075">
        <ele>198.13</ele>
        <time>2018-06-03T07:42:40.999Z</time>
      </trkpt>
      <trkpt lat="46.52261" lon="0.3006">
        <ele>196.33</ele>
        <time>2018-06-03T07:42:42.999Z</time>
      </trkpt>
      <trkpt lat="46.52265" lon="0.30043">
        <ele>194.68</ele>
        <time>2018-06-03T07:42:44.999Z</time>
      </trkpt>
      <trkpt lat="46.52266" lon="0.3003">
        <ele>193.14</ele>
        <time>2018-06-03T07:42:46.999Z</time>
      </trkpt>
      <trkpt lat="46.52268" lon="0.30017">
        <ele>192.4</ele>
        <time>2018-06-03T07:42:48.999Z</time>
      </trkpt>
      <trkpt lat="46.52268" lon="0.29996">
        <ele>190.71</ele>
        <time>2018-06-03T07:42:51.999Z</time>
      </trkpt>
      <trkpt lat="46.52269" lon="0.2998">
        <ele>188.55</ele>
        <time>2018-06-03T07:42:53.999Z</time>
      </trkpt>
      <trkpt lat="46.52271" lon="0.29961">
        <ele>185.66</ele>
        <time>2018-06-03T07:42:55.999Z</time>
      </trkpt>
      <trkpt lat="46.52271" lon="0.29944">
        <ele>183.47</ele>
        <time>2018-06-03T07:42:57.999Z</time>
      </trkpt>
      <trkpt lat="46.52276" lon="0.29932">
        <ele>181.72</ele>
        <time>2018-06-03T07:42:59.999Z</time>
      </trkpt>
      <trkpt lat="46.52277" lon="0.29918">
        <ele>180.84</ele>
        <time>2018-06-03T07:43:02.999Z</time>
      </trkpt>
      <trkpt lat="46.52275" lon="0.29902">
        <ele>179.82</ele>
        <time>2018-06-03T07:43:04.999Z</time>
      </trkpt>
      <trkpt lat="46.52274" lon="0.29886">
        <ele>179.11</ele>
        <time>2018-06-03T07:43:06.999Z</time>
      </trkpt>
      <trkpt lat="46.5227" lon="0.29872">
        <ele>179.07</ele>
        <time>2018-06-03T07:43:08.999Z</time>
      </trkpt>
      <trkpt lat="46.52279" lon="0.29857">
        <ele>179.76</ele>
        <time>2018-06-03T07:43:12.999Z</time>
      </trkpt>
      <trkpt lat="46.52284" lon="0.29845">
        <ele>180.1</ele>
        <time>2018-06-03T07:43:14.999Z</time>
      </trkpt>
      <trkpt lat="46.5229" lon="0.29831">
        <ele>180.25</ele>
        <time>2018-06-03T07:43:17.999Z</time>
      </trkpt>
      <trkpt lat="46.52294" lon="0.29815">
        <ele>180.22</ele>
        <time>2018-06-03T07:43:20.999Z</time>
      </trkpt>
      <trkpt lat="46.52302" lon="0.29808">
        <ele>180.14</ele>
        <time>2018-06-03T07:43:24.999Z</time>
      </trkpt>
      <trkpt lat="46.52311" lon="0.29804">
        <ele>180.06</ele>
        <time>2018-06-03T07:43:29.999Z</time>
      </trkpt>
      <trkpt lat="46.52318" lon="0.29792">
        <ele>179.66</ele>
        <time>2018-06-03T07:43:34.999Z</time>
      </trkpt>
      <trkpt lat="46.5233" lon="0.29796">
        <ele>179.36</ele>
        <time>2018-06-03T07:43:38.999Z</time>
      </trkpt>
      <trkpt lat="46.52342" lon="0.29804">
        <ele>178.91</ele>
        <time>2018-06-03T07:43:41.999Z</time>
      </trkpt>
      <trkpt lat="46.52351" lon="0.29813">
        <ele>178.17</ele>
        <time>2018-06-03T07:43:45.999Z</time>
      </trkpt>
      <trkpt lat="46.5236" lon="0.29824">
        <ele>177.55</ele>
        <time>2018-06-03T07:43:48.999Z</time>
      </trkpt>
      <trkpt lat="46.52372" lon="0.2983">
        <ele>177.14</ele>
        <time>2018-06-03T07:43:50.999Z</time>
      </trkpt>
      <trkpt lat="46.52379" lon="0.29842">
        <ele>176.78</ele>
        <time>2018-06-03T07:43:52.999Z</time>
      </trkpt>
      <trkpt lat="46.52385" lon="0.29852">
        <ele>176.18</ele>
        <time>2018-06-03T07:43:55.999Z</time>
      </trkpt>
      <trkpt lat="46.5239" lon="0.29864">
        <ele>175.88</ele>
        <time>2018-06-03T07:43:57.999Z</time>
      </trkpt>
      <trkpt lat="46.52395" lon="0.29877">
        <ele>175.49</ele>
        <time>2018-06-03T07:43:59.999Z</time>
      </trkpt>
      <trkpt lat="46.52404" lon="0.29873">
        <ele>173.11</ele>
        <time>2018-06-03T07:44:14.999Z</time>
      </trkpt>
      <trkpt lat="46.52413" lon="0.29871">
        <ele>168.48</ele>
        <time>2018-06-03T07:44:35.999Z</time>
      </trkpt>
      <trkpt lat="46.52422" lon="0.29866">
        <ele>165.76</ele>
        <time>2018-06-03T07:44:47.999Z</time>
      </trkpt>
      <trkpt lat="46.5243" lon="0.29873">
        <ele>165.15</ele>
        <time>2018-06-03T07:44:54.999Z</time>
      </trkpt>
      <trkpt lat="46.52438" lon="0.29879">
        <ele>164.88</ele>
        <time>2018-06-03T07:45:11.999Z</time>
      </trkpt>
      <trkpt lat="46.52431" lon="0.29868">
        <ele>167.59</ele>
        <time>2018-06-03T07:46:01.999Z</time>
      </trkpt>
      <trkpt lat="46.52422" lon="0.29861">
        <ele>168.21</ele>
        <time>2018-06-03T07:46:06.999Z</time>
      </trkpt>
      <trkpt lat="46.52413" lon="0.29856">
        <ele>168.6</ele>
        <time>2018-06-03T07:46:10.999Z</time>
      </trkpt>
      <trkpt lat="46.52405" lon="0.29849">
        <ele>168.9</ele>
        <time>2018-06-03T07:46:13.999Z</time>
      </trkpt>
      <trkpt lat="46.52397" lon="0.29841">
        <ele>169.23</ele>
        <time>2018-06-03T07:46:17.999Z</time>
      </trkpt>
      <trkpt lat="46.52388" lon="0.29831">
        <ele>169.44</ele>
        <time>2018-06-03T07:46:22.999Z</time>
      </trkpt>
      <trkpt lat="46.52379" lon="0.29821">
        <ele>169.6</ele>
        <time>2018-06-03T07:46:27.999Z</time>
      </trkpt>
      <trkpt lat="46.52371" lon="0.29814">
        <ele>169.79</ele>
        <time>2018-06-03T07:46:30.999Z</time>
      </trkpt>
      <trkpt lat="46.52363" lon="0.29807">
        <ele>170.06</ele>
        <time>2018-06-03T07:46:33.999Z</time>
      </trkpt>
      <trkpt lat="46.52353" lon="0.29798">
        <ele>170.45</ele>
        <time>2018-06-03T07:46:38.999Z</time>
      </trkpt>
      <trkpt lat="46.52343" lon="0.29791">
        <ele>170.57</ele>
        <time>2018-06-03T07:46:41.999Z</time>
      </trkpt>
      <trkpt lat="46.52335" lon="0.29782">
        <ele>170.6</ele>
        <time>2018-06-03T07:46:44.999Z</time>
      </trkpt>
      <trkpt lat="46.52325" lon="0.29775">
        <ele>170.56</ele>
        <time>2018-06-03T07:46:47.999Z</time>
      </trkpt>
      <trkpt lat="46.52317" lon="0.29769">
        <ele>170.51</ele>
        <time>2018-06-03T07:46:50.999Z</time>
      </trkpt>
      <trkpt lat="46.52309" lon="0.29761">
        <ele>169.92</ele>
        <time>2018-06-03T07:46:53.999Z</time>
      </trkpt>
      <trkpt lat="46.52299" lon="0.29756">
        <ele>169.82</ele>
        <time>2018-06-03T07:46:56.999Z</time>
      </trkpt>
      <trkpt lat="46.5229" lon="0.29749">
        <ele>169.68</ele>
        <time>2018-06-03T07:46:59.999Z</time>
      </trkpt>
      <trkpt lat="46.52282" lon="0.2974">
        <ele>169.51</ele>
        <time>2018-06-03T07:47:02.999Z</time>
      </trkpt>
      <trkpt lat="46.52273" lon="0.2973">
        <ele>168.54</ele>
        <time>2018-06-03T07:47:05.999Z</time>
      </trkpt>
      <trkpt lat="46.52262" lon="0.29722">
        <ele>165.37</ele>
        <time>2018-06-03T07:47:08.999Z</time>
      </trkpt>
      <trkpt lat="46.52252" lon="0.29714">
        <ele>163.39</ele>
        <time>2018-06-03T07:47:10.999Z</time>
      </trkpt>
      <trkpt lat="46.52243" lon="0.29707">
        <ele>162.78</ele>
        <time>2018-06-03T07:47:13.999Z</time>
      </trkpt>
      <trkpt lat="46.5224" lon="0.2972">
        <ele>161.31</ele>
        <time>2018-06-03T07:47:24.999Z</time>
      </trkpt>
      <trkpt lat="46.52232" lon="0.2973">
        <ele>160.28</ele>
        <time>2018-06-03T07:47:32.999Z</time>
      </trkpt>
      <trkpt lat="46.52222" lon="0.29733">
        <ele>159.85</ele>
        <time>2018-06-03T07:47:38.999Z</time>
      </trkpt>
      <trkpt lat="46.5221" lon="0.29731">
        <ele>159.7</ele>
        <time>2018-06-03T07:47:42.999Z</time>
      </trkpt>
      <trkpt lat="46.52202" lon="0.2973">
        <ele>159.75</ele>
        <time>2018-06-03T07:47:45.999Z</time>
      </trkpt>
      <trkpt lat="46.5219" lon="0.29729">
        <ele>160.08</ele>
        <time>2018-06-03T07:47:48.999Z</time>
      </trkpt>
      <trkpt lat="46.5218" lon="0.29724">
        <ele>161.02</ele>
        <time>2018-06-03T07:47:53.999Z</time>
      </trkpt>
      <trkpt lat="46.52169" lon="0.29721">
        <ele>162.13</ele>
        <time>2018-06-03T07:47:58.999Z</time>
      </trkpt>
      <trkpt lat="46.5216" lon="0.29716">
        <ele>163.5</ele>
        <time>2018-06-03T07:48:03.999Z</time>
      </trkpt>
      <trkpt lat="46.52152" lon="0.29709">
        <ele>165.92</ele>
        <time>2018-06-03T07:48:11.999Z</time>
      </trkpt>
      <trkpt lat="46.52146" lon="0.29698">
        <ele>168.11</ele>
        <time>2018-06-03T07:48:16.999Z</time>
      </trkpt>
      <trkpt lat="46.52139" lon="0.29688">
        <ele>169.36</ele>
        <time>2018-06-03T07:48:19.999Z</time>
      </trkpt>
      <trkpt lat="46.52128" lon="0.2968">
        <ele>170.62</ele>
        <time>2018-06-03T07:48:22.999Z</time>
      </trkpt>
      <trkpt lat="46.52119" lon="0.29672">
        <ele>171.58</ele>
        <time>2018-06-03T07:48:25.999Z</time>
      </trkpt>
      <trkpt lat="46.5211" lon="0.29663">
        <ele>172.7</ele>
        <time>2018-06-03T07:48:30.999Z</time>
      </trkpt>
      <trkpt lat="46.521" lon="0.29653">
        <ele>173.3</ele>
        <time>2018-06-03T07:48:34.999Z</time>
      </trkpt>
      <trkpt lat="46.52091" lon="0.29645">
        <ele>173.66</ele>
        <time>2018-06-03T07:48:37.999Z</time>
      </trkpt>
      <trkpt lat="46.52081" lon="0.29639">
        <ele>175.25</ele>
        <time>2018-06-03T07:48:39.999Z</time>
      </trkpt>
      <trkpt lat="46.52071" lon="0.29633">
        <ele>175.42</ele>
        <time>2018-06-03T07:48:42.999Z</time>
      </trkpt>
      <trkpt lat="46.52059" lon="0.29624">
        <ele>176.88</ele>
        <time>2018-06-03T07:48:45.999Z</time>
      </trkpt>
      <trkpt lat="46.52051" lon="0.29617">
        <ele>177.07</ele>
        <time>2018-06-03T07:48:47.999Z</time>
      </trkpt>
      <trkpt lat="46.52042" lon="0.29605">
        <ele>177.24</ele>
        <time>2018-06-03T07:48:50.999Z</time>
      </trkpt>
      <trkpt lat="46.52035" lon="0.29597">
        <ele>177.69</ele>
        <time>2018-06-03T07:48:52.999Z</time>
      </trkpt>
      <trkpt lat="46.52025" lon="0.29589">
        <ele>177.76</ele>
        <time>2018-06-03T07:48:56.999Z</time>
      </trkpt>
      <trkpt lat="46.52013" lon="0.29583">
        <ele>177.07</ele>
        <time>2018-06-03T07:48:59.999Z</time>
      </trkpt>
      <trkpt lat="46.52003" lon="0.29581">
        <ele>176.97</ele>
        <time>2018-06-03T07:49:03.999Z</time>
      </trkpt>
      <trkpt lat="46.51994" lon="0.29575">
        <ele>176.39</ele>
        <time>2018-06-03T07:49:13.999Z</time>
      </trkpt>
      <trkpt lat="46.51983" lon="0.29575">
        <ele>175.95</ele>
        <time>2018-06-03T07:49:19.999Z</time>
      </trkpt>
      <trkpt lat="46.51974" lon="0.29571">
        <ele>175.84</ele>
        <time>2018-06-03T07:49:22.999Z</time>
      </trkpt>
      <trkpt lat="46.51965" lon="0.29565">
        <ele>175.8</ele>
        <time>2018-06-03T07:49:25.999Z</time>
      </trkpt>
      <trkpt lat="46.51957" lon="0.29554">
        <ele>175.79</ele>
        <time>2018-06-03T07:49:28.999Z</time>
      </trkpt>
      <trkpt lat="46.51948" lon="0.29541">
        <ele>176.06</ele>
        <time>2018-06-03T07:49:31.999Z</time>
      </trkpt>
      <trkpt lat="46.5194" lon="0.29528">
        <ele>176.17</ele>
        <time>2018-06-03T07:49:34.999Z</time>
      </trkpt>
      <trkpt lat="46.51931" lon="0.29516">
        <ele>176.48</ele>
        <time>2018-06-03T07:49:37.999Z</time>
      </trkpt>
      <trkpt lat="46.51924" lon="0.29504">
        <ele>176.55</ele>
        <time>2018-06-03T07:49:40.999Z</time>
      </trkpt>
      <trkpt lat="46.51915" lon="0.29492">
        <ele>176.8</ele>
        <time>2018-06-03T07:49:43.999Z</time>
      </trkpt>
      <trkpt lat="46.51907" lon="0.29482">
        <ele>176.55</ele>
        <time>2018-06-03T07:49:46.999Z</time>
      </trkpt>
      <trkpt lat="46.51895" lon="0.29477">
        <ele>175.79</ele>
        <time>2018-06-03T07:49:49.999Z</time>
      </trkpt>
      <trkpt lat="46.51887" lon="0.29466">
        <ele>175.83</ele>
        <time>2018-06-03T07:49:51.999Z</time>
      </trkpt>
      <trkpt lat="46.5188" lon="0.29455">
        <ele>175.74</ele>
        <time>2018-06-03T07:49:53.999Z</time>
      </trkpt>
      <trkpt lat="46.51872" lon="0.29441">
        <ele>175.78</ele>
        <time>2018-06-03T07:49:56.999Z</time>
      </trkpt>
      <trkpt lat="46.51864" lon="0.29426">
        <ele>175.96</ele>
        <time>2018-06-03T07:49:59.999Z</time>
      </trkpt>
      <trkpt lat="46.5186" lon="0.29413">
        <ele>175.91</ele>
        <time>2018-06-03T07:50:02.999Z</time>
      </trkpt>
      <trkpt lat="46.51858" lon="0.294">
        <ele>176.09</ele>
        <time>2018-06-03T07:50:13.999Z</time>
      </trkpt>
      <trkpt lat="46.51859" lon="0.29413">
        <ele>174.71</ele>
        <time>2018-06-03T07:50:37.999Z</time>
      </trkpt>
      <trkpt lat="46.51859" lon="0.29427">
        <ele>174.51</ele>
        <time>2018-06-03T07:50:45.999Z</time>
      </trkpt>
      <trkpt lat="46.51861" lon="0.29441">
        <ele>174.08</ele>
        <time>2018-06-03T07:50:54.999Z</time>
      </trkpt>
      <trkpt lat="46.5186" lon="0.29454">
        <ele>173.82</ele>
        <time>2018-06-03T07:50:58.999Z</time>
      </trkpt>
      <trkpt lat="46.51856" lon="0.29468">
        <ele>173.81</ele>
        <time>2018-06-03T07:51:03.999Z</time>
      </trkpt>
      <trkpt lat="46.51851" lon="0.29481">
        <ele>174.15</ele>
        <time>2018-06-03T07:51:08.999Z</time>
      </trkpt>
      <trkpt lat="46.51845" lon="0.29493">
        <ele>174.65</ele>
        <time>2018-06-03T07:51:13.999Z</time>
      </trkpt>
      <trkpt lat="46.51838" lon="0.29504">
        <ele>175.35</ele>
        <time>2018-06-03T07:51:18.999Z</time>
      </trkpt>
      <trkpt lat="46.51832" lon="0.29515">
        <ele>175.99</ele>
        <time>2018-06-03T07:51:22.999Z</time>
      </trkpt>
      <trkpt lat="46.51826" lon="0.29526">
        <ele>176.89</ele>
        <time>2018-06-03T07:51:28.999Z</time>
      </trkpt>
      <trkpt lat="46.5182" lon="0.29538">
        <ele>177.86</ele>
        <time>2018-06-03T07:51:34.999Z</time>
      </trkpt>
      <trkpt lat="46.51814" lon="0.2955">
        <ele>179</ele>
        <time>2018-06-03T07:51:40.999Z</time>
      </trkpt>
      <trkpt lat="46.51808" lon="0.2956">
        <ele>180.09</ele>
        <time>2018-06-03T07:51:45.999Z</time>
      </trkpt>
      <trkpt lat="46.51801" lon="0.29571">
        <ele>181.22</ele>
        <time>2018-06-03T07:51:50.999Z</time>
      </trkpt>
      <trkpt lat="46.51793" lon="0.29581">
        <ele>182.05</ele>
        <time>2018-06-03T07:51:54.999Z</time>
      </trkpt>
      <trkpt lat="46.51785" lon="0.29591">
        <ele>183</ele>
        <time>2018-06-03T07:51:59.999Z</time>
      </trkpt>
      <trkpt lat="46.51778" lon="0.296">
        <ele>183.63</ele>
        <time>2018-06-03T07:52:03.999Z</time>
      </trkpt>
      <trkpt lat="46.51772" lon="0.29612">
        <ele>184.15</ele>
        <time>2018-06-03T07:52:08.999Z</time>
      </trkpt>
      <trkpt lat="46.51767" lon="0.29624">
        <ele>184.29</ele>
        <time>2018-06-03T07:52:12.999Z</time>
      </trkpt>
      <trkpt lat="46.51762" lon="0.29637">
        <ele>184.42</ele>
        <time>2018-06-03T07:52:17.999Z</time>
      </trkpt>
      <trkpt lat="46.51756" lon="0.29651">
        <ele>184.77</ele>
        <time>2018-06-03T07:52:22.999Z</time>
      </trkpt>
      <trkpt lat="46.51749" lon="0.29663">
        <ele>185.41</ele>
        <time>2018-06-03T07:52:27.999Z</time>
      </trkpt>
      <trkpt lat="46.51742" lon="0.29675">
        <ele>185.94</ele>
        <time>2018-06-03T07:52:31.999Z</time>
      </trkpt>
      <trkpt lat="46.51734" lon="0.29687">
        <ele>186.37</ele>
        <time>2018-06-03T07:52:35.999Z</time>
      </trkpt>
      <trkpt lat="46.51727" lon="0.29698">
        <ele>186.72</ele>
        <time>2018-06-03T07:52:39.999Z</time>
      </trkpt>
      <trkpt lat="46.51716" lon="0.29702">
        <ele>187.12</ele>
        <time>2018-06-03T07:52:43.999Z</time>
      </trkpt>
      <trkpt lat="46.51704" lon="0.29703">
        <ele>187.55</ele>
        <time>2018-06-03T07:52:47.999Z</time>
      </trkpt>
      <trkpt lat="46.51695" lon="0.29706">
        <ele>188</ele>
        <time>2018-06-03T07:52:51.999Z</time>
      </trkpt>
      <trkpt lat="46.51687" lon="0.29713">
        <ele>188.68</ele>
        <time>2018-06-03T07:52:56.999Z</time>
      </trkpt>
      <trkpt lat="46.51679" lon="0.2972">
        <ele>189.32</ele>
        <time>2018-06-03T07:53:00.999Z</time>
      </trkpt>
      <trkpt lat="46.51671" lon="0.2973">
        <ele>189.9</ele>
        <time>2018-06-03T07:53:04.999Z</time>
      </trkpt>
      <trkpt lat="46.51663" lon="0.29738">
        <ele>190.39</ele>
        <time>2018-06-03T07:53:08.999Z</time>
      </trkpt>
      <trkpt lat="46.51656" lon="0.29747">
        <ele>190.83</ele>
        <time>2018-06-03T07:53:12.999Z</time>
      </trkpt>
      <trkpt lat="46.51647" lon="0.29755">
        <ele>191.3</ele>
        <time>2018-06-03T07:53:16.999Z</time>
      </trkpt>
      <trkpt lat="46.51636" lon="0.29763">
        <ele>191.91</ele>
        <time>2018-06-03T07:53:21.999Z</time>
      </trkpt>
      <trkpt lat="46.51628" lon="0.2977">
        <ele>192.25</ele>
        <time>2018-06-03T07:53:25.999Z</time>
      </trkpt>
      <trkpt lat="46.51633" lon="0.29785">
        <ele>192.72</ele>
        <time>2018-06-03T07:53:31.999Z</time>
      </trkpt>
      <trkpt lat="46.51641" lon="0.29803">
        <ele>193.08</ele>
        <time>2018-06-03T07:53:36.999Z</time>
      </trkpt>
      <trkpt lat="46.51645" lon="0.29818">
        <ele>193.28</ele>
        <time>2018-06-03T07:53:40.999Z</time>
      </trkpt>
      <trkpt lat="46.51649" lon="0.29831">
        <ele>193.34</ele>
        <time>2018-06-03T07:53:44.999Z</time>
      </trkpt>
      <trkpt lat="46.51655" lon="0.29842">
        <ele>193.32</ele>
        <time>2018-06-03T07:53:48.999Z</time>
      </trkpt>
      <trkpt lat="46.51664" lon="0.29851">
        <ele>193.25</ele>
        <time>2018-06-03T07:53:52.999Z</time>
      </trkpt>
      <trkpt lat="46.51672" lon="0.29859">
        <ele>193.18</ele>
        <time>2018-06-03T07:53:55.999Z</time>
      </trkpt>
      <trkpt lat="46.51681" lon="0.29866">
        <ele>193.05</ele>
        <time>2018-06-03T07:53:58.999Z</time>
      </trkpt>
      <trkpt lat="46.51691" lon="0.29874">
        <ele>192.32</ele>
        <time>2018-06-03T07:54:01.999Z</time>
      </trkpt>
      <trkpt lat="46.51702" lon="0.2988">
        <ele>191.58</ele>
        <time>2018-06-03T07:54:04.999Z</time>
      </trkpt>
      <trkpt lat="46.51715" lon="0.29887">
        <ele>191.07</ele>
        <time>2018-06-03T07:54:07.999Z</time>
      </trkpt>
      <trkpt lat="46.51726" lon="0.29891">
        <ele>191.35</ele>
        <time>2018-06-03T07:54:10.999Z</time>
      </trkpt>
      <trkpt lat="46.51738" lon="0.29893">
        <ele>191.55</ele>
        <time>2018-06-03T07:54:13.999Z</time>
      </trkpt>
      <trkpt lat="46.51751" lon="0.29892">
        <ele>192.02</ele>
        <time>2018-06-03T07:54:16.999Z</time>
      </trkpt>
      <trkpt lat="46.51761" lon="0.29891">
        <ele>192.06</ele>
        <time>2018-06-03T07:54:18.999Z</time>
      </trkpt>
      <trkpt lat="46.51774" lon="0.2989">
        <ele>192.1</ele>
        <time>2018-06-03T07:54:21.999Z</time>
      </trkpt>
      <trkpt lat="46.51786" lon="0.29888">
        <ele>192.18</ele>
        <time>2018-06-03T07:54:24.999Z</time>
      </trkpt>
      <trkpt lat="46.51799" lon="0.29889">
        <ele>192.26</ele>
        <time>2018-06-03T07:54:27.999Z</time>
      </trkpt>
      <trkpt lat="46.51809" lon="0.29891">
        <ele>192.13</ele>
        <time>2018-06-03T07:54:29.999Z</time>
      </trkpt>
      <trkpt lat="46.51817" lon="0.29894">
        <ele>192.18</ele>
        <time>2018-06-03T07:54:31.999Z</time>
      </trkpt>
      <trkpt lat="46.51826" lon="0.29899">
        <ele>192.21</ele>
        <time>2018-06-03T07:54:33.999Z</time>
      </trkpt>
      <trkpt lat="46.51835" lon="0.29903">
        <ele>192.24</ele>
        <time>2018-06-03T07:54:35.999Z</time>
      </trkpt>
      <trkpt lat="46.51847" lon="0.29912">
        <ele>192.47</ele>
        <time>2018-06-03T07:54:38.999Z</time>
      </trkpt>
      <trkpt lat="46.51856" lon="0.29917">
        <ele>192.45</ele>
        <time>2018-06-03T07:54:40.999Z</time>
      </trkpt>
      <trkpt lat="46.51864" lon="0.29923">
        <ele>192.37</ele>
        <time>2018-06-03T07:54:42.999Z</time>
      </trkpt>
      <trkpt lat="46.51873" lon="0.29927">
        <ele>192.32</ele>
        <time>2018-06-03T07:54:44.999Z</time>
      </trkpt>
      <trkpt lat="46.51883" lon="0.2993">
        <ele>192.23</ele>
        <time>2018-06-03T07:54:46.999Z</time>
      </trkpt>
      <trkpt lat="46.51894" lon="0.29935">
        <ele>191.75</ele>
        <time>2018-06-03T07:54:48.999Z</time>
      </trkpt>
      <trkpt lat="46.51904" lon="0.29937">
        <ele>191.49</ele>
        <time>2018-06-03T07:54:50.999Z</time>
      </trkpt>
      <trkpt lat="46.51914" lon="0.29941">
        <ele>191.15</ele>
        <time>2018-06-03T07:54:52.999Z</time>
      </trkpt>
      <trkpt lat="46.51924" lon="0.29944">
        <ele>191.09</ele>
        <time>2018-06-03T07:54:54.999Z</time>
      </trkpt>
      <trkpt lat="46.51934" lon="0.29948">
        <ele>191.27</ele>
        <time>2018-06-03T07:54:56.999Z</time>
      </trkpt>
      <trkpt lat="46.51945" lon="0.29954">
        <ele>191.96</ele>
        <time>2018-06-03T07:54:59.999Z</time>
      </trkpt>
      <trkpt lat="46.51954" lon="0.2996">
        <ele>192.02</ele>
        <time>2018-06-03T07:55:01.999Z</time>
      </trkpt>
      <trkpt lat="46.51963" lon="0.29964">
        <ele>191.93</ele>
        <time>2018-06-03T07:55:03.999Z</time>
      </trkpt>
      <trkpt lat="46.51975" lon="0.29971">
        <ele>191.98</ele>
        <time>2018-06-03T07:55:06.999Z</time>
      </trkpt>
      <trkpt lat="46.51985" lon="0.29977">
        <ele>192.31</ele>
        <time>2018-06-03T07:55:08.999Z</time>
      </trkpt>
      <trkpt lat="46.51994" lon="0.29982">
        <ele>192.54</ele>
        <time>2018-06-03T07:55:10.999Z</time>
      </trkpt>
      <trkpt lat="46.52003" lon="0.29989">
        <ele>192.6</ele>
        <time>2018-06-03T07:55:12.999Z</time>
      </trkpt>
      <trkpt lat="46.52013" lon="0.29994">
        <ele>192.32</ele>
        <time>2018-06-03T07:55:14.999Z</time>
      </trkpt>
      <trkpt lat="46.52022" lon="0.29998">
        <ele>191.82</ele>
        <time>2018-06-03T07:55:16.999Z</time>
      </trkpt>
      <trkpt lat="46.52034" lon="0.30002">
        <ele>191.43</ele>
        <time>2018-06-03T07:55:19.999Z</time>
      </trkpt>
      <trkpt lat="46.52045" lon="0.30004">
        <ele>191.26</ele>
        <time>2018-06-03T07:55:22.999Z</time>
      </trkpt>
      <trkpt lat="46.52054" lon="0.30008">
        <ele>190.79</ele>
        <time>2018-06-03T07:55:24.999Z</time>
      </trkpt>
      <trkpt lat="46.52068" lon="0.30015">
        <ele>190.07</ele>
        <time>2018-06-03T07:55:27.999Z</time>
      </trkpt>
      <trkpt lat="46.52077" lon="0.30016">
        <ele>189.45</ele>
        <time>2018-06-03T07:55:29.999Z</time>
      </trkpt>
      <trkpt lat="46.52087" lon="0.3002">
        <ele>189.09</ele>
        <time>2018-06-03T07:55:31.999Z</time>
      </trkpt>
      <trkpt lat="46.52099" lon="0.30023">
        <ele>189.23</ele>
        <time>2018-06-03T07:55:34.999Z</time>
      </trkpt>
      <trkpt lat="46.52108" lon="0.30022">
        <ele>190.69</ele>
        <time>2018-06-03T07:55:36.999Z</time>
      </trkpt>
      <trkpt lat="46.52118" lon="0.30021">
        <ele>191.37</ele>
        <time>2018-06-03T07:55:38.999Z</time>
      </trkpt>
      <trkpt lat="46.52127" lon="0.30019">
        <ele>192.67</ele>
        <time>2018-06-03T07:55:40.999Z</time>
      </trkpt>
      <trkpt lat="46.52137" lon="0.30016">
        <ele>194.14</ele>
        <time>2018-06-03T07:55:42.999Z</time>
      </trkpt>
      <trkpt lat="46.5215" lon="0.3002">
        <ele>195.85</ele>
        <time>2018-06-03T07:55:45.999Z</time>
      </trkpt>
      <trkpt lat="46.5216" lon="0.30026">
        <ele>196.04</ele>
        <time>2018-06-03T07:55:48.999Z</time>
      </trkpt>
      <trkpt lat="46.52172" lon="0.30031">
        <ele>197.61</ele>
        <time>2018-06-03T07:55:52.999Z</time>
      </trkpt>
      <trkpt lat="46.52183" lon="0.30039">
        <ele>198.84</ele>
        <time>2018-06-03T07:55:55.999Z</time>
      </trkpt>
      <trkpt lat="46.52191" lon="0.30047">
        <ele>200.01</ele>
        <time>2018-06-03T07:55:57.999Z</time>
      </trkpt>
      <trkpt lat="46.52199" lon="0.30054">
        <ele>200.09</ele>
        <time>2018-06-03T07:55:59.999Z</time>
      </trkpt>
      <trkpt lat="46.52208" lon="0.30065">
        <ele>199.85</ele>
        <time>2018-06-03T07:56:01.999Z</time>
      </trkpt>
      <trkpt lat="46.52215" lon="0.30075">
        <ele>199.91</ele>
        <time>2018-06-03T07:56:03.999Z</time>
      </trkpt>
      <trkpt lat="46.52224" lon="0.30088">
        <ele>199.27</ele>
        <time>2018-06-03T07:56:05.999Z</time>
      </trkpt>
      <trkpt lat="46.52231" lon="0.30101">
        <ele>198.01</ele>
        <time>2018-06-03T07:56:07.999Z</time>
      </trkpt>
      <trkpt lat="46.5224" lon="0.30112">
        <ele>197.08</ele>
        <time>2018-06-03T07:56:09.999Z</time>
      </trkpt>
      <trkpt lat="46.52246" lon="0.30128">
        <ele>196.52</ele>
        <time>2018-06-03T07:56:11.999Z</time>
      </trkpt>
      <trkpt lat="46.52246" lon="0.30142">
        <ele>196.55</ele>
        <time>2018-06-03T07:56:13.999Z</time>
      </trkpt>
      <trkpt lat="46.52243" lon="0.30159">
        <ele>196.81</ele>
        <time>2018-06-03T07:56:15.999Z</time>
      </trkpt>
      <trkpt lat="46.52239" lon="0.30173">
        <ele>195.97</ele>
        <time>2018-06-03T07:56:17.999Z</time>
      </trkpt>
      <trkpt lat="46.52233" lon="0.30191">
        <ele>194.95</ele>
        <time>2018-06-03T07:56:19.999Z</time>
      </trkpt>
      <trkpt lat="46.52227" lon="0.30211">
        <ele>193.6</ele>
        <time>2018-06-03T07:56:21.999Z</time>
      </trkpt>
      <trkpt lat="46.52217" lon="0.3023">
        <ele>192.65</ele>
        <time>2018-06-03T07:56:23.999Z</time>
      </trkpt>
      <trkpt lat="46.52209" lon="0.3025">
        <ele>191.49</ele>
        <time>2018-06-03T07:56:25.999Z</time>
      </trkpt>
      <trkpt lat="46.522" lon="0.30267">
        <ele>190.42</ele>
        <time>2018-06-03T07:56:27.999Z</time>
      </trkpt>
      <trkpt lat="46.52195" lon="0.30289">
        <ele>189.85</ele>
        <time>2018-06-03T07:56:29.999Z</time>
      </trkpt>
      <trkpt lat="46.52188" lon="0.30311">
        <ele>188.87</ele>
        <time>2018-06-03T07:56:31.999Z</time>
      </trkpt>
      <trkpt lat="46.52182" lon="0.30335">
        <ele>188.17</ele>
        <time>2018-06-03T07:56:33.999Z</time>
      </trkpt>
      <trkpt lat="46.52178" lon="0.30361">
        <ele>187.19</ele>
        <time>2018-06-03T07:56:35.999Z</time>
      </trkpt>
      <trkpt lat="46.52177" lon="0.30374">
        <ele>186.58</ele>
        <time>2018-06-03T07:56:36.999Z</time>
      </trkpt>
      <trkpt lat="46.52175" lon="0.30387">
        <ele>185.83</ele>
        <time>2018-06-03T07:56:37.999Z</time>
      </trkpt>
      <trkpt lat="46.52174" lon="0.30401">
        <ele>185</ele>
        <time>2018-06-03T07:56:38.999Z</time>
      </trkpt>
      <trkpt lat="46.52173" lon="0.30415">
        <ele>184.12</ele>
        <time>2018-06-03T07:56:39.999Z</time>
      </trkpt>
      <trkpt lat="46.52176" lon="0.30427">
        <ele>183.25</ele>
        <time>2018-06-03T07:56:40.999Z</time>
      </trkpt>
      <trkpt lat="46.52182" lon="0.3045">
        <ele>181.72</ele>
        <time>2018-06-03T07:56:42.999Z</time>
      </trkpt>
      <trkpt lat="46.52186" lon="0.30466">
        <ele>180.46</ele>
        <time>2018-06-03T07:56:44.999Z</time>
      </trkpt>
      <trkpt lat="46.52185" lon="0.30484">
        <ele>179.22</ele>
        <time>2018-06-03T07:56:46.999Z</time>
      </trkpt>
      <trkpt lat="46.52185" lon="0.305">
        <ele>178.18</ele>
        <time>2018-06-03T07:56:48.999Z</time>
      </trkpt>
      <trkpt lat="46.52185" lon="0.30514">
        <ele>177.42</ele>
        <time>2018-06-03T07:56:50.999Z</time>
      </trkpt>
      <trkpt lat="46.5219" lon="0.30529">
        <ele>177.4</ele>
        <time>2018-06-03T07:56:53.999Z</time>
      </trkpt>
      <trkpt lat="46.52195" lon="0.30547">
        <ele>177.46</ele>
        <time>2018-06-03T07:56:56.999Z</time>
      </trkpt>
      <trkpt lat="46.52197" lon="0.3056">
        <ele>178.08</ele>
        <time>2018-06-03T07:56:58.999Z</time>
      </trkpt>
      <trkpt lat="46.52202" lon="0.30578">
        <ele>178.14</ele>
        <time>2018-06-03T07:57:01.999Z</time>
      </trkpt>
      <trkpt lat="46.52205" lon="0.30596">
        <ele>178.23</ele>
        <time>2018-06-03T07:57:04.999Z</time>
      </trkpt>
      <trkpt lat="46.5221" lon="0.3061">
        <ele>178.37</ele>
        <time>2018-06-03T07:57:07.999Z</time>
      </trkpt>
      <trkpt lat="46.52214" lon="0.30624">
        <ele>178.65</ele>
        <time>2018-06-03T07:57:11.999Z</time>
      </trkpt>
      <trkpt lat="46.52218" lon="0.30636">
        <ele>179</ele>
        <time>2018-06-03T07:57:15.999Z</time>
      </trkpt>
      <trkpt lat="46.52218" lon="0.3065">
        <ele>179.46</ele>
        <time>2018-06-03T07:57:18.999Z</time>
      </trkpt>
      <trkpt lat="46.52221" lon="0.30665">
        <ele>180.22</ele>
        <time>2018-06-03T07:57:23.999Z</time>
      </trkpt>
      <trkpt lat="46.52227" lon="0.30678">
        <ele>180.81</ele>
        <time>2018-06-03T07:57:28.999Z</time>
      </trkpt>
      <trkpt lat="46.52233" lon="0.3069">
        <ele>181.33</ele>
        <time>2018-06-03T07:57:32.999Z</time>
      </trkpt>
      <trkpt lat="46.52236" lon="0.30702">
        <ele>181.74</ele>
        <time>2018-06-03T07:57:35.999Z</time>
      </trkpt>
      <trkpt lat="46.5224" lon="0.30717">
        <ele>182.12</ele>
        <time>2018-06-03T07:57:38.999Z</time>
      </trkpt>
      <trkpt lat="46.52242" lon="0.30732">
        <ele>182.52</ele>
        <time>2018-06-03T07:57:41.999Z</time>
      </trkpt>
      <trkpt lat="46.52243" lon="0.30749">
        <ele>182.95</ele>
        <time>2018-06-03T07:57:44.999Z</time>
      </trkpt>
      <trkpt lat="46.52242" lon="0.30766">
        <ele>186.49</ele>
        <time>2018-06-03T07:57:47.999Z</time>
      </trkpt>
      <trkpt lat="46.52239" lon="0.30785">
        <ele>188.22</ele>
        <time>2018-06-03T07:57:50.999Z</time>
      </trkpt>
      <trkpt lat="46.52234" lon="0.30803">
        <ele>189.01</ele>
        <time>2018-06-03T07:57:53.999Z</time>
      </trkpt>
      <trkpt lat="46.5223" lon="0.30815">
        <ele>189.14</ele>
        <time>2018-06-03T07:57:55.999Z</time>
      </trkpt>
      <trkpt lat="46.52224" lon="0.30827">
        <ele>189.25</ele>
        <time>2018-06-03T07:57:57.999Z</time>
      </trkpt>
      <trkpt lat="46.52218" lon="0.30839">
        <ele>189.35</ele>
        <time>2018-06-03T07:57:59.999Z</time>
      </trkpt>
      <trkpt lat="46.52212" lon="0.30851">
        <ele>189.53</ele>
        <time>2018-06-03T07:58:01.999Z</time>
      </trkpt>
      <trkpt lat="46.52206" lon="0.30864">
        <ele>189.85</ele>
        <time>2018-06-03T07:58:03.999Z</time>
      </trkpt>
      <trkpt lat="46.52202" lon="0.30876">
        <ele>190.07</ele>
        <time>2018-06-03T07:58:05.999Z</time>
      </trkpt>
      <trkpt lat="46.52196" lon="0.30889">
        <ele>190.25</ele>
        <time>2018-06-03T07:58:07.999Z</time>
      </trkpt>
      <trkpt lat="46.5219" lon="0.30901">
        <ele>190.37</ele>
        <time>2018-06-03T07:58:09.999Z</time>
      </trkpt>
      <trkpt lat="46.52184" lon="0.30914">
        <ele>190.33</ele>
        <time>2018-06-03T07:58:11.999Z</time>
      </trkpt>
      <trkpt lat="46.52178" lon="0.30926">
        <ele>189.99</ele>
        <time>2018-06-03T07:58:13.999Z</time>
      </trkpt>
      <trkpt lat="46.52173" lon="0.30939">
        <ele>189.86</ele>
        <time>2018-06-03T07:58:15.999Z</time>
      </trkpt>
      <trkpt lat="46.52167" lon="0.30951">
        <ele>189.6</ele>
        <time>2018-06-03T07:58:17.999Z</time>
      </trkpt>
      <trkpt lat="46.52162" lon="0.30963">
        <ele>189.36</ele>
        <time>2018-06-03T07:58:19.999Z</time>
      </trkpt>
      <trkpt lat="46.52157" lon="0.30974">
        <ele>189.06</ele>
        <time>2018-06-03T07:58:21.999Z</time>
      </trkpt>
      <trkpt lat="46.52152" lon="0.30986">
        <ele>188.35</ele>
        <time>2018-06-03T07:58:23.999Z</time>
      </trkpt>
      <trkpt lat="46.52146" lon="0.30999">
        <ele>187.69</ele>
        <time>2018-06-03T07:58:25.999Z</time>
      </trkpt>
      <trkpt lat="46.52141" lon="0.31012">
        <ele>187.2</ele>
        <time>2018-06-03T07:58:27.999Z</time>
      </trkpt>
      <trkpt lat="46.52136" lon="0.31026">
        <ele>186.72</ele>
        <time>2018-06-03T07:58:29.999Z</time>
      </trkpt>
      <trkpt lat="46.52131" lon="0.3104">
        <ele>186.21</ele>
        <time>2018-06-03T07:58:31.999Z</time>
      </trkpt>
      <trkpt lat="46.52126" lon="0.31056">
        <ele>185.89</ele>
        <time>2018-06-03T07:58:33.999Z</time>
      </trkpt>
      <trkpt lat="46.52121" lon="0.31071">
        <ele>185.71</ele>
        <time>2018-06-03T07:58:35.999Z</time>
      </trkpt>
      <trkpt lat="46.52115" lon="0.31087">
        <ele>185.55</ele>
        <time>2018-06-03T07:58:37.999Z</time>
      </trkpt>
      <trkpt lat="46.52111" lon="0.31103">
        <ele>185.49</ele>
        <time>2018-06-03T07:58:39.999Z</time>
      </trkpt>
      <trkpt lat="46.52106" lon="0.31119">
        <ele>185.56</ele>
        <time>2018-06-03T07:58:41.999Z</time>
      </trkpt>
      <trkpt lat="46.52101" lon="0.31134">
        <ele>185.92</ele>
        <time>2018-06-03T07:58:43.999Z</time>
      </trkpt>
      <trkpt lat="46.52096" lon="0.31149">
        <ele>186.01</ele>
        <time>2018-06-03T07:58:45.999Z</time>
      </trkpt>
      <trkpt lat="46.52091" lon="0.31162">
        <ele>186.44</ele>
        <time>2018-06-03T07:58:47.999Z</time>
      </trkpt>
      <trkpt lat="46.52084" lon="0.31176">
        <ele>187.42</ele>
        <time>2018-06-03T07:58:49.999Z</time>
      </trkpt>
      <trkpt lat="46.52079" lon="0.31187">
        <ele>189</ele>
        <time>2018-06-03T07:58:51.999Z</time>
      </trkpt>
      <trkpt lat="46.52074" lon="0.31202">
        <ele>190.64</ele>
        <time>2018-06-03T07:58:53.999Z</time>
      </trkpt>
      <trkpt lat="46.52069" lon="0.31216">
        <ele>191.62</ele>
        <time>2018-06-03T07:58:55.999Z</time>
      </trkpt>
      <trkpt lat="46.52065" lon="0.31229">
        <ele>192.47</ele>
        <time>2018-06-03T07:58:57.999Z</time>
      </trkpt>
      <trkpt lat="46.52059" lon="0.31241">
        <ele>192.82</ele>
        <time>2018-06-03T07:58:59.999Z</time>
      </trkpt>
      <trkpt lat="46.52055" lon="0.31257">
        <ele>193.11</ele>
        <time>2018-06-03T07:59:02.999Z</time>
      </trkpt>
      <trkpt lat="46.52065" lon="0.31268">
        <ele>193.12</ele>
        <time>2018-06-03T07:59:08.999Z</time>
      </trkpt>
      <trkpt lat="46.52077" lon="0.31276">
        <ele>193.3</ele>
        <time>2018-06-03T07:59:11.999Z</time>
      </trkpt>
      <trkpt lat="46.52088" lon="0.31286">
        <ele>195.08</ele>
        <time>2018-06-03T07:59:14.999Z</time>
      </trkpt>
      <trkpt lat="46.52097" lon="0.31295">
        <ele>196.3</ele>
        <time>2018-06-03T07:59:16.999Z</time>
      </trkpt>
      <trkpt lat="46.52104" lon="0.31305">
        <ele>197.07</ele>
        <time>2018-06-03T07:59:18.999Z</time>
      </trkpt>
      <trkpt lat="46.52113" lon="0.31316">
        <ele>196.62</ele>
        <time>2018-06-03T07:59:20.999Z</time>
      </trkpt>
      <trkpt lat="46.52122" lon="0.31324">
        <ele>196.58</ele>
        <time>2018-06-03T07:59:22.999Z</time>
      </trkpt>
      <trkpt lat="46.52132" lon="0.31329">
        <ele>196.57</ele>
        <time>2018-06-03T07:59:24.999Z</time>
      </trkpt>
      <trkpt lat="46.52143" lon="0.31331">
        <ele>197.94</ele>
        <time>2018-06-03T07:59:26.999Z</time>
      </trkpt>
      <trkpt lat="46.52154" lon="0.31332">
        <ele>199.36</ele>
        <time>2018-06-03T07:59:28.999Z</time>
      </trkpt>
      <trkpt lat="46.52168" lon="0.31335">
        <ele>199.43</ele>
        <time>2018-06-03T07:59:30.999Z</time>
      </trkpt>
      <trkpt lat="46.52176" lon="0.31333">
        <ele>200.12</ele>
        <time>2018-06-03T07:59:32.999Z</time>
      </trkpt>
      <trkpt lat="46.52187" lon="0.31327">
        <ele>201.76</ele>
        <time>2018-06-03T07:59:35.999Z</time>
      </trkpt>
      <trkpt lat="46.52198" lon="0.31322">
        <ele>202.91</ele>
        <time>2018-06-03T07:59:37.999Z</time>
      </trkpt>
      <trkpt lat="46.52211" lon="0.31314">
        <ele>204.22</ele>
        <time>2018-06-03T07:59:39.999Z</time>
      </trkpt>
      <trkpt lat="46.52223" lon="0.3131">
        <ele>206.63</ele>
        <time>2018-06-03T07:59:41.999Z</time>
      </trkpt>
      <trkpt lat="46.52237" lon="0.31319">
        <ele>209.3</ele>
        <time>2018-06-03T07:59:43.999Z</time>
      </trkpt>
      <trkpt lat="46.52249" lon="0.31327">
        <ele>210.98</ele>
        <time>2018-06-03T07:59:45.999Z</time>
      </trkpt>
      <trkpt lat="46.52259" lon="0.31333">
        <ele>212.92</ele>
        <time>2018-06-03T07:59:47.999Z</time>
      </trkpt>
      <trkpt lat="46.52273" lon="0.31337">
        <ele>214.27</ele>
        <time>2018-06-03T07:59:49.999Z</time>
      </trkpt>
      <trkpt lat="46.52284" lon="0.3134">
        <ele>214.5</ele>
        <time>2018-06-03T07:59:51.999Z</time>
      </trkpt>
      <trkpt lat="46.52293" lon="0.3133">
        <ele>212.79</ele>
        <time>2018-06-03T07:59:53.999Z</time>
      </trkpt>
      <trkpt lat="46.523" lon="0.31314">
        <ele>210.89</ele>
        <time>2018-06-03T07:59:55.999Z</time>
      </trkpt>
      <trkpt lat="46.52309" lon="0.313">
        <ele>209.82</ele>
        <time>2018-06-03T07:59:57.999Z</time>
      </trkpt>
      <trkpt lat="46.52321" lon="0.31291">
        <ele>209.63</ele>
        <time>2018-06-03T07:59:59.999Z</time>
      </trkpt>
      <trkpt lat="46.52335" lon="0.31282">
        <ele>211.18</ele>
        <time>2018-06-03T08:00:01.999Z</time>
      </trkpt>
      <trkpt lat="46.5235" lon="0.31277">
        <ele>212.31</ele>
        <time>2018-06-03T08:00:03.999Z</time>
      </trkpt>
      <trkpt lat="46.52364" lon="0.31276">
        <ele>213.4</ele>
        <time>2018-06-03T08:00:05.999Z</time>
      </trkpt>
      <trkpt lat="46.52376" lon="0.31272">
        <ele>214.14</ele>
        <time>2018-06-03T08:00:07.999Z</time>
      </trkpt>
      <trkpt lat="46.52387" lon="0.31275">
        <ele>215.46</ele>
        <time>2018-06-03T08:00:09.999Z</time>
      </trkpt>
      <trkpt lat="46.52396" lon="0.31288">
        <ele>215.56</ele>
        <time>2018-06-03T08:00:12.999Z</time>
      </trkpt>
      <trkpt lat="46.52399" lon="0.31308">
        <ele>215.43</ele>
        <time>2018-06-03T08:00:14.999Z</time>
      </trkpt>
      <trkpt lat="46.52403" lon="0.31322">
        <ele>214.01</ele>
        <time>2018-06-03T08:00:15.999Z</time>
      </trkpt>
      <trkpt lat="46.52408" lon="0.31339">
        <ele>213.73</ele>
        <time>2018-06-03T08:00:17.999Z</time>
      </trkpt>
      <trkpt lat="46.52414" lon="0.3135">
        <ele>213.27</ele>
        <time>2018-06-03T08:00:19.999Z</time>
      </trkpt>
      <trkpt lat="46.52419" lon="0.31363">
        <ele>212.69</ele>
        <time>2018-06-03T08:00:21.999Z</time>
      </trkpt>
      <trkpt lat="46.52425" lon="0.31382">
        <ele>206.99</ele>
        <time>2018-06-03T08:00:23.999Z</time>
      </trkpt>
      <trkpt lat="46.5243" lon="0.31393">
        <ele>204.13</ele>
        <time>2018-06-03T08:00:24.999Z</time>
      </trkpt>
      <trkpt lat="46.5244" lon="0.31408">
        <ele>200.69</ele>
        <time>2018-06-03T08:00:26.999Z</time>
      </trkpt>
      <trkpt lat="46.52451" lon="0.31426">
        <ele>198.77</ele>
        <time>2018-06-03T08:00:28.999Z</time>
      </trkpt>
      <trkpt lat="46.5246" lon="0.31443">
        <ele>195.91</ele>
        <time>2018-06-03T08:00:30.999Z</time>
      </trkpt>
      <trkpt lat="46.52469" lon="0.31457">
        <ele>192.84</ele>
        <time>2018-06-03T08:00:32.999Z</time>
      </trkpt>
      <trkpt lat="46.52477" lon="0.31473">
        <ele>189.91</ele>
        <time>2018-06-03T08:00:34.999Z</time>
      </trkpt>
      <trkpt lat="46.52483" lon="0.31487">
        <ele>187.15</ele>
        <time>2018-06-03T08:00:36.999Z</time>
      </trkpt>
      <trkpt lat="46.5249" lon="0.31502">
        <ele>185.63</ele>
        <time>2018-06-03T08:00:38.999Z</time>
      </trkpt>
      <trkpt lat="46.52498" lon="0.31518">
        <ele>183.73</ele>
        <time>2018-06-03T08:00:40.999Z</time>
      </trkpt>
      <trkpt lat="46.52502" lon="0.31533">
        <ele>182.73</ele>
        <time>2018-06-03T08:00:43.999Z</time>
      </trkpt>
      <trkpt lat="46.52509" lon="0.31547">
        <ele>183.33</ele>
        <time>2018-06-03T08:00:50.999Z</time>
      </trkpt>
      <trkpt lat="46.52513" lon="0.31565">
        <ele>183.69</ele>
        <time>2018-06-03T08:00:53.999Z</time>
      </trkpt>
      <trkpt lat="46.52517" lon="0.31579">
        <ele>184.08</ele>
        <time>2018-06-03T08:00:56.999Z</time>
      </trkpt>
      <trkpt lat="46.52523" lon="0.31592">
        <ele>184.18</ele>
        <time>2018-06-03T08:00:58.999Z</time>
      </trkpt>
      <trkpt lat="46.52529" lon="0.31607">
        <ele>184.29</ele>
        <time>2018-06-03T08:01:02.999Z</time>
      </trkpt>
      <trkpt lat="46.52534" lon="0.31621">
        <ele>184.57</ele>
        <time>2018-06-03T08:01:07.999Z</time>
      </trkpt>
      <trkpt lat="46.52534" lon="0.31636">
        <ele>185.57</ele>
        <time>2018-06-03T08:01:14.999Z</time>
      </trkpt>
      <trkpt lat="46.52536" lon="0.3165">
        <ele>186.18</ele>
        <time>2018-06-03T08:01:17.999Z</time>
      </trkpt>
      <trkpt lat="46.52538" lon="0.31665">
        <ele>186.46</ele>
        <time>2018-06-03T08:01:19.999Z</time>
      </trkpt>
      <trkpt lat="46.5254" lon="0.31678">
        <ele>186.59</ele>
        <time>2018-06-03T08:01:21.999Z</time>
      </trkpt>
      <trkpt lat="46.52546" lon="0.31695">
        <ele>186.64</ele>
        <time>2018-06-03T08:01:31.999Z</time>
      </trkpt>
      <trkpt lat="46.52555" lon="0.31708">
        <ele>186.54</ele>
        <time>2018-06-03T08:01:34.999Z</time>
      </trkpt>
      <trkpt lat="46.5256" lon="0.3172">
        <ele>186.42</ele>
        <time>2018-06-03T08:01:37.999Z</time>
      </trkpt>
      <trkpt lat="46.52568" lon="0.31735">
        <ele>186.46</ele>
        <time>2018-06-03T08:01:40.999Z</time>
      </trkpt>
      <trkpt lat="46.52575" lon="0.31751">
        <ele>186.83</ele>
        <time>2018-06-03T08:01:43.999Z</time>
      </trkpt>
      <trkpt lat="46.52585" lon="0.3177">
        <ele>187.05</ele>
        <time>2018-06-03T08:01:45.999Z</time>
      </trkpt>
      <trkpt lat="46.52591" lon="0.31781">
        <ele>187.1</ele>
        <time>2018-06-03T08:01:46.999Z</time>
      </trkpt>
      <trkpt lat="46.52601" lon="0.31798">
        <ele>185.83</ele>
        <time>2018-06-03T08:01:48.999Z</time>
      </trkpt>
      <trkpt lat="46.52606" lon="0.31811">
        <ele>184.99</ele>
        <time>2018-06-03T08:01:51.999Z</time>
      </trkpt>
      <trkpt lat="46.52615" lon="0.31825">
        <ele>186.8</ele>
        <time>2018-06-03T08:01:54.999Z</time>
      </trkpt>
      <trkpt lat="46.52622" lon="0.31839">
        <ele>188.52</ele>
        <time>2018-06-03T08:01:56.999Z</time>
      </trkpt>
      <trkpt lat="46.52628" lon="0.31852">
        <ele>188.64</ele>
        <time>2018-06-03T08:01:58.999Z</time>
      </trkpt>
      <trkpt lat="46.52634" lon="0.31864">
        <ele>189.03</ele>
        <time>2018-06-03T08:02:01.999Z</time>
      </trkpt>
      <trkpt lat="46.5264" lon="0.31879">
        <ele>188.99</ele>
        <time>2018-06-03T08:02:03.999Z</time>
      </trkpt>
      <trkpt lat="46.52645" lon="0.31893">
        <ele>188.95</ele>
        <time>2018-06-03T08:02:06.999Z</time>
      </trkpt>
      <trkpt lat="46.52652" lon="0.31908">
        <ele>189.11</ele>
        <time>2018-06-03T08:02:09.999Z</time>
      </trkpt>
      <trkpt lat="46.52658" lon="0.31923">
        <ele>189.13</ele>
        <time>2018-06-03T08:02:11.999Z</time>
      </trkpt>
      <trkpt lat="46.52664" lon="0.31934">
        <ele>189.03</ele>
        <time>2018-06-03T08:02:13.999Z</time>
      </trkpt>
      <trkpt lat="46.52671" lon="0.31944">
        <ele>188.81</ele>
        <time>2018-06-03T08:02:16.999Z</time>
      </trkpt>
      <trkpt lat="46.52676" lon="0.31956">
        <ele>188.7</ele>
        <time>2018-06-03T08:02:18.999Z</time>
      </trkpt>
      <trkpt lat="46.52683" lon="0.31968">
        <ele>188.65</ele>
        <time>2018-06-03T08:02:21.999Z</time>
      </trkpt>
      <trkpt lat="46.52689" lon="0.3198">
        <ele>188.84</ele>
        <time>2018-06-03T08:02:25.999Z</time>
      </trkpt>
      <trkpt lat="46.52696" lon="0.31998">
        <ele>188.89</ele>
        <time>2018-06-03T08:02:27.999Z</time>
      </trkpt>
      <trkpt lat="46.52698" lon="0.32016">
        <ele>188.94</ele>
        <time>2018-06-03T08:02:29.999Z</time>
      </trkpt>
      <trkpt lat="46.52697" lon="0.32031">
        <ele>189.04</ele>
        <time>2018-06-03T08:02:32.999Z</time>
      </trkpt>
      <trkpt lat="46.52692" lon="0.32042">
        <ele>189.12</ele>
        <time>2018-06-03T08:02:36.999Z</time>
      </trkpt>
      <trkpt lat="46.52684" lon="0.32054">
        <ele>189.34</ele>
        <time>2018-06-03T08:02:40.999Z</time>
      </trkpt>
      <trkpt lat="46.52678" lon="0.32063">
        <ele>189.59</ele>
        <time>2018-06-03T08:02:44.999Z</time>
      </trkpt>
      <trkpt lat="46.52667" lon="0.32077">
        <ele>189.76</ele>
        <time>2018-06-03T08:02:47.999Z</time>
      </trkpt>
      <trkpt lat="46.52661" lon="0.32087">
        <ele>189.89</ele>
        <time>2018-06-03T08:02:50.999Z</time>
      </trkpt>
      <trkpt lat="46.52649" lon="0.32089">
        <ele>190.05</ele>
        <time>2018-06-03T08:02:53.999Z</time>
      </trkpt>
      <trkpt lat="46.52636" lon="0.32089">
        <ele>190.01</ele>
        <time>2018-06-03T08:02:55.999Z</time>
      </trkpt>
      <trkpt lat="46.52626" lon="0.32096">
        <ele>189.9</ele>
        <time>2018-06-03T08:02:59.999Z</time>
      </trkpt>
      <trkpt lat="46.52617" lon="0.32103">
        <ele>189.8</ele>
        <time>2018-06-03T08:03:03.999Z</time>
      </trkpt>
      <trkpt lat="46.52608" lon="0.32111">
        <ele>189.92</ele>
        <time>2018-06-03T08:03:09.999Z</time>
      </trkpt>
      <trkpt lat="46.52598" lon="0.32117">
        <ele>190.16</ele>
        <time>2018-06-03T08:03:12.999Z</time>
      </trkpt>
      <trkpt lat="46.52589" lon="0.32115">
        <ele>190.21</ele>
        <time>2018-06-03T08:03:14.999Z</time>
      </trkpt>
      <trkpt lat="46.52578" lon="0.32113">
        <ele>190.11</ele>
        <time>2018-06-03T08:03:17.999Z</time>
      </trkpt>
      <trkpt lat="46.52566" lon="0.32115">
        <ele>189.2</ele>
        <time>2018-06-03T08:03:21.999Z</time>
      </trkpt>
      <trkpt lat="46.52557" lon="0.32116">
        <ele>189.12</ele>
        <time>2018-06-03T08:03:24.999Z</time>
      </trkpt>
      <trkpt lat="46.52548" lon="0.32117">
        <ele>189.04</ele>
        <time>2018-06-03T08:03:27.999Z</time>
      </trkpt>
      <trkpt lat="46.52538" lon="0.32118">
        <ele>189.06</ele>
        <time>2018-06-03T08:03:32.999Z</time>
      </trkpt>
      <trkpt lat="46.52538" lon="0.32135">
        <ele>189.13</ele>
        <time>2018-06-03T08:03:36.999Z</time>
      </trkpt>
      <trkpt lat="46.52535" lon="0.32148">
        <ele>189.1</ele>
        <time>2018-06-03T08:03:39.999Z</time>
      </trkpt>
      <trkpt lat="46.52528" lon="0.32159">
        <ele>189.01</ele>
        <time>2018-06-03T08:03:43.999Z</time>
      </trkpt>
      <trkpt lat="46.52521" lon="0.32168">
        <ele>188.86</ele>
        <time>2018-06-03T08:03:48.999Z</time>
      </trkpt>
      <trkpt lat="46.52517" lon="0.3218">
        <ele>190.2</ele>
        <time>2018-06-03T08:04:20.999Z</time>
      </trkpt>
      <trkpt lat="46.52521" lon="0.32192">
        <ele>190.53</ele>
        <time>2018-06-03T08:07:03.999Z</time>
      </trkpt>
      <trkpt lat="46.52514" lon="0.32182">
        <ele>192.17</ele>
        <time>2018-06-03T08:10:47.999Z</time>
      </trkpt>
      <trkpt lat="46.52516" lon="0.32197">
        <ele>190.48</ele>
        <time>2018-06-03T08:11:59.999Z</time>
      </trkpt>
      <trkpt lat="46.52523" lon="0.32206">
        <ele>190.1</ele>
        <time>2018-06-03T08:12:04.999Z</time>
      </trkpt>
      <trkpt lat="46.52533" lon="0.32212">
        <ele>189.61</ele>
        <time>2018-06-03T08:12:11.999Z</time>
      </trkpt>
      <trkpt lat="46.52544" lon="0.32217">
        <ele>189.62</ele>
        <time>2018-06-03T08:12:15.999Z</time>
      </trkpt>
      <trkpt lat="46.5255" lon="0.32229">
        <ele>189.68</ele>
        <time>2018-06-03T08:12:18.999Z</time>
      </trkpt>
      <trkpt lat="46.52554" lon="0.32241">
        <ele>189.76</ele>
        <time>2018-06-03T08:12:21.999Z</time>
      </trkpt>
      <trkpt lat="46.52556" lon="0.32256">
        <ele>189.9</ele>
        <time>2018-06-03T08:12:24.999Z</time>
      </trkpt>
      <trkpt lat="46.52568" lon="0.32256">
        <ele>189.85</ele>
        <time>2018-06-03T08:12:32.999Z</time>
      </trkpt>
      <trkpt lat="46.52577" lon="0.32253">
        <ele>189.88</ele>
        <time>2018-06-03T08:12:35.999Z</time>
      </trkpt>
      <trkpt lat="46.52588" lon="0.32253">
        <ele>190.36</ele>
        <time>2018-06-03T08:12:38.999Z</time>
      </trkpt>
      <trkpt lat="46.52597" lon="0.32252">
        <ele>190.93</ele>
        <time>2018-06-03T08:12:41.999Z</time>
      </trkpt>
      <trkpt lat="46.52609" lon="0.32249">
        <ele>191.14</ele>
        <time>2018-06-03T08:12:44.999Z</time>
      </trkpt>
      <trkpt lat="46.52621" lon="0.32253">
        <ele>192.57</ele>
        <time>2018-06-03T08:12:47.999Z</time>
      </trkpt>
      <trkpt lat="46.52625" lon="0.32268">
        <ele>192.63</ele>
        <time>2018-06-03T08:12:49.999Z</time>
      </trkpt>
      <trkpt lat="46.52626" lon="0.32283">
        <ele>192.52</ele>
        <time>2018-06-03T08:12:51.999Z</time>
      </trkpt>
      <trkpt lat="46.52626" lon="0.32297">
        <ele>192.38</ele>
        <time>2018-06-03T08:12:53.999Z</time>
      </trkpt>
      <trkpt lat="46.52625" lon="0.32318">
        <ele>191.16</ele>
        <time>2018-06-03T08:12:56.999Z</time>
      </trkpt>
      <trkpt lat="46.52626" lon="0.32336">
        <ele>188.22</ele>
        <time>2018-06-03T08:12:58.999Z</time>
      </trkpt>
      <trkpt lat="46.52626" lon="0.32349">
        <ele>186.31</ele>
        <time>2018-06-03T08:13:00.999Z</time>
      </trkpt>
      <trkpt lat="46.52625" lon="0.32362">
        <ele>185.85</ele>
        <time>2018-06-03T08:13:02.999Z</time>
      </trkpt>
      <trkpt lat="46.52626" lon="0.3238">
        <ele>185.52</ele>
        <time>2018-06-03T08:13:04.999Z</time>
      </trkpt>
      <trkpt lat="46.5263" lon="0.32395">
        <ele>185.6</ele>
        <time>2018-06-03T08:13:06.999Z</time>
      </trkpt>
      <trkpt lat="46.52633" lon="0.32414">
        <ele>185.79</ele>
        <time>2018-06-03T08:13:08.999Z</time>
      </trkpt>
      <trkpt lat="46.52634" lon="0.32431">
        <ele>185.61</ele>
        <time>2018-06-03T08:13:10.999Z</time>
      </trkpt>
      <trkpt lat="46.52632" lon="0.3245">
        <ele>184.98</ele>
        <time>2018-06-03T08:13:12.999Z</time>
      </trkpt>
      <trkpt lat="46.52633" lon="0.32468">
        <ele>184.15</ele>
        <time>2018-06-03T08:13:14.999Z</time>
      </trkpt>
      <trkpt lat="46.52634" lon="0.32487">
        <ele>182.92</ele>
        <time>2018-06-03T08:13:16.999Z</time>
      </trkpt>
      <trkpt lat="46.52635" lon="0.32501">
        <ele>182.68</ele>
        <time>2018-06-03T08:13:18.999Z</time>
      </trkpt>
      <trkpt lat="46.52625" lon="0.3251">
        <ele>182.75</ele>
        <time>2018-06-03T08:13:24.999Z</time>
      </trkpt>
      <trkpt lat="46.52615" lon="0.32511">
        <ele>182.61</ele>
        <time>2018-06-03T08:13:29.999Z</time>
      </trkpt>
      <trkpt lat="46.52624" lon="0.32517">
        <ele>183.26</ele>
        <time>2018-06-03T08:13:35.999Z</time>
      </trkpt>
      <trkpt lat="46.52634" lon="0.32526">
        <ele>184.32</ele>
        <time>2018-06-03T08:13:39.999Z</time>
      </trkpt>
      <trkpt lat="46.52645" lon="0.32527">
        <ele>190.23</ele>
        <time>2018-06-03T08:13:42.999Z</time>
      </trkpt>
      <trkpt lat="46.52655" lon="0.32531">
        <ele>190.75</ele>
        <time>2018-06-03T08:13:44.999Z</time>
      </trkpt>
      <trkpt lat="46.52665" lon="0.32534">
        <ele>191.28</ele>
        <time>2018-06-03T08:13:46.999Z</time>
      </trkpt>
      <trkpt lat="46.52675" lon="0.32542">
        <ele>197.49</ele>
        <time>2018-06-03T08:13:48.999Z</time>
      </trkpt>
      <trkpt lat="46.52689" lon="0.32553">
        <ele>205.13</ele>
        <time>2018-06-03T08:13:51.999Z</time>
      </trkpt>
      <trkpt lat="46.52699" lon="0.32554">
        <ele>207.28</ele>
        <time>2018-06-03T08:13:54.999Z</time>
      </trkpt>
      <trkpt lat="46.5271" lon="0.32548">
        <ele>208.01</ele>
        <time>2018-06-03T08:13:58.999Z</time>
      </trkpt>
      <trkpt lat="46.5272" lon="0.32556">
        <ele>208.16</ele>
        <time>2018-06-03T08:14:00.999Z</time>
      </trkpt>
      <trkpt lat="46.52726" lon="0.32572">
        <ele>208.01</ele>
        <time>2018-06-03T08:14:01.999Z</time>
      </trkpt>
      <trkpt lat="46.52729" lon="0.32587">
        <ele>205.5</ele>
        <time>2018-06-03T08:14:02.999Z</time>
      </trkpt>
      <trkpt lat="46.52734" lon="0.32603">
        <ele>200.8</ele>
        <time>2018-06-03T08:14:04.999Z</time>
      </trkpt>
      <trkpt lat="46.52738" lon="0.32616">
        <ele>198.9</ele>
        <time>2018-06-03T08:14:06.999Z</time>
      </trkpt>
      <trkpt lat="46.52742" lon="0.32633">
        <ele>196.46</ele>
        <time>2018-06-03T08:14:08.999Z</time>
      </trkpt>
      <trkpt lat="46.52747" lon="0.3265">
        <ele>196.27</ele>
        <time>2018-06-03T08:14:10.999Z</time>
      </trkpt>
      <trkpt lat="46.52756" lon="0.32652">
        <ele>195.52</ele>
        <time>2018-06-03T08:14:17.999Z</time>
      </trkpt>
      <trkpt lat="46.52767" lon="0.32646">
        <ele>195.37</ele>
        <time>2018-06-03T08:14:22.999Z</time>
      </trkpt>
      <trkpt lat="46.52774" lon="0.32639">
        <ele>195.66</ele>
        <time>2018-06-03T08:14:26.999Z</time>
      </trkpt>
      <trkpt lat="46.52782" lon="0.32631">
        <ele>196.26</ele>
        <time>2018-06-03T08:14:30.999Z</time>
      </trkpt>
      <trkpt lat="46.52793" lon="0.32639">
        <ele>197.12</ele>
        <time>2018-06-03T08:14:35.999Z</time>
      </trkpt>
      <trkpt lat="46.52796" lon="0.32662">
        <ele>197.09</ele>
        <time>2018-06-03T08:14:37.999Z</time>
      </trkpt>
      <trkpt lat="46.52802" lon="0.32679">
        <ele>195.15</ele>
        <time>2018-06-03T08:14:39.999Z</time>
      </trkpt>
      <trkpt lat="46.52805" lon="0.32693">
        <ele>193.43</ele>
        <time>2018-06-03T08:14:41.999Z</time>
      </trkpt>
      <trkpt lat="46.5281" lon="0.32705">
        <ele>192.65</ele>
        <time>2018-06-03T08:14:43.999Z</time>
      </trkpt>
      <trkpt lat="46.52814" lon="0.32717">
        <ele>192.51</ele>
        <time>2018-06-03T08:14:45.999Z</time>
      </trkpt>
      <trkpt lat="46.52819" lon="0.32732">
        <ele>190.53</ele>
        <time>2018-06-03T08:14:47.999Z</time>
      </trkpt>
      <trkpt lat="46.52823" lon="0.32752">
        <ele>187.88</ele>
        <time>2018-06-03T08:14:49.999Z</time>
      </trkpt>
      <trkpt lat="46.52826" lon="0.32768">
        <ele>185.15</ele>
        <time>2018-06-03T08:14:51.999Z</time>
      </trkpt>
      <trkpt lat="46.52829" lon="0.32782">
        <ele>182.66</ele>
        <time>2018-06-03T08:14:53.999Z</time>
      </trkpt>
      <trkpt lat="46.52833" lon="0.32796">
        <ele>180.09</ele>
        <time>2018-06-03T08:14:55.999Z</time>
      </trkpt>
      <trkpt lat="46.52835" lon="0.32813">
        <ele>176.9</ele>
        <time>2018-06-03T08:14:57.999Z</time>
      </trkpt>
      <trkpt lat="46.52835" lon="0.32828">
        <ele>173.82</ele>
        <time>2018-06-03T08:14:59.999Z</time>
      </trkpt>
      <trkpt lat="46.52837" lon="0.32844">
        <ele>171.14</ele>
        <time>2018-06-03T08:15:01.999Z</time>
      </trkpt>
      <trkpt lat="46.5284" lon="0.32861">
        <ele>169.82</ele>
        <time>2018-06-03T08:15:03.999Z</time>
      </trkpt>
      <trkpt lat="46.52844" lon="0.32876">
        <ele>170.04</ele>
        <time>2018-06-03T08:15:05.999Z</time>
      </trkpt>
      <trkpt lat="46.52849" lon="0.32892">
        <ele>170.38</ele>
        <time>2018-06-03T08:15:07.999Z</time>
      </trkpt>
      <trkpt lat="46.52852" lon="0.32913">
        <ele>170.14</ele>
        <time>2018-06-03T08:15:09.999Z</time>
      </trkpt>
      <trkpt lat="46.52854" lon="0.32936">
        <ele>169.91</ele>
        <time>2018-06-03T08:15:11.999Z</time>
      </trkpt>
      <trkpt lat="46.52856" lon="0.32959">
        <ele>169.94</ele>
        <time>2018-06-03T08:15:13.999Z</time>
      </trkpt>
      <trkpt lat="46.52857" lon="0.32979">
        <ele>170.51</ele>
        <time>2018-06-03T08:15:15.999Z</time>
      </trkpt>
      <trkpt lat="46.52865" lon="0.32999">
        <ele>170.62</ele>
        <time>2018-06-03T08:15:17.999Z</time>
      </trkpt>
      <trkpt lat="46.5287" lon="0.33021">
        <ele>170.62</ele>
        <time>2018-06-03T08:15:19.999Z</time>
      </trkpt>
      <trkpt lat="46.52873" lon="0.33041">
        <ele>170.07</ele>
        <time>2018-06-03T08:15:21.999Z</time>
      </trkpt>
      <trkpt lat="46.52879" lon="0.33059">
        <ele>169.84</ele>
        <time>2018-06-03T08:15:23.999Z</time>
      </trkpt>
      <trkpt lat="46.52882" lon="0.33078">
        <ele>169.91</ele>
        <time>2018-06-03T08:15:25.999Z</time>
      </trkpt>
      <trkpt lat="46.52885" lon="0.33095">
        <ele>169.83</ele>
        <time>2018-06-03T08:15:27.999Z</time>
      </trkpt>
      <trkpt lat="46.52889" lon="0.33112">
        <ele>169.59</ele>
        <time>2018-06-03T08:15:29.999Z</time>
      </trkpt>
      <trkpt lat="46.52891" lon="0.33128">
        <ele>169.4</ele>
        <time>2018-06-03T08:15:31.999Z</time>
      </trkpt>
      <trkpt lat="46.52893" lon="0.33141">
        <ele>170.48</ele>
        <time>2018-06-03T08:15:33.999Z</time>
      </trkpt>
      <trkpt lat="46.52896" lon="0.33156">
        <ele>172.16</ele>
        <time>2018-06-03T08:15:35.999Z</time>
      </trkpt>
      <trkpt lat="46.529" lon="0.33175">
        <ele>173.71</ele>
        <time>2018-06-03T08:15:37.999Z</time>
      </trkpt>
      <trkpt lat="46.52903" lon="0.33195">
        <ele>174.28</ele>
        <time>2018-06-03T08:15:39.999Z</time>
      </trkpt>
      <trkpt lat="46.52905" lon="0.33216">
        <ele>173.52</ele>
        <time>2018-06-03T08:15:41.999Z</time>
      </trkpt>
      <trkpt lat="46.52908" lon="0.33234">
        <ele>172.19</ele>
        <time>2018-06-03T08:15:43.999Z</time>
      </trkpt>
      <trkpt lat="46.52913" lon="0.33249">
        <ele>170.85</ele>
        <time>2018-06-03T08:15:45.999Z</time>
      </trkpt>
      <trkpt lat="46.52918" lon="0.33266">
        <ele>170.19</ele>
        <time>2018-06-03T08:15:47.999Z</time>
      </trkpt>
      <trkpt lat="46.52924" lon="0.33286">
        <ele>168.51</ele>
        <time>2018-06-03T08:15:49.999Z</time>
      </trkpt>
      <trkpt lat="46.52929" lon="0.3331">
        <ele>167</ele>
        <time>2018-06-03T08:15:51.999Z</time>
      </trkpt>
      <trkpt lat="46.52932" lon="0.33334">
        <ele>166.98</ele>
        <time>2018-06-03T08:15:53.999Z</time>
      </trkpt>
      <trkpt lat="46.52937" lon="0.33358">
        <ele>166.11</ele>
        <time>2018-06-03T08:15:55.999Z</time>
      </trkpt>
      <trkpt lat="46.52937" lon="0.3338">
        <ele>164.56</ele>
        <time>2018-06-03T08:15:57.999Z</time>
      </trkpt>
      <trkpt lat="46.52939" lon="0.33396">
        <ele>165.07</ele>
        <time>2018-06-03T08:15:59.999Z</time>
      </trkpt>
      <trkpt lat="46.52942" lon="0.3341">
        <ele>164.94</ele>
        <time>2018-06-03T08:16:01.999Z</time>
      </trkpt>
      <trkpt lat="46.52933" lon="0.33419">
        <ele>165.21</ele>
        <time>2018-06-03T08:16:10.999Z</time>
      </trkpt>
      <trkpt lat="46.52922" lon="0.3342">
        <ele>165.35</ele>
        <time>2018-06-03T08:16:12.999Z</time>
      </trkpt>
      <trkpt lat="46.52899" lon="0.33416">
        <ele>164.69</ele>
        <time>2018-06-03T08:16:14.999Z</time>
      </trkpt>
      <trkpt lat="46.52886" lon="0.33415">
        <ele>162.96</ele>
        <time>2018-06-03T08:16:15.999Z</time>
      </trkpt>
      <trkpt lat="46.52876" lon="0.33412">
        <ele>161.43</ele>
        <time>2018-06-03T08:16:16.999Z</time>
      </trkpt>
      <trkpt lat="46.52866" lon="0.33412">
        <ele>159.64</ele>
        <time>2018-06-03T08:16:17.999Z</time>
      </trkpt>
      <trkpt lat="46.52851" lon="0.33414">
        <ele>156.37</ele>
        <time>2018-06-03T08:16:19.999Z</time>
      </trkpt>
      <trkpt lat="46.52836" lon="0.33416">
        <ele>155.15</ele>
        <time>2018-06-03T08:16:21.999Z</time>
      </trkpt>
      <trkpt lat="46.52827" lon="0.3342">
        <ele>155.32</ele>
        <time>2018-06-03T08:16:23.999Z</time>
      </trkpt>
      <trkpt lat="46.52818" lon="0.33425">
        <ele>155.58</ele>
        <time>2018-06-03T08:16:26.999Z</time>
      </trkpt>
      <trkpt lat="46.52808" lon="0.33427">
        <ele>156.13</ele>
        <time>2018-06-03T08:16:28.999Z</time>
      </trkpt>
      <trkpt lat="46.52796" lon="0.3343">
        <ele>157.5</ele>
        <time>2018-06-03T08:16:30.999Z</time>
      </trkpt>
      <trkpt lat="46.52784" lon="0.33435">
        <ele>158.06</ele>
        <time>2018-06-03T08:16:32.999Z</time>
      </trkpt>
      <trkpt lat="46.52768" lon="0.33435">
        <ele>157.54</ele>
        <time>2018-06-03T08:16:34.999Z</time>
      </trkpt>
      <trkpt lat="46.52755" lon="0.33431">
        <ele>156.9</ele>
        <time>2018-06-03T08:16:36.999Z</time>
      </trkpt>
      <trkpt lat="46.52746" lon="0.33425">
        <ele>156.35</ele>
        <time>2018-06-03T08:16:38.999Z</time>
      </trkpt>
      <trkpt lat="46.52737" lon="0.33425">
        <ele>156.67</ele>
        <time>2018-06-03T08:16:40.999Z</time>
      </trkpt>
      <trkpt lat="46.52726" lon="0.33428">
        <ele>157.2</ele>
        <time>2018-06-03T08:16:42.999Z</time>
      </trkpt>
      <trkpt lat="46.52715" lon="0.33431">
        <ele>157.77</ele>
        <time>2018-06-03T08:16:44.999Z</time>
      </trkpt>
      <trkpt lat="46.52701" lon="0.3343">
        <ele>158.31</ele>
        <time>2018-06-03T08:16:46.999Z</time>
      </trkpt>
      <trkpt lat="46.52685" lon="0.33429">
        <ele>158.07</ele>
        <time>2018-06-03T08:16:48.999Z</time>
      </trkpt>
      <trkpt lat="46.52668" lon="0.33429">
        <ele>156.93</ele>
        <time>2018-06-03T08:16:50.999Z</time>
      </trkpt>
      <trkpt lat="46.52652" lon="0.33428">
        <ele>155.33</ele>
        <time>2018-06-03T08:16:52.999Z</time>
      </trkpt>
      <trkpt lat="46.52635" lon="0.33429">
        <ele>153.99</ele>
        <time>2018-06-03T08:16:54.999Z</time>
      </trkpt>
      <trkpt lat="46.52624" lon="0.33426">
        <ele>152.94</ele>
        <time>2018-06-03T08:16:56.999Z</time>
      </trkpt>
      <trkpt lat="46.52617" lon="0.33418">
        <ele>151.87</ele>
        <time>2018-06-03T08:16:58.999Z</time>
      </trkpt>
      <trkpt lat="46.52606" lon="0.33412">
        <ele>150.91</ele>
        <time>2018-06-03T08:17:00.999Z</time>
      </trkpt>
      <trkpt lat="46.52596" lon="0.33403">
        <ele>150.65</ele>
        <time>2018-06-03T08:17:02.999Z</time>
      </trkpt>
      <trkpt lat="46.5259" lon="0.33391">
        <ele>150.75</ele>
        <time>2018-06-03T08:17:04.999Z</time>
      </trkpt>
      <trkpt lat="46.52578" lon="0.33388">
        <ele>150.33</ele>
        <time>2018-06-03T08:17:07.999Z</time>
      </trkpt>
      <trkpt lat="46.5257" lon="0.33377">
        <ele>150.26</ele>
        <time>2018-06-03T08:17:10.999Z</time>
      </trkpt>
      <trkpt lat="46.52563" lon="0.33365">
        <ele>150.15</ele>
        <time>2018-06-03T08:17:13.999Z</time>
      </trkpt>
      <trkpt lat="46.52558" lon="0.33353">
        <ele>150.08</ele>
        <time>2018-06-03T08:17:27.999Z</time>
      </trkpt>
      <trkpt lat="46.52548" lon="0.33354">
        <ele>150.21</ele>
        <time>2018-06-03T08:17:32.999Z</time>
      </trkpt>
      <trkpt lat="46.52537" lon="0.33357">
        <ele>150.68</ele>
        <time>2018-06-03T08:17:35.999Z</time>
      </trkpt>
      <trkpt lat="46.52526" lon="0.3336">
        <ele>150.46</ele>
        <time>2018-06-03T08:17:38.999Z</time>
      </trkpt>
      <trkpt lat="46.52521" lon="0.33378">
        <ele>150.21</ele>
        <time>2018-06-03T08:17:41.999Z</time>
      </trkpt>
      <trkpt lat="46.52522" lon="0.33393">
        <ele>149.92</ele>
        <time>2018-06-03T08:17:43.999Z</time>
      </trkpt>
      <trkpt lat="46.52525" lon="0.33411">
        <ele>149.57</ele>
        <time>2018-06-03T08:17:45.999Z</time>
      </trkpt>
      <trkpt lat="46.52527" lon="0.33429">
        <ele>149.16</ele>
        <time>2018-06-03T08:17:47.999Z</time>
      </trkpt>
      <trkpt lat="46.52529" lon="0.33448">
        <ele>148.54</ele>
        <time>2018-06-03T08:17:49.999Z</time>
      </trkpt>
      <trkpt lat="46.52528" lon="0.33467">
        <ele>148.15</ele>
        <time>2018-06-03T08:17:51.999Z</time>
      </trkpt>
      <trkpt lat="46.52525" lon="0.33485">
        <ele>147.78</ele>
        <time>2018-06-03T08:17:53.999Z</time>
      </trkpt>
      <trkpt lat="46.52523" lon="0.33502">
        <ele>147.13</ele>
        <time>2018-06-03T08:17:55.999Z</time>
      </trkpt>
      <trkpt lat="46.52522" lon="0.33522">
        <ele>146.45</ele>
        <time>2018-06-03T08:17:57.999Z</time>
      </trkpt>
      <trkpt lat="46.52523" lon="0.33544">
        <ele>145.62</ele>
        <time>2018-06-03T08:17:59.999Z</time>
      </trkpt>
      <trkpt lat="46.52524" lon="0.33567">
        <ele>144.55</ele>
        <time>2018-06-03T08:18:01.999Z</time>
      </trkpt>
      <trkpt lat="46.52526" lon="0.33591">
        <ele>143.34</ele>
        <time>2018-06-03T08:18:03.999Z</time>
      </trkpt>
      <trkpt lat="46.52525" lon="0.33611">
        <ele>142.02</ele>
        <time>2018-06-03T08:18:05.999Z</time>
      </trkpt>
      <trkpt lat="46.52522" lon="0.33628">
        <ele>141.07</ele>
        <time>2018-06-03T08:18:07.999Z</time>
      </trkpt>
      <trkpt lat="46.52514" lon="0.33645">
        <ele>140.18</ele>
        <time>2018-06-03T08:18:09.999Z</time>
      </trkpt>
      <trkpt lat="46.52504" lon="0.33664">
        <ele>138.87</ele>
        <time>2018-06-03T08:18:11.999Z</time>
      </trkpt>
      <trkpt lat="46.525" lon="0.33685">
        <ele>137.49</ele>
        <time>2018-06-03T08:18:13.999Z</time>
      </trkpt>
      <trkpt lat="46.52499" lon="0.33707">
        <ele>136.16</ele>
        <time>2018-06-03T08:18:15.999Z</time>
      </trkpt>
      <trkpt lat="46.52493" lon="0.33728">
        <ele>134.91</ele>
        <time>2018-06-03T08:18:17.999Z</time>
      </trkpt>
      <trkpt lat="46.52484" lon="0.33746">
        <ele>133.83</ele>
        <time>2018-06-03T08:18:19.999Z</time>
      </trkpt>
      <trkpt lat="46.52474" lon="0.33761">
        <ele>133.03</ele>
        <time>2018-06-03T08:18:21.999Z</time>
      </trkpt>
      <trkpt lat="46.52464" lon="0.33773">
        <ele>132.27</ele>
        <time>2018-06-03T08:18:23.999Z</time>
      </trkpt>
      <trkpt lat="46.52453" lon="0.33785">
        <ele>131.62</ele>
        <time>2018-06-03T08:18:25.999Z</time>
      </trkpt>
      <trkpt lat="46.52441" lon="0.33798">
        <ele>131.22</ele>
        <time>2018-06-03T08:18:27.999Z</time>
      </trkpt>
      <trkpt lat="46.52429" lon="0.33808">
        <ele>130.94</ele>
        <time>2018-06-03T08:18:29.999Z</time>
      </trkpt>
      <trkpt lat="46.52416" lon="0.33818">
        <ele>130.77</ele>
        <time>2018-06-03T08:18:31.999Z</time>
      </trkpt>
      <trkpt lat="46.52405" lon="0.33828">
        <ele>130.78</ele>
        <time>2018-06-03T08:18:33.999Z</time>
      </trkpt>
      <trkpt lat="46.52394" lon="0.33838">
        <ele>130.85</ele>
        <time>2018-06-03T08:18:35.999Z</time>
      </trkpt>
      <trkpt lat="46.52383" lon="0.33846">
        <ele>131.08</ele>
        <time>2018-06-03T08:18:37.999Z</time>
      </trkpt>
      <trkpt lat="46.52373" lon="0.33854">
        <ele>131.39</ele>
        <time>2018-06-03T08:18:39.999Z</time>
      </trkpt>
      <trkpt lat="46.52362" lon="0.3386">
        <ele>131.73</ele>
        <time>2018-06-03T08:18:41.999Z</time>
      </trkpt>
      <trkpt lat="46.52351" lon="0.33867">
        <ele>131.98</ele>
        <time>2018-06-03T08:18:43.999Z</time>
      </trkpt>
      <trkpt lat="46.5234" lon="0.33873">
        <ele>132.1</ele>
        <time>2018-06-03T08:18:45.999Z</time>
      </trkpt>
      <trkpt lat="46.5233" lon="0.3388">
        <ele>132.09</ele>
        <time>2018-06-03T08:18:47.999Z</time>
      </trkpt>
      <trkpt lat="46.52318" lon="0.33886">
        <ele>132.16</ele>
        <time>2018-06-03T08:18:49.999Z</time>
      </trkpt>
      <trkpt lat="46.52306" lon="0.33892">
        <ele>132.39</ele>
        <time>2018-06-03T08:18:51.999Z</time>
      </trkpt>
      <trkpt lat="46.52295" lon="0.339">
        <ele>132.74</ele>
        <time>2018-06-03T08:18:53.999Z</time>
      </trkpt>
      <trkpt lat="46.52285" lon="0.3391">
        <ele>133.19</ele>
        <time>2018-06-03T08:18:55.999Z</time>
      </trkpt>
      <trkpt lat="46.52275" lon="0.33922">
        <ele>133.71</ele>
        <time>2018-06-03T08:18:57.999Z</time>
      </trkpt>
      <trkpt lat="46.52264" lon="0.33932">
        <ele>134.08</ele>
        <time>2018-06-03T08:18:59.999Z</time>
      </trkpt>
      <trkpt lat="46.52253" lon="0.33943">
        <ele>134.45</ele>
        <time>2018-06-03T08:19:01.999Z</time>
      </trkpt>
      <trkpt lat="46.52242" lon="0.33954">
        <ele>134.51</ele>
        <time>2018-06-03T08:19:03.999Z</time>
      </trkpt>
      <trkpt lat="46.52231" lon="0.33966">
        <ele>134.55</ele>
        <time>2018-06-03T08:19:05.999Z</time>
      </trkpt>
      <trkpt lat="46.52221" lon="0.33976">
        <ele>134.61</ele>
        <time>2018-06-03T08:19:07.999Z</time>
      </trkpt>
      <trkpt lat="46.5221" lon="0.33982">
        <ele>134.65</ele>
        <time>2018-06-03T08:19:09.999Z</time>
      </trkpt>
      <trkpt lat="46.52197" lon="0.33985">
        <ele>134.65</ele>
        <time>2018-06-03T08:19:11.999Z</time>
      </trkpt>
      <trkpt lat="46.52184" lon="0.33986">
        <ele>134.27</ele>
        <time>2018-06-03T08:19:13.999Z</time>
      </trkpt>
      <trkpt lat="46.52172" lon="0.33987">
        <ele>134.15</ele>
        <time>2018-06-03T08:19:15.999Z</time>
      </trkpt>
      <trkpt lat="46.52159" lon="0.33988">
        <ele>133.38</ele>
        <time>2018-06-03T08:19:17.999Z</time>
      </trkpt>
      <trkpt lat="46.52147" lon="0.33987">
        <ele>132.42</ele>
        <time>2018-06-03T08:19:19.999Z</time>
      </trkpt>
      <trkpt lat="46.52135" lon="0.33984">
        <ele>132.54</ele>
        <time>2018-06-03T08:19:21.999Z</time>
      </trkpt>
      <trkpt lat="46.52123" lon="0.33982">
        <ele>132.65</ele>
        <time>2018-06-03T08:19:23.999Z</time>
      </trkpt>
      <trkpt lat="46.52111" lon="0.33981">
        <ele>133.04</ele>
        <time>2018-06-03T08:19:25.999Z</time>
      </trkpt>
      <trkpt lat="46.52101" lon="0.33979">
        <ele>133.41</ele>
        <time>2018-06-03T08:19:27.999Z</time>
      </trkpt>
      <trkpt lat="46.52092" lon="0.33977">
        <ele>133.68</ele>
        <time>2018-06-03T08:19:29.999Z</time>
      </trkpt>
      <trkpt lat="46.52082" lon="0.3397">
        <ele>133.81</ele>
        <time>2018-06-03T08:19:32.999Z</time>
      </trkpt>
      <trkpt lat="46.52075" lon="0.33959">
        <ele>134.02</ele>
        <time>2018-06-03T08:19:35.999Z</time>
      </trkpt>
      <trkpt lat="46.5207" lon="0.33948">
        <ele>134.09</ele>
        <time>2018-06-03T08:19:37.999Z</time>
      </trkpt>
      <trkpt lat="46.52063" lon="0.33932">
        <ele>134.02</ele>
        <time>2018-06-03T08:19:39.999Z</time>
      </trkpt>
      <trkpt lat="46.52057" lon="0.33919">
        <ele>133.82</ele>
        <time>2018-06-03T08:19:41.999Z</time>
      </trkpt>
      <trkpt lat="46.52052" lon="0.33907">
        <ele>133.62</ele>
        <time>2018-06-03T08:19:42.999Z</time>
      </trkpt>
      <trkpt lat="46.52049" lon="0.33883">
        <ele>128.03</ele>
        <time>2018-06-03T08:19:44.999Z</time>
      </trkpt>
      <trkpt lat="46.5205" lon="0.33861">
        <ele>123.06</ele>
        <time>2018-06-03T08:19:46.999Z</time>
      </trkpt>
      <trkpt lat="46.52052" lon="0.33839">
        <ele>118.71</ele>
        <time>2018-06-03T08:19:48.999Z</time>
      </trkpt>
      <trkpt lat="46.52055" lon="0.3382">
        <ele>116.17</ele>
        <time>2018-06-03T08:19:50.999Z</time>
      </trkpt>
      <trkpt lat="46.52056" lon="0.33805">
        <ele>115.65</ele>
        <time>2018-06-03T08:19:52.999Z</time>
      </trkpt>
      <trkpt lat="46.52059" lon="0.33789">
        <ele>115.91</ele>
        <time>2018-06-03T08:19:54.999Z</time>
      </trkpt>
      <trkpt lat="46.52063" lon="0.33774">
        <ele>116.53</ele>
        <time>2018-06-03T08:19:56.999Z</time>
      </trkpt>
      <trkpt lat="46.52066" lon="0.33761">
        <ele>117.89</ele>
        <time>2018-06-03T08:19:58.999Z</time>
      </trkpt>
      <trkpt lat="46.52069" lon="0.33747">
        <ele>119.14</ele>
        <time>2018-06-03T08:20:00.999Z</time>
      </trkpt>
      <trkpt lat="46.52069" lon="0.33732">
        <ele>119.52</ele>
        <time>2018-06-03T08:20:04.999Z</time>
      </trkpt>
      <trkpt lat="46.52058" lon="0.33728">
        <ele>119.92</ele>
        <time>2018-06-03T08:20:07.999Z</time>
      </trkpt>
      <trkpt lat="46.52043" lon="0.33724">
        <ele>120.4</ele>
        <time>2018-06-03T08:20:10.999Z</time>
      </trkpt>
      <trkpt lat="46.52029" lon="0.33723">
        <ele>122.07</ele>
        <time>2018-06-03T08:20:12.999Z</time>
      </trkpt>
      <trkpt lat="46.52018" lon="0.33722">
        <ele>122.36</ele>
        <time>2018-06-03T08:20:14.999Z</time>
      </trkpt>
      <trkpt lat="46.52009" lon="0.33722">
        <ele>123.08</ele>
        <time>2018-06-03T08:20:18.999Z</time>
      </trkpt>
      <trkpt lat="46.52" lon="0.33718">
        <ele>123.75</ele>
        <time>2018-06-03T08:20:21.999Z</time>
      </trkpt>
      <trkpt lat="46.51993" lon="0.33701">
        <ele>128.21</ele>
        <time>2018-06-03T08:20:24.999Z</time>
      </trkpt>
      <trkpt lat="46.51988" lon="0.3369">
        <ele>128.53</ele>
        <time>2018-06-03T08:20:26.999Z</time>
      </trkpt>
      <trkpt lat="46.5198" lon="0.33681">
        <ele>129.03</ele>
        <time>2018-06-03T08:20:29.999Z</time>
      </trkpt>
      <trkpt lat="46.51975" lon="0.33665">
        <ele>129.36</ele>
        <time>2018-06-03T08:20:32.999Z</time>
      </trkpt>
      <trkpt lat="46.51972" lon="0.3365">
        <ele>130.38</ele>
        <time>2018-06-03T08:20:34.999Z</time>
      </trkpt>
      <trkpt lat="46.51967" lon="0.33637">
        <ele>130.54</ele>
        <time>2018-06-03T08:20:36.999Z</time>
      </trkpt>
      <trkpt lat="46.51962" lon="0.33622">
        <ele>130.71</ele>
        <time>2018-06-03T08:20:39.999Z</time>
      </trkpt>
      <trkpt lat="46.51959" lon="0.3361">
        <ele>131.26</ele>
        <time>2018-06-03T08:20:41.999Z</time>
      </trkpt>
      <trkpt lat="46.51955" lon="0.33598">
        <ele>132.33</ele>
        <time>2018-06-03T08:20:43.999Z</time>
      </trkpt>
      <trkpt lat="46.51951" lon="0.3358">
        <ele>133.63</ele>
        <time>2018-06-03T08:20:46.999Z</time>
      </trkpt>
      <trkpt lat="46.51946" lon="0.33567">
        <ele>133.86</ele>
        <time>2018-06-03T08:20:48.999Z</time>
      </trkpt>
      <trkpt lat="46.51941" lon="0.33554">
        <ele>133.68</ele>
        <time>2018-06-03T08:20:50.999Z</time>
      </trkpt>
      <trkpt lat="46.51938" lon="0.33536">
        <ele>133.38</ele>
        <time>2018-06-03T08:20:52.999Z</time>
      </trkpt>
      <trkpt lat="46.51933" lon="0.33516">
        <ele>133.08</ele>
        <time>2018-06-03T08:20:54.999Z</time>
      </trkpt>
      <trkpt lat="46.51926" lon="0.33498">
        <ele>133.15</ele>
        <time>2018-06-03T08:20:56.999Z</time>
      </trkpt>
      <trkpt lat="46.51922" lon="0.3348">
        <ele>133.82</ele>
        <time>2018-06-03T08:20:58.999Z</time>
      </trkpt>
      <trkpt lat="46.51917" lon="0.33463">
        <ele>133.31</ele>
        <time>2018-06-03T08:21:00.999Z</time>
      </trkpt>
      <trkpt lat="46.51911" lon="0.33449">
        <ele>132.27</ele>
        <time>2018-06-03T08:21:02.999Z</time>
      </trkpt>
      <trkpt lat="46.51906" lon="0.33436">
        <ele>131.67</ele>
        <time>2018-06-03T08:21:04.999Z</time>
      </trkpt>
      <trkpt lat="46.51902" lon="0.33423">
        <ele>131.56</ele>
        <time>2018-06-03T08:21:06.999Z</time>
      </trkpt>
      <trkpt lat="46.51899" lon="0.33409">
        <ele>131.61</ele>
        <time>2018-06-03T08:21:09.999Z</time>
      </trkpt>
      <trkpt lat="46.51889" lon="0.33407">
        <ele>132.03</ele>
        <time>2018-06-03T08:21:14.999Z</time>
      </trkpt>
      <trkpt lat="46.51877" lon="0.33414">
        <ele>132.1</ele>
        <time>2018-06-03T08:21:16.999Z</time>
      </trkpt>
      <trkpt lat="46.51866" lon="0.3342">
        <ele>132.1</ele>
        <time>2018-06-03T08:21:18.999Z</time>
      </trkpt>
      <trkpt lat="46.51856" lon="0.33421">
        <ele>132.09</ele>
        <time>2018-06-03T08:21:20.999Z</time>
      </trkpt>
      <trkpt lat="46.51847" lon="0.3342">
        <ele>132.14</ele>
        <time>2018-06-03T08:21:22.999Z</time>
      </trkpt>
      <trkpt lat="46.51835" lon="0.33421">
        <ele>132.7</ele>
        <time>2018-06-03T08:21:25.999Z</time>
      </trkpt>
      <trkpt lat="46.51825" lon="0.33423">
        <ele>133.7</ele>
        <time>2018-06-03T08:21:27.999Z</time>
      </trkpt>
      <trkpt lat="46.51815" lon="0.33422">
        <ele>134.48</ele>
        <time>2018-06-03T08:21:29.999Z</time>
      </trkpt>
      <trkpt lat="46.51805" lon="0.33421">
        <ele>135.01</ele>
        <time>2018-06-03T08:21:31.999Z</time>
      </trkpt>
      <trkpt lat="46.51795" lon="0.33424">
        <ele>135.46</ele>
        <time>2018-06-03T08:21:33.999Z</time>
      </trkpt>
      <trkpt lat="46.51783" lon="0.33428">
        <ele>135.93</ele>
        <time>2018-06-03T08:21:36.999Z</time>
      </trkpt>
      <trkpt lat="46.51772" lon="0.33432">
        <ele>136.01</ele>
        <time>2018-06-03T08:21:40.999Z</time>
      </trkpt>
      <trkpt lat="46.51762" lon="0.33436">
        <ele>136.04</ele>
        <time>2018-06-03T08:21:42.999Z</time>
      </trkpt>
      <trkpt lat="46.51754" lon="0.33441">
        <ele>135.9</ele>
        <time>2018-06-03T08:21:44.999Z</time>
      </trkpt>
      <trkpt lat="46.51745" lon="0.33449">
        <ele>135.59</ele>
        <time>2018-06-03T08:21:46.999Z</time>
      </trkpt>
      <trkpt lat="46.51737" lon="0.33456">
        <ele>135.71</ele>
        <time>2018-06-03T08:21:48.999Z</time>
      </trkpt>
      <trkpt lat="46.51726" lon="0.33466">
        <ele>134.99</ele>
        <time>2018-06-03T08:21:50.999Z</time>
      </trkpt>
      <trkpt lat="46.51717" lon="0.33474">
        <ele>134.67</ele>
        <time>2018-06-03T08:21:52.999Z</time>
      </trkpt>
      <trkpt lat="46.51709" lon="0.33482">
        <ele>135.48</ele>
        <time>2018-06-03T08:21:54.999Z</time>
      </trkpt>
      <trkpt lat="46.517" lon="0.3349">
        <ele>136.74</ele>
        <time>2018-06-03T08:21:56.999Z</time>
      </trkpt>
      <trkpt lat="46.51692" lon="0.33498">
        <ele>137.8</ele>
        <time>2018-06-03T08:21:58.999Z</time>
      </trkpt>
      <trkpt lat="46.51683" lon="0.33507">
        <ele>138.4</ele>
        <time>2018-06-03T08:22:00.999Z</time>
      </trkpt>
      <trkpt lat="46.51674" lon="0.33515">
        <ele>138.67</ele>
        <time>2018-06-03T08:22:02.999Z</time>
      </trkpt>
      <trkpt lat="46.51665" lon="0.33523">
        <ele>138.78</ele>
        <time>2018-06-03T08:22:04.999Z</time>
      </trkpt>
      <trkpt lat="46.51656" lon="0.33532">
        <ele>138.68</ele>
        <time>2018-06-03T08:22:06.999Z</time>
      </trkpt>
      <trkpt lat="46.51648" lon="0.33539">
        <ele>138.63</ele>
        <time>2018-06-03T08:22:08.999Z</time>
      </trkpt>
      <trkpt lat="46.5164" lon="0.33547">
        <ele>138.87</ele>
        <time>2018-06-03T08:22:10.999Z</time>
      </trkpt>
      <trkpt lat="46.51631" lon="0.33556">
        <ele>139.17</ele>
        <time>2018-06-03T08:22:12.999Z</time>
      </trkpt>
      <trkpt lat="46.51623" lon="0.33564">
        <ele>139.46</ele>
        <time>2018-06-03T08:22:14.999Z</time>
      </trkpt>
      <trkpt lat="46.51611" lon="0.33575">
        <ele>139.91</ele>
        <time>2018-06-03T08:22:17.999Z</time>
      </trkpt>
      <trkpt lat="46.51604" lon="0.33588">
        <ele>139.28</ele>
        <time>2018-06-03T08:22:19.999Z</time>
      </trkpt>
      <trkpt lat="46.51598" lon="0.33601">
        <ele>138.8</ele>
        <time>2018-06-03T08:22:21.999Z</time>
      </trkpt>
      <trkpt lat="46.51591" lon="0.33615">
        <ele>138.1</ele>
        <time>2018-06-03T08:22:23.999Z</time>
      </trkpt>
      <trkpt lat="46.51584" lon="0.33629">
        <ele>137.49</ele>
        <time>2018-06-03T08:22:25.999Z</time>
      </trkpt>
      <trkpt lat="46.51577" lon="0.33644">
        <ele>136.88</ele>
        <time>2018-06-03T08:22:27.999Z</time>
      </trkpt>
      <trkpt lat="46.51569" lon="0.33656">
        <ele>136.03</ele>
        <time>2018-06-03T08:22:29.999Z</time>
      </trkpt>
      <trkpt lat="46.51563" lon="0.33669">
        <ele>135.19</ele>
        <time>2018-06-03T08:22:31.999Z</time>
      </trkpt>
      <trkpt lat="46.51558" lon="0.33686">
        <ele>133.92</ele>
        <time>2018-06-03T08:22:33.999Z</time>
      </trkpt>
      <trkpt lat="46.51554" lon="0.33704">
        <ele>132.25</ele>
        <time>2018-06-03T08:22:35.999Z</time>
      </trkpt>
      <trkpt lat="46.51555" lon="0.33723">
        <ele>131.15</ele>
        <time>2018-06-03T08:22:37.999Z</time>
      </trkpt>
      <trkpt lat="46.51556" lon="0.33742">
        <ele>130.14</ele>
        <time>2018-06-03T08:22:39.999Z</time>
      </trkpt>
      <trkpt lat="46.51557" lon="0.33761">
        <ele>129.16</ele>
        <time>2018-06-03T08:22:41.999Z</time>
      </trkpt>
      <trkpt lat="46.5156" lon="0.33778">
        <ele>128.01</ele>
        <time>2018-06-03T08:22:43.999Z</time>
      </trkpt>
      <trkpt lat="46.51558" lon="0.33791">
        <ele>127.16</ele>
        <time>2018-06-03T08:22:45.999Z</time>
      </trkpt>
      <trkpt lat="46.51553" lon="0.33804">
        <ele>126.77</ele>
        <time>2018-06-03T08:22:48.999Z</time>
      </trkpt>
      <trkpt lat="46.51539" lon="0.33803">
        <ele>126.46</ele>
        <time>2018-06-03T08:22:51.999Z</time>
      </trkpt>
      <trkpt lat="46.5153" lon="0.33804">
        <ele>126.79</ele>
        <time>2018-06-03T08:22:53.999Z</time>
      </trkpt>
      <trkpt lat="46.51517" lon="0.33806">
        <ele>125.88</ele>
        <time>2018-06-03T08:22:55.999Z</time>
      </trkpt>
      <trkpt lat="46.51504" lon="0.33808">
        <ele>125.3</ele>
        <time>2018-06-03T08:22:57.999Z</time>
      </trkpt>
      <trkpt lat="46.51492" lon="0.33811">
        <ele>125.69</ele>
        <time>2018-06-03T08:22:59.999Z</time>
      </trkpt>
      <trkpt lat="46.51481" lon="0.3381">
        <ele>126.37</ele>
        <time>2018-06-03T08:23:01.999Z</time>
      </trkpt>
      <trkpt lat="46.51472" lon="0.33811">
        <ele>126.73</ele>
        <time>2018-06-03T08:23:05.999Z</time>
      </trkpt>
      <trkpt lat="46.51466" lon="0.33798">
        <ele>127.42</ele>
        <time>2018-06-03T08:23:09.999Z</time>
      </trkpt>
      <trkpt lat="46.51467" lon="0.33782">
        <ele>127.9</ele>
        <time>2018-06-03T08:23:11.999Z</time>
      </trkpt>
      <trkpt lat="46.51458" lon="0.33773">
        <ele>130.07</ele>
        <time>2018-06-03T08:23:19.999Z</time>
      </trkpt>
      <trkpt lat="46.51449" lon="0.33772">
        <ele>132.63</ele>
        <time>2018-06-03T08:23:21.999Z</time>
      </trkpt>
      <trkpt lat="46.51437" lon="0.33763">
        <ele>135.34</ele>
        <time>2018-06-03T08:23:24.999Z</time>
      </trkpt>
      <trkpt lat="46.51429" lon="0.33756">
        <ele>136.26</ele>
        <time>2018-06-03T08:23:26.999Z</time>
      </trkpt>
      <trkpt lat="46.51421" lon="0.33748">
        <ele>136.45</ele>
        <time>2018-06-03T08:23:28.999Z</time>
      </trkpt>
      <trkpt lat="46.51411" lon="0.3374">
        <ele>136.48</ele>
        <time>2018-06-03T08:23:30.999Z</time>
      </trkpt>
      <trkpt lat="46.51405" lon="0.33725">
        <ele>137.09</ele>
        <time>2018-06-03T08:23:32.999Z</time>
      </trkpt>
      <trkpt lat="46.51401" lon="0.33705">
        <ele>138.35</ele>
        <time>2018-06-03T08:23:34.999Z</time>
      </trkpt>
      <trkpt lat="46.51399" lon="0.33689">
        <ele>138.93</ele>
        <time>2018-06-03T08:23:36.999Z</time>
      </trkpt>
      <trkpt lat="46.51396" lon="0.33673">
        <ele>138.91</ele>
        <time>2018-06-03T08:23:38.999Z</time>
      </trkpt>
      <trkpt lat="46.51392" lon="0.33659">
        <ele>138.68</ele>
        <time>2018-06-03T08:23:40.999Z</time>
      </trkpt>
      <trkpt lat="46.51384" lon="0.33648">
        <ele>138.2</ele>
        <time>2018-06-03T08:23:43.999Z</time>
      </trkpt>
      <trkpt lat="46.51373" lon="0.33649">
        <ele>137.75</ele>
        <time>2018-06-03T08:23:46.999Z</time>
      </trkpt>
      <trkpt lat="46.5136" lon="0.33651">
        <ele>138.01</ele>
        <time>2018-06-03T08:23:49.999Z</time>
      </trkpt>
      <trkpt lat="46.51349" lon="0.33649">
        <ele>137.97</ele>
        <time>2018-06-03T08:23:53.999Z</time>
      </trkpt>
      <trkpt lat="46.51337" lon="0.33645">
        <ele>138.18</ele>
        <time>2018-06-03T08:23:56.999Z</time>
      </trkpt>
      <trkpt lat="46.51327" lon="0.33639">
        <ele>137.97</ele>
        <time>2018-06-03T08:23:58.999Z</time>
      </trkpt>
      <trkpt lat="46.51318" lon="0.3363">
        <ele>137</ele>
        <time>2018-06-03T08:24:00.999Z</time>
      </trkpt>
      <trkpt lat="46.5131" lon="0.33622">
        <ele>135.52</ele>
        <time>2018-06-03T08:24:02.999Z</time>
      </trkpt>
      <trkpt lat="46.51302" lon="0.33614">
        <ele>135.34</ele>
        <time>2018-06-03T08:24:04.999Z</time>
      </trkpt>
      <trkpt lat="46.51295" lon="0.33605">
        <ele>135.75</ele>
        <time>2018-06-03T08:24:06.999Z</time>
      </trkpt>
      <trkpt lat="46.51287" lon="0.33595">
        <ele>136.38</ele>
        <time>2018-06-03T08:24:08.999Z</time>
      </trkpt>
      <trkpt lat="46.51279" lon="0.33584">
        <ele>136.5</ele>
        <time>2018-06-03T08:24:10.999Z</time>
      </trkpt>
      <trkpt lat="46.5127" lon="0.33573">
        <ele>136.54</ele>
        <time>2018-06-03T08:24:13.999Z</time>
      </trkpt>
      <trkpt lat="46.51263" lon="0.33564">
        <ele>136.41</ele>
        <time>2018-06-03T08:24:15.999Z</time>
      </trkpt>
      <trkpt lat="46.51256" lon="0.33553">
        <ele>135.66</ele>
        <time>2018-06-03T08:24:17.999Z</time>
      </trkpt>
      <trkpt lat="46.51246" lon="0.33541">
        <ele>134.88</ele>
        <time>2018-06-03T08:24:20.999Z</time>
      </trkpt>
      <trkpt lat="46.51238" lon="0.33531">
        <ele>134.62</ele>
        <time>2018-06-03T08:24:23.999Z</time>
      </trkpt>
      <trkpt lat="46.5123" lon="0.33524">
        <ele>133.32</ele>
        <time>2018-06-03T08:24:25.999Z</time>
      </trkpt>
      <trkpt lat="46.51218" lon="0.33518">
        <ele>132.69</ele>
        <time>2018-06-03T08:24:28.999Z</time>
      </trkpt>
      <trkpt lat="46.51207" lon="0.33517">
        <ele>132.94</ele>
        <time>2018-06-03T08:24:32.999Z</time>
      </trkpt>
      <trkpt lat="46.51196" lon="0.33519">
        <ele>133.34</ele>
        <time>2018-06-03T08:24:36.999Z</time>
      </trkpt>
      <trkpt lat="46.51188" lon="0.33527">
        <ele>133.87</ele>
        <time>2018-06-03T08:24:40.999Z</time>
      </trkpt>
      <trkpt lat="46.51185" lon="0.3354">
        <ele>135.06</ele>
        <time>2018-06-03T08:24:42.999Z</time>
      </trkpt>
      <trkpt lat="46.51186" lon="0.33558">
        <ele>135.78</ele>
        <time>2018-06-03T08:24:45.999Z</time>
      </trkpt>
      <trkpt lat="46.51188" lon="0.33575">
        <ele>136.02</ele>
        <time>2018-06-03T08:24:48.999Z</time>
      </trkpt>
      <trkpt lat="46.51187" lon="0.3359">
        <ele>135.97</ele>
        <time>2018-06-03T08:24:51.999Z</time>
      </trkpt>
      <trkpt lat="46.51188" lon="0.33608">
        <ele>135.24</ele>
        <time>2018-06-03T08:24:54.999Z</time>
      </trkpt>
      <trkpt lat="46.51191" lon="0.33625">
        <ele>134.56</ele>
        <time>2018-06-03T08:24:56.999Z</time>
      </trkpt>
      <trkpt lat="46.51196" lon="0.33636">
        <ele>134.26</ele>
        <time>2018-06-03T08:24:58.999Z</time>
      </trkpt>
      <trkpt lat="46.51205" lon="0.33645">
        <ele>134.56</ele>
        <time>2018-06-03T08:25:00.999Z</time>
      </trkpt>
      <trkpt lat="46.51213" lon="0.33655">
        <ele>135.26</ele>
        <time>2018-06-03T08:25:02.999Z</time>
      </trkpt>
      <trkpt lat="46.51218" lon="0.33669">
        <ele>136.68</ele>
        <time>2018-06-03T08:25:04.999Z</time>
      </trkpt>
      <trkpt lat="46.51225" lon="0.33679">
        <ele>138.41</ele>
        <time>2018-06-03T08:25:06.999Z</time>
      </trkpt>
      <trkpt lat="46.51234" lon="0.33686">
        <ele>140.26</ele>
        <time>2018-06-03T08:25:08.999Z</time>
      </trkpt>
      <trkpt lat="46.51242" lon="0.33691">
        <ele>142.37</ele>
        <time>2018-06-03T08:25:10.999Z</time>
      </trkpt>
      <trkpt lat="46.51252" lon="0.33698">
        <ele>143.66</ele>
        <time>2018-06-03T08:25:12.999Z</time>
      </trkpt>
      <trkpt lat="46.5126" lon="0.33709">
        <ele>144.15</ele>
        <time>2018-06-03T08:25:14.999Z</time>
      </trkpt>
      <trkpt lat="46.51273" lon="0.33722">
        <ele>144.14</ele>
        <time>2018-06-03T08:25:16.999Z</time>
      </trkpt>
      <trkpt lat="46.51281" lon="0.33738">
        <ele>145.05</ele>
        <time>2018-06-03T08:25:18.999Z</time>
      </trkpt>
      <trkpt lat="46.5129" lon="0.33755">
        <ele>145.1</ele>
        <time>2018-06-03T08:25:20.999Z</time>
      </trkpt>
      <trkpt lat="46.51299" lon="0.33775">
        <ele>143.49</ele>
        <time>2018-06-03T08:25:22.999Z</time>
      </trkpt>
      <trkpt lat="46.51305" lon="0.33788">
        <ele>142.87</ele>
        <time>2018-06-03T08:25:24.999Z</time>
      </trkpt>
      <trkpt lat="46.51312" lon="0.33799">
        <ele>141.67</ele>
        <time>2018-06-03T08:25:26.999Z</time>
      </trkpt>
      <trkpt lat="46.5131" lon="0.33813">
        <ele>141.45</ele>
        <time>2018-06-03T08:25:28.999Z</time>
      </trkpt>
      <trkpt lat="46.5131" lon="0.33833">
        <ele>141.85</ele>
        <time>2018-06-03T08:25:31.999Z</time>
      </trkpt>
      <trkpt lat="46.51315" lon="0.33848">
        <ele>141.46</ele>
        <time>2018-06-03T08:25:33.999Z</time>
      </trkpt>
      <trkpt lat="46.51323" lon="0.33861">
        <ele>141.45</ele>
        <time>2018-06-03T08:25:36.999Z</time>
      </trkpt>
      <trkpt lat="46.51331" lon="0.33871">
        <ele>141.95</ele>
        <time>2018-06-03T08:25:39.999Z</time>
      </trkpt>
      <trkpt lat="46.5134" lon="0.33879">
        <ele>142.44</ele>
        <time>2018-06-03T08:25:41.999Z</time>
      </trkpt>
      <trkpt lat="46.5135" lon="0.3389">
        <ele>143.87</ele>
        <time>2018-06-03T08:25:43.999Z</time>
      </trkpt>
      <trkpt lat="46.51359" lon="0.33902">
        <ele>144.6</ele>
        <time>2018-06-03T08:25:45.999Z</time>
      </trkpt>
      <trkpt lat="46.51368" lon="0.33913">
        <ele>146.35</ele>
        <time>2018-06-03T08:25:47.999Z</time>
      </trkpt>
      <trkpt lat="46.51376" lon="0.33925">
        <ele>147.79</ele>
        <time>2018-06-03T08:25:49.999Z</time>
      </trkpt>
      <trkpt lat="46.51383" lon="0.33936">
        <ele>148.81</ele>
        <time>2018-06-03T08:25:51.999Z</time>
      </trkpt>
      <trkpt lat="46.51391" lon="0.33949">
        <ele>149.1</ele>
        <time>2018-06-03T08:25:53.999Z</time>
      </trkpt>
      <trkpt lat="46.51399" lon="0.33963">
        <ele>149.33</ele>
        <time>2018-06-03T08:25:55.999Z</time>
      </trkpt>
      <trkpt lat="46.51406" lon="0.33979">
        <ele>149.11</ele>
        <time>2018-06-03T08:25:57.999Z</time>
      </trkpt>
      <trkpt lat="46.51412" lon="0.33992">
        <ele>148.09</ele>
        <time>2018-06-03T08:25:59.999Z</time>
      </trkpt>
      <trkpt lat="46.5142" lon="0.34006">
        <ele>147.93</ele>
        <time>2018-06-03T08:26:02.999Z</time>
      </trkpt>
      <trkpt lat="46.51427" lon="0.34016">
        <ele>147.66</ele>
        <time>2018-06-03T08:26:04.999Z</time>
      </trkpt>
      <trkpt lat="46.51434" lon="0.34026">
        <ele>146.87</ele>
        <time>2018-06-03T08:26:06.999Z</time>
      </trkpt>
      <trkpt lat="46.51445" lon="0.34033">
        <ele>145.72</ele>
        <time>2018-06-03T08:26:08.999Z</time>
      </trkpt>
      <trkpt lat="46.51457" lon="0.34039">
        <ele>143.46</ele>
        <time>2018-06-03T08:26:10.999Z</time>
      </trkpt>
      <trkpt lat="46.51467" lon="0.34042">
        <ele>140.66</ele>
        <time>2018-06-03T08:26:12.999Z</time>
      </trkpt>
      <trkpt lat="46.51477" lon="0.34039">
        <ele>138.48</ele>
        <time>2018-06-03T08:26:14.999Z</time>
      </trkpt>
      <trkpt lat="46.51486" lon="0.3404">
        <ele>138.09</ele>
        <time>2018-06-03T08:26:16.999Z</time>
      </trkpt>
      <trkpt lat="46.51495" lon="0.34046">
        <ele>138.32</ele>
        <time>2018-06-03T08:26:18.999Z</time>
      </trkpt>
      <trkpt lat="46.51504" lon="0.34053">
        <ele>138.49</ele>
        <time>2018-06-03T08:26:20.999Z</time>
      </trkpt>
      <trkpt lat="46.51514" lon="0.3406">
        <ele>138.26</ele>
        <time>2018-06-03T08:26:22.999Z</time>
      </trkpt>
      <trkpt lat="46.51522" lon="0.34067">
        <ele>137.95</ele>
        <time>2018-06-03T08:26:24.999Z</time>
      </trkpt>
      <trkpt lat="46.51531" lon="0.34072">
        <ele>137.8</ele>
        <time>2018-06-03T08:26:26.999Z</time>
      </trkpt>
      <trkpt lat="46.5154" lon="0.34076">
        <ele>137.61</ele>
        <time>2018-06-03T08:26:28.999Z</time>
      </trkpt>
      <trkpt lat="46.5155" lon="0.34077">
        <ele>137.6</ele>
        <time>2018-06-03T08:26:30.999Z</time>
      </trkpt>
      <trkpt lat="46.51559" lon="0.34077">
        <ele>137.18</ele>
        <time>2018-06-03T08:26:32.999Z</time>
      </trkpt>
      <trkpt lat="46.5157" lon="0.34074">
        <ele>136.83</ele>
        <time>2018-06-03T08:26:35.999Z</time>
      </trkpt>
      <trkpt lat="46.51582" lon="0.3407">
        <ele>136.12</ele>
        <time>2018-06-03T08:26:39.999Z</time>
      </trkpt>
      <trkpt lat="46.51592" lon="0.34068">
        <ele>134.79</ele>
        <time>2018-06-03T08:26:41.999Z</time>
      </trkpt>
      <trkpt lat="46.51601" lon="0.34066">
        <ele>133.53</ele>
        <time>2018-06-03T08:26:43.999Z</time>
      </trkpt>
      <trkpt lat="46.51613" lon="0.34063">
        <ele>132.6</ele>
        <time>2018-06-03T08:26:45.999Z</time>
      </trkpt>
      <trkpt lat="46.51622" lon="0.34061">
        <ele>132.01</ele>
        <time>2018-06-03T08:26:47.999Z</time>
      </trkpt>
      <trkpt lat="46.51632" lon="0.34059">
        <ele>131.66</ele>
        <time>2018-06-03T08:26:49.999Z</time>
      </trkpt>
      <trkpt lat="46.51645" lon="0.34057">
        <ele>131.66</ele>
        <time>2018-06-03T08:26:52.999Z</time>
      </trkpt>
      <trkpt lat="46.51654" lon="0.34057">
        <ele>131.99</ele>
        <time>2018-06-03T08:26:54.999Z</time>
      </trkpt>
      <trkpt lat="46.51665" lon="0.34056">
        <ele>132.82</ele>
        <time>2018-06-03T08:26:57.999Z</time>
      </trkpt>
      <trkpt lat="46.51678" lon="0.34053">
        <ele>132.85</ele>
        <time>2018-06-03T08:27:00.999Z</time>
      </trkpt>
      <trkpt lat="46.51689" lon="0.34045">
        <ele>132.78</ele>
        <time>2018-06-03T08:27:03.999Z</time>
      </trkpt>
      <trkpt lat="46.51699" lon="0.34037">
        <ele>132.55</ele>
        <time>2018-06-03T08:27:06.999Z</time>
      </trkpt>
      <trkpt lat="46.51709" lon="0.34031">
        <ele>132.37</ele>
        <time>2018-06-03T08:27:09.999Z</time>
      </trkpt>
      <trkpt lat="46.51719" lon="0.34036">
        <ele>132.65</ele>
        <time>2018-06-03T08:27:13.999Z</time>
      </trkpt>
      <trkpt lat="46.51722" lon="0.34052">
        <ele>133.15</ele>
        <time>2018-06-03T08:27:16.999Z</time>
      </trkpt>
      <trkpt lat="46.51723" lon="0.34068">
        <ele>133.67</ele>
        <time>2018-06-03T08:27:19.999Z</time>
      </trkpt>
      <trkpt lat="46.51723" lon="0.34088">
        <ele>134.06</ele>
        <time>2018-06-03T08:27:22.999Z</time>
      </trkpt>
      <trkpt lat="46.51722" lon="0.34102">
        <ele>134.87</ele>
        <time>2018-06-03T08:27:24.999Z</time>
      </trkpt>
      <trkpt lat="46.51719" lon="0.3412">
        <ele>135</ele>
        <time>2018-06-03T08:27:27.999Z</time>
      </trkpt>
      <trkpt lat="46.51715" lon="0.34135">
        <ele>135.57</ele>
        <time>2018-06-03T08:27:30.999Z</time>
      </trkpt>
      <trkpt lat="46.51711" lon="0.34148">
        <ele>135.73</ele>
        <time>2018-06-03T08:27:33.999Z</time>
      </trkpt>
      <trkpt lat="46.51706" lon="0.34162">
        <ele>135.9</ele>
        <time>2018-06-03T08:27:36.999Z</time>
      </trkpt>
      <trkpt lat="46.51701" lon="0.34177">
        <ele>136.41</ele>
        <time>2018-06-03T08:27:39.999Z</time>
      </trkpt>
      <trkpt lat="46.51695" lon="0.34191">
        <ele>136.58</ele>
        <time>2018-06-03T08:27:42.999Z</time>
      </trkpt>
      <trkpt lat="46.51689" lon="0.34203">
        <ele>136.81</ele>
        <time>2018-06-03T08:27:45.999Z</time>
      </trkpt>
      <trkpt lat="46.51685" lon="0.34216">
        <ele>137.03</ele>
        <time>2018-06-03T08:27:48.999Z</time>
      </trkpt>
      <trkpt lat="46.51682" lon="0.34229">
        <ele>137.24</ele>
        <time>2018-06-03T08:27:51.999Z</time>
      </trkpt>
      <trkpt lat="46.51681" lon="0.34244">
        <ele>137.48</ele>
        <time>2018-06-03T08:27:54.999Z</time>
      </trkpt>
      <trkpt lat="46.5168" lon="0.34258">
        <ele>137.73</ele>
        <time>2018-06-03T08:27:57.999Z</time>
      </trkpt>
      <trkpt lat="46.5168" lon="0.34271">
        <ele>138.02</ele>
        <time>2018-06-03T08:28:01.999Z</time>
      </trkpt>
      <trkpt lat="46.51681" lon="0.34286">
        <ele>138.26</ele>
        <time>2018-06-03T08:28:06.999Z</time>
      </trkpt>
      <trkpt lat="46.51687" lon="0.34297">
        <ele>138.4</ele>
        <time>2018-06-03T08:28:10.999Z</time>
      </trkpt>
      <trkpt lat="46.51696" lon="0.34302">
        <ele>138.48</ele>
        <time>2018-06-03T08:28:14.999Z</time>
      </trkpt>
      <trkpt lat="46.51706" lon="0.34307">
        <ele>138.44</ele>
        <time>2018-06-03T08:28:17.999Z</time>
      </trkpt>
      <trkpt lat="46.51718" lon="0.34308">
        <ele>138.46</ele>
        <time>2018-06-03T08:28:20.999Z</time>
      </trkpt>
      <trkpt lat="46.5173" lon="0.3431">
        <ele>138.98</ele>
        <time>2018-06-03T08:28:23.999Z</time>
      </trkpt>
      <trkpt lat="46.51739" lon="0.34313">
        <ele>139.78</ele>
        <time>2018-06-03T08:28:25.999Z</time>
      </trkpt>
      <trkpt lat="46.51751" lon="0.34315">
        <ele>140.4</ele>
        <time>2018-06-03T08:28:27.999Z</time>
      </trkpt>
      <trkpt lat="46.51764" lon="0.34318">
        <ele>140.65</ele>
        <time>2018-06-03T08:28:29.999Z</time>
      </trkpt>
      <trkpt lat="46.51779" lon="0.34322">
        <ele>139.49</ele>
        <time>2018-06-03T08:28:31.999Z</time>
      </trkpt>
      <trkpt lat="46.51789" lon="0.34324">
        <ele>138.09</ele>
        <time>2018-06-03T08:28:32.999Z</time>
      </trkpt>
      <trkpt lat="46.51799" lon="0.34326">
        <ele>136.92</ele>
        <time>2018-06-03T08:28:33.999Z</time>
      </trkpt>
      <trkpt lat="46.5181" lon="0.34326">
        <ele>135.49</ele>
        <time>2018-06-03T08:28:34.999Z</time>
      </trkpt>
      <trkpt lat="46.51826" lon="0.34318">
        <ele>131.69</ele>
        <time>2018-06-03T08:28:36.999Z</time>
      </trkpt>
      <trkpt lat="46.5184" lon="0.34307">
        <ele>129.4</ele>
        <time>2018-06-03T08:28:38.999Z</time>
      </trkpt>
      <trkpt lat="46.51854" lon="0.34296">
        <ele>129.3</ele>
        <time>2018-06-03T08:28:40.999Z</time>
      </trkpt>
      <trkpt lat="46.51867" lon="0.34285">
        <ele>130.79</ele>
        <time>2018-06-03T08:28:42.999Z</time>
      </trkpt>
      <trkpt lat="46.5188" lon="0.34275">
        <ele>132.48</ele>
        <time>2018-06-03T08:28:44.999Z</time>
      </trkpt>
      <trkpt lat="46.51894" lon="0.34266">
        <ele>133.67</ele>
        <time>2018-06-03T08:28:46.999Z</time>
      </trkpt>
      <trkpt lat="46.51907" lon="0.3426">
        <ele>134.94</ele>
        <time>2018-06-03T08:28:48.999Z</time>
      </trkpt>
      <trkpt lat="46.51922" lon="0.34257">
        <ele>135.39</ele>
        <time>2018-06-03T08:28:50.999Z</time>
      </trkpt>
      <trkpt lat="46.51934" lon="0.34255">
        <ele>135.32</ele>
        <time>2018-06-03T08:28:52.999Z</time>
      </trkpt>
      <trkpt lat="46.51947" lon="0.34255">
        <ele>134.62</ele>
        <time>2018-06-03T08:28:54.999Z</time>
      </trkpt>
      <trkpt lat="46.51959" lon="0.34253">
        <ele>133.83</ele>
        <time>2018-06-03T08:28:56.999Z</time>
      </trkpt>
      <trkpt lat="46.5197" lon="0.3425">
        <ele>132.95</ele>
        <time>2018-06-03T08:28:58.999Z</time>
      </trkpt>
      <trkpt lat="46.51981" lon="0.34247">
        <ele>132.06</ele>
        <time>2018-06-03T08:29:00.999Z</time>
      </trkpt>
      <trkpt lat="46.51989" lon="0.34254">
        <ele>132.64</ele>
        <time>2018-06-03T08:29:02.999Z</time>
      </trkpt>
      <trkpt lat="46.51988" lon="0.34271">
        <ele>132.91</ele>
        <time>2018-06-03T08:29:05.999Z</time>
      </trkpt>
      <trkpt lat="46.51986" lon="0.34286">
        <ele>133.21</ele>
        <time>2018-06-03T08:29:08.999Z</time>
      </trkpt>
      <trkpt lat="46.51991" lon="0.34297">
        <ele>134.07</ele>
        <time>2018-06-03T08:29:13.999Z</time>
      </trkpt>
      <trkpt lat="46.51997" lon="0.34309">
        <ele>135.29</ele>
        <time>2018-06-03T08:29:18.999Z</time>
      </trkpt>
      <trkpt lat="46.52002" lon="0.34323">
        <ele>136.39</ele>
        <time>2018-06-03T08:29:23.999Z</time>
      </trkpt>
      <trkpt lat="46.52007" lon="0.34334">
        <ele>137.66</ele>
        <time>2018-06-03T08:29:29.999Z</time>
      </trkpt>
      <trkpt lat="46.52017" lon="0.34326">
        <ele>138.66</ele>
        <time>2018-06-03T08:29:34.999Z</time>
      </trkpt>
      <trkpt lat="46.52028" lon="0.3432">
        <ele>139.22</ele>
        <time>2018-06-03T08:29:37.999Z</time>
      </trkpt>
      <trkpt lat="46.52037" lon="0.34314">
        <ele>140.07</ele>
        <time>2018-06-03T08:29:41.999Z</time>
      </trkpt>
      <trkpt lat="46.52047" lon="0.3431">
        <ele>141.04</ele>
        <time>2018-06-03T08:29:45.999Z</time>
      </trkpt>
      <trkpt lat="46.52057" lon="0.34308">
        <ele>141.98</ele>
        <time>2018-06-03T08:29:49.999Z</time>
      </trkpt>
      <trkpt lat="46.52068" lon="0.34306">
        <ele>143.13</ele>
        <time>2018-06-03T08:29:54.999Z</time>
      </trkpt>
      <trkpt lat="46.52077" lon="0.34302">
        <ele>144.05</ele>
        <time>2018-06-03T08:29:58.999Z</time>
      </trkpt>
      <trkpt lat="46.52088" lon="0.34298">
        <ele>145</ele>
        <time>2018-06-03T08:30:03.999Z</time>
      </trkpt>
      <trkpt lat="46.52097" lon="0.34294">
        <ele>145.63</ele>
        <time>2018-06-03T08:30:07.999Z</time>
      </trkpt>
      <trkpt lat="46.52107" lon="0.34296">
        <ele>146.38</ele>
        <time>2018-06-03T08:30:11.999Z</time>
      </trkpt>
      <trkpt lat="46.52119" lon="0.34296">
        <ele>148.26</ele>
        <time>2018-06-03T08:30:15.999Z</time>
      </trkpt>
      <trkpt lat="46.52129" lon="0.34291">
        <ele>149.57</ele>
        <time>2018-06-03T08:30:17.999Z</time>
      </trkpt>
      <trkpt lat="46.5214" lon="0.34293">
        <ele>150.26</ele>
        <time>2018-06-03T08:30:19.999Z</time>
      </trkpt>
      <trkpt lat="46.52151" lon="0.343">
        <ele>151.28</ele>
        <time>2018-06-03T08:30:21.999Z</time>
      </trkpt>
      <trkpt lat="46.5216" lon="0.34306">
        <ele>152.54</ele>
        <time>2018-06-03T08:30:23.999Z</time>
      </trkpt>
      <trkpt lat="46.52171" lon="0.34313">
        <ele>153.32</ele>
        <time>2018-06-03T08:30:26.999Z</time>
      </trkpt>
      <trkpt lat="46.52181" lon="0.34315">
        <ele>153.43</ele>
        <time>2018-06-03T08:30:29.999Z</time>
      </trkpt>
      <trkpt lat="46.52192" lon="0.34317">
        <ele>153.52</ele>
        <time>2018-06-03T08:30:32.999Z</time>
      </trkpt>
      <trkpt lat="46.52202" lon="0.34319">
        <ele>154.7</ele>
        <time>2018-06-03T08:30:34.999Z</time>
      </trkpt>
      <trkpt lat="46.52211" lon="0.34325">
        <ele>155.36</ele>
        <time>2018-06-03T08:30:36.999Z</time>
      </trkpt>
      <trkpt lat="46.52224" lon="0.3433">
        <ele>155.55</ele>
        <time>2018-06-03T08:30:39.999Z</time>
      </trkpt>
      <trkpt lat="46.52234" lon="0.34328">
        <ele>155.75</ele>
        <time>2018-06-03T08:30:41.999Z</time>
      </trkpt>
      <trkpt lat="46.52245" lon="0.34327">
        <ele>155.88</ele>
        <time>2018-06-03T08:30:43.999Z</time>
      </trkpt>
      <trkpt lat="46.52255" lon="0.34328">
        <ele>156.03</ele>
        <time>2018-06-03T08:30:46.999Z</time>
      </trkpt>
      <trkpt lat="46.52267" lon="0.34326">
        <ele>155.79</ele>
        <time>2018-06-03T08:30:50.999Z</time>
      </trkpt>
      <trkpt lat="46.52276" lon="0.34322">
        <ele>155.36</ele>
        <time>2018-06-03T08:30:53.999Z</time>
      </trkpt>
      <trkpt lat="46.52285" lon="0.34315">
        <ele>154.61</ele>
        <time>2018-06-03T08:30:57.999Z</time>
      </trkpt>
      <trkpt lat="46.52295" lon="0.34308">
        <ele>153.78</ele>
        <time>2018-06-03T08:31:02.999Z</time>
      </trkpt>
      <trkpt lat="46.52303" lon="0.34301">
        <ele>153.21</ele>
        <time>2018-06-03T08:31:10.999Z</time>
      </trkpt>
      <trkpt lat="46.52311" lon="0.34294">
        <ele>153.9</ele>
        <time>2018-06-03T08:31:24.999Z</time>
      </trkpt>
      <trkpt lat="46.5232" lon="0.34294">
        <ele>154.3</ele>
        <time>2018-06-03T08:31:32.999Z</time>
      </trkpt>
      <trkpt lat="46.52329" lon="0.34295">
        <ele>154.56</ele>
        <time>2018-06-03T08:31:36.999Z</time>
      </trkpt>
      <trkpt lat="46.52339" lon="0.34292">
        <ele>154.8</ele>
        <time>2018-06-03T08:31:41.999Z</time>
      </trkpt>
      <trkpt lat="46.52348" lon="0.3429">
        <ele>155.01</ele>
        <time>2018-06-03T08:31:45.999Z</time>
      </trkpt>
      <trkpt lat="46.52358" lon="0.34287">
        <ele>155.62</ele>
        <time>2018-06-03T08:31:54.999Z</time>
      </trkpt>
      <trkpt lat="46.52367" lon="0.34284">
        <ele>156.39</ele>
        <time>2018-06-03T08:32:02.999Z</time>
      </trkpt>
      <trkpt lat="46.52375" lon="0.34276">
        <ele>156.86</ele>
        <time>2018-06-03T08:32:07.999Z</time>
      </trkpt>
      <trkpt lat="46.52383" lon="0.34272">
        <ele>157.93</ele>
        <time>2018-06-03T08:32:19.999Z</time>
      </trkpt>
      <trkpt lat="46.52393" lon="0.34269">
        <ele>159.64</ele>
        <time>2018-06-03T08:32:26.999Z</time>
      </trkpt>
      <trkpt lat="46.52402" lon="0.34264">
        <ele>161.21</ele>
        <time>2018-06-03T08:32:32.999Z</time>
      </trkpt>
      <trkpt lat="46.52411" lon="0.3426">
        <ele>163.64</ele>
        <time>2018-06-03T08:32:41.999Z</time>
      </trkpt>
      <trkpt lat="46.52419" lon="0.34253">
        <ele>165.46</ele>
        <time>2018-06-03T08:32:47.999Z</time>
      </trkpt>
      <trkpt lat="46.52425" lon="0.34239">
        <ele>166.9</ele>
        <time>2018-06-03T08:32:53.999Z</time>
      </trkpt>
      <trkpt lat="46.52428" lon="0.34224">
        <ele>167.92</ele>
        <time>2018-06-03T08:32:57.999Z</time>
      </trkpt>
      <trkpt lat="46.52431" lon="0.3421">
        <ele>168.69</ele>
        <time>2018-06-03T08:33:00.999Z</time>
      </trkpt>
      <trkpt lat="46.52435" lon="0.34193">
        <ele>175.13</ele>
        <time>2018-06-03T08:33:03.999Z</time>
      </trkpt>
      <trkpt lat="46.52438" lon="0.3418">
        <ele>177.31</ele>
        <time>2018-06-03T08:33:05.999Z</time>
      </trkpt>
      <trkpt lat="46.52445" lon="0.34165">
        <ele>178.01</ele>
        <time>2018-06-03T08:33:07.999Z</time>
      </trkpt>
      <trkpt lat="46.52456" lon="0.34153">
        <ele>177.31</ele>
        <time>2018-06-03T08:33:09.999Z</time>
      </trkpt>
      <trkpt lat="46.52466" lon="0.34137">
        <ele>176.03</ele>
        <time>2018-06-03T08:33:11.999Z</time>
      </trkpt>
      <trkpt lat="46.52475" lon="0.34119">
        <ele>173.99</ele>
        <time>2018-06-03T08:33:13.999Z</time>
      </trkpt>
      <trkpt lat="46.52486" lon="0.34102">
        <ele>172.03</ele>
        <time>2018-06-03T08:33:15.999Z</time>
      </trkpt>
      <trkpt lat="46.52494" lon="0.34085">
        <ele>170.26</ele>
        <time>2018-06-03T08:33:17.999Z</time>
      </trkpt>
      <trkpt lat="46.52501" lon="0.34068">
        <ele>168.96</ele>
        <time>2018-06-03T08:33:19.999Z</time>
      </trkpt>
      <trkpt lat="46.52508" lon="0.34053">
        <ele>167.99</ele>
        <time>2018-06-03T08:33:21.999Z</time>
      </trkpt>
      <trkpt lat="46.52517" lon="0.34048">
        <ele>167.06</ele>
        <time>2018-06-03T08:33:23.999Z</time>
      </trkpt>
      <trkpt lat="46.52526" lon="0.34042">
        <ele>166.08</ele>
        <time>2018-06-03T08:33:25.999Z</time>
      </trkpt>
      <trkpt lat="46.52536" lon="0.34038">
        <ele>165.38</ele>
        <time>2018-06-03T08:33:27.999Z</time>
      </trkpt>
      <trkpt lat="46.52546" lon="0.34034">
        <ele>165.07</ele>
        <time>2018-06-03T08:33:29.999Z</time>
      </trkpt>
      <trkpt lat="46.52555" lon="0.34029">
        <ele>164.48</ele>
        <time>2018-06-03T08:33:31.999Z</time>
      </trkpt>
      <trkpt lat="46.52564" lon="0.34026">
        <ele>163.34</ele>
        <time>2018-06-03T08:33:33.999Z</time>
      </trkpt>
      <trkpt lat="46.52575" lon="0.34026">
        <ele>161.44</ele>
        <time>2018-06-03T08:33:35.999Z</time>
      </trkpt>
      <trkpt lat="46.52586" lon="0.34028">
        <ele>159.43</ele>
        <time>2018-06-03T08:33:37.999Z</time>
      </trkpt>
      <trkpt lat="46.52597" lon="0.34029">
        <ele>157.78</ele>
        <time>2018-06-03T08:33:39.999Z</time>
      </trkpt>
      <trkpt lat="46.52606" lon="0.3403">
        <ele>156.48</ele>
        <time>2018-06-03T08:33:41.999Z</time>
      </trkpt>
      <trkpt lat="46.52618" lon="0.34031">
        <ele>155.88</ele>
        <time>2018-06-03T08:33:44.999Z</time>
      </trkpt>
      <trkpt lat="46.52631" lon="0.34032">
        <ele>155.05</ele>
        <time>2018-06-03T08:33:47.999Z</time>
      </trkpt>
      <trkpt lat="46.5264" lon="0.34033">
        <ele>153.85</ele>
        <time>2018-06-03T08:33:49.999Z</time>
      </trkpt>
      <trkpt lat="46.52651" lon="0.34036">
        <ele>152.33</ele>
        <time>2018-06-03T08:33:51.999Z</time>
      </trkpt>
      <trkpt lat="46.52665" lon="0.34038">
        <ele>151.6</ele>
        <time>2018-06-03T08:33:53.999Z</time>
      </trkpt>
      <trkpt lat="46.52678" lon="0.34041">
        <ele>150.83</ele>
        <time>2018-06-03T08:33:55.999Z</time>
      </trkpt>
      <trkpt lat="46.52691" lon="0.34042">
        <ele>149.62</ele>
        <time>2018-06-03T08:33:57.999Z</time>
      </trkpt>
      <trkpt lat="46.52704" lon="0.34039">
        <ele>148.69</ele>
        <time>2018-06-03T08:33:59.999Z</time>
      </trkpt>
      <trkpt lat="46.52713" lon="0.34034">
        <ele>149.06</ele>
        <time>2018-06-03T08:34:01.999Z</time>
      </trkpt>
      <trkpt lat="46.52722" lon="0.34025">
        <ele>149.21</ele>
        <time>2018-06-03T08:34:04.999Z</time>
      </trkpt>
      <trkpt lat="46.52733" lon="0.3402">
        <ele>148.61</ele>
        <time>2018-06-03T08:34:08.999Z</time>
      </trkpt>
      <trkpt lat="46.52745" lon="0.34016">
        <ele>147.3</ele>
        <time>2018-06-03T08:34:10.999Z</time>
      </trkpt>
      <trkpt lat="46.52759" lon="0.34011">
        <ele>145.87</ele>
        <time>2018-06-03T08:34:12.999Z</time>
      </trkpt>
      <trkpt lat="46.52767" lon="0.33994">
        <ele>144.84</ele>
        <time>2018-06-03T08:34:14.999Z</time>
      </trkpt>
      <trkpt lat="46.52769" lon="0.33981">
        <ele>144.3</ele>
        <time>2018-06-03T08:34:15.999Z</time>
      </trkpt>
      <trkpt lat="46.52772" lon="0.33967">
        <ele>144.05</ele>
        <time>2018-06-03T08:34:16.999Z</time>
      </trkpt>
      <trkpt lat="46.52775" lon="0.33954">
        <ele>143.84</ele>
        <time>2018-06-03T08:34:17.999Z</time>
      </trkpt>
      <trkpt lat="46.52781" lon="0.33931">
        <ele>142.6</ele>
        <time>2018-06-03T08:34:19.999Z</time>
      </trkpt>
      <trkpt lat="46.52787" lon="0.33913">
        <ele>141.07</ele>
        <time>2018-06-03T08:34:21.999Z</time>
      </trkpt>
      <trkpt lat="46.52792" lon="0.33901">
        <ele>140.54</ele>
        <time>2018-06-03T08:34:23.999Z</time>
      </trkpt>
      <trkpt lat="46.52798" lon="0.33887">
        <ele>141.39</ele>
        <time>2018-06-03T08:34:25.999Z</time>
      </trkpt>
      <trkpt lat="46.52807" lon="0.33885">
        <ele>142.21</ele>
        <time>2018-06-03T08:34:26.999Z</time>
      </trkpt>
      <trkpt lat="46.52816" lon="0.33885">
        <ele>142.56</ele>
        <time>2018-06-03T08:34:27.999Z</time>
      </trkpt>
      <trkpt lat="46.52826" lon="0.33884">
        <ele>142.71</ele>
        <time>2018-06-03T08:34:28.999Z</time>
      </trkpt>
      <trkpt lat="46.52835" lon="0.33883">
        <ele>142.57</ele>
        <time>2018-06-03T08:34:29.999Z</time>
      </trkpt>
      <trkpt lat="46.52844" lon="0.33885">
        <ele>142.35</ele>
        <time>2018-06-03T08:34:30.999Z</time>
      </trkpt>
      <trkpt lat="46.52861" lon="0.33885">
        <ele>142.03</ele>
        <time>2018-06-03T08:34:32.999Z</time>
      </trkpt>
      <trkpt lat="46.52877" lon="0.33885">
        <ele>142.25</ele>
        <time>2018-06-03T08:34:34.999Z</time>
      </trkpt>
      <trkpt lat="46.52893" lon="0.33886">
        <ele>141.81</ele>
        <time>2018-06-03T08:34:36.999Z</time>
      </trkpt>
      <trkpt lat="46.52908" lon="0.33888">
        <ele>142.11</ele>
        <time>2018-06-03T08:34:38.999Z</time>
      </trkpt>
      <trkpt lat="46.52922" lon="0.33899">
        <ele>143.54</ele>
        <time>2018-06-03T08:34:40.999Z</time>
      </trkpt>
      <trkpt lat="46.52931" lon="0.33918">
        <ele>145.98</ele>
        <time>2018-06-03T08:34:42.999Z</time>
      </trkpt>
      <trkpt lat="46.52937" lon="0.33937">
        <ele>148.98</ele>
        <time>2018-06-03T08:34:44.999Z</time>
      </trkpt>
      <trkpt lat="46.52942" lon="0.33959">
        <ele>148.89</ele>
        <time>2018-06-03T08:34:46.999Z</time>
      </trkpt>
      <trkpt lat="46.52944" lon="0.33973">
        <ele>148.62</ele>
        <time>2018-06-03T08:34:48.999Z</time>
      </trkpt>
      <trkpt lat="46.52944" lon="0.33992">
        <ele>149.59</ele>
        <time>2018-06-03T08:34:51.999Z</time>
      </trkpt>
      <trkpt lat="46.52945" lon="0.34008">
        <ele>150.1</ele>
        <time>2018-06-03T08:34:53.999Z</time>
      </trkpt>
      <trkpt lat="46.52947" lon="0.34022">
        <ele>150.02</ele>
        <time>2018-06-03T08:34:55.999Z</time>
      </trkpt>
      <trkpt lat="46.5295" lon="0.34037">
        <ele>149.82</ele>
        <time>2018-06-03T08:34:57.999Z</time>
      </trkpt>
      <trkpt lat="46.52958" lon="0.34048">
        <ele>149.42</ele>
        <time>2018-06-03T08:34:59.999Z</time>
      </trkpt>
      <trkpt lat="46.52969" lon="0.34055">
        <ele>149.43</ele>
        <time>2018-06-03T08:35:02.999Z</time>
      </trkpt>
      <trkpt lat="46.52981" lon="0.34056">
        <ele>148.99</ele>
        <time>2018-06-03T08:35:05.999Z</time>
      </trkpt>
      <trkpt lat="46.52992" lon="0.34056">
        <ele>148.86</ele>
        <time>2018-06-03T08:35:08.999Z</time>
      </trkpt>
      <trkpt lat="46.53001" lon="0.34057">
        <ele>148.44</ele>
        <time>2018-06-03T08:35:10.999Z</time>
      </trkpt>
      <trkpt lat="46.53011" lon="0.34058">
        <ele>148.11</ele>
        <time>2018-06-03T08:35:12.999Z</time>
      </trkpt>
      <trkpt lat="46.53022" lon="0.34056">
        <ele>147.87</ele>
        <time>2018-06-03T08:35:15.999Z</time>
      </trkpt>
      <trkpt lat="46.53032" lon="0.34055">
        <ele>147.47</ele>
        <time>2018-06-03T08:35:17.999Z</time>
      </trkpt>
      <trkpt lat="46.53045" lon="0.34055">
        <ele>146.97</ele>
        <time>2018-06-03T08:35:20.999Z</time>
      </trkpt>
      <trkpt lat="46.53056" lon="0.34061">
        <ele>146.87</ele>
        <time>2018-06-03T08:35:23.999Z</time>
      </trkpt>
      <trkpt lat="46.53066" lon="0.34065">
        <ele>146.9</ele>
        <time>2018-06-03T08:35:26.999Z</time>
      </trkpt>
      <trkpt lat="46.53077" lon="0.34072">
        <ele>147.26</ele>
        <time>2018-06-03T08:35:29.999Z</time>
      </trkpt>
      <trkpt lat="46.53086" lon="0.34078">
        <ele>147.43</ele>
        <time>2018-06-03T08:35:32.999Z</time>
      </trkpt>
      <trkpt lat="46.53095" lon="0.34083">
        <ele>147.58</ele>
        <time>2018-06-03T08:35:35.999Z</time>
      </trkpt>
      <trkpt lat="46.53106" lon="0.34088">
        <ele>147.73</ele>
        <time>2018-06-03T08:35:38.999Z</time>
      </trkpt>
      <trkpt lat="46.53117" lon="0.34094">
        <ele>149.17</ele>
        <time>2018-06-03T08:35:41.999Z</time>
      </trkpt>
      <trkpt lat="46.53125" lon="0.34099">
        <ele>149.66</ele>
        <time>2018-06-03T08:35:43.999Z</time>
      </trkpt>
      <trkpt lat="46.53134" lon="0.34104">
        <ele>150.19</ele>
        <time>2018-06-03T08:35:45.999Z</time>
      </trkpt>
      <trkpt lat="46.53146" lon="0.34112">
        <ele>151.59</ele>
        <time>2018-06-03T08:35:48.999Z</time>
      </trkpt>
      <trkpt lat="46.53157" lon="0.34121">
        <ele>152.44</ele>
        <time>2018-06-03T08:35:51.999Z</time>
      </trkpt>
      <trkpt lat="46.53164" lon="0.3413">
        <ele>152.86</ele>
        <time>2018-06-03T08:35:53.999Z</time>
      </trkpt>
      <trkpt lat="46.53171" lon="0.34141">
        <ele>152.78</ele>
        <time>2018-06-03T08:35:55.999Z</time>
      </trkpt>
      <trkpt lat="46.53177" lon="0.3415">
        <ele>152.6</ele>
        <time>2018-06-03T08:35:57.999Z</time>
      </trkpt>
      <trkpt lat="46.53184" lon="0.3416">
        <ele>152.28</ele>
        <time>2018-06-03T08:35:59.999Z</time>
      </trkpt>
      <trkpt lat="46.53191" lon="0.3417">
        <ele>151.86</ele>
        <time>2018-06-03T08:36:01.999Z</time>
      </trkpt>
      <trkpt lat="46.53198" lon="0.34179">
        <ele>151.49</ele>
        <time>2018-06-03T08:36:03.999Z</time>
      </trkpt>
      <trkpt lat="46.53207" lon="0.34189">
        <ele>150.75</ele>
        <time>2018-06-03T08:36:05.999Z</time>
      </trkpt>
      <trkpt lat="46.53216" lon="0.34197">
        <ele>149.89</ele>
        <time>2018-06-03T08:36:07.999Z</time>
      </trkpt>
      <trkpt lat="46.53224" lon="0.34204">
        <ele>149.13</ele>
        <time>2018-06-03T08:36:09.999Z</time>
      </trkpt>
      <trkpt lat="46.53233" lon="0.34212">
        <ele>148.75</ele>
        <time>2018-06-03T08:36:11.999Z</time>
      </trkpt>
      <trkpt lat="46.53241" lon="0.34218">
        <ele>148.67</ele>
        <time>2018-06-03T08:36:13.999Z</time>
      </trkpt>
      <trkpt lat="46.5325" lon="0.34227">
        <ele>148.59</ele>
        <time>2018-06-03T08:36:15.999Z</time>
      </trkpt>
      <trkpt lat="46.53259" lon="0.34233">
        <ele>148.45</ele>
        <time>2018-06-03T08:36:17.999Z</time>
      </trkpt>
      <trkpt lat="46.53267" lon="0.34238">
        <ele>148.38</ele>
        <time>2018-06-03T08:36:19.999Z</time>
      </trkpt>
      <trkpt lat="46.53276" lon="0.34244">
        <ele>148.63</ele>
        <time>2018-06-03T08:36:21.999Z</time>
      </trkpt>
      <trkpt lat="46.53286" lon="0.34248">
        <ele>149.29</ele>
        <time>2018-06-03T08:36:23.999Z</time>
      </trkpt>
      <trkpt lat="46.53295" lon="0.34254">
        <ele>150.18</ele>
        <time>2018-06-03T08:36:25.999Z</time>
      </trkpt>
      <trkpt lat="46.53307" lon="0.3426">
        <ele>150.95</ele>
        <time>2018-06-03T08:36:27.999Z</time>
      </trkpt>
      <trkpt lat="46.53318" lon="0.34269">
        <ele>150.98</ele>
        <time>2018-06-03T08:36:29.999Z</time>
      </trkpt>
      <trkpt lat="46.53327" lon="0.34279">
        <ele>150.72</ele>
        <time>2018-06-03T08:36:31.999Z</time>
      </trkpt>
      <trkpt lat="46.53337" lon="0.3429">
        <ele>150.04</ele>
        <time>2018-06-03T08:36:33.999Z</time>
      </trkpt>
      <trkpt lat="46.53346" lon="0.34299">
        <ele>149.82</ele>
        <time>2018-06-03T08:36:35.999Z</time>
      </trkpt>
      <trkpt lat="46.53355" lon="0.3431">
        <ele>149.6</ele>
        <time>2018-06-03T08:36:37.999Z</time>
      </trkpt>
      <trkpt lat="46.53363" lon="0.34319">
        <ele>148.53</ele>
        <time>2018-06-03T08:36:39.999Z</time>
      </trkpt>
      <trkpt lat="46.53372" lon="0.34327">
        <ele>147.03</ele>
        <time>2018-06-03T08:36:41.999Z</time>
      </trkpt>
      <trkpt lat="46.53382" lon="0.34336">
        <ele>146.17</ele>
        <time>2018-06-03T08:36:43.999Z</time>
      </trkpt>
      <trkpt lat="46.53394" lon="0.34339">
        <ele>145.91</ele>
        <time>2018-06-03T08:36:45.999Z</time>
      </trkpt>
      <trkpt lat="46.53407" lon="0.34345">
        <ele>145.92</ele>
        <time>2018-06-03T08:36:47.999Z</time>
      </trkpt>
      <trkpt lat="46.5342" lon="0.34344">
        <ele>146.47</ele>
        <time>2018-06-03T08:36:49.999Z</time>
      </trkpt>
      <trkpt lat="46.53432" lon="0.34341">
        <ele>147.2</ele>
        <time>2018-06-03T08:36:51.999Z</time>
      </trkpt>
      <trkpt lat="46.53445" lon="0.34341">
        <ele>147.64</ele>
        <time>2018-06-03T08:36:53.999Z</time>
      </trkpt>
      <trkpt lat="46.53458" lon="0.34344">
        <ele>147.95</ele>
        <time>2018-06-03T08:36:55.999Z</time>
      </trkpt>
      <trkpt lat="46.5347" lon="0.34344">
        <ele>148.07</ele>
        <time>2018-06-03T08:36:57.999Z</time>
      </trkpt>
      <trkpt lat="46.53483" lon="0.34349">
        <ele>147.92</ele>
        <time>2018-06-03T08:36:59.999Z</time>
      </trkpt>
      <trkpt lat="46.53497" lon="0.34356">
        <ele>147.65</ele>
        <time>2018-06-03T08:37:01.999Z</time>
      </trkpt>
      <trkpt lat="46.5351" lon="0.34361">
        <ele>147.28</ele>
        <time>2018-06-03T08:37:03.999Z</time>
      </trkpt>
      <trkpt lat="46.53523" lon="0.34367">
        <ele>146.9</ele>
        <time>2018-06-03T08:37:05.999Z</time>
      </trkpt>
      <trkpt lat="46.53535" lon="0.34376">
        <ele>146.48</ele>
        <time>2018-06-03T08:37:07.999Z</time>
      </trkpt>
      <trkpt lat="46.53547" lon="0.34386">
        <ele>146.05</ele>
        <time>2018-06-03T08:37:09.999Z</time>
      </trkpt>
      <trkpt lat="46.53558" lon="0.34396">
        <ele>145.63</ele>
        <time>2018-06-03T08:37:11.999Z</time>
      </trkpt>
      <trkpt lat="46.53569" lon="0.34406">
        <ele>145.17</ele>
        <time>2018-06-03T08:37:13.999Z</time>
      </trkpt>
      <trkpt lat="46.53579" lon="0.34412">
        <ele>144.84</ele>
        <time>2018-06-03T08:37:15.999Z</time>
      </trkpt>
      <trkpt lat="46.53591" lon="0.34415">
        <ele>144.32</ele>
        <time>2018-06-03T08:37:17.999Z</time>
      </trkpt>
      <trkpt lat="46.53603" lon="0.34415">
        <ele>143.79</ele>
        <time>2018-06-03T08:37:19.999Z</time>
      </trkpt>
      <trkpt lat="46.53615" lon="0.34412">
        <ele>143.73</ele>
        <time>2018-06-03T08:37:21.999Z</time>
      </trkpt>
      <trkpt lat="46.53627" lon="0.34412">
        <ele>143.79</ele>
        <time>2018-06-03T08:37:23.999Z</time>
      </trkpt>
      <trkpt lat="46.53639" lon="0.34417">
        <ele>143.6</ele>
        <time>2018-06-03T08:37:25.999Z</time>
      </trkpt>
      <trkpt lat="46.53651" lon="0.34421">
        <ele>143.4</ele>
        <time>2018-06-03T08:37:27.999Z</time>
      </trkpt>
      <trkpt lat="46.53661" lon="0.34425">
        <ele>143.14</ele>
        <time>2018-06-03T08:37:29.999Z</time>
      </trkpt>
      <trkpt lat="46.53671" lon="0.3443">
        <ele>142.81</ele>
        <time>2018-06-03T08:37:31.999Z</time>
      </trkpt>
      <trkpt lat="46.53681" lon="0.34434">
        <ele>142.44</ele>
        <time>2018-06-03T08:37:33.999Z</time>
      </trkpt>
      <trkpt lat="46.53691" lon="0.34438">
        <ele>142.54</ele>
        <time>2018-06-03T08:37:35.999Z</time>
      </trkpt>
      <trkpt lat="46.53703" lon="0.34445">
        <ele>142.17</ele>
        <time>2018-06-03T08:37:38.999Z</time>
      </trkpt>
      <trkpt lat="46.53712" lon="0.34449">
        <ele>142.55</ele>
        <time>2018-06-03T08:37:40.999Z</time>
      </trkpt>
      <trkpt lat="46.53721" lon="0.34454">
        <ele>142.9</ele>
        <time>2018-06-03T08:37:42.999Z</time>
      </trkpt>
      <trkpt lat="46.53734" lon="0.34459">
        <ele>143.29</ele>
        <time>2018-06-03T08:37:45.999Z</time>
      </trkpt>
      <trkpt lat="46.53748" lon="0.34464">
        <ele>143.86</ele>
        <time>2018-06-03T08:37:48.999Z</time>
      </trkpt>
      <trkpt lat="46.53757" lon="0.34467">
        <ele>144.5</ele>
        <time>2018-06-03T08:37:50.999Z</time>
      </trkpt>
      <trkpt lat="46.53771" lon="0.34472">
        <ele>145.67</ele>
        <time>2018-06-03T08:37:53.999Z</time>
      </trkpt>
      <trkpt lat="46.5378" lon="0.34475">
        <ele>146.92</ele>
        <time>2018-06-03T08:37:55.999Z</time>
      </trkpt>
      <trkpt lat="46.53792" lon="0.34479">
        <ele>147.77</ele>
        <time>2018-06-03T08:37:57.999Z</time>
      </trkpt>
      <trkpt lat="46.53805" lon="0.34482">
        <ele>148.16</ele>
        <time>2018-06-03T08:37:59.999Z</time>
      </trkpt>
      <trkpt lat="46.53816" lon="0.34485">
        <ele>148.36</ele>
        <time>2018-06-03T08:38:01.999Z</time>
      </trkpt>
      <trkpt lat="46.53828" lon="0.34489">
        <ele>148.96</ele>
        <time>2018-06-03T08:38:04.999Z</time>
      </trkpt>
      <trkpt lat="46.53838" lon="0.34491">
        <ele>149.42</ele>
        <time>2018-06-03T08:38:06.999Z</time>
      </trkpt>
      <trkpt lat="46.53848" lon="0.34497">
        <ele>149.97</ele>
        <time>2018-06-03T08:38:09.999Z</time>
      </trkpt>
      <trkpt lat="46.53861" lon="0.34498">
        <ele>150.26</ele>
        <time>2018-06-03T08:38:12.999Z</time>
      </trkpt>
      <trkpt lat="46.53873" lon="0.34499">
        <ele>151.09</ele>
        <time>2018-06-03T08:38:14.999Z</time>
      </trkpt>
      <trkpt lat="46.53888" lon="0.34497">
        <ele>151.26</ele>
        <time>2018-06-03T08:38:16.999Z</time>
      </trkpt>
      <trkpt lat="46.53899" lon="0.34496">
        <ele>150.73</ele>
        <time>2018-06-03T08:38:18.999Z</time>
      </trkpt>
      <trkpt lat="46.53909" lon="0.34493">
        <ele>150.45</ele>
        <time>2018-06-03T08:38:20.999Z</time>
      </trkpt>
      <trkpt lat="46.53922" lon="0.34486">
        <ele>149.97</ele>
        <time>2018-06-03T08:38:23.999Z</time>
      </trkpt>
      <trkpt lat="46.53928" lon="0.34474">
        <ele>149.92</ele>
        <time>2018-06-03T08:38:25.999Z</time>
      </trkpt>
      <trkpt lat="46.5393" lon="0.34461">
        <ele>149.62</ele>
        <time>2018-06-03T08:38:27.999Z</time>
      </trkpt>
      <trkpt lat="46.53931" lon="0.34445">
        <ele>149.89</ele>
        <time>2018-06-03T08:38:29.999Z</time>
      </trkpt>
      <trkpt lat="46.53935" lon="0.34433">
        <ele>150.52</ele>
        <time>2018-06-03T08:38:31.999Z</time>
      </trkpt>
      <trkpt lat="46.53944" lon="0.34421">
        <ele>150.91</ele>
        <time>2018-06-03T08:38:34.999Z</time>
      </trkpt>
      <trkpt lat="46.53952" lon="0.34412">
        <ele>151.03</ele>
        <time>2018-06-03T08:38:38.999Z</time>
      </trkpt>
      <trkpt lat="46.53961" lon="0.34409">
        <ele>151.27</ele>
        <time>2018-06-03T08:38:42.999Z</time>
      </trkpt>
      <trkpt lat="46.5397" lon="0.34403">
        <ele>151.61</ele>
        <time>2018-06-03T08:38:47.999Z</time>
      </trkpt>
      <trkpt lat="46.5398" lon="0.34397">
        <ele>152.15</ele>
        <time>2018-06-03T08:38:53.999Z</time>
      </trkpt>
      <trkpt lat="46.53988" lon="0.34391">
        <ele>152.81</ele>
        <time>2018-06-03T08:39:00.999Z</time>
      </trkpt>
      <trkpt lat="46.53997" lon="0.34385">
        <ele>153.2</ele>
        <time>2018-06-03T08:39:04.999Z</time>
      </trkpt>
      <trkpt lat="46.54009" lon="0.34385">
        <ele>153.58</ele>
        <time>2018-06-03T08:39:08.999Z</time>
      </trkpt>
      <trkpt lat="46.54018" lon="0.34388">
        <ele>153.97</ele>
        <time>2018-06-03T08:39:12.999Z</time>
      </trkpt>
      <trkpt lat="46.54028" lon="0.34389">
        <ele>154.26</ele>
        <time>2018-06-03T08:39:15.999Z</time>
      </trkpt>
      <trkpt lat="46.54037" lon="0.34385">
        <ele>154.53</ele>
        <time>2018-06-03T08:39:19.999Z</time>
      </trkpt>
      <trkpt lat="46.54044" lon="0.34371">
        <ele>154.89</ele>
        <time>2018-06-03T08:39:26.999Z</time>
      </trkpt>
      <trkpt lat="46.54046" lon="0.34356">
        <ele>155.24</ele>
        <time>2018-06-03T08:39:31.999Z</time>
      </trkpt>
      <trkpt lat="46.54051" lon="0.34344">
        <ele>155.77</ele>
        <time>2018-06-03T08:39:36.999Z</time>
      </trkpt>
      <trkpt lat="46.54057" lon="0.34334">
        <ele>156.74</ele>
        <time>2018-06-03T08:39:44.999Z</time>
      </trkpt>
      <trkpt lat="46.5406" lon="0.3432">
        <ele>158.3</ele>
        <time>2018-06-03T08:39:52.999Z</time>
      </trkpt>
      <trkpt lat="46.54063" lon="0.34306">
        <ele>160.63</ele>
        <time>2018-06-03T08:40:01.999Z</time>
      </trkpt>
      <trkpt lat="46.5407" lon="0.34296">
        <ele>163.77</ele>
        <time>2018-06-03T08:40:15.999Z</time>
      </trkpt>
      <trkpt lat="46.54078" lon="0.34288">
        <ele>168.88</ele>
        <time>2018-06-03T08:40:30.999Z</time>
      </trkpt>
      <trkpt lat="46.5408" lon="0.34273">
        <ele>172.32</ele>
        <time>2018-06-03T08:40:41.999Z</time>
      </trkpt>
      <trkpt lat="46.54087" lon="0.34263">
        <ele>173.78</ele>
        <time>2018-06-03T08:40:46.999Z</time>
      </trkpt>
      <trkpt lat="46.54092" lon="0.34252">
        <ele>175.13</ele>
        <time>2018-06-03T08:40:51.999Z</time>
      </trkpt>
      <trkpt lat="46.54099" lon="0.34241">
        <ele>177.27</ele>
        <time>2018-06-03T08:40:58.999Z</time>
      </trkpt>
      <trkpt lat="46.54102" lon="0.34229">
        <ele>178.68</ele>
        <time>2018-06-03T08:41:03.999Z</time>
      </trkpt>
      <trkpt lat="46.54108" lon="0.34214">
        <ele>182.07</ele>
        <time>2018-06-03T08:41:07.999Z</time>
      </trkpt>
      <trkpt lat="46.54109" lon="0.34201">
        <ele>186.15</ele>
        <time>2018-06-03T08:41:09.999Z</time>
      </trkpt>
      <trkpt lat="46.54111" lon="0.34186">
        <ele>186.68</ele>
        <time>2018-06-03T08:41:12.999Z</time>
      </trkpt>
      <trkpt lat="46.5411" lon="0.34172">
        <ele>187.42</ele>
        <time>2018-06-03T08:41:16.999Z</time>
      </trkpt>
      <trkpt lat="46.54114" lon="0.34156">
        <ele>188.32</ele>
        <time>2018-06-03T08:41:20.999Z</time>
      </trkpt>
      <trkpt lat="46.54118" lon="0.34143">
        <ele>189.39</ele>
        <time>2018-06-03T08:41:24.999Z</time>
      </trkpt>
      <trkpt lat="46.54127" lon="0.34132">
        <ele>190.03</ele>
        <time>2018-06-03T08:41:26.999Z</time>
      </trkpt>
      <trkpt lat="46.54139" lon="0.34131">
        <ele>190.45</ele>
        <time>2018-06-03T08:41:28.999Z</time>
      </trkpt>
      <trkpt lat="46.54147" lon="0.34121">
        <ele>190.73</ele>
        <time>2018-06-03T08:41:32.999Z</time>
      </trkpt>
      <trkpt lat="46.54153" lon="0.34112">
        <ele>190.85</ele>
        <time>2018-06-03T08:41:35.999Z</time>
      </trkpt>
      <trkpt lat="46.54158" lon="0.34098">
        <ele>191.04</ele>
        <time>2018-06-03T08:41:39.999Z</time>
      </trkpt>
      <trkpt lat="46.54162" lon="0.34086">
        <ele>191.16</ele>
        <time>2018-06-03T08:41:43.999Z</time>
      </trkpt>
      <trkpt lat="46.54168" lon="0.34076">
        <ele>191.42</ele>
        <time>2018-06-03T08:41:48.999Z</time>
      </trkpt>
      <trkpt lat="46.54171" lon="0.34061">
        <ele>191.62</ele>
        <time>2018-06-03T08:41:51.999Z</time>
      </trkpt>
      <trkpt lat="46.54174" lon="0.34047">
        <ele>191.83</ele>
        <time>2018-06-03T08:41:55.999Z</time>
      </trkpt>
      <trkpt lat="46.54176" lon="0.34034">
        <ele>191.88</ele>
        <time>2018-06-03T08:41:58.999Z</time>
      </trkpt>
      <trkpt lat="46.54186" lon="0.3403">
        <ele>192.08</ele>
        <time>2018-06-03T08:42:01.999Z</time>
      </trkpt>
      <trkpt lat="46.54191" lon="0.34041">
        <ele>192.2</ele>
        <time>2018-06-03T08:42:05.999Z</time>
      </trkpt>
      <trkpt lat="46.54193" lon="0.34055">
        <ele>192.19</ele>
        <time>2018-06-03T08:42:08.999Z</time>
      </trkpt>
      <trkpt lat="46.54197" lon="0.34068">
        <ele>192.17</ele>
        <time>2018-06-03T08:42:10.999Z</time>
      </trkpt>
      <trkpt lat="46.54199" lon="0.34084">
        <ele>192.07</ele>
        <time>2018-06-03T08:42:13.999Z</time>
      </trkpt>
      <trkpt lat="46.54201" lon="0.34097">
        <ele>192.05</ele>
        <time>2018-06-03T08:42:16.999Z</time>
      </trkpt>
      <trkpt lat="46.54202" lon="0.34112">
        <ele>191.82</ele>
        <time>2018-06-03T08:42:20.999Z</time>
      </trkpt>
      <trkpt lat="46.54205" lon="0.34126">
        <ele>191.65</ele>
        <time>2018-06-03T08:42:23.999Z</time>
      </trkpt>
      <trkpt lat="46.54209" lon="0.34142">
        <ele>191.4</ele>
        <time>2018-06-03T08:42:26.999Z</time>
      </trkpt>
      <trkpt lat="46.54212" lon="0.34155">
        <ele>191.19</ele>
        <time>2018-06-03T08:42:29.999Z</time>
      </trkpt>
      <trkpt lat="46.54215" lon="0.34175">
        <ele>191.19</ele>
        <time>2018-06-03T08:42:32.999Z</time>
      </trkpt>
      <trkpt lat="46.54219" lon="0.34192">
        <ele>191.39</ele>
        <time>2018-06-03T08:42:35.999Z</time>
      </trkpt>
      <trkpt lat="46.54221" lon="0.3421">
        <ele>191.59</ele>
        <time>2018-06-03T08:42:38.999Z</time>
      </trkpt>
      <trkpt lat="46.54224" lon="0.34228">
        <ele>192.14</ele>
        <time>2018-06-03T08:42:41.999Z</time>
      </trkpt>
      <trkpt lat="46.54224" lon="0.34244">
        <ele>192.36</ele>
        <time>2018-06-03T08:42:45.999Z</time>
      </trkpt>
      <trkpt lat="46.54231" lon="0.34254">
        <ele>192.74</ele>
        <time>2018-06-03T08:42:49.999Z</time>
      </trkpt>
      <trkpt lat="46.54241" lon="0.34257">
        <ele>193.22</ele>
        <time>2018-06-03T08:42:51.999Z</time>
      </trkpt>
      <trkpt lat="46.54253" lon="0.3426">
        <ele>192.7</ele>
        <time>2018-06-03T08:42:54.999Z</time>
      </trkpt>
      <trkpt lat="46.54263" lon="0.34264">
        <ele>192.24</ele>
        <time>2018-06-03T08:42:56.999Z</time>
      </trkpt>
      <trkpt lat="46.54271" lon="0.34269">
        <ele>192.25</ele>
        <time>2018-06-03T08:42:58.999Z</time>
      </trkpt>
      <trkpt lat="46.54283" lon="0.34276">
        <ele>192.69</ele>
        <time>2018-06-03T08:43:01.999Z</time>
      </trkpt>
      <trkpt lat="46.54293" lon="0.34282">
        <ele>193.43</ele>
        <time>2018-06-03T08:43:03.999Z</time>
      </trkpt>
      <trkpt lat="46.54303" lon="0.34282">
        <ele>193.37</ele>
        <time>2018-06-03T08:43:05.999Z</time>
      </trkpt>
      <trkpt lat="46.54317" lon="0.34282">
        <ele>192.91</ele>
        <time>2018-06-03T08:43:07.999Z</time>
      </trkpt>
      <trkpt lat="46.54331" lon="0.34291">
        <ele>191.13</ele>
        <time>2018-06-03T08:43:09.999Z</time>
      </trkpt>
      <trkpt lat="46.54342" lon="0.3431">
        <ele>189.42</ele>
        <time>2018-06-03T08:43:11.999Z</time>
      </trkpt>
      <trkpt lat="46.54349" lon="0.34332">
        <ele>187.13</ele>
        <time>2018-06-03T08:43:13.999Z</time>
      </trkpt>
      <trkpt lat="46.54356" lon="0.3435">
        <ele>184.6</ele>
        <time>2018-06-03T08:43:15.999Z</time>
      </trkpt>
      <trkpt lat="46.54364" lon="0.34367">
        <ele>182.49</ele>
        <time>2018-06-03T08:43:17.999Z</time>
      </trkpt>
      <trkpt lat="46.54371" lon="0.34385">
        <ele>181.01</ele>
        <time>2018-06-03T08:43:19.999Z</time>
      </trkpt>
      <trkpt lat="46.54379" lon="0.34403">
        <ele>180.05</ele>
        <time>2018-06-03T08:43:21.999Z</time>
      </trkpt>
      <trkpt lat="46.54387" lon="0.34421">
        <ele>179.49</ele>
        <time>2018-06-03T08:43:23.999Z</time>
      </trkpt>
      <trkpt lat="46.54394" lon="0.34439">
        <ele>179.45</ele>
        <time>2018-06-03T08:43:25.999Z</time>
      </trkpt>
      <trkpt lat="46.544" lon="0.34456">
        <ele>179.16</ele>
        <time>2018-06-03T08:43:27.999Z</time>
      </trkpt>
      <trkpt lat="46.54407" lon="0.3447">
        <ele>178.86</ele>
        <time>2018-06-03T08:43:29.999Z</time>
      </trkpt>
      <trkpt lat="46.54412" lon="0.34486">
        <ele>178.36</ele>
        <time>2018-06-03T08:43:31.999Z</time>
      </trkpt>
      <trkpt lat="46.54413" lon="0.34504">
        <ele>178.11</ele>
        <time>2018-06-03T08:43:33.999Z</time>
      </trkpt>
      <trkpt lat="46.54409" lon="0.34519">
        <ele>177.98</ele>
        <time>2018-06-03T08:43:35.999Z</time>
      </trkpt>
      <trkpt lat="46.54401" lon="0.34531">
        <ele>178.17</ele>
        <time>2018-06-03T08:43:37.999Z</time>
      </trkpt>
      <trkpt lat="46.54394" lon="0.34541">
        <ele>178.86</ele>
        <time>2018-06-03T08:43:39.999Z</time>
      </trkpt>
      <trkpt lat="46.54388" lon="0.34553">
        <ele>179.82</ele>
        <time>2018-06-03T08:43:41.999Z</time>
      </trkpt>
      <trkpt lat="46.54386" lon="0.3457">
        <ele>180.65</ele>
        <time>2018-06-03T08:43:43.999Z</time>
      </trkpt>
      <trkpt lat="46.54386" lon="0.34585">
        <ele>180.75</ele>
        <time>2018-06-03T08:43:46.999Z</time>
      </trkpt>
      <trkpt lat="46.54376" lon="0.34595">
        <ele>180.9</ele>
        <time>2018-06-03T08:43:51.999Z</time>
      </trkpt>
      <trkpt lat="46.54365" lon="0.34597">
        <ele>181.26</ele>
        <time>2018-06-03T08:43:55.999Z</time>
      </trkpt>
      <trkpt lat="46.54357" lon="0.34606">
        <ele>181.64</ele>
        <time>2018-06-03T08:43:58.999Z</time>
      </trkpt>
      <trkpt lat="46.54351" lon="0.34618">
        <ele>182.21</ele>
        <time>2018-06-03T08:44:01.999Z</time>
      </trkpt>
      <trkpt lat="46.54342" lon="0.34627">
        <ele>183.12</ele>
        <time>2018-06-03T08:44:05.999Z</time>
      </trkpt>
      <trkpt lat="46.54331" lon="0.34639">
        <ele>183.9</ele>
        <time>2018-06-03T08:44:08.999Z</time>
      </trkpt>
      <trkpt lat="46.54322" lon="0.34654">
        <ele>184.81</ele>
        <time>2018-06-03T08:44:11.999Z</time>
      </trkpt>
      <trkpt lat="46.54313" lon="0.34665">
        <ele>185.78</ele>
        <time>2018-06-03T08:44:14.999Z</time>
      </trkpt>
      <trkpt lat="46.54305" lon="0.34676">
        <ele>187.16</ele>
        <time>2018-06-03T08:44:18.999Z</time>
      </trkpt>
      <trkpt lat="46.54298" lon="0.34691">
        <ele>188.65</ele>
        <time>2018-06-03T08:44:21.999Z</time>
      </trkpt>
      <trkpt lat="46.54289" lon="0.34696">
        <ele>190.34</ele>
        <time>2018-06-03T08:44:24.999Z</time>
      </trkpt>
      <trkpt lat="46.5428" lon="0.34702">
        <ele>191.94</ele>
        <time>2018-06-03T08:44:27.999Z</time>
      </trkpt>
      <trkpt lat="46.5427" lon="0.34712">
        <ele>194.54</ele>
        <time>2018-06-03T08:44:33.999Z</time>
      </trkpt>
      <trkpt lat="46.54271" lon="0.34727">
        <ele>196.26</ele>
        <time>2018-06-03T08:44:37.999Z</time>
      </trkpt>
      <trkpt lat="46.54275" lon="0.34741">
        <ele>198.92</ele>
        <time>2018-06-03T08:44:43.999Z</time>
      </trkpt>
      <trkpt lat="46.54278" lon="0.34754">
        <ele>200</ele>
        <time>2018-06-03T08:44:47.999Z</time>
      </trkpt>
      <trkpt lat="46.54276" lon="0.34767">
        <ele>200.5</ele>
        <time>2018-06-03T08:44:49.999Z</time>
      </trkpt>
      <trkpt lat="46.54271" lon="0.34786">
        <ele>201.03</ele>
        <time>2018-06-03T08:44:52.999Z</time>
      </trkpt>
      <trkpt lat="46.54266" lon="0.34799">
        <ele>201.44</ele>
        <time>2018-06-03T08:44:59.999Z</time>
      </trkpt>
      <trkpt lat="46.54261" lon="0.34813">
        <ele>201.73</ele>
        <time>2018-06-03T08:45:03.999Z</time>
      </trkpt>
      <trkpt lat="46.54257" lon="0.34825">
        <ele>201.48</ele>
        <time>2018-06-03T08:45:05.999Z</time>
      </trkpt>
      <trkpt lat="46.54253" lon="0.34838">
        <ele>201.43</ele>
        <time>2018-06-03T08:45:08.999Z</time>
      </trkpt>
      <trkpt lat="46.5426" lon="0.34849">
        <ele>201.81</ele>
        <time>2018-06-03T08:45:12.999Z</time>
      </trkpt>
      <trkpt lat="46.54272" lon="0.3485">
        <ele>204.44</ele>
        <time>2018-06-03T08:45:15.999Z</time>
      </trkpt>
      <trkpt lat="46.54278" lon="0.34863">
        <ele>204.91</ele>
        <time>2018-06-03T08:45:19.999Z</time>
      </trkpt>
      <trkpt lat="46.54283" lon="0.34874">
        <ele>205.2</ele>
        <time>2018-06-03T08:45:21.999Z</time>
      </trkpt>
      <trkpt lat="46.54289" lon="0.34885">
        <ele>205.51</ele>
        <time>2018-06-03T08:45:23.999Z</time>
      </trkpt>
      <trkpt lat="46.54295" lon="0.34898">
        <ele>206.26</ele>
        <time>2018-06-03T08:45:26.999Z</time>
      </trkpt>
      <trkpt lat="46.543" lon="0.34918">
        <ele>211.47</ele>
        <time>2018-06-03T08:45:28.999Z</time>
      </trkpt>
      <trkpt lat="46.54304" lon="0.34937">
        <ele>211.78</ele>
        <time>2018-06-03T08:45:30.999Z</time>
      </trkpt>
      <trkpt lat="46.54308" lon="0.34953">
        <ele>212.26</ele>
        <time>2018-06-03T08:45:33.999Z</time>
      </trkpt>
      <trkpt lat="46.54303" lon="0.34967">
        <ele>212.64</ele>
        <time>2018-06-03T08:45:37.999Z</time>
      </trkpt>
      <trkpt lat="46.54295" lon="0.34974">
        <ele>212.82</ele>
        <time>2018-06-03T08:45:41.999Z</time>
      </trkpt>
      <trkpt lat="46.54289" lon="0.34986">
        <ele>212.72</ele>
        <time>2018-06-03T08:45:48.999Z</time>
      </trkpt>
      <trkpt lat="46.54279" lon="0.34993">
        <ele>212.83</ele>
        <time>2018-06-03T08:45:56.999Z</time>
      </trkpt>
      <trkpt lat="46.54271" lon="0.35002">
        <ele>212.73</ele>
        <time>2018-06-03T08:46:02.999Z</time>
      </trkpt>
      <trkpt lat="46.54281" lon="0.35007">
        <ele>212.98</ele>
        <time>2018-06-03T08:46:12.999Z</time>
      </trkpt>
      <trkpt lat="46.54289" lon="0.35014">
        <ele>213.62</ele>
        <time>2018-06-03T08:46:17.999Z</time>
      </trkpt>
      <trkpt lat="46.54298" lon="0.35019">
        <ele>215.09</ele>
        <time>2018-06-03T08:46:21.999Z</time>
      </trkpt>
      <trkpt lat="46.54308" lon="0.35019">
        <ele>215.33</ele>
        <time>2018-06-03T08:46:25.999Z</time>
      </trkpt>
      <trkpt lat="46.54318" lon="0.35022">
        <ele>215.54</ele>
        <time>2018-06-03T08:46:29.999Z</time>
      </trkpt>
      <trkpt lat="46.54329" lon="0.35021">
        <ele>217.38</ele>
        <time>2018-06-03T08:46:33.999Z</time>
      </trkpt>
      <trkpt lat="46.54339" lon="0.35017">
        <ele>217.89</ele>
        <time>2018-06-03T08:46:38.999Z</time>
      </trkpt>
      <trkpt lat="46.54345" lon="0.35004">
        <ele>217.88</ele>
        <time>2018-06-03T08:46:42.999Z</time>
      </trkpt>
      <trkpt lat="46.54353" lon="0.35011">
        <ele>215.92</ele>
        <time>2018-06-03T08:46:56.999Z</time>
      </trkpt>
      <trkpt lat="46.54365" lon="0.35011">
        <ele>214.65</ele>
        <time>2018-06-03T08:47:00.999Z</time>
      </trkpt>
      <trkpt lat="46.54376" lon="0.35012">
        <ele>213.6</ele>
        <time>2018-06-03T08:47:04.999Z</time>
      </trkpt>
      <trkpt lat="46.54385" lon="0.35011">
        <ele>212.87</ele>
        <time>2018-06-03T08:47:07.999Z</time>
      </trkpt>
      <trkpt lat="46.54396" lon="0.35003">
        <ele>211.99</ele>
        <time>2018-06-03T08:47:11.999Z</time>
      </trkpt>
      <trkpt lat="46.54405" lon="0.34999">
        <ele>210.7</ele>
        <time>2018-06-03T08:47:16.999Z</time>
      </trkpt>
      <trkpt lat="46.54414" lon="0.34997">
        <ele>209.76</ele>
        <time>2018-06-03T08:47:20.999Z</time>
      </trkpt>
      <trkpt lat="46.54419" lon="0.34985">
        <ele>208.01</ele>
        <time>2018-06-03T08:47:26.999Z</time>
      </trkpt>
      <trkpt lat="46.54427" lon="0.34979">
        <ele>207.01</ele>
        <time>2018-06-03T08:47:29.999Z</time>
      </trkpt>
      <trkpt lat="46.54435" lon="0.34973">
        <ele>205.68</ele>
        <time>2018-06-03T08:47:34.999Z</time>
      </trkpt>
      <trkpt lat="46.54445" lon="0.34975">
        <ele>205.03</ele>
        <time>2018-06-03T08:47:37.999Z</time>
      </trkpt>
      <trkpt lat="46.54454" lon="0.34971">
        <ele>202.75</ele>
        <time>2018-06-03T08:47:39.999Z</time>
      </trkpt>
      <trkpt lat="46.54463" lon="0.34966">
        <ele>202.4</ele>
        <time>2018-06-03T08:47:43.999Z</time>
      </trkpt>
      <trkpt lat="46.5447" lon="0.34976">
        <ele>202.13</ele>
        <time>2018-06-03T08:47:47.999Z</time>
      </trkpt>
      <trkpt lat="46.54478" lon="0.34985">
        <ele>201.93</ele>
        <time>2018-06-03T08:47:49.999Z</time>
      </trkpt>
      <trkpt lat="46.54488" lon="0.34993">
        <ele>201.05</ele>
        <time>2018-06-03T08:47:52.999Z</time>
      </trkpt>
      <trkpt lat="46.54501" lon="0.35002">
        <ele>203.37</ele>
        <time>2018-06-03T08:47:55.999Z</time>
      </trkpt>
      <trkpt lat="46.54512" lon="0.35009">
        <ele>203.72</ele>
        <time>2018-06-03T08:47:58.999Z</time>
      </trkpt>
      <trkpt lat="46.54521" lon="0.35014">
        <ele>205.68</ele>
        <time>2018-06-03T08:48:00.999Z</time>
      </trkpt>
      <trkpt lat="46.54532" lon="0.35013">
        <ele>206.92</ele>
        <time>2018-06-03T08:48:02.999Z</time>
      </trkpt>
      <trkpt lat="46.54546" lon="0.35016">
        <ele>208.81</ele>
        <time>2018-06-03T08:48:04.999Z</time>
      </trkpt>
      <trkpt lat="46.54558" lon="0.35017">
        <ele>210.06</ele>
        <time>2018-06-03T08:48:06.999Z</time>
      </trkpt>
      <trkpt lat="46.5457" lon="0.35017">
        <ele>210.57</ele>
        <time>2018-06-03T08:48:08.999Z</time>
      </trkpt>
      <trkpt lat="46.54576" lon="0.35027">
        <ele>210.71</ele>
        <time>2018-06-03T08:48:11.999Z</time>
      </trkpt>
      <trkpt lat="46.54573" lon="0.35045">
        <ele>211.54</ele>
        <time>2018-06-03T08:48:15.999Z</time>
      </trkpt>
      <trkpt lat="46.54569" lon="0.35057">
        <ele>212.08</ele>
        <time>2018-06-03T08:48:17.999Z</time>
      </trkpt>
      <trkpt lat="46.54564" lon="0.35073">
        <ele>212.77</ele>
        <time>2018-06-03T08:48:20.999Z</time>
      </trkpt>
      <trkpt lat="46.54563" lon="0.35088">
        <ele>213.05</ele>
        <time>2018-06-03T08:48:23.999Z</time>
      </trkpt>
      <trkpt lat="46.5456" lon="0.35101">
        <ele>213.08</ele>
        <time>2018-06-03T08:48:27.999Z</time>
      </trkpt>
      <trkpt lat="46.54553" lon="0.35115">
        <ele>212.82</ele>
        <time>2018-06-03T08:48:31.999Z</time>
      </trkpt>
      <trkpt lat="46.54547" lon="0.35125">
        <ele>212.25</ele>
        <time>2018-06-03T08:48:35.999Z</time>
      </trkpt>
      <trkpt lat="46.54541" lon="0.35135">
        <ele>210.75</ele>
        <time>2018-06-03T08:48:43.999Z</time>
      </trkpt>
      <trkpt lat="46.54534" lon="0.35148">
        <ele>209.69</ele>
        <time>2018-06-03T08:48:49.999Z</time>
      </trkpt>
      <trkpt lat="46.54526" lon="0.35159">
        <ele>208.16</ele>
        <time>2018-06-03T08:48:56.999Z</time>
      </trkpt>
      <trkpt lat="46.54522" lon="0.35174">
        <ele>206.28</ele>
        <time>2018-06-03T08:49:05.999Z</time>
      </trkpt>
      <trkpt lat="46.54516" lon="0.35186">
        <ele>205.68</ele>
        <time>2018-06-03T08:49:08.999Z</time>
      </trkpt>
      <trkpt lat="46.54507" lon="0.35196">
        <ele>204.88</ele>
        <time>2018-06-03T08:49:13.999Z</time>
      </trkpt>
      <trkpt lat="46.54498" lon="0.35202">
        <ele>204.46</ele>
        <time>2018-06-03T08:49:16.999Z</time>
      </trkpt>
      <trkpt lat="46.5449" lon="0.35205">
        <ele>204.33</ele>
        <time>2018-06-03T08:49:19.999Z</time>
      </trkpt>
      <trkpt lat="46.54478" lon="0.35215">
        <ele>204.18</ele>
        <time>2018-06-03T08:49:22.999Z</time>
      </trkpt>
      <trkpt lat="46.5447" lon="0.35222">
        <ele>203.94</ele>
        <time>2018-06-03T08:49:25.999Z</time>
      </trkpt>
      <trkpt lat="46.54461" lon="0.35221">
        <ele>203.91</ele>
        <time>2018-06-03T08:49:34.999Z</time>
      </trkpt>
      <trkpt lat="46.54449" lon="0.35218">
        <ele>203.26</ele>
        <time>2018-06-03T08:49:38.999Z</time>
      </trkpt>
      <trkpt lat="46.54443" lon="0.35205">
        <ele>202.81</ele>
        <time>2018-06-03T08:49:40.999Z</time>
      </trkpt>
      <trkpt lat="46.54432" lon="0.35189">
        <ele>201.95</ele>
        <time>2018-06-03T08:49:43.999Z</time>
      </trkpt>
      <trkpt lat="46.54422" lon="0.35176">
        <ele>201.52</ele>
        <time>2018-06-03T08:49:45.999Z</time>
      </trkpt>
      <trkpt lat="46.5441" lon="0.35166">
        <ele>201.35</ele>
        <time>2018-06-03T08:49:46.999Z</time>
      </trkpt>
      <trkpt lat="46.54398" lon="0.35155">
        <ele>201.2</ele>
        <time>2018-06-03T08:49:47.999Z</time>
      </trkpt>
      <trkpt lat="46.54391" lon="0.35146">
        <ele>201.06</ele>
        <time>2018-06-03T08:49:48.999Z</time>
      </trkpt>
      <trkpt lat="46.54382" lon="0.35139">
        <ele>200.75</ele>
        <time>2018-06-03T08:49:51.999Z</time>
      </trkpt>
      <trkpt lat="46.54371" lon="0.35136">
        <ele>200.75</ele>
        <time>2018-06-03T08:49:53.999Z</time>
      </trkpt>
      <trkpt lat="46.54361" lon="0.35131">
        <ele>200.78</ele>
        <time>2018-06-03T08:49:55.999Z</time>
      </trkpt>
      <trkpt lat="46.54351" lon="0.35122">
        <ele>200.8</ele>
        <time>2018-06-03T08:49:57.999Z</time>
      </trkpt>
      <trkpt lat="46.54343" lon="0.35111">
        <ele>200.98</ele>
        <time>2018-06-03T08:50:01.999Z</time>
      </trkpt>
      <trkpt lat="46.54334" lon="0.35119">
        <ele>201.67</ele>
        <time>2018-06-03T08:50:09.999Z</time>
      </trkpt>
      <trkpt lat="46.54326" lon="0.35133">
        <ele>201.86</ele>
        <time>2018-06-03T08:50:13.999Z</time>
      </trkpt>
      <trkpt lat="46.5432" lon="0.35143">
        <ele>201.64</ele>
        <time>2018-06-03T08:50:16.999Z</time>
      </trkpt>
      <trkpt lat="46.54313" lon="0.35152">
        <ele>201.2</ele>
        <time>2018-06-03T08:50:19.999Z</time>
      </trkpt>
      <trkpt lat="46.54307" lon="0.35166">
        <ele>200.82</ele>
        <time>2018-06-03T08:50:22.999Z</time>
      </trkpt>
      <trkpt lat="46.54298" lon="0.35179">
        <ele>200.37</ele>
        <time>2018-06-03T08:50:25.999Z</time>
      </trkpt>
      <trkpt lat="46.5429" lon="0.35188">
        <ele>200.13</ele>
        <time>2018-06-03T08:50:27.999Z</time>
      </trkpt>
      <trkpt lat="46.54282" lon="0.352">
        <ele>198.23</ele>
        <time>2018-06-03T08:50:30.999Z</time>
      </trkpt>
      <trkpt lat="46.54273" lon="0.35215">
        <ele>197.72</ele>
        <time>2018-06-03T08:50:33.999Z</time>
      </trkpt>
      <trkpt lat="46.54265" lon="0.35229">
        <ele>197.28</ele>
        <time>2018-06-03T08:50:36.999Z</time>
      </trkpt>
      <trkpt lat="46.54257" lon="0.3524">
        <ele>197.07</ele>
        <time>2018-06-03T08:50:38.999Z</time>
      </trkpt>
      <trkpt lat="46.54247" lon="0.35257">
        <ele>196.82</ele>
        <time>2018-06-03T08:50:41.999Z</time>
      </trkpt>
      <trkpt lat="46.54239" lon="0.35271">
        <ele>196.45</ele>
        <time>2018-06-03T08:50:44.999Z</time>
      </trkpt>
      <trkpt lat="46.54232" lon="0.35284">
        <ele>196.06</ele>
        <time>2018-06-03T08:50:47.999Z</time>
      </trkpt>
      <trkpt lat="46.54226" lon="0.35297">
        <ele>195.83</ele>
        <time>2018-06-03T08:50:50.999Z</time>
      </trkpt>
      <trkpt lat="46.5422" lon="0.35307">
        <ele>195.71</ele>
        <time>2018-06-03T08:50:52.999Z</time>
      </trkpt>
      <trkpt lat="46.54214" lon="0.35317">
        <ele>195.09</ele>
        <time>2018-06-03T08:50:54.999Z</time>
      </trkpt>
      <trkpt lat="46.54205" lon="0.35331">
        <ele>195.76</ele>
        <time>2018-06-03T08:50:57.999Z</time>
      </trkpt>
      <trkpt lat="46.54197" lon="0.35341">
        <ele>195.53</ele>
        <time>2018-06-03T08:50:59.999Z</time>
      </trkpt>
      <trkpt lat="46.54187" lon="0.35353">
        <ele>193.55</ele>
        <time>2018-06-03T08:51:01.999Z</time>
      </trkpt>
      <trkpt lat="46.54178" lon="0.35361">
        <ele>191.69</ele>
        <time>2018-06-03T08:51:03.999Z</time>
      </trkpt>
      <trkpt lat="46.54168" lon="0.35371">
        <ele>190.18</ele>
        <time>2018-06-03T08:51:05.999Z</time>
      </trkpt>
      <trkpt lat="46.54159" lon="0.35381">
        <ele>189.85</ele>
        <time>2018-06-03T08:51:09.999Z</time>
      </trkpt>
      <trkpt lat="46.5415" lon="0.35396">
        <ele>189.5</ele>
        <time>2018-06-03T08:51:12.999Z</time>
      </trkpt>
      <trkpt lat="46.54143" lon="0.35405">
        <ele>188.75</ele>
        <time>2018-06-03T08:51:14.999Z</time>
      </trkpt>
      <trkpt lat="46.54134" lon="0.35414">
        <ele>188.3</ele>
        <time>2018-06-03T08:51:16.999Z</time>
      </trkpt>
      <trkpt lat="46.54125" lon="0.35423">
        <ele>188.08</ele>
        <time>2018-06-03T08:51:18.999Z</time>
      </trkpt>
      <trkpt lat="46.54116" lon="0.35433">
        <ele>187.97</ele>
        <time>2018-06-03T08:51:20.999Z</time>
      </trkpt>
      <trkpt lat="46.54107" lon="0.35444">
        <ele>187.75</ele>
        <time>2018-06-03T08:51:22.999Z</time>
      </trkpt>
      <trkpt lat="46.541" lon="0.35454">
        <ele>187.98</ele>
        <time>2018-06-03T08:51:24.999Z</time>
      </trkpt>
      <trkpt lat="46.54099" lon="0.3547">
        <ele>187.77</ele>
        <time>2018-06-03T08:51:26.999Z</time>
      </trkpt>
      <trkpt lat="46.54101" lon="0.35486">
        <ele>187.49</ele>
        <time>2018-06-03T08:51:28.999Z</time>
      </trkpt>
      <trkpt lat="46.541" lon="0.35502">
        <ele>186.78</ele>
        <time>2018-06-03T08:51:30.999Z</time>
      </trkpt>
      <trkpt lat="46.54096" lon="0.3552">
        <ele>186.1</ele>
        <time>2018-06-03T08:51:32.999Z</time>
      </trkpt>
      <trkpt lat="46.54089" lon="0.35539">
        <ele>185.47</ele>
        <time>2018-06-03T08:51:34.999Z</time>
      </trkpt>
      <trkpt lat="46.54083" lon="0.35555">
        <ele>185.66</ele>
        <time>2018-06-03T08:51:36.999Z</time>
      </trkpt>
      <trkpt lat="46.54076" lon="0.35571">
        <ele>185.9</ele>
        <time>2018-06-03T08:51:38.999Z</time>
      </trkpt>
      <trkpt lat="46.5407" lon="0.35587">
        <ele>186.18</ele>
        <time>2018-06-03T08:51:40.999Z</time>
      </trkpt>
      <trkpt lat="46.54061" lon="0.35603">
        <ele>186.07</ele>
        <time>2018-06-03T08:51:42.999Z</time>
      </trkpt>
      <trkpt lat="46.54054" lon="0.3562">
        <ele>186.26</ele>
        <time>2018-06-03T08:51:44.999Z</time>
      </trkpt>
      <trkpt lat="46.54046" lon="0.35636">
        <ele>186.5</ele>
        <time>2018-06-03T08:51:46.999Z</time>
      </trkpt>
      <trkpt lat="46.54038" lon="0.35652">
        <ele>186.9</ele>
        <time>2018-06-03T08:51:48.999Z</time>
      </trkpt>
      <trkpt lat="46.54032" lon="0.35668">
        <ele>187.81</ele>
        <time>2018-06-03T08:51:50.999Z</time>
      </trkpt>
      <trkpt lat="46.54026" lon="0.35685">
        <ele>188.82</ele>
        <time>2018-06-03T08:51:52.999Z</time>
      </trkpt>
      <trkpt lat="46.54022" lon="0.35704">
        <ele>189.71</ele>
        <time>2018-06-03T08:51:54.999Z</time>
      </trkpt>
      <trkpt lat="46.54018" lon="0.35723">
        <ele>190.43</ele>
        <time>2018-06-03T08:51:56.999Z</time>
      </trkpt>
      <trkpt lat="46.54014" lon="0.35742">
        <ele>190.81</ele>
        <time>2018-06-03T08:51:58.999Z</time>
      </trkpt>
      <trkpt lat="46.5401" lon="0.35761">
        <ele>190.99</ele>
        <time>2018-06-03T08:52:00.999Z</time>
      </trkpt>
      <trkpt lat="46.54007" lon="0.35779">
        <ele>191.29</ele>
        <time>2018-06-03T08:52:02.999Z</time>
      </trkpt>
      <trkpt lat="46.54006" lon="0.35799">
        <ele>191.55</ele>
        <time>2018-06-03T08:52:04.999Z</time>
      </trkpt>
      <trkpt lat="46.54005" lon="0.3582">
        <ele>191.27</ele>
        <time>2018-06-03T08:52:06.999Z</time>
      </trkpt>
      <trkpt lat="46.54003" lon="0.35842">
        <ele>190.76</ele>
        <time>2018-06-03T08:52:08.999Z</time>
      </trkpt>
      <trkpt lat="46.54001" lon="0.35864">
        <ele>190.16</ele>
        <time>2018-06-03T08:52:10.999Z</time>
      </trkpt>
      <trkpt lat="46.54" lon="0.35887">
        <ele>189.51</ele>
        <time>2018-06-03T08:52:12.999Z</time>
      </trkpt>
      <trkpt lat="46.53999" lon="0.3591">
        <ele>188.73</ele>
        <time>2018-06-03T08:52:14.999Z</time>
      </trkpt>
      <trkpt lat="46.53997" lon="0.35933">
        <ele>187.78</ele>
        <time>2018-06-03T08:52:16.999Z</time>
      </trkpt>
      <trkpt lat="46.53995" lon="0.35957">
        <ele>186.8</ele>
        <time>2018-06-03T08:52:18.999Z</time>
      </trkpt>
      <trkpt lat="46.53993" lon="0.35983">
        <ele>185.91</ele>
        <time>2018-06-03T08:52:20.999Z</time>
      </trkpt>
      <trkpt lat="46.5399" lon="0.36007">
        <ele>185.01</ele>
        <time>2018-06-03T08:52:22.999Z</time>
      </trkpt>
      <trkpt lat="46.53986" lon="0.36028">
        <ele>184.51</ele>
        <time>2018-06-03T08:52:24.999Z</time>
      </trkpt>
      <trkpt lat="46.5398" lon="0.36043">
        <ele>184.61</ele>
        <time>2018-06-03T08:52:26.999Z</time>
      </trkpt>
      <trkpt lat="46.53972" lon="0.36055">
        <ele>185.2</ele>
        <time>2018-06-03T08:52:28.999Z</time>
      </trkpt>
      <trkpt lat="46.53965" lon="0.36064">
        <ele>186.27</ele>
        <time>2018-06-03T08:52:30.999Z</time>
      </trkpt>
      <trkpt lat="46.53957" lon="0.36072">
        <ele>187.45</ele>
        <time>2018-06-03T08:52:32.999Z</time>
      </trkpt>
      <trkpt lat="46.53948" lon="0.3608">
        <ele>188.62</ele>
        <time>2018-06-03T08:52:34.999Z</time>
      </trkpt>
      <trkpt lat="46.53939" lon="0.36088">
        <ele>189.83</ele>
        <time>2018-06-03T08:52:36.999Z</time>
      </trkpt>
      <trkpt lat="46.53931" lon="0.36096">
        <ele>191.22</ele>
        <time>2018-06-03T08:52:38.999Z</time>
      </trkpt>
      <trkpt lat="46.53923" lon="0.36106">
        <ele>192.45</ele>
        <time>2018-06-03T08:52:40.999Z</time>
      </trkpt>
      <trkpt lat="46.53916" lon="0.36116">
        <ele>193.61</ele>
        <time>2018-06-03T08:52:42.999Z</time>
      </trkpt>
      <trkpt lat="46.53909" lon="0.36127">
        <ele>194.68</ele>
        <time>2018-06-03T08:52:44.999Z</time>
      </trkpt>
      <trkpt lat="46.53901" lon="0.36137">
        <ele>195.51</ele>
        <time>2018-06-03T08:52:46.999Z</time>
      </trkpt>
      <trkpt lat="46.53895" lon="0.36147">
        <ele>196.27</ele>
        <time>2018-06-03T08:52:48.999Z</time>
      </trkpt>
      <trkpt lat="46.53888" lon="0.36158">
        <ele>196.8</ele>
        <time>2018-06-03T08:52:50.999Z</time>
      </trkpt>
      <trkpt lat="46.53881" lon="0.36168">
        <ele>197.34</ele>
        <time>2018-06-03T08:52:52.999Z</time>
      </trkpt>
      <trkpt lat="46.53872" lon="0.36182">
        <ele>198.27</ele>
        <time>2018-06-03T08:52:55.999Z</time>
      </trkpt>
      <trkpt lat="46.53866" lon="0.36192">
        <ele>198.65</ele>
        <time>2018-06-03T08:52:57.999Z</time>
      </trkpt>
      <trkpt lat="46.5386" lon="0.36203">
        <ele>198.99</ele>
        <time>2018-06-03T08:52:59.999Z</time>
      </trkpt>
      <trkpt lat="46.53854" lon="0.36213">
        <ele>199.22</ele>
        <time>2018-06-03T08:53:01.999Z</time>
      </trkpt>
      <trkpt lat="46.53847" lon="0.36226">
        <ele>199.29</ele>
        <time>2018-06-03T08:53:03.999Z</time>
      </trkpt>
      <trkpt lat="46.5384" lon="0.36239">
        <ele>199.49</ele>
        <time>2018-06-03T08:53:05.999Z</time>
      </trkpt>
      <trkpt lat="46.53835" lon="0.36251">
        <ele>199.67</ele>
        <time>2018-06-03T08:53:07.999Z</time>
      </trkpt>
      <trkpt lat="46.53829" lon="0.36268">
        <ele>199.56</ele>
        <time>2018-06-03T08:53:10.999Z</time>
      </trkpt>
      <trkpt lat="46.53827" lon="0.36285">
        <ele>199.59</ele>
        <time>2018-06-03T08:53:13.999Z</time>
      </trkpt>
      <trkpt lat="46.53827" lon="0.36299">
        <ele>199.11</ele>
        <time>2018-06-03T08:53:15.999Z</time>
      </trkpt>
      <trkpt lat="46.53829" lon="0.36314">
        <ele>198.04</ele>
        <time>2018-06-03T08:53:17.999Z</time>
      </trkpt>
      <trkpt lat="46.53832" lon="0.36336">
        <ele>196.22</ele>
        <time>2018-06-03T08:53:19.999Z</time>
      </trkpt>
      <trkpt lat="46.53833" lon="0.36349">
        <ele>194.72</ele>
        <time>2018-06-03T08:53:20.999Z</time>
      </trkpt>
      <trkpt lat="46.53834" lon="0.36371">
        <ele>191.77</ele>
        <time>2018-06-03T08:53:22.999Z</time>
      </trkpt>
      <trkpt lat="46.53836" lon="0.36393">
        <ele>189.44</ele>
        <time>2018-06-03T08:53:24.999Z</time>
      </trkpt>
      <trkpt lat="46.53836" lon="0.36413">
        <ele>186.97</ele>
        <time>2018-06-03T08:53:26.999Z</time>
      </trkpt>
      <trkpt lat="46.5384" lon="0.36432">
        <ele>184.58</ele>
        <time>2018-06-03T08:53:28.999Z</time>
      </trkpt>
      <trkpt lat="46.53838" lon="0.3645">
        <ele>182.39</ele>
        <time>2018-06-03T08:53:30.999Z</time>
      </trkpt>
      <trkpt lat="46.53831" lon="0.36463">
        <ele>181</ele>
        <time>2018-06-03T08:53:32.999Z</time>
      </trkpt>
      <trkpt lat="46.53819" lon="0.36458">
        <ele>180.68</ele>
        <time>2018-06-03T08:53:41.999Z</time>
      </trkpt>
      <trkpt lat="46.53807" lon="0.36449">
        <ele>179.7</ele>
        <time>2018-06-03T08:53:44.999Z</time>
      </trkpt>
      <trkpt lat="46.53799" lon="0.36441">
        <ele>179.06</ele>
        <time>2018-06-03T08:53:46.999Z</time>
      </trkpt>
      <trkpt lat="46.53791" lon="0.36433">
        <ele>178.76</ele>
        <time>2018-06-03T08:53:48.999Z</time>
      </trkpt>
      <trkpt lat="46.53782" lon="0.36421">
        <ele>178.61</ele>
        <time>2018-06-03T08:53:51.999Z</time>
      </trkpt>
      <trkpt lat="46.53774" lon="0.36413">
        <ele>178.58</ele>
        <time>2018-06-03T08:53:54.999Z</time>
      </trkpt>
      <trkpt lat="46.53765" lon="0.36407">
        <ele>178.54</ele>
        <time>2018-06-03T08:53:57.999Z</time>
      </trkpt>
      <trkpt lat="46.53756" lon="0.36403">
        <ele>178.44</ele>
        <time>2018-06-03T08:54:02.999Z</time>
      </trkpt>
      <trkpt lat="46.53745" lon="0.36395">
        <ele>178.5</ele>
        <time>2018-06-03T08:54:06.999Z</time>
      </trkpt>
      <trkpt lat="46.53735" lon="0.36387">
        <ele>179.27</ele>
        <time>2018-06-03T08:54:08.999Z</time>
      </trkpt>
      <trkpt lat="46.53725" lon="0.36377">
        <ele>179.44</ele>
        <time>2018-06-03T08:54:10.999Z</time>
      </trkpt>
      <trkpt lat="46.53717" lon="0.36365">
        <ele>180.79</ele>
        <time>2018-06-03T08:54:12.999Z</time>
      </trkpt>
      <trkpt lat="46.53707" lon="0.36356">
        <ele>181.62</ele>
        <time>2018-06-03T08:54:14.999Z</time>
      </trkpt>
      <trkpt lat="46.53697" lon="0.36348">
        <ele>182.27</ele>
        <time>2018-06-03T08:54:16.999Z</time>
      </trkpt>
      <trkpt lat="46.53685" lon="0.36338">
        <ele>182.42</ele>
        <time>2018-06-03T08:54:18.999Z</time>
      </trkpt>
      <trkpt lat="46.53675" lon="0.36329">
        <ele>182.41</ele>
        <time>2018-06-03T08:54:20.999Z</time>
      </trkpt>
      <trkpt lat="46.53664" lon="0.3632">
        <ele>182.37</ele>
        <time>2018-06-03T08:54:22.999Z</time>
      </trkpt>
      <trkpt lat="46.53653" lon="0.3631">
        <ele>182.01</ele>
        <time>2018-06-03T08:54:24.999Z</time>
      </trkpt>
      <trkpt lat="46.53641" lon="0.363">
        <ele>181.71</ele>
        <time>2018-06-03T08:54:26.999Z</time>
      </trkpt>
      <trkpt lat="46.5363" lon="0.3629">
        <ele>181.23</ele>
        <time>2018-06-03T08:54:28.999Z</time>
      </trkpt>
      <trkpt lat="46.5362" lon="0.3628">
        <ele>180.69</ele>
        <time>2018-06-03T08:54:30.999Z</time>
      </trkpt>
      <trkpt lat="46.53611" lon="0.36269">
        <ele>179.72</ele>
        <time>2018-06-03T08:54:32.999Z</time>
      </trkpt>
      <trkpt lat="46.536" lon="0.36259">
        <ele>178.36</ele>
        <time>2018-06-03T08:54:34.999Z</time>
      </trkpt>
      <trkpt lat="46.53593" lon="0.36249">
        <ele>177.15</ele>
        <time>2018-06-03T08:54:36.999Z</time>
      </trkpt>
      <trkpt lat="46.53584" lon="0.36238">
        <ele>175.79</ele>
        <time>2018-06-03T08:54:38.999Z</time>
      </trkpt>
      <trkpt lat="46.53576" lon="0.36228">
        <ele>174.82</ele>
        <time>2018-06-03T08:54:40.999Z</time>
      </trkpt>
      <trkpt lat="46.53565" lon="0.36219">
        <ele>173.75</ele>
        <time>2018-06-03T08:54:43.999Z</time>
      </trkpt>
      <trkpt lat="46.53556" lon="0.36212">
        <ele>173.22</ele>
        <time>2018-06-03T08:54:45.999Z</time>
      </trkpt>
      <trkpt lat="46.53547" lon="0.36206">
        <ele>172.91</ele>
        <time>2018-06-03T08:54:47.999Z</time>
      </trkpt>
      <trkpt lat="46.53537" lon="0.36197">
        <ele>172.86</ele>
        <time>2018-06-03T08:54:50.999Z</time>
      </trkpt>
      <trkpt lat="46.53526" lon="0.36196">
        <ele>172.68</ele>
        <time>2018-06-03T08:54:53.999Z</time>
      </trkpt>
      <trkpt lat="46.53514" lon="0.36195">
        <ele>173.13</ele>
        <time>2018-06-03T08:54:56.999Z</time>
      </trkpt>
      <trkpt lat="46.53502" lon="0.36195">
        <ele>173.35</ele>
        <time>2018-06-03T08:54:58.999Z</time>
      </trkpt>
      <trkpt lat="46.53491" lon="0.36192">
        <ele>173.64</ele>
        <time>2018-06-03T08:55:00.999Z</time>
      </trkpt>
      <trkpt lat="46.53479" lon="0.36182">
        <ele>173.1</ele>
        <time>2018-06-03T08:55:02.999Z</time>
      </trkpt>
      <trkpt lat="46.53468" lon="0.36173">
        <ele>172.03</ele>
        <time>2018-06-03T08:55:04.999Z</time>
      </trkpt>
      <trkpt lat="46.53458" lon="0.36163">
        <ele>170.57</ele>
        <time>2018-06-03T08:55:06.999Z</time>
      </trkpt>
      <trkpt lat="46.53446" lon="0.36152">
        <ele>168.87</ele>
        <time>2018-06-03T08:55:09.999Z</time>
      </trkpt>
      <trkpt lat="46.53436" lon="0.36144">
        <ele>167.83</ele>
        <time>2018-06-03T08:55:11.999Z</time>
      </trkpt>
      <trkpt lat="46.53428" lon="0.36136">
        <ele>166.78</ele>
        <time>2018-06-03T08:55:13.999Z</time>
      </trkpt>
      <trkpt lat="46.53421" lon="0.36127">
        <ele>166.09</ele>
        <time>2018-06-03T08:55:15.999Z</time>
      </trkpt>
      <trkpt lat="46.53413" lon="0.36119">
        <ele>165.35</ele>
        <time>2018-06-03T08:55:17.999Z</time>
      </trkpt>
      <trkpt lat="46.534" lon="0.36108">
        <ele>165.1</ele>
        <time>2018-06-03T08:55:20.999Z</time>
      </trkpt>
      <trkpt lat="46.53389" lon="0.36098">
        <ele>164.76</ele>
        <time>2018-06-03T08:55:22.999Z</time>
      </trkpt>
      <trkpt lat="46.53381" lon="0.3609">
        <ele>164.03</ele>
        <time>2018-06-03T08:55:24.999Z</time>
      </trkpt>
      <trkpt lat="46.53369" lon="0.36082">
        <ele>163.58</ele>
        <time>2018-06-03T08:55:26.999Z</time>
      </trkpt>
      <trkpt lat="46.5336" lon="0.36074">
        <ele>163.03</ele>
        <time>2018-06-03T08:55:28.999Z</time>
      </trkpt>
      <trkpt lat="46.53347" lon="0.36069">
        <ele>162.6</ele>
        <time>2018-06-03T08:55:30.999Z</time>
      </trkpt>
      <trkpt lat="46.53334" lon="0.36063">
        <ele>162.86</ele>
        <time>2018-06-03T08:55:32.999Z</time>
      </trkpt>
      <trkpt lat="46.53321" lon="0.36066">
        <ele>163.54</ele>
        <time>2018-06-03T08:55:34.999Z</time>
      </trkpt>
      <trkpt lat="46.53307" lon="0.36068">
        <ele>163.98</ele>
        <time>2018-06-03T08:55:36.999Z</time>
      </trkpt>
      <trkpt lat="46.53291" lon="0.36072">
        <ele>163.97</ele>
        <time>2018-06-03T08:55:38.999Z</time>
      </trkpt>
      <trkpt lat="46.5328" lon="0.3608">
        <ele>163.75</ele>
        <time>2018-06-03T08:55:40.999Z</time>
      </trkpt>
      <trkpt lat="46.5327" lon="0.36082">
        <ele>163.07</ele>
        <time>2018-06-03T08:55:42.999Z</time>
      </trkpt>
      <trkpt lat="46.53256" lon="0.36091">
        <ele>163.23</ele>
        <time>2018-06-03T08:55:44.999Z</time>
      </trkpt>
      <trkpt lat="46.53242" lon="0.36096">
        <ele>162.99</ele>
        <time>2018-06-03T08:55:46.999Z</time>
      </trkpt>
      <trkpt lat="46.53229" lon="0.36103">
        <ele>162.76</ele>
        <time>2018-06-03T08:55:48.999Z</time>
      </trkpt>
      <trkpt lat="46.53219" lon="0.36098">
        <ele>162.67</ele>
        <time>2018-06-03T08:55:51.999Z</time>
      </trkpt>
      <trkpt lat="46.53213" lon="0.36088">
        <ele>162.59</ele>
        <time>2018-06-03T08:55:54.999Z</time>
      </trkpt>
      <trkpt lat="46.53203" lon="0.36076">
        <ele>162.42</ele>
        <time>2018-06-03T08:55:57.999Z</time>
      </trkpt>
      <trkpt lat="46.53196" lon="0.36065">
        <ele>162.27</ele>
        <time>2018-06-03T08:55:59.999Z</time>
      </trkpt>
      <trkpt lat="46.53189" lon="0.3605">
        <ele>162.06</ele>
        <time>2018-06-03T08:56:02.999Z</time>
      </trkpt>
      <trkpt lat="46.53182" lon="0.36037">
        <ele>161.82</ele>
        <time>2018-06-03T08:56:05.999Z</time>
      </trkpt>
      <trkpt lat="46.53176" lon="0.36026">
        <ele>161.56</ele>
        <time>2018-06-03T08:56:08.999Z</time>
      </trkpt>
      <trkpt lat="46.53166" lon="0.36029">
        <ele>161.55</ele>
        <time>2018-06-03T08:56:16.999Z</time>
      </trkpt>
      <trkpt lat="46.53158" lon="0.36034">
        <ele>162.19</ele>
        <time>2018-06-03T08:56:22.999Z</time>
      </trkpt>
      <trkpt lat="46.53147" lon="0.36034">
        <ele>162.71</ele>
        <time>2018-06-03T08:56:26.999Z</time>
      </trkpt>
      <trkpt lat="46.53138" lon="0.36035">
        <ele>163.19</ele>
        <time>2018-06-03T08:56:31.999Z</time>
      </trkpt>
      <trkpt lat="46.53128" lon="0.36039">
        <ele>163.49</ele>
        <time>2018-06-03T08:56:36.999Z</time>
      </trkpt>
      <trkpt lat="46.53119" lon="0.36043">
        <ele>163.95</ele>
        <time>2018-06-03T08:56:41.999Z</time>
      </trkpt>
      <trkpt lat="46.53109" lon="0.3605">
        <ele>164.53</ele>
        <time>2018-06-03T08:56:46.999Z</time>
      </trkpt>
      <trkpt lat="46.531" lon="0.36058">
        <ele>165.21</ele>
        <time>2018-06-03T08:56:51.999Z</time>
      </trkpt>
      <trkpt lat="46.53093" lon="0.36067">
        <ele>165.5</ele>
        <time>2018-06-03T08:56:54.999Z</time>
      </trkpt>
      <trkpt lat="46.53083" lon="0.36073">
        <ele>165.67</ele>
        <time>2018-06-03T08:56:57.999Z</time>
      </trkpt>
      <trkpt lat="46.53071" lon="0.36079">
        <ele>165.76</ele>
        <time>2018-06-03T08:57:00.999Z</time>
      </trkpt>
      <trkpt lat="46.53058" lon="0.36084">
        <ele>166.73</ele>
        <time>2018-06-03T08:57:03.999Z</time>
      </trkpt>
      <trkpt lat="46.53047" lon="0.36084">
        <ele>167.41</ele>
        <time>2018-06-03T08:57:06.999Z</time>
      </trkpt>
      <trkpt lat="46.53035" lon="0.36086">
        <ele>167.9</ele>
        <time>2018-06-03T08:57:09.999Z</time>
      </trkpt>
      <trkpt lat="46.53026" lon="0.3609">
        <ele>167.64</ele>
        <time>2018-06-03T08:57:11.999Z</time>
      </trkpt>
      <trkpt lat="46.53016" lon="0.36094">
        <ele>167.52</ele>
        <time>2018-06-03T08:57:14.999Z</time>
      </trkpt>
      <trkpt lat="46.53005" lon="0.36097">
        <ele>167.35</ele>
        <time>2018-06-03T08:57:18.999Z</time>
      </trkpt>
      <trkpt lat="46.52995" lon="0.36102">
        <ele>167.44</ele>
        <time>2018-06-03T08:57:22.999Z</time>
      </trkpt>
      <trkpt lat="46.52983" lon="0.36102">
        <ele>167.62</ele>
        <time>2018-06-03T08:57:25.999Z</time>
      </trkpt>
      <trkpt lat="46.52972" lon="0.36101">
        <ele>167.72</ele>
        <time>2018-06-03T08:57:28.999Z</time>
      </trkpt>
      <trkpt lat="46.52962" lon="0.36105">
        <ele>167.93</ele>
        <time>2018-06-03T08:57:31.999Z</time>
      </trkpt>
      <trkpt lat="46.52953" lon="0.36109">
        <ele>167.84</ele>
        <time>2018-06-03T08:57:33.999Z</time>
      </trkpt>
      <trkpt lat="46.52942" lon="0.36115">
        <ele>167.05</ele>
        <time>2018-06-03T08:57:35.999Z</time>
      </trkpt>
      <trkpt lat="46.52933" lon="0.36126">
        <ele>165.93</ele>
        <time>2018-06-03T08:57:37.999Z</time>
      </trkpt>
      <trkpt lat="46.52926" lon="0.36138">
        <ele>164.91</ele>
        <time>2018-06-03T08:57:39.999Z</time>
      </trkpt>
      <trkpt lat="46.52919" lon="0.3615">
        <ele>163.65</ele>
        <time>2018-06-03T08:57:41.999Z</time>
      </trkpt>
      <trkpt lat="46.52911" lon="0.36167">
        <ele>162.62</ele>
        <time>2018-06-03T08:57:44.999Z</time>
      </trkpt>
      <trkpt lat="46.52905" lon="0.36178">
        <ele>162.08</ele>
        <time>2018-06-03T08:57:46.999Z</time>
      </trkpt>
      <trkpt lat="46.529" lon="0.3619">
        <ele>161.52</ele>
        <time>2018-06-03T08:57:48.999Z</time>
      </trkpt>
      <trkpt lat="46.52895" lon="0.36202">
        <ele>160.34</ele>
        <time>2018-06-03T08:57:50.999Z</time>
      </trkpt>
      <trkpt lat="46.52887" lon="0.36218">
        <ele>158.52</ele>
        <time>2018-06-03T08:57:52.999Z</time>
      </trkpt>
      <trkpt lat="46.52879" lon="0.36229">
        <ele>156.65</ele>
        <time>2018-06-03T08:57:54.999Z</time>
      </trkpt>
      <trkpt lat="46.5287" lon="0.36231">
        <ele>155.76</ele>
        <time>2018-06-03T08:57:56.999Z</time>
      </trkpt>
      <trkpt lat="46.52858" lon="0.36233">
        <ele>154.64</ele>
        <time>2018-06-03T08:57:59.999Z</time>
      </trkpt>
      <trkpt lat="46.52849" lon="0.36237">
        <ele>153.46</ele>
        <time>2018-06-03T08:58:01.999Z</time>
      </trkpt>
      <trkpt lat="46.52839" lon="0.36238">
        <ele>152.98</ele>
        <time>2018-06-03T08:58:03.999Z</time>
      </trkpt>
      <trkpt lat="46.52829" lon="0.36239">
        <ele>152.91</ele>
        <time>2018-06-03T08:58:05.999Z</time>
      </trkpt>
      <trkpt lat="46.52822" lon="0.3623">
        <ele>152.87</ele>
        <time>2018-06-03T08:58:07.999Z</time>
      </trkpt>
      <trkpt lat="46.52817" lon="0.36213">
        <ele>152.4</ele>
        <time>2018-06-03T08:58:09.999Z</time>
      </trkpt>
      <trkpt lat="46.52816" lon="0.362">
        <ele>151.69</ele>
        <time>2018-06-03T08:58:11.999Z</time>
      </trkpt>
      <trkpt lat="46.5281" lon="0.36187">
        <ele>151.6</ele>
        <time>2018-06-03T08:58:14.999Z</time>
      </trkpt>
      <trkpt lat="46.52807" lon="0.3617">
        <ele>151.52</ele>
        <time>2018-06-03T08:58:17.999Z</time>
      </trkpt>
      <trkpt lat="46.52799" lon="0.36155">
        <ele>151.55</ele>
        <time>2018-06-03T08:58:22.999Z</time>
      </trkpt>
      <trkpt lat="46.52792" lon="0.36145">
        <ele>152.06</ele>
        <time>2018-06-03T08:58:27.999Z</time>
      </trkpt>
      <trkpt lat="46.52789" lon="0.36132">
        <ele>152.86</ele>
        <time>2018-06-03T08:58:32.999Z</time>
      </trkpt>
      <trkpt lat="46.52782" lon="0.36119">
        <ele>153.78</ele>
        <time>2018-06-03T08:58:35.999Z</time>
      </trkpt>
      <trkpt lat="46.52775" lon="0.36109">
        <ele>154.91</ele>
        <time>2018-06-03T08:58:38.999Z</time>
      </trkpt>
      <trkpt lat="46.52768" lon="0.36097">
        <ele>156.49</ele>
        <time>2018-06-03T08:58:42.999Z</time>
      </trkpt>
      <trkpt lat="46.52757" lon="0.36087">
        <ele>157.73</ele>
        <time>2018-06-03T08:58:45.999Z</time>
      </trkpt>
      <trkpt lat="46.5275" lon="0.36077">
        <ele>159.23</ele>
        <time>2018-06-03T08:58:48.999Z</time>
      </trkpt>
      <trkpt lat="46.52745" lon="0.36065">
        <ele>160.36</ele>
        <time>2018-06-03T08:58:50.999Z</time>
      </trkpt>
      <trkpt lat="46.52738" lon="0.36053">
        <ele>161.48</ele>
        <time>2018-06-03T08:58:52.999Z</time>
      </trkpt>
      <trkpt lat="46.52736" lon="0.36036">
        <ele>163.19</ele>
        <time>2018-06-03T08:58:55.999Z</time>
      </trkpt>
      <trkpt lat="46.52731" lon="0.36024">
        <ele>165.16</ele>
        <time>2018-06-03T08:58:59.999Z</time>
      </trkpt>
      <trkpt lat="46.52727" lon="0.36007">
        <ele>166.96</ele>
        <time>2018-06-03T08:59:03.999Z</time>
      </trkpt>
      <trkpt lat="46.52719" lon="0.35997">
        <ele>168.27</ele>
        <time>2018-06-03T08:59:08.999Z</time>
      </trkpt>
      <trkpt lat="46.52714" lon="0.35984">
        <ele>168.96</ele>
        <time>2018-06-03T08:59:11.999Z</time>
      </trkpt>
      <trkpt lat="46.52708" lon="0.3597">
        <ele>169.99</ele>
        <time>2018-06-03T08:59:16.999Z</time>
      </trkpt>
      <trkpt lat="46.52705" lon="0.35954">
        <ele>171.09</ele>
        <time>2018-06-03T08:59:22.999Z</time>
      </trkpt>
      <trkpt lat="46.52699" lon="0.35943">
        <ele>171.68</ele>
        <time>2018-06-03T08:59:26.999Z</time>
      </trkpt>
      <trkpt lat="46.52695" lon="0.3593">
        <ele>172.21</ele>
        <time>2018-06-03T08:59:30.999Z</time>
      </trkpt>
      <trkpt lat="46.52691" lon="0.35916">
        <ele>172.92</ele>
        <time>2018-06-03T08:59:36.999Z</time>
      </trkpt>
      <trkpt lat="46.5269" lon="0.35901">
        <ele>173.25</ele>
        <time>2018-06-03T08:59:40.999Z</time>
      </trkpt>
      <trkpt lat="46.52687" lon="0.35884">
        <ele>173.36</ele>
        <time>2018-06-03T08:59:43.999Z</time>
      </trkpt>
      <trkpt lat="46.52686" lon="0.3587">
        <ele>173.62</ele>
        <time>2018-06-03T08:59:48.999Z</time>
      </trkpt>
      <trkpt lat="46.52681" lon="0.35855">
        <ele>173.98</ele>
        <time>2018-06-03T08:59:52.999Z</time>
      </trkpt>
      <trkpt lat="46.52672" lon="0.35845">
        <ele>174.85</ele>
        <time>2018-06-03T08:59:57.999Z</time>
      </trkpt>
      <trkpt lat="46.52665" lon="0.35835">
        <ele>175.49</ele>
        <time>2018-06-03T09:00:00.999Z</time>
      </trkpt>
      <trkpt lat="46.52659" lon="0.35825">
        <ele>176.5</ele>
        <time>2018-06-03T09:00:04.999Z</time>
      </trkpt>
      <trkpt lat="46.52651" lon="0.35817">
        <ele>177.41</ele>
        <time>2018-06-03T09:00:07.999Z</time>
      </trkpt>
      <trkpt lat="46.52641" lon="0.35808">
        <ele>178.38</ele>
        <time>2018-06-03T09:00:11.999Z</time>
      </trkpt>
      <trkpt lat="46.52634" lon="0.35798">
        <ele>178.88</ele>
        <time>2018-06-03T09:00:13.999Z</time>
      </trkpt>
      <trkpt lat="46.52628" lon="0.35787">
        <ele>180.01</ele>
        <time>2018-06-03T09:00:18.999Z</time>
      </trkpt>
      <trkpt lat="46.5262" lon="0.35777">
        <ele>180.45</ele>
        <time>2018-06-03T09:00:22.999Z</time>
      </trkpt>
      <trkpt lat="46.52614" lon="0.35767">
        <ele>180.9</ele>
        <time>2018-06-03T09:00:25.999Z</time>
      </trkpt>
      <trkpt lat="46.52605" lon="0.35764">
        <ele>181.16</ele>
        <time>2018-06-03T09:00:27.999Z</time>
      </trkpt>
      <trkpt lat="46.52594" lon="0.35761">
        <ele>181.43</ele>
        <time>2018-06-03T09:00:30.999Z</time>
      </trkpt>
      <trkpt lat="46.52587" lon="0.35754">
        <ele>181.96</ele>
        <time>2018-06-03T09:00:34.999Z</time>
      </trkpt>
      <trkpt lat="46.52578" lon="0.35754">
        <ele>183.09</ele>
        <time>2018-06-03T09:00:41.999Z</time>
      </trkpt>
      <trkpt lat="46.52568" lon="0.35754">
        <ele>184.33</ele>
        <time>2018-06-03T09:00:47.999Z</time>
      </trkpt>
      <trkpt lat="46.52558" lon="0.35755">
        <ele>185.6</ele>
        <time>2018-06-03T09:00:52.999Z</time>
      </trkpt>
      <trkpt lat="46.52549" lon="0.35751">
        <ele>188.62</ele>
        <time>2018-06-03T09:01:02.999Z</time>
      </trkpt>
      <trkpt lat="46.52548" lon="0.35764">
        <ele>190.53</ele>
        <time>2018-06-03T09:01:10.999Z</time>
      </trkpt>
      <trkpt lat="46.52547" lon="0.35778">
        <ele>191.05</ele>
        <time>2018-06-03T09:01:15.999Z</time>
      </trkpt>
      <trkpt lat="46.52547" lon="0.35791">
        <ele>191.44</ele>
        <time>2018-06-03T09:01:20.999Z</time>
      </trkpt>
      <trkpt lat="46.52545" lon="0.35806">
        <ele>192</ele>
        <time>2018-06-03T09:01:25.999Z</time>
      </trkpt>
      <trkpt lat="46.52541" lon="0.35819">
        <ele>192.65</ele>
        <time>2018-06-03T09:01:31.999Z</time>
      </trkpt>
      <trkpt lat="46.52535" lon="0.3583">
        <ele>193.21</ele>
        <time>2018-06-03T09:01:36.999Z</time>
      </trkpt>
      <trkpt lat="46.52532" lon="0.35843">
        <ele>193.96</ele>
        <time>2018-06-03T09:01:43.999Z</time>
      </trkpt>
      <trkpt lat="46.52527" lon="0.35858">
        <ele>194.43</ele>
        <time>2018-06-03T09:01:49.999Z</time>
      </trkpt>
      <trkpt lat="46.52521" lon="0.35871">
        <ele>194.77</ele>
        <time>2018-06-03T09:01:53.999Z</time>
      </trkpt>
      <trkpt lat="46.52515" lon="0.35881">
        <ele>194.99</ele>
        <time>2018-06-03T09:01:56.999Z</time>
      </trkpt>
      <trkpt lat="46.52507" lon="0.35892">
        <ele>195.3</ele>
        <time>2018-06-03T09:02:00.999Z</time>
      </trkpt>
      <trkpt lat="46.52501" lon="0.35902">
        <ele>195.56</ele>
        <time>2018-06-03T09:02:03.999Z</time>
      </trkpt>
      <trkpt lat="46.52494" lon="0.35913">
        <ele>195.99</ele>
        <time>2018-06-03T09:02:07.999Z</time>
      </trkpt>
      <trkpt lat="46.52488" lon="0.35926">
        <ele>196.4</ele>
        <time>2018-06-03T09:02:10.999Z</time>
      </trkpt>
      <trkpt lat="46.52482" lon="0.35939">
        <ele>196.67</ele>
        <time>2018-06-03T09:02:13.999Z</time>
      </trkpt>
      <trkpt lat="46.52476" lon="0.35953">
        <ele>196.96</ele>
        <time>2018-06-03T09:02:17.999Z</time>
      </trkpt>
      <trkpt lat="46.52468" lon="0.35967">
        <ele>197.33</ele>
        <time>2018-06-03T09:02:20.999Z</time>
      </trkpt>
      <trkpt lat="46.52462" lon="0.35981">
        <ele>197.59</ele>
        <time>2018-06-03T09:02:24.999Z</time>
      </trkpt>
      <trkpt lat="46.52457" lon="0.35995">
        <ele>197.76</ele>
        <time>2018-06-03T09:02:27.999Z</time>
      </trkpt>
      <trkpt lat="46.52454" lon="0.36008">
        <ele>197.98</ele>
        <time>2018-06-03T09:02:30.999Z</time>
      </trkpt>
      <trkpt lat="46.52451" lon="0.36025">
        <ele>198.2</ele>
        <time>2018-06-03T09:02:33.999Z</time>
      </trkpt>
      <trkpt lat="46.52448" lon="0.36039">
        <ele>198.44</ele>
        <time>2018-06-03T09:02:35.999Z</time>
      </trkpt>
      <trkpt lat="46.52444" lon="0.3606">
        <ele>199.88</ele>
        <time>2018-06-03T09:02:37.999Z</time>
      </trkpt>
      <trkpt lat="46.52438" lon="0.36078">
        <ele>202.61</ele>
        <time>2018-06-03T09:02:39.999Z</time>
      </trkpt>
      <trkpt lat="46.52432" lon="0.36096">
        <ele>203.62</ele>
        <time>2018-06-03T09:02:41.999Z</time>
      </trkpt>
      <trkpt lat="46.52427" lon="0.36114">
        <ele>204.12</ele>
        <time>2018-06-03T09:02:43.999Z</time>
      </trkpt>
      <trkpt lat="46.52423" lon="0.36133">
        <ele>203.48</ele>
        <time>2018-06-03T09:02:45.999Z</time>
      </trkpt>
      <trkpt lat="46.52422" lon="0.36152">
        <ele>202.65</ele>
        <time>2018-06-03T09:02:47.999Z</time>
      </trkpt>
      <trkpt lat="46.5242" lon="0.3617">
        <ele>200.9</ele>
        <time>2018-06-03T09:02:49.999Z</time>
      </trkpt>
      <trkpt lat="46.52418" lon="0.36188">
        <ele>200.11</ele>
        <time>2018-06-03T09:02:51.999Z</time>
      </trkpt>
      <trkpt lat="46.52416" lon="0.36202">
        <ele>200.05</ele>
        <time>2018-06-03T09:02:53.999Z</time>
      </trkpt>
      <trkpt lat="46.52416" lon="0.36217">
        <ele>200.11</ele>
        <time>2018-06-03T09:02:55.999Z</time>
      </trkpt>
      <trkpt lat="46.52411" lon="0.36233">
        <ele>200.4</ele>
        <time>2018-06-03T09:02:57.999Z</time>
      </trkpt>
      <trkpt lat="46.52409" lon="0.3625">
        <ele>199.99</ele>
        <time>2018-06-03T09:02:59.999Z</time>
      </trkpt>
      <trkpt lat="46.52408" lon="0.36266">
        <ele>199.66</ele>
        <time>2018-06-03T09:03:01.999Z</time>
      </trkpt>
      <trkpt lat="46.52408" lon="0.3628">
        <ele>199.66</ele>
        <time>2018-06-03T09:03:03.999Z</time>
      </trkpt>
      <trkpt lat="46.52409" lon="0.36295">
        <ele>199.93</ele>
        <time>2018-06-03T09:03:05.999Z</time>
      </trkpt>
      <trkpt lat="46.52411" lon="0.36312">
        <ele>200.46</ele>
        <time>2018-06-03T09:03:07.999Z</time>
      </trkpt>
      <trkpt lat="46.52413" lon="0.36328">
        <ele>200.03</ele>
        <time>2018-06-03T09:03:09.999Z</time>
      </trkpt>
      <trkpt lat="46.52415" lon="0.36344">
        <ele>200.08</ele>
        <time>2018-06-03T09:03:11.999Z</time>
      </trkpt>
      <trkpt lat="46.52416" lon="0.36361">
        <ele>198.93</ele>
        <time>2018-06-03T09:03:13.999Z</time>
      </trkpt>
      <trkpt lat="46.52418" lon="0.36378">
        <ele>197.39</ele>
        <time>2018-06-03T09:03:15.999Z</time>
      </trkpt>
      <trkpt lat="46.52419" lon="0.36397">
        <ele>196.14</ele>
        <time>2018-06-03T09:03:17.999Z</time>
      </trkpt>
      <trkpt lat="46.52416" lon="0.36418">
        <ele>195.01</ele>
        <time>2018-06-03T09:03:19.999Z</time>
      </trkpt>
      <trkpt lat="46.52411" lon="0.36439">
        <ele>193.91</ele>
        <time>2018-06-03T09:03:21.999Z</time>
      </trkpt>
      <trkpt lat="46.52405" lon="0.36454">
        <ele>192.14</ele>
        <time>2018-06-03T09:03:23.999Z</time>
      </trkpt>
      <trkpt lat="46.52399" lon="0.36467">
        <ele>191.86</ele>
        <time>2018-06-03T09:03:26.999Z</time>
      </trkpt>
      <trkpt lat="46.52392" lon="0.36478">
        <ele>191.14</ele>
        <time>2018-06-03T09:03:30.999Z</time>
      </trkpt>
      <trkpt lat="46.52387" lon="0.36494">
        <ele>190.52</ele>
        <time>2018-06-03T09:03:33.999Z</time>
      </trkpt>
      <trkpt lat="46.5238" lon="0.36503">
        <ele>190.18</ele>
        <time>2018-06-03T09:03:35.999Z</time>
      </trkpt>
      <trkpt lat="46.52374" lon="0.36517">
        <ele>187.11</ele>
        <time>2018-06-03T09:03:38.999Z</time>
      </trkpt>
      <trkpt lat="46.52372" lon="0.3653">
        <ele>185.13</ele>
        <time>2018-06-03T09:03:40.999Z</time>
      </trkpt>
      <trkpt lat="46.52368" lon="0.36545">
        <ele>180.84</ele>
        <time>2018-06-03T09:03:43.999Z</time>
      </trkpt>
      <trkpt lat="46.52366" lon="0.36564">
        <ele>177.45</ele>
        <time>2018-06-03T09:03:46.999Z</time>
      </trkpt>
      <trkpt lat="46.52365" lon="0.3658">
        <ele>175.69</ele>
        <time>2018-06-03T09:03:48.999Z</time>
      </trkpt>
      <trkpt lat="46.52363" lon="0.36599">
        <ele>173.46</ele>
        <time>2018-06-03T09:03:50.999Z</time>
      </trkpt>
      <trkpt lat="46.52363" lon="0.36618">
        <ele>171.78</ele>
        <time>2018-06-03T09:03:52.999Z</time>
      </trkpt>
      <trkpt lat="46.52365" lon="0.3664">
        <ele>170.24</ele>
        <time>2018-06-03T09:03:54.999Z</time>
      </trkpt>
      <trkpt lat="46.52369" lon="0.36664">
        <ele>169.32</ele>
        <time>2018-06-03T09:03:56.999Z</time>
      </trkpt>
      <trkpt lat="46.52375" lon="0.36687">
        <ele>168.18</ele>
        <time>2018-06-03T09:03:58.999Z</time>
      </trkpt>
      <trkpt lat="46.52382" lon="0.36708">
        <ele>167.19</ele>
        <time>2018-06-03T09:04:00.999Z</time>
      </trkpt>
      <trkpt lat="46.52389" lon="0.3673">
        <ele>166.69</ele>
        <time>2018-06-03T09:04:02.999Z</time>
      </trkpt>
      <trkpt lat="46.52396" lon="0.36752">
        <ele>166.48</ele>
        <time>2018-06-03T09:04:04.999Z</time>
      </trkpt>
      <trkpt lat="46.52401" lon="0.36774">
        <ele>166.62</ele>
        <time>2018-06-03T09:04:06.999Z</time>
      </trkpt>
      <trkpt lat="46.52407" lon="0.36797">
        <ele>166.44</ele>
        <time>2018-06-03T09:04:08.999Z</time>
      </trkpt>
      <trkpt lat="46.52413" lon="0.36818">
        <ele>166.43</ele>
        <time>2018-06-03T09:04:10.999Z</time>
      </trkpt>
      <trkpt lat="46.52419" lon="0.3684">
        <ele>166.82</ele>
        <time>2018-06-03T09:04:12.999Z</time>
      </trkpt>
      <trkpt lat="46.52425" lon="0.36861">
        <ele>167.75</ele>
        <time>2018-06-03T09:04:14.999Z</time>
      </trkpt>
      <trkpt lat="46.5243" lon="0.36882">
        <ele>168.7</ele>
        <time>2018-06-03T09:04:16.999Z</time>
      </trkpt>
      <trkpt lat="46.52431" lon="0.36903">
        <ele>169.51</ele>
        <time>2018-06-03T09:04:18.999Z</time>
      </trkpt>
      <trkpt lat="46.52432" lon="0.36926">
        <ele>170.16</ele>
        <time>2018-06-03T09:04:20.999Z</time>
      </trkpt>
      <trkpt lat="46.52432" lon="0.36948">
        <ele>170.69</ele>
        <time>2018-06-03T09:04:22.999Z</time>
      </trkpt>
      <trkpt lat="46.52434" lon="0.3697">
        <ele>171.23</ele>
        <time>2018-06-03T09:04:24.999Z</time>
      </trkpt>
      <trkpt lat="46.52436" lon="0.36994">
        <ele>171.54</ele>
        <time>2018-06-03T09:04:26.999Z</time>
      </trkpt>
      <trkpt lat="46.52439" lon="0.37019">
        <ele>171.82</ele>
        <time>2018-06-03T09:04:28.999Z</time>
      </trkpt>
      <trkpt lat="46.52439" lon="0.37044">
        <ele>171.78</ele>
        <time>2018-06-03T09:04:30.999Z</time>
      </trkpt>
      <trkpt lat="46.52443" lon="0.37065">
        <ele>171.62</ele>
        <time>2018-06-03T09:04:32.999Z</time>
      </trkpt>
      <trkpt lat="46.52449" lon="0.37075">
        <ele>171.28</ele>
        <time>2018-06-03T09:04:33.999Z</time>
      </trkpt>
      <trkpt lat="46.52455" lon="0.37085">
        <ele>170.96</ele>
        <time>2018-06-03T09:04:34.999Z</time>
      </trkpt>
      <trkpt lat="46.52461" lon="0.37097">
        <ele>170.6</ele>
        <time>2018-06-03T09:04:35.999Z</time>
      </trkpt>
      <trkpt lat="46.52467" lon="0.37108">
        <ele>170.21</ele>
        <time>2018-06-03T09:04:36.999Z</time>
      </trkpt>
      <trkpt lat="46.52473" lon="0.37119">
        <ele>169.87</ele>
        <time>2018-06-03T09:04:37.999Z</time>
      </trkpt>
      <trkpt lat="46.52479" lon="0.37131">
        <ele>169.54</ele>
        <time>2018-06-03T09:04:38.999Z</time>
      </trkpt>
      <trkpt lat="46.52485" lon="0.37141">
        <ele>169.09</ele>
        <time>2018-06-03T09:04:39.999Z</time>
      </trkpt>
      <trkpt lat="46.52491" lon="0.37152">
        <ele>168.5</ele>
        <time>2018-06-03T09:04:40.999Z</time>
      </trkpt>
      <trkpt lat="46.52497" lon="0.37164">
        <ele>167.99</ele>
        <time>2018-06-03T09:04:41.999Z</time>
      </trkpt>
      <trkpt lat="46.52502" lon="0.37176">
        <ele>167.65</ele>
        <time>2018-06-03T09:04:42.999Z</time>
      </trkpt>
      <trkpt lat="46.52507" lon="0.37187">
        <ele>167.49</ele>
        <time>2018-06-03T09:04:43.999Z</time>
      </trkpt>
      <trkpt lat="46.52518" lon="0.37207">
        <ele>166.57</ele>
        <time>2018-06-03T09:04:45.999Z</time>
      </trkpt>
      <trkpt lat="46.52528" lon="0.37223">
        <ele>166.02</ele>
        <time>2018-06-03T09:04:47.999Z</time>
      </trkpt>
      <trkpt lat="46.52538" lon="0.37238">
        <ele>165.77</ele>
        <time>2018-06-03T09:04:49.999Z</time>
      </trkpt>
      <trkpt lat="46.52547" lon="0.37254">
        <ele>165.53</ele>
        <time>2018-06-03T09:04:51.999Z</time>
      </trkpt>
      <trkpt lat="46.52553" lon="0.37271">
        <ele>165.66</ele>
        <time>2018-06-03T09:04:53.999Z</time>
      </trkpt>
      <trkpt lat="46.52562" lon="0.37287">
        <ele>165.54</ele>
        <time>2018-06-03T09:04:55.999Z</time>
      </trkpt>
      <trkpt lat="46.52572" lon="0.37302">
        <ele>165.99</ele>
        <time>2018-06-03T09:04:57.999Z</time>
      </trkpt>
      <trkpt lat="46.5258" lon="0.37316">
        <ele>166.57</ele>
        <time>2018-06-03T09:04:59.999Z</time>
      </trkpt>
      <trkpt lat="46.52589" lon="0.37331">
        <ele>166.87</ele>
        <time>2018-06-03T09:05:01.999Z</time>
      </trkpt>
      <trkpt lat="46.52597" lon="0.37347">
        <ele>166.91</ele>
        <time>2018-06-03T09:05:03.999Z</time>
      </trkpt>
      <trkpt lat="46.52609" lon="0.37366">
        <ele>166.2</ele>
        <time>2018-06-03T09:05:05.999Z</time>
      </trkpt>
      <trkpt lat="46.52616" lon="0.37374">
        <ele>165.4</ele>
        <time>2018-06-03T09:05:06.999Z</time>
      </trkpt>
      <trkpt lat="46.52631" lon="0.37385">
        <ele>163.38</ele>
        <time>2018-06-03T09:05:08.999Z</time>
      </trkpt>
      <trkpt lat="46.52644" lon="0.37386">
        <ele>161.71</ele>
        <time>2018-06-03T09:05:10.999Z</time>
      </trkpt>
      <trkpt lat="46.52654" lon="0.37376">
        <ele>160.48</ele>
        <time>2018-06-03T09:05:12.999Z</time>
      </trkpt>
      <trkpt lat="46.52662" lon="0.37361">
        <ele>159.59</ele>
        <time>2018-06-03T09:05:14.999Z</time>
      </trkpt>
      <trkpt lat="46.5267" lon="0.37345">
        <ele>158.78</ele>
        <time>2018-06-03T09:05:16.999Z</time>
      </trkpt>
      <trkpt lat="46.52678" lon="0.37331">
        <ele>158.17</ele>
        <time>2018-06-03T09:05:18.999Z</time>
      </trkpt>
      <trkpt lat="46.52683" lon="0.37316">
        <ele>157.79</ele>
        <time>2018-06-03T09:05:20.999Z</time>
      </trkpt>
      <trkpt lat="46.52685" lon="0.37299">
        <ele>157.49</ele>
        <time>2018-06-03T09:05:22.999Z</time>
      </trkpt>
      <trkpt lat="46.52682" lon="0.3728">
        <ele>157.2</ele>
        <time>2018-06-03T09:05:25.999Z</time>
      </trkpt>
      <trkpt lat="46.52676" lon="0.37265">
        <ele>156.83</ele>
        <time>2018-06-03T09:05:27.999Z</time>
      </trkpt>
      <trkpt lat="46.5267" lon="0.37252">
        <ele>157.12</ele>
        <time>2018-06-03T09:05:30.999Z</time>
      </trkpt>
      <trkpt lat="46.52661" lon="0.37242">
        <ele>157.3</ele>
        <time>2018-06-03T09:05:34.999Z</time>
      </trkpt>
      <trkpt lat="46.52656" lon="0.37229">
        <ele>157.59</ele>
        <time>2018-06-03T09:05:37.999Z</time>
      </trkpt>
      <trkpt lat="46.52651" lon="0.37208">
        <ele>158.02</ele>
        <time>2018-06-03T09:05:40.999Z</time>
      </trkpt>
      <trkpt lat="46.52647" lon="0.37193">
        <ele>158.44</ele>
        <time>2018-06-03T09:05:42.999Z</time>
      </trkpt>
      <trkpt lat="46.52641" lon="0.37181">
        <ele>159.59</ele>
        <time>2018-06-03T09:05:46.999Z</time>
      </trkpt>
      <trkpt lat="46.52637" lon="0.37167">
        <ele>160.23</ele>
        <time>2018-06-03T09:05:48.999Z</time>
      </trkpt>
      <trkpt lat="46.52633" lon="0.37143">
        <ele>160.92</ele>
        <time>2018-06-03T09:05:50.999Z</time>
      </trkpt>
      <trkpt lat="46.52636" lon="0.37104">
        <ele>161.51</ele>
        <time>2018-06-03T09:05:51.999Z</time>
      </trkpt>
      <trkpt lat="46.52637" lon="0.37085">
        <ele>162.13</ele>
        <time>2018-06-03T09:05:52.999Z</time>
      </trkpt>
      <trkpt lat="46.5264" lon="0.37067">
        <ele>163.77</ele>
        <time>2018-06-03T09:05:55.999Z</time>
      </trkpt>
      <trkpt lat="46.52638" lon="0.37048">
        <ele>165.27</ele>
        <time>2018-06-03T09:05:58.999Z</time>
      </trkpt>
      <trkpt lat="46.52638" lon="0.3703">
        <ele>166.26</ele>
        <time>2018-06-03T09:06:00.999Z</time>
      </trkpt>
      <trkpt lat="46.52637" lon="0.37015">
        <ele>167.21</ele>
        <time>2018-06-03T09:06:02.999Z</time>
      </trkpt>
      <trkpt lat="46.52638" lon="0.36997">
        <ele>169.18</ele>
        <time>2018-06-03T09:06:06.999Z</time>
      </trkpt>
      <trkpt lat="46.5264" lon="0.36984">
        <ele>170.22</ele>
        <time>2018-06-03T09:06:08.999Z</time>
      </trkpt>
      <trkpt lat="46.52642" lon="0.36969">
        <ele>171.74</ele>
        <time>2018-06-03T09:06:11.999Z</time>
      </trkpt>
      <trkpt lat="46.52643" lon="0.36956">
        <ele>172.86</ele>
        <time>2018-06-03T09:06:13.999Z</time>
      </trkpt>
      <trkpt lat="46.52642" lon="0.36941">
        <ele>174.56</ele>
        <time>2018-06-03T09:06:16.999Z</time>
      </trkpt>
      <trkpt lat="46.52643" lon="0.36928">
        <ele>176.21</ele>
        <time>2018-06-03T09:06:19.999Z</time>
      </trkpt>
      <trkpt lat="46.52646" lon="0.36915">
        <ele>178.14</ele>
        <time>2018-06-03T09:06:23.999Z</time>
      </trkpt>
      <trkpt lat="46.52655" lon="0.36908">
        <ele>179.2</ele>
        <time>2018-06-03T09:06:26.999Z</time>
      </trkpt>
      <trkpt lat="46.52663" lon="0.36896">
        <ele>180.09</ele>
        <time>2018-06-03T09:06:29.999Z</time>
      </trkpt>
      <trkpt lat="46.5267" lon="0.36886">
        <ele>181.56</ele>
        <time>2018-06-03T09:06:35.999Z</time>
      </trkpt>
      <trkpt lat="46.52675" lon="0.36873">
        <ele>182.21</ele>
        <time>2018-06-03T09:06:40.999Z</time>
      </trkpt>
      <trkpt lat="46.52683" lon="0.36867">
        <ele>182.91</ele>
        <time>2018-06-03T09:06:43.999Z</time>
      </trkpt>
      <trkpt lat="46.52693" lon="0.36861">
        <ele>184.48</ele>
        <time>2018-06-03T09:06:49.999Z</time>
      </trkpt>
      <trkpt lat="46.52702" lon="0.36854">
        <ele>185.05</ele>
        <time>2018-06-03T09:06:55.999Z</time>
      </trkpt>
      <trkpt lat="46.5271" lon="0.36847">
        <ele>185.16</ele>
        <time>2018-06-03T09:07:02.999Z</time>
      </trkpt>
      <trkpt lat="46.52718" lon="0.36841">
        <ele>184.77</ele>
        <time>2018-06-03T09:07:10.999Z</time>
      </trkpt>
      <trkpt lat="46.52726" lon="0.36832">
        <ele>184.29</ele>
        <time>2018-06-03T09:07:17.999Z</time>
      </trkpt>
      <trkpt lat="46.52735" lon="0.36827">
        <ele>183.57</ele>
        <time>2018-06-03T09:07:24.999Z</time>
      </trkpt>
      <trkpt lat="46.52744" lon="0.36824">
        <ele>182.97</ele>
        <time>2018-06-03T09:07:28.999Z</time>
      </trkpt>
      <trkpt lat="46.52755" lon="0.36819">
        <ele>181.69</ele>
        <time>2018-06-03T09:07:35.999Z</time>
      </trkpt>
      <trkpt lat="46.52766" lon="0.36813">
        <ele>180.75</ele>
        <time>2018-06-03T09:07:40.999Z</time>
      </trkpt>
      <trkpt lat="46.52774" lon="0.36805">
        <ele>179.35</ele>
        <time>2018-06-03T09:07:47.999Z</time>
      </trkpt>
      <trkpt lat="46.52784" lon="0.36804">
        <ele>178.06</ele>
        <time>2018-06-03T09:07:54.999Z</time>
      </trkpt>
      <trkpt lat="46.52795" lon="0.36802">
        <ele>177.29</ele>
        <time>2018-06-03T09:07:59.999Z</time>
      </trkpt>
      <trkpt lat="46.52805" lon="0.36797">
        <ele>176.44</ele>
        <time>2018-06-03T09:08:05.999Z</time>
      </trkpt>
      <trkpt lat="46.52814" lon="0.36797">
        <ele>176.01</ele>
        <time>2018-06-03T09:08:10.999Z</time>
      </trkpt>
      <trkpt lat="46.52823" lon="0.36801">
        <ele>175.89</ele>
        <time>2018-06-03T09:08:18.999Z</time>
      </trkpt>
      <trkpt lat="46.52832" lon="0.36803">
        <ele>176.21</ele>
        <time>2018-06-03T09:08:23.999Z</time>
      </trkpt>
      <trkpt lat="46.52841" lon="0.36806">
        <ele>176.81</ele>
        <time>2018-06-03T09:08:29.999Z</time>
      </trkpt>
      <trkpt lat="46.5285" lon="0.36811">
        <ele>177.04</ele>
        <time>2018-06-03T09:08:33.999Z</time>
      </trkpt>
      <trkpt lat="46.5286" lon="0.36818">
        <ele>177.82</ele>
        <time>2018-06-03T09:08:38.999Z</time>
      </trkpt>
      <trkpt lat="46.5287" lon="0.36825">
        <ele>178.63</ele>
        <time>2018-06-03T09:08:44.999Z</time>
      </trkpt>
      <trkpt lat="46.52879" lon="0.36832">
        <ele>178.95</ele>
        <time>2018-06-03T09:08:48.999Z</time>
      </trkpt>
      <trkpt lat="46.52892" lon="0.3684">
        <ele>179.27</ele>
        <time>2018-06-03T09:08:52.999Z</time>
      </trkpt>
      <trkpt lat="46.52902" lon="0.36851">
        <ele>179.76</ele>
        <time>2018-06-03T09:08:55.999Z</time>
      </trkpt>
      <trkpt lat="46.52909" lon="0.36867">
        <ele>180.92</ele>
        <time>2018-06-03T09:08:59.999Z</time>
      </trkpt>
      <trkpt lat="46.52916" lon="0.36879">
        <ele>181.68</ele>
        <time>2018-06-03T09:09:02.999Z</time>
      </trkpt>
      <trkpt lat="46.52918" lon="0.36892">
        <ele>182.38</ele>
        <time>2018-06-03T09:09:05.999Z</time>
      </trkpt>
      <trkpt lat="46.5292" lon="0.36909">
        <ele>183.04</ele>
        <time>2018-06-03T09:09:08.999Z</time>
      </trkpt>
      <trkpt lat="46.52923" lon="0.36923">
        <ele>183.52</ele>
        <time>2018-06-03T09:09:11.999Z</time>
      </trkpt>
      <trkpt lat="46.52925" lon="0.36937">
        <ele>184.31</ele>
        <time>2018-06-03T09:09:15.999Z</time>
      </trkpt>
      <trkpt lat="46.52928" lon="0.3695">
        <ele>184.98</ele>
        <time>2018-06-03T09:09:18.999Z</time>
      </trkpt>
      <trkpt lat="46.52932" lon="0.36965">
        <ele>185.63</ele>
        <time>2018-06-03T09:09:21.999Z</time>
      </trkpt>
      <trkpt lat="46.52935" lon="0.36979">
        <ele>186.51</ele>
        <time>2018-06-03T09:09:25.999Z</time>
      </trkpt>
      <trkpt lat="46.5294" lon="0.36996">
        <ele>187.26</ele>
        <time>2018-06-03T09:09:29.999Z</time>
      </trkpt>
      <trkpt lat="46.52948" lon="0.37007">
        <ele>187.72</ele>
        <time>2018-06-03T09:09:33.999Z</time>
      </trkpt>
      <trkpt lat="46.52958" lon="0.37015">
        <ele>188.62</ele>
        <time>2018-06-03T09:09:37.999Z</time>
      </trkpt>
      <trkpt lat="46.52968" lon="0.37022">
        <ele>188.82</ele>
        <time>2018-06-03T09:09:39.999Z</time>
      </trkpt>
      <trkpt lat="46.52978" lon="0.37028">
        <ele>189.06</ele>
        <time>2018-06-03T09:09:41.999Z</time>
      </trkpt>
      <trkpt lat="46.52989" lon="0.37033">
        <ele>189.66</ele>
        <time>2018-06-03T09:09:43.999Z</time>
      </trkpt>
      <trkpt lat="46.53002" lon="0.37039">
        <ele>189.63</ele>
        <time>2018-06-03T09:09:45.999Z</time>
      </trkpt>
      <trkpt lat="46.53018" lon="0.37047">
        <ele>189.18</ele>
        <time>2018-06-03T09:09:47.999Z</time>
      </trkpt>
      <trkpt lat="46.53027" lon="0.37051">
        <ele>189.27</ele>
        <time>2018-06-03T09:09:48.999Z</time>
      </trkpt>
      <trkpt lat="46.53036" lon="0.37052">
        <ele>189.34</ele>
        <time>2018-06-03T09:09:49.999Z</time>
      </trkpt>
      <trkpt lat="46.53054" lon="0.3705">
        <ele>188.77</ele>
        <time>2018-06-03T09:09:51.999Z</time>
      </trkpt>
      <trkpt lat="46.53064" lon="0.3705">
        <ele>188.46</ele>
        <time>2018-06-03T09:09:52.999Z</time>
      </trkpt>
      <trkpt lat="46.53074" lon="0.3705">
        <ele>187.81</ele>
        <time>2018-06-03T09:09:53.999Z</time>
      </trkpt>
      <trkpt lat="46.53085" lon="0.3705">
        <ele>187.11</ele>
        <time>2018-06-03T09:09:54.999Z</time>
      </trkpt>
      <trkpt lat="46.53094" lon="0.37048">
        <ele>186.7</ele>
        <time>2018-06-03T09:09:55.999Z</time>
      </trkpt>
      <trkpt lat="46.53104" lon="0.37046">
        <ele>186.18</ele>
        <time>2018-06-03T09:09:56.999Z</time>
      </trkpt>
      <trkpt lat="46.53114" lon="0.37044">
        <ele>185.83</ele>
        <time>2018-06-03T09:09:57.999Z</time>
      </trkpt>
      <trkpt lat="46.53125" lon="0.37041">
        <ele>185.4</ele>
        <time>2018-06-03T09:09:58.999Z</time>
      </trkpt>
      <trkpt lat="46.53135" lon="0.37036">
        <ele>184.72</ele>
        <time>2018-06-03T09:09:59.999Z</time>
      </trkpt>
      <trkpt lat="46.53153" lon="0.37028">
        <ele>183.3</ele>
        <time>2018-06-03T09:10:01.999Z</time>
      </trkpt>
      <trkpt lat="46.53165" lon="0.37022">
        <ele>182.26</ele>
        <time>2018-06-03T09:10:03.999Z</time>
      </trkpt>
      <trkpt lat="46.53172" lon="0.37034">
        <ele>181.79</ele>
        <time>2018-06-03T09:10:06.999Z</time>
      </trkpt>
      <trkpt lat="46.53177" lon="0.37046">
        <ele>181.67</ele>
        <time>2018-06-03T09:10:09.999Z</time>
      </trkpt>
      <trkpt lat="46.53184" lon="0.37062">
        <ele>181.06</ele>
        <time>2018-06-03T09:10:12.999Z</time>
      </trkpt>
      <trkpt lat="46.53191" lon="0.37077">
        <ele>179.92</ele>
        <time>2018-06-03T09:10:15.999Z</time>
      </trkpt>
      <trkpt lat="46.53196" lon="0.37088">
        <ele>179.35</ele>
        <time>2018-06-03T09:10:17.999Z</time>
      </trkpt>
      <trkpt lat="46.53203" lon="0.37101">
        <ele>179.34</ele>
        <time>2018-06-03T09:10:20.999Z</time>
      </trkpt>
      <trkpt lat="46.53208" lon="0.37114">
        <ele>179.49</ele>
        <time>2018-06-03T09:10:22.999Z</time>
      </trkpt>
      <trkpt lat="46.53213" lon="0.3713">
        <ele>179.58</ele>
        <time>2018-06-03T09:10:25.999Z</time>
      </trkpt>
      <trkpt lat="46.53219" lon="0.37145">
        <ele>179.65</ele>
        <time>2018-06-03T09:10:28.999Z</time>
      </trkpt>
      <trkpt lat="46.53222" lon="0.37157">
        <ele>180.12</ele>
        <time>2018-06-03T09:10:30.999Z</time>
      </trkpt>
      <trkpt lat="46.5323" lon="0.37178">
        <ele>180.37</ele>
        <time>2018-06-03T09:10:34.999Z</time>
      </trkpt>
      <trkpt lat="46.53235" lon="0.3719">
        <ele>180.46</ele>
        <time>2018-06-03T09:10:37.999Z</time>
      </trkpt>
      <trkpt lat="46.53237" lon="0.37204">
        <ele>180.51</ele>
        <time>2018-06-03T09:10:39.999Z</time>
      </trkpt>
      <trkpt lat="46.53239" lon="0.37218">
        <ele>180.57</ele>
        <time>2018-06-03T09:10:41.999Z</time>
      </trkpt>
      <trkpt lat="46.53242" lon="0.37231">
        <ele>180.61</ele>
        <time>2018-06-03T09:10:44.999Z</time>
      </trkpt>
      <trkpt lat="46.53248" lon="0.37245">
        <ele>180.42</ele>
        <time>2018-06-03T09:10:48.999Z</time>
      </trkpt>
      <trkpt lat="46.53252" lon="0.37262">
        <ele>180.4</ele>
        <time>2018-06-03T09:10:51.999Z</time>
      </trkpt>
      <trkpt lat="46.53256" lon="0.37277">
        <ele>180.43</ele>
        <time>2018-06-03T09:10:54.999Z</time>
      </trkpt>
      <trkpt lat="46.5326" lon="0.37291">
        <ele>180.52</ele>
        <time>2018-06-03T09:10:57.999Z</time>
      </trkpt>
      <trkpt lat="46.53268" lon="0.37301">
        <ele>180.53</ele>
        <time>2018-06-03T09:11:00.999Z</time>
      </trkpt>
      <trkpt lat="46.53277" lon="0.37319">
        <ele>180.68</ele>
        <time>2018-06-03T09:11:04.999Z</time>
      </trkpt>
      <trkpt lat="46.53282" lon="0.37332">
        <ele>180.82</ele>
        <time>2018-06-03T09:11:08.999Z</time>
      </trkpt>
      <trkpt lat="46.53286" lon="0.37346">
        <ele>180.95</ele>
        <time>2018-06-03T09:11:12.999Z</time>
      </trkpt>
      <trkpt lat="46.53291" lon="0.37362">
        <ele>181.06</ele>
        <time>2018-06-03T09:11:15.999Z</time>
      </trkpt>
      <trkpt lat="46.53295" lon="0.37374">
        <ele>181.16</ele>
        <time>2018-06-03T09:11:18.999Z</time>
      </trkpt>
      <trkpt lat="46.53301" lon="0.37389">
        <ele>181.21</ele>
        <time>2018-06-03T09:11:21.999Z</time>
      </trkpt>
      <trkpt lat="46.53305" lon="0.37401">
        <ele>181.34</ele>
        <time>2018-06-03T09:11:24.999Z</time>
      </trkpt>
      <trkpt lat="46.53308" lon="0.37414">
        <ele>181.53</ele>
        <time>2018-06-03T09:11:27.999Z</time>
      </trkpt>
      <trkpt lat="46.5331" lon="0.37429">
        <ele>181.86</ele>
        <time>2018-06-03T09:11:31.999Z</time>
      </trkpt>
      <trkpt lat="46.53313" lon="0.37443">
        <ele>182.17</ele>
        <time>2018-06-03T09:11:35.999Z</time>
      </trkpt>
      <trkpt lat="46.5332" lon="0.37457">
        <ele>182.3</ele>
        <time>2018-06-03T09:11:39.999Z</time>
      </trkpt>
      <trkpt lat="46.53326" lon="0.3747">
        <ele>182.5</ele>
        <time>2018-06-03T09:11:42.999Z</time>
      </trkpt>
      <trkpt lat="46.53331" lon="0.37483">
        <ele>183.02</ele>
        <time>2018-06-03T09:11:46.999Z</time>
      </trkpt>
      <trkpt lat="46.53337" lon="0.37496">
        <ele>183.57</ele>
        <time>2018-06-03T09:11:50.999Z</time>
      </trkpt>
      <trkpt lat="46.53343" lon="0.3751">
        <ele>184.08</ele>
        <time>2018-06-03T09:11:53.999Z</time>
      </trkpt>
      <trkpt lat="46.53348" lon="0.37523">
        <ele>184.42</ele>
        <time>2018-06-03T09:11:55.999Z</time>
      </trkpt>
      <trkpt lat="46.53354" lon="0.37534">
        <ele>184.81</ele>
        <time>2018-06-03T09:11:59.000Z</time>
      </trkpt>
      <trkpt lat="46.5336" lon="0.37548">
        <ele>185.18</ele>
        <time>2018-06-03T09:12:02.000Z</time>
      </trkpt>
      <trkpt lat="46.53365" lon="0.37562">
        <ele>185.63</ele>
        <time>2018-06-03T09:12:05.000Z</time>
      </trkpt>
      <trkpt lat="46.5337" lon="0.37578">
        <ele>187.35</ele>
        <time>2018-06-03T09:12:08.000Z</time>
      </trkpt>
      <trkpt lat="46.53377" lon="0.37593">
        <ele>188.41</ele>
        <time>2018-06-03T09:12:11.000Z</time>
      </trkpt>
      <trkpt lat="46.53382" lon="0.37605">
        <ele>189.17</ele>
        <time>2018-06-03T09:12:13.000Z</time>
      </trkpt>
      <trkpt lat="46.53386" lon="0.37617">
        <ele>189.59</ele>
        <time>2018-06-03T09:12:15.000Z</time>
      </trkpt>
      <trkpt lat="46.53391" lon="0.37627">
        <ele>189.64</ele>
        <time>2018-06-03T09:12:18.000Z</time>
      </trkpt>
      <trkpt lat="46.53396" lon="0.37644">
        <ele>189.98</ele>
        <time>2018-06-03T09:12:21.000Z</time>
      </trkpt>
      <trkpt lat="46.53403" lon="0.37666">
        <ele>192.38</ele>
        <time>2018-06-03T09:12:23.000Z</time>
      </trkpt>
      <trkpt lat="46.53413" lon="0.37688">
        <ele>193.46</ele>
        <time>2018-06-03T09:12:25.000Z</time>
      </trkpt>
      <trkpt lat="46.53421" lon="0.37708">
        <ele>193.76</ele>
        <time>2018-06-03T09:12:27.000Z</time>
      </trkpt>
      <trkpt lat="46.53428" lon="0.37728">
        <ele>193.63</ele>
        <time>2018-06-03T09:12:29.000Z</time>
      </trkpt>
      <trkpt lat="46.53436" lon="0.37745">
        <ele>193.14</ele>
        <time>2018-06-03T09:12:31.000Z</time>
      </trkpt>
      <trkpt lat="46.53443" lon="0.37759">
        <ele>193.17</ele>
        <time>2018-06-03T09:12:33.000Z</time>
      </trkpt>
      <trkpt lat="46.5345" lon="0.37775">
        <ele>192.64</ele>
        <time>2018-06-03T09:12:35.000Z</time>
      </trkpt>
      <trkpt lat="46.53456" lon="0.37787">
        <ele>192.69</ele>
        <time>2018-06-03T09:12:37.000Z</time>
      </trkpt>
      <trkpt lat="46.53462" lon="0.378">
        <ele>192.66</ele>
        <time>2018-06-03T09:12:39.000Z</time>
      </trkpt>
      <trkpt lat="46.5347" lon="0.37809">
        <ele>192.29</ele>
        <time>2018-06-03T09:12:41.000Z</time>
      </trkpt>
      <trkpt lat="46.5348" lon="0.37817">
        <ele>191.41</ele>
        <time>2018-06-03T09:12:43.000Z</time>
      </trkpt>
      <trkpt lat="46.53491" lon="0.37827">
        <ele>189.9</ele>
        <time>2018-06-03T09:12:45.000Z</time>
      </trkpt>
      <trkpt lat="46.53503" lon="0.37834">
        <ele>188.36</ele>
        <time>2018-06-03T09:12:47.000Z</time>
      </trkpt>
      <trkpt lat="46.53516" lon="0.3784">
        <ele>188.43</ele>
        <time>2018-06-03T09:12:49.000Z</time>
      </trkpt>
      <trkpt lat="46.53534" lon="0.37847">
        <ele>188.55</ele>
        <time>2018-06-03T09:12:51.000Z</time>
      </trkpt>
      <trkpt lat="46.53543" lon="0.3785">
        <ele>188.07</ele>
        <time>2018-06-03T09:12:52.000Z</time>
      </trkpt>
      <trkpt lat="46.53552" lon="0.37852">
        <ele>187.29</ele>
        <time>2018-06-03T09:12:53.000Z</time>
      </trkpt>
      <trkpt lat="46.53561" lon="0.37854">
        <ele>186.3</ele>
        <time>2018-06-03T09:12:54.000Z</time>
      </trkpt>
      <trkpt lat="46.53571" lon="0.37858">
        <ele>185.34</ele>
        <time>2018-06-03T09:12:55.000Z</time>
      </trkpt>
      <trkpt lat="46.53587" lon="0.37868">
        <ele>183.23</ele>
        <time>2018-06-03T09:12:57.000Z</time>
      </trkpt>
      <trkpt lat="46.53602" lon="0.37882">
        <ele>181.26</ele>
        <time>2018-06-03T09:12:59.000Z</time>
      </trkpt>
      <trkpt lat="46.53614" lon="0.37899">
        <ele>180.97</ele>
        <time>2018-06-03T09:13:01.000Z</time>
      </trkpt>
      <trkpt lat="46.53623" lon="0.37907">
        <ele>180.86</ele>
        <time>2018-06-03T09:13:02.000Z</time>
      </trkpt>
      <trkpt lat="46.53634" lon="0.37915">
        <ele>180.65</ele>
        <time>2018-06-03T09:13:03.000Z</time>
      </trkpt>
      <trkpt lat="46.53645" lon="0.3792">
        <ele>180.76</ele>
        <time>2018-06-03T09:13:04.000Z</time>
      </trkpt>
      <trkpt lat="46.53655" lon="0.3792">
        <ele>181</ele>
        <time>2018-06-03T09:13:05.000Z</time>
      </trkpt>
      <trkpt lat="46.53664" lon="0.37919">
        <ele>180.76</ele>
        <time>2018-06-03T09:13:06.000Z</time>
      </trkpt>
      <trkpt lat="46.53673" lon="0.37921">
        <ele>180.65</ele>
        <time>2018-06-03T09:13:07.000Z</time>
      </trkpt>
      <trkpt lat="46.5369" lon="0.37928">
        <ele>180.66</ele>
        <time>2018-06-03T09:13:09.000Z</time>
      </trkpt>
      <trkpt lat="46.53706" lon="0.37934">
        <ele>180.76</ele>
        <time>2018-06-03T09:13:11.000Z</time>
      </trkpt>
      <trkpt lat="46.53719" lon="0.37936">
        <ele>180.45</ele>
        <time>2018-06-03T09:13:13.000Z</time>
      </trkpt>
      <trkpt lat="46.5373" lon="0.37931">
        <ele>180.46</ele>
        <time>2018-06-03T09:13:15.000Z</time>
      </trkpt>
      <trkpt lat="46.53741" lon="0.37925">
        <ele>181.35</ele>
        <time>2018-06-03T09:13:18.000Z</time>
      </trkpt>
      <trkpt lat="46.53752" lon="0.37922">
        <ele>181.41</ele>
        <time>2018-06-03T09:13:22.000Z</time>
      </trkpt>
      <trkpt lat="46.53762" lon="0.37914">
        <ele>181.28</ele>
        <time>2018-06-03T09:13:26.000Z</time>
      </trkpt>
      <trkpt lat="46.53769" lon="0.37905">
        <ele>181.12</ele>
        <time>2018-06-03T09:13:30.000Z</time>
      </trkpt>
      <trkpt lat="46.53775" lon="0.37893">
        <ele>181.19</ele>
        <time>2018-06-03T09:13:36.000Z</time>
      </trkpt>
      <trkpt lat="46.5378" lon="0.37879">
        <ele>181.31</ele>
        <time>2018-06-03T09:13:41.000Z</time>
      </trkpt>
      <trkpt lat="46.53783" lon="0.37864">
        <ele>181.49</ele>
        <time>2018-06-03T09:13:45.000Z</time>
      </trkpt>
      <trkpt lat="46.53787" lon="0.37851">
        <ele>181.86</ele>
        <time>2018-06-03T09:13:49.000Z</time>
      </trkpt>
      <trkpt lat="46.5379" lon="0.37837">
        <ele>182.34</ele>
        <time>2018-06-03T09:13:53.000Z</time>
      </trkpt>
      <trkpt lat="46.53794" lon="0.37823">
        <ele>182.74</ele>
        <time>2018-06-03T09:13:58.000Z</time>
      </trkpt>
      <trkpt lat="46.53799" lon="0.37809">
        <ele>183.28</ele>
        <time>2018-06-03T09:14:03.000Z</time>
      </trkpt>
      <trkpt lat="46.53803" lon="0.37792">
        <ele>183.86</ele>
        <time>2018-06-03T09:14:08.000Z</time>
      </trkpt>
      <trkpt lat="46.53806" lon="0.37779">
        <ele>184.05</ele>
        <time>2018-06-03T09:14:12.000Z</time>
      </trkpt>
      <trkpt lat="46.53811" lon="0.37765">
        <ele>184.21</ele>
        <time>2018-06-03T09:14:16.000Z</time>
      </trkpt>
      <trkpt lat="46.53815" lon="0.37753">
        <ele>184.27</ele>
        <time>2018-06-03T09:14:19.000Z</time>
      </trkpt>
      <trkpt lat="46.53819" lon="0.37741">
        <ele>184.27</ele>
        <time>2018-06-03T09:14:22.000Z</time>
      </trkpt>
      <trkpt lat="46.53824" lon="0.37726">
        <ele>184.48</ele>
        <time>2018-06-03T09:14:26.000Z</time>
      </trkpt>
      <trkpt lat="46.5383" lon="0.37709">
        <ele>184.7</ele>
        <time>2018-06-03T09:14:29.000Z</time>
      </trkpt>
      <trkpt lat="46.53834" lon="0.37696">
        <ele>185.77</ele>
        <time>2018-06-03T09:14:31.000Z</time>
      </trkpt>
      <trkpt lat="46.53841" lon="0.37681">
        <ele>187.33</ele>
        <time>2018-06-03T09:14:34.000Z</time>
      </trkpt>
      <trkpt lat="46.53851" lon="0.37669">
        <ele>188.37</ele>
        <time>2018-06-03T09:14:37.000Z</time>
      </trkpt>
      <trkpt lat="46.53861" lon="0.37658">
        <ele>189.15</ele>
        <time>2018-06-03T09:14:40.000Z</time>
      </trkpt>
      <trkpt lat="46.5387" lon="0.37647">
        <ele>190.52</ele>
        <time>2018-06-03T09:14:43.000Z</time>
      </trkpt>
      <trkpt lat="46.53877" lon="0.37638">
        <ele>191.12</ele>
        <time>2018-06-03T09:14:45.000Z</time>
      </trkpt>
      <trkpt lat="46.53885" lon="0.37628">
        <ele>190.81</ele>
        <time>2018-06-03T09:14:48.000Z</time>
      </trkpt>
      <trkpt lat="46.53892" lon="0.37616">
        <ele>190.8</ele>
        <time>2018-06-03T09:14:51.000Z</time>
      </trkpt>
      <trkpt lat="46.539" lon="0.37603">
        <ele>191.19</ele>
        <time>2018-06-03T09:14:53.000Z</time>
      </trkpt>
      <trkpt lat="46.53904" lon="0.3759">
        <ele>191.42</ele>
        <time>2018-06-03T09:14:56.000Z</time>
      </trkpt>
      <trkpt lat="46.53909" lon="0.37574">
        <ele>192</ele>
        <time>2018-06-03T09:14:59.000Z</time>
      </trkpt>
      <trkpt lat="46.53914" lon="0.37563">
        <ele>192.6</ele>
        <time>2018-06-03T09:15:01.000Z</time>
      </trkpt>
      <trkpt lat="46.53919" lon="0.37551">
        <ele>193.5</ele>
        <time>2018-06-03T09:15:03.000Z</time>
      </trkpt>
      <trkpt lat="46.53923" lon="0.37537">
        <ele>194.82</ele>
        <time>2018-06-03T09:15:06.000Z</time>
      </trkpt>
      <trkpt lat="46.53931" lon="0.37524">
        <ele>195.63</ele>
        <time>2018-06-03T09:15:08.000Z</time>
      </trkpt>
      <trkpt lat="46.53941" lon="0.37515">
        <ele>196.07</ele>
        <time>2018-06-03T09:15:10.000Z</time>
      </trkpt>
      <trkpt lat="46.53952" lon="0.37505">
        <ele>195.95</ele>
        <time>2018-06-03T09:15:12.000Z</time>
      </trkpt>
      <trkpt lat="46.53958" lon="0.37495">
        <ele>195.85</ele>
        <time>2018-06-03T09:15:14.000Z</time>
      </trkpt>
      <trkpt lat="46.53967" lon="0.37479">
        <ele>195.85</ele>
        <time>2018-06-03T09:15:17.000Z</time>
      </trkpt>
      <trkpt lat="46.53972" lon="0.37468">
        <ele>195.44</ele>
        <time>2018-06-03T09:15:19.000Z</time>
      </trkpt>
      <trkpt lat="46.53977" lon="0.37454">
        <ele>194.51</ele>
        <time>2018-06-03T09:15:21.000Z</time>
      </trkpt>
      <trkpt lat="46.53981" lon="0.37437">
        <ele>193.56</ele>
        <time>2018-06-03T09:15:23.000Z</time>
      </trkpt>
      <trkpt lat="46.53986" lon="0.37422">
        <ele>192.42</ele>
        <time>2018-06-03T09:15:25.000Z</time>
      </trkpt>
      <trkpt lat="46.53993" lon="0.37407">
        <ele>191.61</ele>
        <time>2018-06-03T09:15:27.000Z</time>
      </trkpt>
      <trkpt lat="46.54" lon="0.37392">
        <ele>191.5</ele>
        <time>2018-06-03T09:15:29.000Z</time>
      </trkpt>
      <trkpt lat="46.54007" lon="0.3738">
        <ele>191.95</ele>
        <time>2018-06-03T09:15:31.000Z</time>
      </trkpt>
      <trkpt lat="46.54016" lon="0.37366">
        <ele>192.44</ele>
        <time>2018-06-03T09:15:33.000Z</time>
      </trkpt>
      <trkpt lat="46.54026" lon="0.37352">
        <ele>193.1</ele>
        <time>2018-06-03T09:15:35.000Z</time>
      </trkpt>
      <trkpt lat="46.54032" lon="0.37342">
        <ele>193.35</ele>
        <time>2018-06-03T09:15:37.000Z</time>
      </trkpt>
      <trkpt lat="46.5404" lon="0.37335">
        <ele>192.47</ele>
        <time>2018-06-03T09:16:16.000Z</time>
      </trkpt>
      <trkpt lat="46.54048" lon="0.37324">
        <ele>184.84</ele>
        <time>2018-06-03T09:20:38.000Z</time>
      </trkpt>
      <trkpt lat="46.54055" lon="0.37314">
        <ele>184.67</ele>
        <time>2018-06-03T09:20:41.000Z</time>
      </trkpt>
      <trkpt lat="46.54062" lon="0.373">
        <ele>184.64</ele>
        <time>2018-06-03T09:20:44.000Z</time>
      </trkpt>
      <trkpt lat="46.54069" lon="0.37293">
        <ele>184.88</ele>
        <time>2018-06-03T09:20:46.000Z</time>
      </trkpt>
      <trkpt lat="46.54078" lon="0.37284">
        <ele>185.75</ele>
        <time>2018-06-03T09:20:48.000Z</time>
      </trkpt>
      <trkpt lat="46.54086" lon="0.37272">
        <ele>185.68</ele>
        <time>2018-06-03T09:20:51.000Z</time>
      </trkpt>
      <trkpt lat="46.54086" lon="0.37259">
        <ele>185.43</ele>
        <time>2018-06-03T09:20:53.000Z</time>
      </trkpt>
      <trkpt lat="46.54086" lon="0.37242">
        <ele>185.37</ele>
        <time>2018-06-03T09:20:55.000Z</time>
      </trkpt>
      <trkpt lat="46.54088" lon="0.37224">
        <ele>185.17</ele>
        <time>2018-06-03T09:20:57.000Z</time>
      </trkpt>
      <trkpt lat="46.54096" lon="0.37208">
        <ele>185.4</ele>
        <time>2018-06-03T09:20:59.000Z</time>
      </trkpt>
      <trkpt lat="46.54106" lon="0.37194">
        <ele>185.5</ele>
        <time>2018-06-03T09:21:01.000Z</time>
      </trkpt>
      <trkpt lat="46.54117" lon="0.37178">
        <ele>185.75</ele>
        <time>2018-06-03T09:21:03.000Z</time>
      </trkpt>
      <trkpt lat="46.54128" lon="0.37164">
        <ele>185.92</ele>
        <time>2018-06-03T09:21:05.000Z</time>
      </trkpt>
      <trkpt lat="46.54139" lon="0.37148">
        <ele>186.18</ele>
        <time>2018-06-03T09:21:07.000Z</time>
      </trkpt>
      <trkpt lat="46.54149" lon="0.37132">
        <ele>186.47</ele>
        <time>2018-06-03T09:21:09.000Z</time>
      </trkpt>
      <trkpt lat="46.54155" lon="0.37114">
        <ele>186.87</ele>
        <time>2018-06-03T09:21:11.000Z</time>
      </trkpt>
      <trkpt lat="46.54162" lon="0.37096">
        <ele>187.56</ele>
        <time>2018-06-03T09:21:13.000Z</time>
      </trkpt>
      <trkpt lat="46.54152" lon="0.37085">
        <ele>188.03</ele>
        <time>2018-06-03T09:21:22.000Z</time>
      </trkpt>
      <trkpt lat="46.54161" lon="0.37093">
        <ele>186.68</ele>
        <time>2018-06-03T09:21:29.000Z</time>
      </trkpt>
      <trkpt lat="46.54171" lon="0.37101">
        <ele>183.76</ele>
        <time>2018-06-03T09:21:32.000Z</time>
      </trkpt>
      <trkpt lat="46.54181" lon="0.37111">
        <ele>180.42</ele>
        <time>2018-06-03T09:21:35.000Z</time>
      </trkpt>
      <trkpt lat="46.54187" lon="0.37124">
        <ele>179.56</ele>
        <time>2018-06-03T09:21:37.000Z</time>
      </trkpt>
      <trkpt lat="46.54198" lon="0.37141">
        <ele>178.47</ele>
        <time>2018-06-03T09:21:39.000Z</time>
      </trkpt>
      <trkpt lat="46.54209" lon="0.3716">
        <ele>176.92</ele>
        <time>2018-06-03T09:21:41.000Z</time>
      </trkpt>
      <trkpt lat="46.54218" lon="0.37174">
        <ele>175.4</ele>
        <time>2018-06-03T09:21:43.000Z</time>
      </trkpt>
      <trkpt lat="46.54227" lon="0.37178">
        <ele>175.25</ele>
        <time>2018-06-03T09:21:45.000Z</time>
      </trkpt>
      <trkpt lat="46.54235" lon="0.37171">
        <ele>175.17</ele>
        <time>2018-06-03T09:21:50.000Z</time>
      </trkpt>
      <trkpt lat="46.54237" lon="0.37158">
        <ele>175.66</ele>
        <time>2018-06-03T09:21:57.000Z</time>
      </trkpt>
      <trkpt lat="46.54243" lon="0.37147">
        <ele>176.68</ele>
        <time>2018-06-03T09:22:15.000Z</time>
      </trkpt>
      <trkpt lat="46.54252" lon="0.37143">
        <ele>177.1</ele>
        <time>2018-06-03T09:22:19.000Z</time>
      </trkpt>
      <trkpt lat="46.54263" lon="0.37142">
        <ele>177.51</ele>
        <time>2018-06-03T09:22:23.000Z</time>
      </trkpt>
      <trkpt lat="46.54273" lon="0.3714">
        <ele>177.75</ele>
        <time>2018-06-03T09:22:28.000Z</time>
      </trkpt>
      <trkpt lat="46.54282" lon="0.37138">
        <ele>177.85</ele>
        <time>2018-06-03T09:22:35.000Z</time>
      </trkpt>
      <trkpt lat="46.54292" lon="0.37138">
        <ele>177.9</ele>
        <time>2018-06-03T09:22:43.000Z</time>
      </trkpt>
      <trkpt lat="46.54302" lon="0.37138">
        <ele>177.75</ele>
        <time>2018-06-03T09:22:49.000Z</time>
      </trkpt>
      <trkpt lat="46.54311" lon="0.37136">
        <ele>177.43</ele>
        <time>2018-06-03T09:22:54.000Z</time>
      </trkpt>
      <trkpt lat="46.54321" lon="0.37131">
        <ele>177.28</ele>
        <time>2018-06-03T09:23:03.000Z</time>
      </trkpt>
      <trkpt lat="46.5433" lon="0.37122">
        <ele>177.16</ele>
        <time>2018-06-03T09:23:09.000Z</time>
      </trkpt>
      <trkpt lat="46.54337" lon="0.37113">
        <ele>177.02</ele>
        <time>2018-06-03T09:23:14.000Z</time>
      </trkpt>
      <trkpt lat="46.54332" lon="0.37098">
        <ele>176.71</ele>
        <time>2018-06-03T09:23:26.000Z</time>
      </trkpt>
      <trkpt lat="46.54325" lon="0.37086">
        <ele>177.33</ele>
        <time>2018-06-03T09:23:29.000Z</time>
      </trkpt>
      <trkpt lat="46.54318" lon="0.37076">
        <ele>177.83</ele>
        <time>2018-06-03T09:23:31.000Z</time>
      </trkpt>
      <trkpt lat="46.5431" lon="0.37063">
        <ele>178.71</ele>
        <time>2018-06-03T09:23:34.000Z</time>
      </trkpt>
      <trkpt lat="46.54302" lon="0.37049">
        <ele>183.68</ele>
        <time>2018-06-03T09:23:37.000Z</time>
      </trkpt>
      <trkpt lat="46.54297" lon="0.37037">
        <ele>184.07</ele>
        <time>2018-06-03T09:23:39.000Z</time>
      </trkpt>
      <trkpt lat="46.54293" lon="0.37022">
        <ele>186.35</ele>
        <time>2018-06-03T09:23:42.000Z</time>
      </trkpt>
      <trkpt lat="46.54287" lon="0.37008">
        <ele>189.86</ele>
        <time>2018-06-03T09:23:45.000Z</time>
      </trkpt>
      <trkpt lat="46.54281" lon="0.36997">
        <ele>192.1</ele>
        <time>2018-06-03T09:23:47.000Z</time>
      </trkpt>
      <trkpt lat="46.54276" lon="0.36985">
        <ele>193.04</ele>
        <time>2018-06-03T09:23:49.000Z</time>
      </trkpt>
      <trkpt lat="46.5427" lon="0.36973">
        <ele>193.5</ele>
        <time>2018-06-03T09:23:51.000Z</time>
      </trkpt>
      <trkpt lat="46.54264" lon="0.3696">
        <ele>193.82</ele>
        <time>2018-06-03T09:23:53.000Z</time>
      </trkpt>
      <trkpt lat="46.54258" lon="0.36948">
        <ele>194.36</ele>
        <time>2018-06-03T09:23:55.000Z</time>
      </trkpt>
      <trkpt lat="46.54253" lon="0.36935">
        <ele>194.62</ele>
        <time>2018-06-03T09:23:57.000Z</time>
      </trkpt>
      <trkpt lat="46.54248" lon="0.36923">
        <ele>194.36</ele>
        <time>2018-06-03T09:23:59.000Z</time>
      </trkpt>
      <trkpt lat="46.54241" lon="0.36911">
        <ele>194.22</ele>
        <time>2018-06-03T09:24:01.000Z</time>
      </trkpt>
      <trkpt lat="46.54239" lon="0.36892">
        <ele>193.44</ele>
        <time>2018-06-03T09:24:04.000Z</time>
      </trkpt>
      <trkpt lat="46.54248" lon="0.36878">
        <ele>192.57</ele>
        <time>2018-06-03T09:24:07.000Z</time>
      </trkpt>
      <trkpt lat="46.54258" lon="0.36878">
        <ele>191.16</ele>
        <time>2018-06-03T09:24:09.000Z</time>
      </trkpt>
      <trkpt lat="46.54269" lon="0.36878">
        <ele>189.69</ele>
        <time>2018-06-03T09:24:11.000Z</time>
      </trkpt>
      <trkpt lat="46.54279" lon="0.36881">
        <ele>188.38</ele>
        <time>2018-06-03T09:24:13.000Z</time>
      </trkpt>
      <trkpt lat="46.54288" lon="0.3688">
        <ele>187.24</ele>
        <time>2018-06-03T09:24:15.000Z</time>
      </trkpt>
      <trkpt lat="46.54302" lon="0.36881">
        <ele>186.25</ele>
        <time>2018-06-03T09:24:18.000Z</time>
      </trkpt>
      <trkpt lat="46.54311" lon="0.36881">
        <ele>183.01</ele>
        <time>2018-06-03T09:24:21.000Z</time>
      </trkpt>
      <trkpt lat="46.54322" lon="0.36881">
        <ele>180.59</ele>
        <time>2018-06-03T09:24:24.000Z</time>
      </trkpt>
      <trkpt lat="46.54335" lon="0.36885">
        <ele>177.56</ele>
        <time>2018-06-03T09:24:27.000Z</time>
      </trkpt>
      <trkpt lat="46.54348" lon="0.36887">
        <ele>176.3</ele>
        <time>2018-06-03T09:24:30.000Z</time>
      </trkpt>
      <trkpt lat="46.54357" lon="0.36887">
        <ele>175.22</ele>
        <time>2018-06-03T09:24:32.000Z</time>
      </trkpt>
      <trkpt lat="46.54367" lon="0.36888">
        <ele>173.67</ele>
        <time>2018-06-03T09:24:34.000Z</time>
      </trkpt>
      <trkpt lat="46.54379" lon="0.36887">
        <ele>170.96</ele>
        <time>2018-06-03T09:24:37.000Z</time>
      </trkpt>
      <trkpt lat="46.54392" lon="0.36887">
        <ele>171.17</ele>
        <time>2018-06-03T09:24:40.000Z</time>
      </trkpt>
      <trkpt lat="46.54401" lon="0.36891">
        <ele>172.06</ele>
        <time>2018-06-03T09:24:42.000Z</time>
      </trkpt>
      <trkpt lat="46.5441" lon="0.3689">
        <ele>174.12</ele>
        <time>2018-06-03T09:24:44.000Z</time>
      </trkpt>
      <trkpt lat="46.5442" lon="0.36887">
        <ele>175.2</ele>
        <time>2018-06-03T09:24:46.000Z</time>
      </trkpt>
      <trkpt lat="46.5443" lon="0.36882">
        <ele>175.42</ele>
        <time>2018-06-03T09:24:48.000Z</time>
      </trkpt>
      <trkpt lat="46.54439" lon="0.36877">
        <ele>175.7</ele>
        <time>2018-06-03T09:24:50.000Z</time>
      </trkpt>
      <trkpt lat="46.54448" lon="0.36873">
        <ele>176.06</ele>
        <time>2018-06-03T09:24:52.000Z</time>
      </trkpt>
      <trkpt lat="46.54456" lon="0.36869">
        <ele>175.95</ele>
        <time>2018-06-03T09:24:54.000Z</time>
      </trkpt>
      <trkpt lat="46.54466" lon="0.36864">
        <ele>175.63</ele>
        <time>2018-06-03T09:24:56.000Z</time>
      </trkpt>
      <trkpt lat="46.54477" lon="0.36858">
        <ele>175.71</ele>
        <time>2018-06-03T09:24:58.000Z</time>
      </trkpt>
      <trkpt lat="46.54489" lon="0.3685">
        <ele>176.19</ele>
        <time>2018-06-03T09:25:00.000Z</time>
      </trkpt>
      <trkpt lat="46.545" lon="0.36844">
        <ele>176.9</ele>
        <time>2018-06-03T09:25:02.000Z</time>
      </trkpt>
      <trkpt lat="46.5451" lon="0.36842">
        <ele>176.57</ele>
        <time>2018-06-03T09:25:04.000Z</time>
      </trkpt>
      <trkpt lat="46.5452" lon="0.36839">
        <ele>176.9</ele>
        <time>2018-06-03T09:25:06.000Z</time>
      </trkpt>
      <trkpt lat="46.5453" lon="0.36836">
        <ele>176.71</ele>
        <time>2018-06-03T09:25:08.000Z</time>
      </trkpt>
      <trkpt lat="46.54541" lon="0.36833">
        <ele>175.86</ele>
        <time>2018-06-03T09:25:10.000Z</time>
      </trkpt>
      <trkpt lat="46.54553" lon="0.36827">
        <ele>175.64</ele>
        <time>2018-06-03T09:25:12.000Z</time>
      </trkpt>
      <trkpt lat="46.54564" lon="0.36822">
        <ele>175.93</ele>
        <time>2018-06-03T09:25:14.000Z</time>
      </trkpt>
      <trkpt lat="46.54576" lon="0.36817">
        <ele>176.43</ele>
        <time>2018-06-03T09:25:16.000Z</time>
      </trkpt>
      <trkpt lat="46.54589" lon="0.36812">
        <ele>176.52</ele>
        <time>2018-06-03T09:25:18.000Z</time>
      </trkpt>
      <trkpt lat="46.54602" lon="0.36805">
        <ele>176.49</ele>
        <time>2018-06-03T09:25:20.000Z</time>
      </trkpt>
      <trkpt lat="46.54616" lon="0.368">
        <ele>176.24</ele>
        <time>2018-06-03T09:25:22.000Z</time>
      </trkpt>
      <trkpt lat="46.54628" lon="0.36796">
        <ele>175.87</ele>
        <time>2018-06-03T09:25:24.000Z</time>
      </trkpt>
      <trkpt lat="46.5464" lon="0.3679">
        <ele>175.31</ele>
        <time>2018-06-03T09:25:26.000Z</time>
      </trkpt>
      <trkpt lat="46.54651" lon="0.36786">
        <ele>174.91</ele>
        <time>2018-06-03T09:25:28.000Z</time>
      </trkpt>
      <trkpt lat="46.54662" lon="0.36782">
        <ele>174.3</ele>
        <time>2018-06-03T09:25:30.000Z</time>
      </trkpt>
      <trkpt lat="46.54674" lon="0.36777">
        <ele>173.8</ele>
        <time>2018-06-03T09:25:32.000Z</time>
      </trkpt>
      <trkpt lat="46.54684" lon="0.36771">
        <ele>173.77</ele>
        <time>2018-06-03T09:25:34.000Z</time>
      </trkpt>
      <trkpt lat="46.5469" lon="0.36758">
        <ele>173.55</ele>
        <time>2018-06-03T09:25:36.000Z</time>
      </trkpt>
      <trkpt lat="46.54696" lon="0.36741">
        <ele>173.57</ele>
        <time>2018-06-03T09:25:39.000Z</time>
      </trkpt>
      <trkpt lat="46.547" lon="0.36726">
        <ele>173.75</ele>
        <time>2018-06-03T09:25:42.000Z</time>
      </trkpt>
      <trkpt lat="46.54703" lon="0.36713">
        <ele>173.96</ele>
        <time>2018-06-03T09:25:45.000Z</time>
      </trkpt>
      <trkpt lat="46.54707" lon="0.36698">
        <ele>174.38</ele>
        <time>2018-06-03T09:25:48.000Z</time>
      </trkpt>
      <trkpt lat="46.54712" lon="0.36682">
        <ele>177.22</ele>
        <time>2018-06-03T09:25:51.000Z</time>
      </trkpt>
      <trkpt lat="46.54715" lon="0.36669">
        <ele>180.89</ele>
        <time>2018-06-03T09:25:53.000Z</time>
      </trkpt>
      <trkpt lat="46.54721" lon="0.36651">
        <ele>184.74</ele>
        <time>2018-06-03T09:25:56.000Z</time>
      </trkpt>
      <trkpt lat="46.54726" lon="0.36638">
        <ele>186.29</ele>
        <time>2018-06-03T09:25:58.000Z</time>
      </trkpt>
      <trkpt lat="46.54732" lon="0.36627">
        <ele>187.54</ele>
        <time>2018-06-03T09:26:00.000Z</time>
      </trkpt>
      <trkpt lat="46.54738" lon="0.36616">
        <ele>188.47</ele>
        <time>2018-06-03T09:26:02.000Z</time>
      </trkpt>
      <trkpt lat="46.54746" lon="0.36602">
        <ele>189.27</ele>
        <time>2018-06-03T09:26:05.000Z</time>
      </trkpt>
      <trkpt lat="46.54754" lon="0.36587">
        <ele>189.74</ele>
        <time>2018-06-03T09:26:08.000Z</time>
      </trkpt>
      <trkpt lat="46.54763" lon="0.36574">
        <ele>190.11</ele>
        <time>2018-06-03T09:26:11.000Z</time>
      </trkpt>
      <trkpt lat="46.54774" lon="0.36567">
        <ele>190.07</ele>
        <time>2018-06-03T09:26:14.000Z</time>
      </trkpt>
      <trkpt lat="46.54784" lon="0.36564">
        <ele>190</ele>
        <time>2018-06-03T09:26:17.000Z</time>
      </trkpt>
      <trkpt lat="46.54787" lon="0.36548">
        <ele>188.55</ele>
        <time>2018-06-03T09:26:20.000Z</time>
      </trkpt>
      <trkpt lat="46.5479" lon="0.36529">
        <ele>187.81</ele>
        <time>2018-06-03T09:26:23.000Z</time>
      </trkpt>
      <trkpt lat="46.54792" lon="0.36513">
        <ele>187.86</ele>
        <time>2018-06-03T09:26:25.000Z</time>
      </trkpt>
      <trkpt lat="46.54793" lon="0.36497">
        <ele>188.04</ele>
        <time>2018-06-03T09:26:27.000Z</time>
      </trkpt>
      <trkpt lat="46.54797" lon="0.36483">
        <ele>187.92</ele>
        <time>2018-06-03T09:26:29.000Z</time>
      </trkpt>
      <trkpt lat="46.54809" lon="0.36477">
        <ele>187.99</ele>
        <time>2018-06-03T09:26:31.000Z</time>
      </trkpt>
      <trkpt lat="46.54821" lon="0.3648">
        <ele>188.03</ele>
        <time>2018-06-03T09:26:33.000Z</time>
      </trkpt>
      <trkpt lat="46.54835" lon="0.36472">
        <ele>188.89</ele>
        <time>2018-06-03T09:26:36.000Z</time>
      </trkpt>
      <trkpt lat="46.54849" lon="0.36474">
        <ele>189.36</ele>
        <time>2018-06-03T09:26:38.000Z</time>
      </trkpt>
      <trkpt lat="46.54865" lon="0.36472">
        <ele>189.07</ele>
        <time>2018-06-03T09:26:40.000Z</time>
      </trkpt>
      <trkpt lat="46.54881" lon="0.36474">
        <ele>186.96</ele>
        <time>2018-06-03T09:26:42.000Z</time>
      </trkpt>
      <trkpt lat="46.54896" lon="0.36476">
        <ele>183.82</ele>
        <time>2018-06-03T09:26:44.000Z</time>
      </trkpt>
      <trkpt lat="46.54909" lon="0.36482">
        <ele>180.9</ele>
        <time>2018-06-03T09:26:46.000Z</time>
      </trkpt>
      <trkpt lat="46.54924" lon="0.36486">
        <ele>177.85</ele>
        <time>2018-06-03T09:26:48.000Z</time>
      </trkpt>
      <trkpt lat="46.54938" lon="0.36494">
        <ele>175.59</ele>
        <time>2018-06-03T09:26:50.000Z</time>
      </trkpt>
      <trkpt lat="46.54946" lon="0.365">
        <ele>175.26</ele>
        <time>2018-06-03T09:26:56.000Z</time>
      </trkpt>
      <trkpt lat="46.54958" lon="0.36507">
        <ele>173.9</ele>
        <time>2018-06-03T09:27:00.000Z</time>
      </trkpt>
      <trkpt lat="46.54965" lon="0.36519">
        <ele>172.81</ele>
        <time>2018-06-03T09:27:02.000Z</time>
      </trkpt>
      <trkpt lat="46.54974" lon="0.3653">
        <ele>171.67</ele>
        <time>2018-06-03T09:27:04.000Z</time>
      </trkpt>
      <trkpt lat="46.54985" lon="0.36543">
        <ele>171.04</ele>
        <time>2018-06-03T09:27:06.000Z</time>
      </trkpt>
      <trkpt lat="46.54997" lon="0.36553">
        <ele>171.15</ele>
        <time>2018-06-03T09:27:08.000Z</time>
      </trkpt>
      <trkpt lat="46.55009" lon="0.36561">
        <ele>170.55</ele>
        <time>2018-06-03T09:27:10.000Z</time>
      </trkpt>
      <trkpt lat="46.55022" lon="0.36565">
        <ele>170.1</ele>
        <time>2018-06-03T09:27:12.000Z</time>
      </trkpt>
      <trkpt lat="46.55037" lon="0.36569">
        <ele>169.42</ele>
        <time>2018-06-03T09:27:14.000Z</time>
      </trkpt>
      <trkpt lat="46.55054" lon="0.36577">
        <ele>168.26</ele>
        <time>2018-06-03T09:27:16.000Z</time>
      </trkpt>
      <trkpt lat="46.55068" lon="0.36588">
        <ele>168.16</ele>
        <time>2018-06-03T09:27:18.000Z</time>
      </trkpt>
      <trkpt lat="46.55082" lon="0.36601">
        <ele>168.37</ele>
        <time>2018-06-03T09:27:20.000Z</time>
      </trkpt>
      <trkpt lat="46.55093" lon="0.36607">
        <ele>168.33</ele>
        <time>2018-06-03T09:27:22.000Z</time>
      </trkpt>
      <trkpt lat="46.55106" lon="0.36611">
        <ele>168.25</ele>
        <time>2018-06-03T09:27:26.000Z</time>
      </trkpt>
      <trkpt lat="46.55114" lon="0.36614">
        <ele>167.77</ele>
        <time>2018-06-03T09:27:36.000Z</time>
      </trkpt>
      <trkpt lat="46.55113" lon="0.36597">
        <ele>166.54</ele>
        <time>2018-06-03T09:27:42.000Z</time>
      </trkpt>
      <trkpt lat="46.55109" lon="0.36584">
        <ele>165.45</ele>
        <time>2018-06-03T09:27:44.000Z</time>
      </trkpt>
      <trkpt lat="46.55103" lon="0.36574">
        <ele>165.49</ele>
        <time>2018-06-03T09:27:46.000Z</time>
      </trkpt>
      <trkpt lat="46.55094" lon="0.36569">
        <ele>166.16</ele>
        <time>2018-06-03T09:27:48.000Z</time>
      </trkpt>
      <trkpt lat="46.55083" lon="0.36562">
        <ele>166.76</ele>
        <time>2018-06-03T09:27:50.000Z</time>
      </trkpt>
      <trkpt lat="46.55069" lon="0.36554">
        <ele>168.95</ele>
        <time>2018-06-03T09:27:52.000Z</time>
      </trkpt>
      <trkpt lat="46.5506" lon="0.36546">
        <ele>170.45</ele>
        <time>2018-06-03T09:27:53.000Z</time>
      </trkpt>
      <trkpt lat="46.55049" lon="0.3653">
        <ele>173.25</ele>
        <time>2018-06-03T09:27:55.000Z</time>
      </trkpt>
      <trkpt lat="46.55043" lon="0.36515">
        <ele>174.64</ele>
        <time>2018-06-03T09:27:56.000Z</time>
      </trkpt>
      <trkpt lat="46.55037" lon="0.36503">
        <ele>175.53</ele>
        <time>2018-06-03T09:27:57.000Z</time>
      </trkpt>
      <trkpt lat="46.55034" lon="0.36489">
        <ele>175.51</ele>
        <time>2018-06-03T09:27:58.000Z</time>
      </trkpt>
      <trkpt lat="46.55035" lon="0.36463">
        <ele>174.05</ele>
        <time>2018-06-03T09:28:00.000Z</time>
      </trkpt>
      <trkpt lat="46.55034" lon="0.3645">
        <ele>173.02</ele>
        <time>2018-06-03T09:28:01.000Z</time>
      </trkpt>
      <trkpt lat="46.55035" lon="0.36426">
        <ele>170.58</ele>
        <time>2018-06-03T09:28:03.000Z</time>
      </trkpt>
      <trkpt lat="46.55034" lon="0.36403">
        <ele>168.44</ele>
        <time>2018-06-03T09:28:05.000Z</time>
      </trkpt>
      <trkpt lat="46.55031" lon="0.36384">
        <ele>166.44</ele>
        <time>2018-06-03T09:28:07.000Z</time>
      </trkpt>
      <trkpt lat="46.55033" lon="0.36368">
        <ele>163.35</ele>
        <time>2018-06-03T09:28:09.000Z</time>
      </trkpt>
      <trkpt lat="46.55035" lon="0.36352">
        <ele>161.9</ele>
        <time>2018-06-03T09:28:11.000Z</time>
      </trkpt>
      <trkpt lat="46.55036" lon="0.36336">
        <ele>161.89</ele>
        <time>2018-06-03T09:28:15.000Z</time>
      </trkpt>
      <trkpt lat="46.55039" lon="0.36322">
        <ele>162.05</ele>
        <time>2018-06-03T09:28:20.000Z</time>
      </trkpt>
      <trkpt lat="46.55043" lon="0.36309">
        <ele>161.99</ele>
        <time>2018-06-03T09:28:25.000Z</time>
      </trkpt>
      <trkpt lat="46.55046" lon="0.36291">
        <ele>162.28</ele>
        <time>2018-06-03T09:28:31.000Z</time>
      </trkpt>
      <trkpt lat="46.55047" lon="0.36273">
        <ele>162.48</ele>
        <time>2018-06-03T09:28:36.000Z</time>
      </trkpt>
      <trkpt lat="46.55048" lon="0.36259">
        <ele>162.7</ele>
        <time>2018-06-03T09:28:39.000Z</time>
      </trkpt>
      <trkpt lat="46.55054" lon="0.36246">
        <ele>162.96</ele>
        <time>2018-06-03T09:28:43.000Z</time>
      </trkpt>
      <trkpt lat="46.5506" lon="0.3623">
        <ele>162.99</ele>
        <time>2018-06-03T09:28:46.000Z</time>
      </trkpt>
      <trkpt lat="46.5505" lon="0.36227">
        <ele>161.72</ele>
        <time>2018-06-03T09:29:03.000Z</time>
      </trkpt>
      <trkpt lat="46.55035" lon="0.36223">
        <ele>161.48</ele>
        <time>2018-06-03T09:29:05.000Z</time>
      </trkpt>
      <trkpt lat="46.55024" lon="0.36213">
        <ele>160.97</ele>
        <time>2018-06-03T09:29:09.000Z</time>
      </trkpt>
      <trkpt lat="46.55015" lon="0.36208">
        <ele>160.55</ele>
        <time>2018-06-03T09:29:12.000Z</time>
      </trkpt>
      <trkpt lat="46.55003" lon="0.36208">
        <ele>160.28</ele>
        <time>2018-06-03T09:29:14.000Z</time>
      </trkpt>
      <trkpt lat="46.5499" lon="0.36201">
        <ele>159.96</ele>
        <time>2018-06-03T09:29:17.000Z</time>
      </trkpt>
      <trkpt lat="46.54982" lon="0.3619">
        <ele>159.87</ele>
        <time>2018-06-03T09:29:21.000Z</time>
      </trkpt>
      <trkpt lat="46.54976" lon="0.36179">
        <ele>159.96</ele>
        <time>2018-06-03T09:29:23.000Z</time>
      </trkpt>
      <trkpt lat="46.5497" lon="0.36167">
        <ele>160.5</ele>
        <time>2018-06-03T09:29:26.000Z</time>
      </trkpt>
      <trkpt lat="46.54964" lon="0.36155">
        <ele>160.95</ele>
        <time>2018-06-03T09:29:28.000Z</time>
      </trkpt>
      <trkpt lat="46.54958" lon="0.36142">
        <ele>164.28</ele>
        <time>2018-06-03T09:29:30.000Z</time>
      </trkpt>
      <trkpt lat="46.54951" lon="0.36129">
        <ele>169.47</ele>
        <time>2018-06-03T09:29:32.000Z</time>
      </trkpt>
      <trkpt lat="46.54944" lon="0.36117">
        <ele>172.17</ele>
        <time>2018-06-03T09:29:34.000Z</time>
      </trkpt>
      <trkpt lat="46.54939" lon="0.36101">
        <ele>172.76</ele>
        <time>2018-06-03T09:29:37.000Z</time>
      </trkpt>
      <trkpt lat="46.54933" lon="0.36086">
        <ele>173.11</ele>
        <time>2018-06-03T09:29:40.000Z</time>
      </trkpt>
      <trkpt lat="46.54927" lon="0.36075">
        <ele>173.59</ele>
        <time>2018-06-03T09:29:43.000Z</time>
      </trkpt>
      <trkpt lat="46.54918" lon="0.36066">
        <ele>174.11</ele>
        <time>2018-06-03T09:29:46.000Z</time>
      </trkpt>
      <trkpt lat="46.54909" lon="0.36052">
        <ele>174.39</ele>
        <time>2018-06-03T09:29:48.000Z</time>
      </trkpt>
      <trkpt lat="46.54901" lon="0.36038">
        <ele>175.29</ele>
        <time>2018-06-03T09:29:52.000Z</time>
      </trkpt>
      <trkpt lat="46.54895" lon="0.36027">
        <ele>176.07</ele>
        <time>2018-06-03T09:29:56.000Z</time>
      </trkpt>
      <trkpt lat="46.54881" lon="0.36014">
        <ele>176.41</ele>
        <time>2018-06-03T09:29:58.000Z</time>
      </trkpt>
      <trkpt lat="46.54871" lon="0.36008">
        <ele>176.59</ele>
        <time>2018-06-03T09:30:00.000Z</time>
      </trkpt>
      <trkpt lat="46.54862" lon="0.36003">
        <ele>176.74</ele>
        <time>2018-06-03T09:30:02.000Z</time>
      </trkpt>
      <trkpt lat="46.54855" lon="0.35983">
        <ele>177.01</ele>
        <time>2018-06-03T09:30:08.000Z</time>
      </trkpt>
      <trkpt lat="46.54841" lon="0.3597">
        <ele>177.03</ele>
        <time>2018-06-03T09:30:10.000Z</time>
      </trkpt>
      <trkpt lat="46.54832" lon="0.35963">
        <ele>177</ele>
        <time>2018-06-03T09:30:11.000Z</time>
      </trkpt>
      <trkpt lat="46.54824" lon="0.35946">
        <ele>177</ele>
        <time>2018-06-03T09:30:12.000Z</time>
      </trkpt>
      <trkpt lat="46.54814" lon="0.35937">
        <ele>176.87</ele>
        <time>2018-06-03T09:30:14.000Z</time>
      </trkpt>
      <trkpt lat="46.54804" lon="0.35934">
        <ele>176.54</ele>
        <time>2018-06-03T09:30:16.000Z</time>
      </trkpt>
      <trkpt lat="46.54797" lon="0.35923">
        <ele>176.08</ele>
        <time>2018-06-03T09:30:18.000Z</time>
      </trkpt>
      <trkpt lat="46.54792" lon="0.3591">
        <ele>175.24</ele>
        <time>2018-06-03T09:30:21.000Z</time>
      </trkpt>
      <trkpt lat="46.54789" lon="0.35891">
        <ele>174.99</ele>
        <time>2018-06-03T09:30:23.000Z</time>
      </trkpt>
      <trkpt lat="46.54787" lon="0.35875">
        <ele>175.17</ele>
        <time>2018-06-03T09:30:25.000Z</time>
      </trkpt>
      <trkpt lat="46.54781" lon="0.3586">
        <ele>179.13</ele>
        <time>2018-06-03T09:30:28.000Z</time>
      </trkpt>
      <trkpt lat="46.54774" lon="0.35847">
        <ele>180.26</ele>
        <time>2018-06-03T09:30:30.000Z</time>
      </trkpt>
      <trkpt lat="46.54771" lon="0.35832">
        <ele>180.63</ele>
        <time>2018-06-03T09:30:33.000Z</time>
      </trkpt>
      <trkpt lat="46.54765" lon="0.3582">
        <ele>181.22</ele>
        <time>2018-06-03T09:30:36.000Z</time>
      </trkpt>
      <trkpt lat="46.54761" lon="0.35802">
        <ele>181.43</ele>
        <time>2018-06-03T09:30:38.000Z</time>
      </trkpt>
      <trkpt lat="46.54762" lon="0.35785">
        <ele>181.69</ele>
        <time>2018-06-03T09:30:40.000Z</time>
      </trkpt>
      <trkpt lat="46.54761" lon="0.35769">
        <ele>181.92</ele>
        <time>2018-06-03T09:30:42.000Z</time>
      </trkpt>
      <trkpt lat="46.5476" lon="0.35753">
        <ele>182.06</ele>
        <time>2018-06-03T09:30:45.000Z</time>
      </trkpt>
      <trkpt lat="46.54762" lon="0.35736">
        <ele>182.1</ele>
        <time>2018-06-03T09:30:47.000Z</time>
      </trkpt>
      <trkpt lat="46.5476" lon="0.35722">
        <ele>183.61</ele>
        <time>2018-06-03T09:30:49.000Z</time>
      </trkpt>
      <trkpt lat="46.54752" lon="0.3571">
        <ele>186.07</ele>
        <time>2018-06-03T09:30:51.000Z</time>
      </trkpt>
      <trkpt lat="46.5475" lon="0.35695">
        <ele>188.47</ele>
        <time>2018-06-03T09:30:53.000Z</time>
      </trkpt>
      <trkpt lat="46.54747" lon="0.35682">
        <ele>190.16</ele>
        <time>2018-06-03T09:30:55.000Z</time>
      </trkpt>
      <trkpt lat="46.54741" lon="0.35668">
        <ele>190.55</ele>
        <time>2018-06-03T09:30:57.000Z</time>
      </trkpt>
      <trkpt lat="46.5474" lon="0.35654">
        <ele>190.5</ele>
        <time>2018-06-03T09:30:59.000Z</time>
      </trkpt>
      <trkpt lat="46.54742" lon="0.35633">
        <ele>189.73</ele>
        <time>2018-06-03T09:31:02.000Z</time>
      </trkpt>
      <trkpt lat="46.5474" lon="0.35612">
        <ele>189.61</ele>
        <time>2018-06-03T09:31:04.000Z</time>
      </trkpt>
      <trkpt lat="46.54739" lon="0.35594">
        <ele>189.31</ele>
        <time>2018-06-03T09:31:07.000Z</time>
      </trkpt>
      <trkpt lat="46.54735" lon="0.35582">
        <ele>188.19</ele>
        <time>2018-06-03T09:31:12.000Z</time>
      </trkpt>
      <trkpt lat="46.54726" lon="0.35582">
        <ele>187.02</ele>
        <time>2018-06-03T09:31:17.000Z</time>
      </trkpt>
      <trkpt lat="46.54717" lon="0.35583">
        <ele>184.49</ele>
        <time>2018-06-03T09:31:28.000Z</time>
      </trkpt>
      <trkpt lat="46.54706" lon="0.35587">
        <ele>183.15</ele>
        <time>2018-06-03T09:31:35.000Z</time>
      </trkpt>
      <trkpt lat="46.54695" lon="0.3559">
        <ele>181.58</ele>
        <time>2018-06-03T09:31:42.000Z</time>
      </trkpt>
      <trkpt lat="46.54685" lon="0.35589">
        <ele>178.98</ele>
        <time>2018-06-03T09:31:55.000Z</time>
      </trkpt>
      <trkpt lat="46.54676" lon="0.35594">
        <ele>178.1</ele>
        <time>2018-06-03T09:32:01.000Z</time>
      </trkpt>
      <trkpt lat="46.54666" lon="0.35597">
        <ele>176.88</ele>
        <time>2018-06-03T09:32:10.000Z</time>
      </trkpt>
      <trkpt lat="46.54656" lon="0.35603">
        <ele>176.06</ele>
        <time>2018-06-03T09:32:20.000Z</time>
      </trkpt>
      <trkpt lat="46.54647" lon="0.35611">
        <ele>176.33</ele>
        <time>2018-06-03T09:32:27.000Z</time>
      </trkpt>
      <trkpt lat="46.54638" lon="0.35617">
        <ele>176.66</ele>
        <time>2018-06-03T09:32:36.000Z</time>
      </trkpt>
      <trkpt lat="46.54628" lon="0.35623">
        <ele>176.53</ele>
        <time>2018-06-03T09:32:43.000Z</time>
      </trkpt>
      <trkpt lat="46.54617" lon="0.35623">
        <ele>176.27</ele>
        <time>2018-06-03T09:32:49.000Z</time>
      </trkpt>
      <trkpt lat="46.54608" lon="0.35627">
        <ele>175.88</ele>
        <time>2018-06-03T09:32:58.000Z</time>
      </trkpt>
      <trkpt lat="46.54598" lon="0.3563">
        <ele>176.03</ele>
        <time>2018-06-03T09:33:15.000Z</time>
      </trkpt>
      <trkpt lat="46.5459" lon="0.35635">
        <ele>175.8</ele>
        <time>2018-06-03T09:33:23.000Z</time>
      </trkpt>
      <trkpt lat="46.54578" lon="0.35634">
        <ele>176.43</ele>
        <time>2018-06-03T09:33:28.000Z</time>
      </trkpt>
      <trkpt lat="46.54568" lon="0.35629">
        <ele>177.22</ele>
        <time>2018-06-03T09:33:34.000Z</time>
      </trkpt>
      <trkpt lat="46.54561" lon="0.35619">
        <ele>178.07</ele>
        <time>2018-06-03T09:33:40.000Z</time>
      </trkpt>
      <trkpt lat="46.54554" lon="0.35609">
        <ele>178.71</ele>
        <time>2018-06-03T09:33:44.000Z</time>
      </trkpt>
      <trkpt lat="46.54547" lon="0.356">
        <ele>179.41</ele>
        <time>2018-06-03T09:33:48.000Z</time>
      </trkpt>
      <trkpt lat="46.54541" lon="0.35589">
        <ele>180.34</ele>
        <time>2018-06-03T09:33:55.000Z</time>
      </trkpt>
      <trkpt lat="46.54538" lon="0.35577">
        <ele>181.18</ele>
        <time>2018-06-03T09:33:59.000Z</time>
      </trkpt>
      <trkpt lat="46.54532" lon="0.35564">
        <ele>181.98</ele>
        <time>2018-06-03T09:34:03.000Z</time>
      </trkpt>
      <trkpt lat="46.54526" lon="0.35554">
        <ele>182.51</ele>
        <time>2018-06-03T09:34:06.000Z</time>
      </trkpt>
      <trkpt lat="46.54519" lon="0.35545">
        <ele>183.32</ele>
        <time>2018-06-03T09:34:11.000Z</time>
      </trkpt>
      <trkpt lat="46.54514" lon="0.35531">
        <ele>184.15</ele>
        <time>2018-06-03T09:34:15.000Z</time>
      </trkpt>
      <trkpt lat="46.54507" lon="0.35521">
        <ele>184.65</ele>
        <time>2018-06-03T09:34:18.000Z</time>
      </trkpt>
      <trkpt lat="46.54499" lon="0.35507">
        <ele>185.32</ele>
        <time>2018-06-03T09:34:21.000Z</time>
      </trkpt>
      <trkpt lat="46.54499" lon="0.35488">
        <ele>186.11</ele>
        <time>2018-06-03T09:34:24.000Z</time>
      </trkpt>
      <trkpt lat="46.54504" lon="0.35476">
        <ele>186.99</ele>
        <time>2018-06-03T09:34:28.000Z</time>
      </trkpt>
      <trkpt lat="46.54504" lon="0.35461">
        <ele>187.75</ele>
        <time>2018-06-03T09:34:32.000Z</time>
      </trkpt>
      <trkpt lat="46.5451" lon="0.35448">
        <ele>188.29</ele>
        <time>2018-06-03T09:34:40.000Z</time>
      </trkpt>
      <trkpt lat="46.54519" lon="0.35437">
        <ele>188.24</ele>
        <time>2018-06-03T09:34:45.000Z</time>
      </trkpt>
      <trkpt lat="46.54519" lon="0.35421">
        <ele>188.06</ele>
        <time>2018-06-03T09:34:52.000Z</time>
      </trkpt>
      <trkpt lat="46.5453" lon="0.35426">
        <ele>185.87</ele>
        <time>2018-06-03T09:35:10.000Z</time>
      </trkpt>
      <trkpt lat="46.54539" lon="0.3543">
        <ele>185.31</ele>
        <time>2018-06-03T09:35:13.000Z</time>
      </trkpt>
      <trkpt lat="46.54545" lon="0.35443">
        <ele>184.43</ele>
        <time>2018-06-03T09:35:17.000Z</time>
      </trkpt>
      <trkpt lat="46.54555" lon="0.35444">
        <ele>180.73</ele>
        <time>2018-06-03T09:35:44.000Z</time>
      </trkpt>
      <trkpt lat="46.54564" lon="0.35445">
        <ele>179.94</ele>
        <time>2018-06-03T09:35:48.000Z</time>
      </trkpt>
      <trkpt lat="46.54574" lon="0.35448">
        <ele>178.58</ele>
        <time>2018-06-03T09:35:58.000Z</time>
      </trkpt>
      <trkpt lat="46.54575" lon="0.35462">
        <ele>177.58</ele>
        <time>2018-06-03T09:36:18.000Z</time>
      </trkpt>
      <trkpt lat="46.54585" lon="0.35467">
        <ele>177.23</ele>
        <time>2018-06-03T09:36:31.000Z</time>
      </trkpt>
      <trkpt lat="46.54594" lon="0.35473">
        <ele>175.95</ele>
        <time>2018-06-03T09:36:43.000Z</time>
      </trkpt>
      <trkpt lat="46.54605" lon="0.35472">
        <ele>175.05</ele>
        <time>2018-06-03T09:36:49.000Z</time>
      </trkpt>
      <trkpt lat="46.54614" lon="0.35473">
        <ele>174.74</ele>
        <time>2018-06-03T09:36:52.000Z</time>
      </trkpt>
      <trkpt lat="46.54625" lon="0.35477">
        <ele>174.07</ele>
        <time>2018-06-03T09:36:56.000Z</time>
      </trkpt>
      <trkpt lat="46.54638" lon="0.35492">
        <ele>173.99</ele>
        <time>2018-06-03T09:36:58.000Z</time>
      </trkpt>
      <trkpt lat="46.54648" lon="0.35498">
        <ele>173.97</ele>
        <time>2018-06-03T09:37:01.000Z</time>
      </trkpt>
      <trkpt lat="46.54659" lon="0.35498">
        <ele>173.74</ele>
        <time>2018-06-03T09:37:04.000Z</time>
      </trkpt>
      <trkpt lat="46.54667" lon="0.35491">
        <ele>170.64</ele>
        <time>2018-06-03T09:37:19.000Z</time>
      </trkpt>
      <trkpt lat="46.54664" lon="0.35475">
        <ele>169.82</ele>
        <time>2018-06-03T09:37:23.000Z</time>
      </trkpt>
      <trkpt lat="46.54665" lon="0.3546">
        <ele>169.33</ele>
        <time>2018-06-03T09:37:34.000Z</time>
      </trkpt>
      <trkpt lat="46.54669" lon="0.35447">
        <ele>170.08</ele>
        <time>2018-06-03T09:37:38.000Z</time>
      </trkpt>
      <trkpt lat="46.54678" lon="0.35439">
        <ele>170.49</ele>
        <time>2018-06-03T09:37:41.000Z</time>
      </trkpt>
      <trkpt lat="46.54681" lon="0.35421">
        <ele>170.71</ele>
        <time>2018-06-03T09:37:44.000Z</time>
      </trkpt>
      <trkpt lat="46.54683" lon="0.35407">
        <ele>170.8</ele>
        <time>2018-06-03T09:37:46.000Z</time>
      </trkpt>
      <trkpt lat="46.54686" lon="0.3539">
        <ele>170.77</ele>
        <time>2018-06-03T09:37:49.000Z</time>
      </trkpt>
      <trkpt lat="46.54694" lon="0.35379">
        <ele>170.37</ele>
        <time>2018-06-03T09:37:55.000Z</time>
      </trkpt>
      <trkpt lat="46.54704" lon="0.35377">
        <ele>169.86</ele>
        <time>2018-06-03T09:37:58.000Z</time>
      </trkpt>
      <trkpt lat="46.54715" lon="0.35377">
        <ele>166.79</ele>
        <time>2018-06-03T09:38:01.000Z</time>
      </trkpt>
      <trkpt lat="46.54721" lon="0.35364">
        <ele>165.96</ele>
        <time>2018-06-03T09:38:06.000Z</time>
      </trkpt>
      <trkpt lat="46.54724" lon="0.35351">
        <ele>165.31</ele>
        <time>2018-06-03T09:38:09.000Z</time>
      </trkpt>
      <trkpt lat="46.54728" lon="0.35338">
        <ele>164.61</ele>
        <time>2018-06-03T09:38:12.000Z</time>
      </trkpt>
      <trkpt lat="46.54733" lon="0.35324">
        <ele>162.47</ele>
        <time>2018-06-03T09:38:16.000Z</time>
      </trkpt>
      <trkpt lat="46.54735" lon="0.35309">
        <ele>162.06</ele>
        <time>2018-06-03T09:38:19.000Z</time>
      </trkpt>
      <trkpt lat="46.54738" lon="0.35297">
        <ele>161.4</ele>
        <time>2018-06-03T09:38:22.000Z</time>
      </trkpt>
      <trkpt lat="46.54746" lon="0.35289">
        <ele>160.93</ele>
        <time>2018-06-03T09:38:25.000Z</time>
      </trkpt>
      <trkpt lat="46.54753" lon="0.35281">
        <ele>160.57</ele>
        <time>2018-06-03T09:38:28.000Z</time>
      </trkpt>
      <trkpt lat="46.5476" lon="0.3527">
        <ele>160.38</ele>
        <time>2018-06-03T09:38:30.000Z</time>
      </trkpt>
      <trkpt lat="46.54764" lon="0.35256">
        <ele>160.34</ele>
        <time>2018-06-03T09:38:32.000Z</time>
      </trkpt>
      <trkpt lat="46.54767" lon="0.35242">
        <ele>160.36</ele>
        <time>2018-06-03T09:38:34.000Z</time>
      </trkpt>
      <trkpt lat="46.54776" lon="0.35229">
        <ele>160.4</ele>
        <time>2018-06-03T09:38:37.000Z</time>
      </trkpt>
      <trkpt lat="46.54785" lon="0.35213">
        <ele>160.39</ele>
        <time>2018-06-03T09:38:40.000Z</time>
      </trkpt>
      <trkpt lat="46.54789" lon="0.35201">
        <ele>160.58</ele>
        <time>2018-06-03T09:38:42.000Z</time>
      </trkpt>
      <trkpt lat="46.54794" lon="0.35182">
        <ele>160.62</ele>
        <time>2018-06-03T09:38:45.000Z</time>
      </trkpt>
      <trkpt lat="46.54799" lon="0.35171">
        <ele>160.38</ele>
        <time>2018-06-03T09:38:47.000Z</time>
      </trkpt>
      <trkpt lat="46.54804" lon="0.35159">
        <ele>158.05</ele>
        <time>2018-06-03T09:38:50.000Z</time>
      </trkpt>
      <trkpt lat="46.54813" lon="0.3515">
        <ele>156.49</ele>
        <time>2018-06-03T09:38:52.000Z</time>
      </trkpt>
      <trkpt lat="46.54821" lon="0.35136">
        <ele>155.88</ele>
        <time>2018-06-03T09:38:55.000Z</time>
      </trkpt>
      <trkpt lat="46.54831" lon="0.35127">
        <ele>155.32</ele>
        <time>2018-06-03T09:38:57.000Z</time>
      </trkpt>
      <trkpt lat="46.54839" lon="0.35119">
        <ele>154.84</ele>
        <time>2018-06-03T09:38:59.000Z</time>
      </trkpt>
      <trkpt lat="46.5485" lon="0.35113">
        <ele>154.17</ele>
        <time>2018-06-03T09:39:02.000Z</time>
      </trkpt>
      <trkpt lat="46.54859" lon="0.3511">
        <ele>153.7</ele>
        <time>2018-06-03T09:39:04.000Z</time>
      </trkpt>
      <trkpt lat="46.54869" lon="0.35114">
        <ele>152.95</ele>
        <time>2018-06-03T09:39:07.000Z</time>
      </trkpt>
      <trkpt lat="46.54882" lon="0.35115">
        <ele>152.5</ele>
        <time>2018-06-03T09:39:09.000Z</time>
      </trkpt>
      <trkpt lat="46.54893" lon="0.35106">
        <ele>151.76</ele>
        <time>2018-06-03T09:39:12.000Z</time>
      </trkpt>
      <trkpt lat="46.54902" lon="0.35106">
        <ele>150.88</ele>
        <time>2018-06-03T09:39:15.000Z</time>
      </trkpt>
      <trkpt lat="46.54913" lon="0.3511">
        <ele>149.96</ele>
        <time>2018-06-03T09:39:19.000Z</time>
      </trkpt>
      <trkpt lat="46.54923" lon="0.35114">
        <ele>149.53</ele>
        <time>2018-06-03T09:39:22.000Z</time>
      </trkpt>
      <trkpt lat="46.54934" lon="0.35116">
        <ele>149.22</ele>
        <time>2018-06-03T09:39:24.000Z</time>
      </trkpt>
      <trkpt lat="46.54944" lon="0.35116">
        <ele>148.84</ele>
        <time>2018-06-03T09:39:27.000Z</time>
      </trkpt>
      <trkpt lat="46.54952" lon="0.35107">
        <ele>148</ele>
        <time>2018-06-03T09:39:33.000Z</time>
      </trkpt>
      <trkpt lat="46.54961" lon="0.35099">
        <ele>147.27</ele>
        <time>2018-06-03T09:39:38.000Z</time>
      </trkpt>
      <trkpt lat="46.54971" lon="0.35097">
        <ele>146.89</ele>
        <time>2018-06-03T09:39:41.000Z</time>
      </trkpt>
      <trkpt lat="46.54983" lon="0.35099">
        <ele>146.71</ele>
        <time>2018-06-03T09:39:44.000Z</time>
      </trkpt>
      <trkpt lat="46.54992" lon="0.35102">
        <ele>146.71</ele>
        <time>2018-06-03T09:39:46.000Z</time>
      </trkpt>
      <trkpt lat="46.55004" lon="0.35106">
        <ele>147.53</ele>
        <time>2018-06-03T09:39:48.000Z</time>
      </trkpt>
      <trkpt lat="46.5502" lon="0.35108">
        <ele>148.78</ele>
        <time>2018-06-03T09:39:50.000Z</time>
      </trkpt>
      <trkpt lat="46.55029" lon="0.35112">
        <ele>149.55</ele>
        <time>2018-06-03T09:39:51.000Z</time>
      </trkpt>
      <trkpt lat="46.55041" lon="0.35116">
        <ele>151.39</ele>
        <time>2018-06-03T09:39:53.000Z</time>
      </trkpt>
      <trkpt lat="46.55053" lon="0.35121">
        <ele>153.94</ele>
        <time>2018-06-03T09:39:55.000Z</time>
      </trkpt>
      <trkpt lat="46.55066" lon="0.35133">
        <ele>154.76</ele>
        <time>2018-06-03T09:39:57.000Z</time>
      </trkpt>
      <trkpt lat="46.55076" lon="0.35138">
        <ele>155.66</ele>
        <time>2018-06-03T09:39:58.000Z</time>
      </trkpt>
      <trkpt lat="46.55085" lon="0.35142">
        <ele>156.91</ele>
        <time>2018-06-03T09:40:00.000Z</time>
      </trkpt>
      <trkpt lat="46.55097" lon="0.35145">
        <ele>157.04</ele>
        <time>2018-06-03T09:40:04.000Z</time>
      </trkpt>
      <trkpt lat="46.55108" lon="0.35151">
        <ele>157.24</ele>
        <time>2018-06-03T09:40:07.000Z</time>
      </trkpt>
      <trkpt lat="46.55117" lon="0.35155">
        <ele>157.22</ele>
        <time>2018-06-03T09:40:09.000Z</time>
      </trkpt>
      <trkpt lat="46.55126" lon="0.3516">
        <ele>156.39</ele>
        <time>2018-06-03T09:40:11.000Z</time>
      </trkpt>
      <trkpt lat="46.55135" lon="0.35166">
        <ele>154.86</ele>
        <time>2018-06-03T09:40:13.000Z</time>
      </trkpt>
      <trkpt lat="46.55144" lon="0.35172">
        <ele>154.41</ele>
        <time>2018-06-03T09:40:15.000Z</time>
      </trkpt>
      <trkpt lat="46.55155" lon="0.3518">
        <ele>153.58</ele>
        <time>2018-06-03T09:40:18.000Z</time>
      </trkpt>
      <trkpt lat="46.55164" lon="0.35188">
        <ele>150.44</ele>
        <time>2018-06-03T09:40:20.000Z</time>
      </trkpt>
      <trkpt lat="46.55174" lon="0.35197">
        <ele>146.97</ele>
        <time>2018-06-03T09:40:22.000Z</time>
      </trkpt>
      <trkpt lat="46.55183" lon="0.35205">
        <ele>144.59</ele>
        <time>2018-06-03T09:40:24.000Z</time>
      </trkpt>
      <trkpt lat="46.55194" lon="0.35216">
        <ele>143.67</ele>
        <time>2018-06-03T09:40:27.000Z</time>
      </trkpt>
      <trkpt lat="46.55204" lon="0.35223">
        <ele>143.16</ele>
        <time>2018-06-03T09:40:29.000Z</time>
      </trkpt>
      <trkpt lat="46.55213" lon="0.35236">
        <ele>143.08</ele>
        <time>2018-06-03T09:40:32.000Z</time>
      </trkpt>
      <trkpt lat="46.55222" lon="0.35244">
        <ele>142.93</ele>
        <time>2018-06-03T09:40:35.000Z</time>
      </trkpt>
      <trkpt lat="46.5523" lon="0.35254">
        <ele>142.25</ele>
        <time>2018-06-03T09:40:43.000Z</time>
      </trkpt>
      <trkpt lat="46.55238" lon="0.35257">
        <ele>142.01</ele>
        <time>2018-06-03T09:40:46.000Z</time>
      </trkpt>
      <trkpt lat="46.55247" lon="0.35264">
        <ele>141.77</ele>
        <time>2018-06-03T09:40:49.000Z</time>
      </trkpt>
      <trkpt lat="46.55257" lon="0.35266">
        <ele>141.51</ele>
        <time>2018-06-03T09:40:53.000Z</time>
      </trkpt>
      <trkpt lat="46.55267" lon="0.35258">
        <ele>141.34</ele>
        <time>2018-06-03T09:40:57.000Z</time>
      </trkpt>
      <trkpt lat="46.55277" lon="0.35254">
        <ele>141.03</ele>
        <time>2018-06-03T09:41:01.000Z</time>
      </trkpt>
      <trkpt lat="46.55289" lon="0.35252">
        <ele>138.98</ele>
        <time>2018-06-03T09:41:04.000Z</time>
      </trkpt>
      <trkpt lat="46.55302" lon="0.3525">
        <ele>138.56</ele>
        <time>2018-06-03T09:41:07.000Z</time>
      </trkpt>
      <trkpt lat="46.55312" lon="0.35246">
        <ele>138.19</ele>
        <time>2018-06-03T09:41:09.000Z</time>
      </trkpt>
      <trkpt lat="46.55321" lon="0.35238">
        <ele>138.35</ele>
        <time>2018-06-03T09:41:11.000Z</time>
      </trkpt>
      <trkpt lat="46.55331" lon="0.35229">
        <ele>137.2</ele>
        <time>2018-06-03T09:41:13.000Z</time>
      </trkpt>
      <trkpt lat="46.55338" lon="0.35218">
        <ele>133.94</ele>
        <time>2018-06-03T09:41:16.000Z</time>
      </trkpt>
      <trkpt lat="46.55335" lon="0.35201">
        <ele>133.81</ele>
        <time>2018-06-03T09:41:20.000Z</time>
      </trkpt>
      <trkpt lat="46.55331" lon="0.35189">
        <ele>133.77</ele>
        <time>2018-06-03T09:41:23.000Z</time>
      </trkpt>
      <trkpt lat="46.55328" lon="0.35175">
        <ele>132.95</ele>
        <time>2018-06-03T09:41:26.000Z</time>
      </trkpt>
      <trkpt lat="46.55322" lon="0.35157">
        <ele>132.92</ele>
        <time>2018-06-03T09:41:29.000Z</time>
      </trkpt>
      <trkpt lat="46.55318" lon="0.35144">
        <ele>132.97</ele>
        <time>2018-06-03T09:41:31.000Z</time>
      </trkpt>
      <trkpt lat="46.55311" lon="0.3513">
        <ele>135.23</ele>
        <time>2018-06-03T09:41:33.000Z</time>
      </trkpt>
      <trkpt lat="46.55304" lon="0.35114">
        <ele>137.82</ele>
        <time>2018-06-03T09:41:35.000Z</time>
      </trkpt>
      <trkpt lat="46.55299" lon="0.35095">
        <ele>139.84</ele>
        <time>2018-06-03T09:41:37.000Z</time>
      </trkpt>
      <trkpt lat="46.55291" lon="0.35074">
        <ele>140.64</ele>
        <time>2018-06-03T09:41:39.000Z</time>
      </trkpt>
      <trkpt lat="46.55285" lon="0.3506">
        <ele>141.09</ele>
        <time>2018-06-03T09:41:41.000Z</time>
      </trkpt>
      <trkpt lat="46.55278" lon="0.35049">
        <ele>143.34</ele>
        <time>2018-06-03T09:41:43.000Z</time>
      </trkpt>
      <trkpt lat="46.55273" lon="0.35037">
        <ele>144.75</ele>
        <time>2018-06-03T09:41:45.000Z</time>
      </trkpt>
      <trkpt lat="46.55267" lon="0.35026">
        <ele>148.63</ele>
        <time>2018-06-03T09:41:47.000Z</time>
      </trkpt>
      <trkpt lat="46.55261" lon="0.35013">
        <ele>151.72</ele>
        <time>2018-06-03T09:41:49.000Z</time>
      </trkpt>
      <trkpt lat="46.55254" lon="0.34998">
        <ele>152</ele>
        <time>2018-06-03T09:41:51.000Z</time>
      </trkpt>
      <trkpt lat="46.5525" lon="0.34984">
        <ele>155.52</ele>
        <time>2018-06-03T09:41:53.000Z</time>
      </trkpt>
      <trkpt lat="46.55243" lon="0.34964">
        <ele>157.64</ele>
        <time>2018-06-03T09:41:55.000Z</time>
      </trkpt>
      <trkpt lat="46.55237" lon="0.34946">
        <ele>158.14</ele>
        <time>2018-06-03T09:41:57.000Z</time>
      </trkpt>
      <trkpt lat="46.55232" lon="0.34925">
        <ele>158.12</ele>
        <time>2018-06-03T09:41:59.000Z</time>
      </trkpt>
      <trkpt lat="46.55229" lon="0.34909">
        <ele>157.76</ele>
        <time>2018-06-03T09:42:01.000Z</time>
      </trkpt>
      <trkpt lat="46.55227" lon="0.34894">
        <ele>157.82</ele>
        <time>2018-06-03T09:42:03.000Z</time>
      </trkpt>
      <trkpt lat="46.55225" lon="0.34875">
        <ele>157.91</ele>
        <time>2018-06-03T09:42:06.000Z</time>
      </trkpt>
      <trkpt lat="46.55228" lon="0.34862">
        <ele>157.92</ele>
        <time>2018-06-03T09:42:08.000Z</time>
      </trkpt>
      <trkpt lat="46.55232" lon="0.34848">
        <ele>157.75</ele>
        <time>2018-06-03T09:42:10.000Z</time>
      </trkpt>
      <trkpt lat="46.55237" lon="0.34832">
        <ele>156.46</ele>
        <time>2018-06-03T09:42:12.000Z</time>
      </trkpt>
      <trkpt lat="46.55242" lon="0.34817">
        <ele>154.33</ele>
        <time>2018-06-03T09:42:14.000Z</time>
      </trkpt>
      <trkpt lat="46.55246" lon="0.34802">
        <ele>152.29</ele>
        <time>2018-06-03T09:42:16.000Z</time>
      </trkpt>
      <trkpt lat="46.55248" lon="0.34783">
        <ele>150.23</ele>
        <time>2018-06-03T09:42:18.000Z</time>
      </trkpt>
      <trkpt lat="46.55254" lon="0.34766">
        <ele>147.47</ele>
        <time>2018-06-03T09:42:20.000Z</time>
      </trkpt>
      <trkpt lat="46.55258" lon="0.34753">
        <ele>146.12</ele>
        <time>2018-06-03T09:42:22.000Z</time>
      </trkpt>
      <trkpt lat="46.55262" lon="0.34739">
        <ele>145.88</ele>
        <time>2018-06-03T09:42:25.000Z</time>
      </trkpt>
      <trkpt lat="46.55265" lon="0.34723">
        <ele>145.51</ele>
        <time>2018-06-03T09:42:28.000Z</time>
      </trkpt>
      <trkpt lat="46.5527" lon="0.3471">
        <ele>145.08</ele>
        <time>2018-06-03T09:42:30.000Z</time>
      </trkpt>
      <trkpt lat="46.55274" lon="0.34694">
        <ele>144.37</ele>
        <time>2018-06-03T09:42:33.000Z</time>
      </trkpt>
      <trkpt lat="46.55277" lon="0.3468">
        <ele>143.87</ele>
        <time>2018-06-03T09:42:35.000Z</time>
      </trkpt>
      <trkpt lat="46.55281" lon="0.34668">
        <ele>143.28</ele>
        <time>2018-06-03T09:42:37.000Z</time>
      </trkpt>
      <trkpt lat="46.55287" lon="0.34656">
        <ele>142.16</ele>
        <time>2018-06-03T09:42:42.000Z</time>
      </trkpt>
      <trkpt lat="46.55295" lon="0.34647">
        <ele>141.44</ele>
        <time>2018-06-03T09:42:49.000Z</time>
      </trkpt>
      <trkpt lat="46.55296" lon="0.34632">
        <ele>141.56</ele>
        <time>2018-06-03T09:42:54.000Z</time>
      </trkpt>
      <trkpt lat="46.55298" lon="0.34618">
        <ele>141.76</ele>
        <time>2018-06-03T09:43:02.000Z</time>
      </trkpt>
      <trkpt lat="46.55296" lon="0.34602">
        <ele>142.06</ele>
        <time>2018-06-03T09:43:07.000Z</time>
      </trkpt>
      <trkpt lat="46.55292" lon="0.34588">
        <ele>142.34</ele>
        <time>2018-06-03T09:43:12.000Z</time>
      </trkpt>
      <trkpt lat="46.55288" lon="0.34574">
        <ele>142.64</ele>
        <time>2018-06-03T09:43:16.000Z</time>
      </trkpt>
      <trkpt lat="46.55286" lon="0.34562">
        <ele>142.88</ele>
        <time>2018-06-03T09:43:24.000Z</time>
      </trkpt>
      <trkpt lat="46.55285" lon="0.34546">
        <ele>143.02</ele>
        <time>2018-06-03T09:43:41.000Z</time>
      </trkpt>
      <trkpt lat="46.55277" lon="0.34537">
        <ele>142.84</ele>
        <time>2018-06-03T09:43:45.000Z</time>
      </trkpt>
      <trkpt lat="46.55267" lon="0.34532">
        <ele>143.09</ele>
        <time>2018-06-03T09:43:48.000Z</time>
      </trkpt>
      <trkpt lat="46.55251" lon="0.34524">
        <ele>143.56</ele>
        <time>2018-06-03T09:43:52.000Z</time>
      </trkpt>
      <trkpt lat="46.5524" lon="0.34518">
        <ele>143.67</ele>
        <time>2018-06-03T09:43:54.000Z</time>
      </trkpt>
      <trkpt lat="46.55223" lon="0.34512">
        <ele>144.28</ele>
        <time>2018-06-03T09:43:57.000Z</time>
      </trkpt>
      <trkpt lat="46.55211" lon="0.34507">
        <ele>144.44</ele>
        <time>2018-06-03T09:44:00.000Z</time>
      </trkpt>
      <trkpt lat="46.55202" lon="0.34499">
        <ele>144.5</ele>
        <time>2018-06-03T09:44:03.000Z</time>
      </trkpt>
      <trkpt lat="46.55189" lon="0.34497">
        <ele>144.43</ele>
        <time>2018-06-03T09:44:06.000Z</time>
      </trkpt>
      <trkpt lat="46.55178" lon="0.34497">
        <ele>144.3</ele>
        <time>2018-06-03T09:44:09.000Z</time>
      </trkpt>
      <trkpt lat="46.55169" lon="0.34493">
        <ele>144.04</ele>
        <time>2018-06-03T09:44:13.000Z</time>
      </trkpt>
      <trkpt lat="46.55155" lon="0.34493">
        <ele>143.75</ele>
        <time>2018-06-03T09:44:16.000Z</time>
      </trkpt>
      <trkpt lat="46.55145" lon="0.34495">
        <ele>143.43</ele>
        <time>2018-06-03T09:44:18.000Z</time>
      </trkpt>
      <trkpt lat="46.55133" lon="0.34492">
        <ele>142.78</ele>
        <time>2018-06-03T09:44:21.000Z</time>
      </trkpt>
      <trkpt lat="46.55122" lon="0.3449">
        <ele>141.95</ele>
        <time>2018-06-03T09:44:24.000Z</time>
      </trkpt>
      <trkpt lat="46.55108" lon="0.34487">
        <ele>140.9</ele>
        <time>2018-06-03T09:44:27.000Z</time>
      </trkpt>
      <trkpt lat="46.55098" lon="0.34485">
        <ele>140.08</ele>
        <time>2018-06-03T09:44:29.000Z</time>
      </trkpt>
      <trkpt lat="46.55085" lon="0.34481">
        <ele>139.3</ele>
        <time>2018-06-03T09:44:31.000Z</time>
      </trkpt>
      <trkpt lat="46.55076" lon="0.34474">
        <ele>135.84</ele>
        <time>2018-06-03T09:44:33.000Z</time>
      </trkpt>
      <trkpt lat="46.55067" lon="0.34465">
        <ele>135.45</ele>
        <time>2018-06-03T09:44:35.000Z</time>
      </trkpt>
      <trkpt lat="46.55061" lon="0.34447">
        <ele>135.35</ele>
        <time>2018-06-03T09:44:37.000Z</time>
      </trkpt>
      <trkpt lat="46.55064" lon="0.34428">
        <ele>136.03</ele>
        <time>2018-06-03T09:44:39.000Z</time>
      </trkpt>
      <trkpt lat="46.55063" lon="0.34412">
        <ele>136.32</ele>
        <time>2018-06-03T09:44:41.000Z</time>
      </trkpt>
      <trkpt lat="46.55055" lon="0.344">
        <ele>136</ele>
        <time>2018-06-03T09:44:47.000Z</time>
      </trkpt>
      <trkpt lat="46.55053" lon="0.34386">
        <ele>136.08</ele>
        <time>2018-06-03T09:44:49.000Z</time>
      </trkpt>
      <trkpt lat="46.55055" lon="0.3437">
        <ele>136.36</ele>
        <time>2018-06-03T09:44:52.000Z</time>
      </trkpt>
      <trkpt lat="46.55049" lon="0.34356">
        <ele>136.91</ele>
        <time>2018-06-03T09:44:56.000Z</time>
      </trkpt>
      <trkpt lat="46.55043" lon="0.34344">
        <ele>137.72</ele>
        <time>2018-06-03T09:45:01.000Z</time>
      </trkpt>
      <trkpt lat="46.55052" lon="0.34346">
        <ele>138.94</ele>
        <time>2018-06-03T09:45:07.000Z</time>
      </trkpt>
      <trkpt lat="46.55062" lon="0.34347">
        <ele>139.72</ele>
        <time>2018-06-03T09:45:11.000Z</time>
      </trkpt>
      <trkpt lat="46.55072" lon="0.34349">
        <ele>140.32</ele>
        <time>2018-06-03T09:45:14.000Z</time>
      </trkpt>
      <trkpt lat="46.55082" lon="0.34355">
        <ele>141.17</ele>
        <time>2018-06-03T09:45:18.000Z</time>
      </trkpt>
      <trkpt lat="46.55092" lon="0.34358">
        <ele>141.74</ele>
        <time>2018-06-03T09:45:21.000Z</time>
      </trkpt>
      <trkpt lat="46.55102" lon="0.34363">
        <ele>142.11</ele>
        <time>2018-06-03T09:45:24.000Z</time>
      </trkpt>
      <trkpt lat="46.55113" lon="0.34369">
        <ele>142.38</ele>
        <time>2018-06-03T09:45:27.000Z</time>
      </trkpt>
      <trkpt lat="46.55126" lon="0.34371">
        <ele>143.55</ele>
        <time>2018-06-03T09:45:30.000Z</time>
      </trkpt>
      <trkpt lat="46.55135" lon="0.34374">
        <ele>144.57</ele>
        <time>2018-06-03T09:45:32.000Z</time>
      </trkpt>
      <trkpt lat="46.55145" lon="0.34377">
        <ele>144.86</ele>
        <time>2018-06-03T09:45:35.000Z</time>
      </trkpt>
      <trkpt lat="46.55158" lon="0.34381">
        <ele>145.84</ele>
        <time>2018-06-03T09:45:38.000Z</time>
      </trkpt>
      <trkpt lat="46.55171" lon="0.34385">
        <ele>145.9</ele>
        <time>2018-06-03T09:45:41.000Z</time>
      </trkpt>
      <trkpt lat="46.55182" lon="0.34389">
        <ele>145.67</ele>
        <time>2018-06-03T09:45:44.000Z</time>
      </trkpt>
      <trkpt lat="46.55192" lon="0.34393">
        <ele>145.45</ele>
        <time>2018-06-03T09:45:47.000Z</time>
      </trkpt>
      <trkpt lat="46.55201" lon="0.34394">
        <ele>143.35</ele>
        <time>2018-06-03T09:45:49.000Z</time>
      </trkpt>
      <trkpt lat="46.55212" lon="0.34395">
        <ele>141.23</ele>
        <time>2018-06-03T09:45:51.000Z</time>
      </trkpt>
      <trkpt lat="46.55222" lon="0.34396">
        <ele>139.18</ele>
        <time>2018-06-03T09:45:53.000Z</time>
      </trkpt>
      <trkpt lat="46.55232" lon="0.34398">
        <ele>138.38</ele>
        <time>2018-06-03T09:45:55.000Z</time>
      </trkpt>
      <trkpt lat="46.55243" lon="0.34401">
        <ele>138.76</ele>
        <time>2018-06-03T09:45:57.000Z</time>
      </trkpt>
      <trkpt lat="46.55253" lon="0.34404">
        <ele>139.5</ele>
        <time>2018-06-03T09:45:59.000Z</time>
      </trkpt>
      <trkpt lat="46.55262" lon="0.34406">
        <ele>140.42</ele>
        <time>2018-06-03T09:46:01.000Z</time>
      </trkpt>
      <trkpt lat="46.55272" lon="0.34409">
        <ele>141.44</ele>
        <time>2018-06-03T09:46:03.000Z</time>
      </trkpt>
      <trkpt lat="46.55282" lon="0.34412">
        <ele>142.65</ele>
        <time>2018-06-03T09:46:05.000Z</time>
      </trkpt>
      <trkpt lat="46.55294" lon="0.34414">
        <ele>144.88</ele>
        <time>2018-06-03T09:46:08.000Z</time>
      </trkpt>
      <trkpt lat="46.55305" lon="0.34413">
        <ele>145.48</ele>
        <time>2018-06-03T09:46:10.000Z</time>
      </trkpt>
      <trkpt lat="46.55315" lon="0.34412">
        <ele>145.66</ele>
        <time>2018-06-03T09:46:12.000Z</time>
      </trkpt>
      <trkpt lat="46.55325" lon="0.34414">
        <ele>145.97</ele>
        <time>2018-06-03T09:46:14.000Z</time>
      </trkpt>
      <trkpt lat="46.55336" lon="0.34413">
        <ele>146.22</ele>
        <time>2018-06-03T09:46:16.000Z</time>
      </trkpt>
      <trkpt lat="46.55346" lon="0.34411">
        <ele>146.34</ele>
        <time>2018-06-03T09:46:18.000Z</time>
      </trkpt>
      <trkpt lat="46.55359" lon="0.34412">
        <ele>146.19</ele>
        <time>2018-06-03T09:46:20.000Z</time>
      </trkpt>
      <trkpt lat="46.55372" lon="0.34414">
        <ele>146.42</ele>
        <time>2018-06-03T09:46:22.000Z</time>
      </trkpt>
      <trkpt lat="46.55384" lon="0.34417">
        <ele>145.85</ele>
        <time>2018-06-03T09:46:24.000Z</time>
      </trkpt>
      <trkpt lat="46.55395" lon="0.34422">
        <ele>144.75</ele>
        <time>2018-06-03T09:46:26.000Z</time>
      </trkpt>
      <trkpt lat="46.55407" lon="0.34428">
        <ele>143.73</ele>
        <time>2018-06-03T09:46:28.000Z</time>
      </trkpt>
      <trkpt lat="46.55418" lon="0.34437">
        <ele>141.35</ele>
        <time>2018-06-03T09:46:30.000Z</time>
      </trkpt>
      <trkpt lat="46.55426" lon="0.34455">
        <ele>137.69</ele>
        <time>2018-06-03T09:46:32.000Z</time>
      </trkpt>
      <trkpt lat="46.55435" lon="0.34472">
        <ele>135.56</ele>
        <time>2018-06-03T09:46:34.000Z</time>
      </trkpt>
      <trkpt lat="46.55441" lon="0.34489">
        <ele>135.47</ele>
        <time>2018-06-03T09:46:36.000Z</time>
      </trkpt>
      <trkpt lat="46.55447" lon="0.34508">
        <ele>135.84</ele>
        <time>2018-06-03T09:46:38.000Z</time>
      </trkpt>
      <trkpt lat="46.5545" lon="0.34533">
        <ele>135.46</ele>
        <time>2018-06-03T09:46:40.000Z</time>
      </trkpt>
      <trkpt lat="46.55449" lon="0.34555">
        <ele>134.49</ele>
        <time>2018-06-03T09:46:42.000Z</time>
      </trkpt>
      <trkpt lat="46.55447" lon="0.34576">
        <ele>133.14</ele>
        <time>2018-06-03T09:46:44.000Z</time>
      </trkpt>
      <trkpt lat="46.55444" lon="0.34591">
        <ele>134.19</ele>
        <time>2018-06-03T09:46:46.000Z</time>
      </trkpt>
      <trkpt lat="46.55442" lon="0.34607">
        <ele>136.49</ele>
        <time>2018-06-03T09:46:48.000Z</time>
      </trkpt>
      <trkpt lat="46.55437" lon="0.34621">
        <ele>139.44</ele>
        <time>2018-06-03T09:46:50.000Z</time>
      </trkpt>
      <trkpt lat="46.55433" lon="0.34636">
        <ele>141.97</ele>
        <time>2018-06-03T09:46:52.000Z</time>
      </trkpt>
      <trkpt lat="46.5543" lon="0.34651">
        <ele>144.18</ele>
        <time>2018-06-03T09:46:54.000Z</time>
      </trkpt>
      <trkpt lat="46.55423" lon="0.34664">
        <ele>145.91</ele>
        <time>2018-06-03T09:46:56.000Z</time>
      </trkpt>
      <trkpt lat="46.55418" lon="0.34677">
        <ele>147.18</ele>
        <time>2018-06-03T09:46:58.000Z</time>
      </trkpt>
      <trkpt lat="46.55413" lon="0.34692">
        <ele>147.64</ele>
        <time>2018-06-03T09:47:00.000Z</time>
      </trkpt>
      <trkpt lat="46.55414" lon="0.34706">
        <ele>147.21</ele>
        <time>2018-06-03T09:47:02.000Z</time>
      </trkpt>
      <trkpt lat="46.55421" lon="0.34716">
        <ele>147.04</ele>
        <time>2018-06-03T09:47:06.000Z</time>
      </trkpt>
      <trkpt lat="46.55431" lon="0.34716">
        <ele>146.33</ele>
        <time>2018-06-03T09:47:13.000Z</time>
      </trkpt>
      <trkpt lat="46.55439" lon="0.34721">
        <ele>145.3</ele>
        <time>2018-06-03T09:47:20.000Z</time>
      </trkpt>
      <trkpt lat="46.55446" lon="0.34732">
        <ele>144.56</ele>
        <time>2018-06-03T09:47:26.000Z</time>
      </trkpt>
      <trkpt lat="46.55452" lon="0.34745">
        <ele>144.18</ele>
        <time>2018-06-03T09:47:31.000Z</time>
      </trkpt>
      <trkpt lat="46.55458" lon="0.34755">
        <ele>143.94</ele>
        <time>2018-06-03T09:47:35.000Z</time>
      </trkpt>
      <trkpt lat="46.55465" lon="0.34766">
        <ele>143.97</ele>
        <time>2018-06-03T09:47:40.000Z</time>
      </trkpt>
      <trkpt lat="46.55473" lon="0.34777">
        <ele>144.35</ele>
        <time>2018-06-03T09:47:46.000Z</time>
      </trkpt>
      <trkpt lat="46.5548" lon="0.34785">
        <ele>144.7</ele>
        <time>2018-06-03T09:47:50.000Z</time>
      </trkpt>
      <trkpt lat="46.55487" lon="0.34793">
        <ele>145.11</ele>
        <time>2018-06-03T09:47:53.000Z</time>
      </trkpt>
      <trkpt lat="46.55495" lon="0.34802">
        <ele>145.97</ele>
        <time>2018-06-03T09:48:00.000Z</time>
      </trkpt>
      <trkpt lat="46.55504" lon="0.34808">
        <ele>146.62</ele>
        <time>2018-06-03T09:48:07.000Z</time>
      </trkpt>
      <trkpt lat="46.55514" lon="0.3481">
        <ele>147.06</ele>
        <time>2018-06-03T09:48:14.000Z</time>
      </trkpt>
      <trkpt lat="46.55524" lon="0.34811">
        <ele>147.53</ele>
        <time>2018-06-03T09:48:21.000Z</time>
      </trkpt>
      <trkpt lat="46.55533" lon="0.34815">
        <ele>148.03</ele>
        <time>2018-06-03T09:48:28.000Z</time>
      </trkpt>
      <trkpt lat="46.55541" lon="0.34821">
        <ele>148.27</ele>
        <time>2018-06-03T09:48:33.000Z</time>
      </trkpt>
      <trkpt lat="46.5555" lon="0.34825">
        <ele>148.5</ele>
        <time>2018-06-03T09:48:38.000Z</time>
      </trkpt>
      <trkpt lat="46.5556" lon="0.34831">
        <ele>149.12</ele>
        <time>2018-06-03T09:48:43.000Z</time>
      </trkpt>
      <trkpt lat="46.55568" lon="0.34836">
        <ele>149.77</ele>
        <time>2018-06-03T09:48:47.000Z</time>
      </trkpt>
      <trkpt lat="46.55576" lon="0.34844">
        <ele>150.6</ele>
        <time>2018-06-03T09:48:52.000Z</time>
      </trkpt>
      <trkpt lat="46.55586" lon="0.34848">
        <ele>151.33</ele>
        <time>2018-06-03T09:48:57.000Z</time>
      </trkpt>
      <trkpt lat="46.55595" lon="0.34854">
        <ele>152.3</ele>
        <time>2018-06-03T09:49:04.000Z</time>
      </trkpt>
      <trkpt lat="46.55603" lon="0.34862">
        <ele>153.16</ele>
        <time>2018-06-03T09:49:10.000Z</time>
      </trkpt>
      <trkpt lat="46.5561" lon="0.34871">
        <ele>153.76</ele>
        <time>2018-06-03T09:49:16.000Z</time>
      </trkpt>
      <trkpt lat="46.55618" lon="0.34877">
        <ele>154.73</ele>
        <time>2018-06-03T09:49:24.000Z</time>
      </trkpt>
      <trkpt lat="46.55627" lon="0.34881">
        <ele>155.4</ele>
        <time>2018-06-03T09:49:31.000Z</time>
      </trkpt>
      <trkpt lat="46.55634" lon="0.34893">
        <ele>156.34</ele>
        <time>2018-06-03T09:49:37.000Z</time>
      </trkpt>
      <trkpt lat="46.55638" lon="0.34907">
        <ele>156.99</ele>
        <time>2018-06-03T09:49:42.000Z</time>
      </trkpt>
      <trkpt lat="46.55648" lon="0.34909">
        <ele>158.06</ele>
        <time>2018-06-03T09:49:50.000Z</time>
      </trkpt>
      <trkpt lat="46.55656" lon="0.34902">
        <ele>159</ele>
        <time>2018-06-03T09:49:56.000Z</time>
      </trkpt>
      <trkpt lat="46.55666" lon="0.34896">
        <ele>160.09</ele>
        <time>2018-06-03T09:50:03.000Z</time>
      </trkpt>
      <trkpt lat="46.55673" lon="0.34886">
        <ele>163.59</ele>
        <time>2018-06-03T09:50:23.000Z</time>
      </trkpt>
      <trkpt lat="46.55671" lon="0.3487">
        <ele>164.9</ele>
        <time>2018-06-03T09:50:28.000Z</time>
      </trkpt>
      <trkpt lat="46.55668" lon="0.34857">
        <ele>165.85</ele>
        <time>2018-06-03T09:50:32.000Z</time>
      </trkpt>
      <trkpt lat="46.55666" lon="0.34844">
        <ele>166.54</ele>
        <time>2018-06-03T09:50:35.000Z</time>
      </trkpt>
      <trkpt lat="46.55661" lon="0.34829">
        <ele>167.27</ele>
        <time>2018-06-03T09:50:38.000Z</time>
      </trkpt>
      <trkpt lat="46.55656" lon="0.34818">
        <ele>172.13</ele>
        <time>2018-06-03T09:50:40.000Z</time>
      </trkpt>
      <trkpt lat="46.5565" lon="0.34808">
        <ele>175.43</ele>
        <time>2018-06-03T09:50:42.000Z</time>
      </trkpt>
      <trkpt lat="46.55642" lon="0.348">
        <ele>176.85</ele>
        <time>2018-06-03T09:50:44.000Z</time>
      </trkpt>
      <trkpt lat="46.55633" lon="0.34789">
        <ele>179.79</ele>
        <time>2018-06-03T09:50:47.000Z</time>
      </trkpt>
      <trkpt lat="46.55625" lon="0.34778">
        <ele>181.57</ele>
        <time>2018-06-03T09:50:49.000Z</time>
      </trkpt>
      <trkpt lat="46.55616" lon="0.34766">
        <ele>182.59</ele>
        <time>2018-06-03T09:50:51.000Z</time>
      </trkpt>
      <trkpt lat="46.5561" lon="0.34755">
        <ele>183.31</ele>
        <time>2018-06-03T09:50:53.000Z</time>
      </trkpt>
      <trkpt lat="46.55603" lon="0.34739">
        <ele>182.71</ele>
        <time>2018-06-03T09:50:55.000Z</time>
      </trkpt>
      <trkpt lat="46.55596" lon="0.34721">
        <ele>181.75</ele>
        <time>2018-06-03T09:50:57.000Z</time>
      </trkpt>
      <trkpt lat="46.55589" lon="0.34706">
        <ele>181.26</ele>
        <time>2018-06-03T09:50:59.000Z</time>
      </trkpt>
      <trkpt lat="46.55586" lon="0.34691">
        <ele>181.22</ele>
        <time>2018-06-03T09:51:01.000Z</time>
      </trkpt>
      <trkpt lat="46.55583" lon="0.34677">
        <ele>181.39</ele>
        <time>2018-06-03T09:51:03.000Z</time>
      </trkpt>
      <trkpt lat="46.55581" lon="0.34664">
        <ele>181.19</ele>
        <time>2018-06-03T09:51:05.000Z</time>
      </trkpt>
      <trkpt lat="46.55577" lon="0.34646">
        <ele>181.17</ele>
        <time>2018-06-03T09:51:08.000Z</time>
      </trkpt>
      <trkpt lat="46.55573" lon="0.34632">
        <ele>180.68</ele>
        <time>2018-06-03T09:51:10.000Z</time>
      </trkpt>
      <trkpt lat="46.55568" lon="0.34619">
        <ele>179.92</ele>
        <time>2018-06-03T09:51:12.000Z</time>
      </trkpt>
      <trkpt lat="46.55565" lon="0.34604">
        <ele>179.58</ele>
        <time>2018-06-03T09:51:14.000Z</time>
      </trkpt>
      <trkpt lat="46.55563" lon="0.34587">
        <ele>179.05</ele>
        <time>2018-06-03T09:51:16.000Z</time>
      </trkpt>
      <trkpt lat="46.55562" lon="0.34567">
        <ele>178.51</ele>
        <time>2018-06-03T09:51:18.000Z</time>
      </trkpt>
      <trkpt lat="46.55562" lon="0.34546">
        <ele>178.23</ele>
        <time>2018-06-03T09:51:20.000Z</time>
      </trkpt>
      <trkpt lat="46.55563" lon="0.34528">
        <ele>177.9</ele>
        <time>2018-06-03T09:51:22.000Z</time>
      </trkpt>
      <trkpt lat="46.55563" lon="0.34511">
        <ele>177.63</ele>
        <time>2018-06-03T09:51:24.000Z</time>
      </trkpt>
      <trkpt lat="46.55565" lon="0.34497">
        <ele>177.25</ele>
        <time>2018-06-03T09:51:26.000Z</time>
      </trkpt>
      <trkpt lat="46.55564" lon="0.34479">
        <ele>177.65</ele>
        <time>2018-06-03T09:51:29.000Z</time>
      </trkpt>
      <trkpt lat="46.55559" lon="0.34468">
        <ele>177.63</ele>
        <time>2018-06-03T09:51:31.000Z</time>
      </trkpt>
      <trkpt lat="46.55552" lon="0.34454">
        <ele>177</ele>
        <time>2018-06-03T09:51:33.000Z</time>
      </trkpt>
      <trkpt lat="46.55545" lon="0.34438">
        <ele>176.93</ele>
        <time>2018-06-03T09:51:35.000Z</time>
      </trkpt>
      <trkpt lat="46.55539" lon="0.34425">
        <ele>177.56</ele>
        <time>2018-06-03T09:51:37.000Z</time>
      </trkpt>
      <trkpt lat="46.55531" lon="0.34412">
        <ele>178.11</ele>
        <time>2018-06-03T09:51:39.000Z</time>
      </trkpt>
      <trkpt lat="46.55525" lon="0.34396">
        <ele>178.32</ele>
        <time>2018-06-03T09:51:41.000Z</time>
      </trkpt>
      <trkpt lat="46.55518" lon="0.34379">
        <ele>178.44</ele>
        <time>2018-06-03T09:51:43.000Z</time>
      </trkpt>
      <trkpt lat="46.55513" lon="0.34361">
        <ele>178.41</ele>
        <time>2018-06-03T09:51:45.000Z</time>
      </trkpt>
      <trkpt lat="46.5551" lon="0.34344">
        <ele>178.32</ele>
        <time>2018-06-03T09:51:47.000Z</time>
      </trkpt>
      <trkpt lat="46.55505" lon="0.34331">
        <ele>177.74</ele>
        <time>2018-06-03T09:51:49.000Z</time>
      </trkpt>
      <trkpt lat="46.55494" lon="0.3432">
        <ele>177.32</ele>
        <time>2018-06-03T09:51:52.000Z</time>
      </trkpt>
      <trkpt lat="46.55485" lon="0.34308">
        <ele>177.29</ele>
        <time>2018-06-03T09:51:55.000Z</time>
      </trkpt>
      <trkpt lat="46.55476" lon="0.34296">
        <ele>177.21</ele>
        <time>2018-06-03T09:51:58.000Z</time>
      </trkpt>
      <trkpt lat="46.55468" lon="0.34282">
        <ele>177.21</ele>
        <time>2018-06-03T09:52:01.000Z</time>
      </trkpt>
      <trkpt lat="46.55461" lon="0.34269">
        <ele>177.26</ele>
        <time>2018-06-03T09:52:04.000Z</time>
      </trkpt>
      <trkpt lat="46.55458" lon="0.34256">
        <ele>177.42</ele>
        <time>2018-06-03T09:52:08.000Z</time>
      </trkpt>
      <trkpt lat="46.5546" lon="0.34239">
        <ele>178.32</ele>
        <time>2018-06-03T09:52:15.000Z</time>
      </trkpt>
      <trkpt lat="46.55471" lon="0.34237">
        <ele>178.83</ele>
        <time>2018-06-03T09:52:18.000Z</time>
      </trkpt>
      <trkpt lat="46.55481" lon="0.34234">
        <ele>179.04</ele>
        <time>2018-06-03T09:52:20.000Z</time>
      </trkpt>
      <trkpt lat="46.55491" lon="0.3423">
        <ele>179.16</ele>
        <time>2018-06-03T09:52:23.000Z</time>
      </trkpt>
      <trkpt lat="46.55502" lon="0.34227">
        <ele>179.24</ele>
        <time>2018-06-03T09:52:26.000Z</time>
      </trkpt>
      <trkpt lat="46.55512" lon="0.34224">
        <ele>179.4</ele>
        <time>2018-06-03T09:52:29.000Z</time>
      </trkpt>
      <trkpt lat="46.55522" lon="0.34221">
        <ele>179.55</ele>
        <time>2018-06-03T09:52:32.000Z</time>
      </trkpt>
      <trkpt lat="46.55531" lon="0.3422">
        <ele>180.36</ele>
        <time>2018-06-03T09:52:35.000Z</time>
      </trkpt>
      <trkpt lat="46.55543" lon="0.34218">
        <ele>180.87</ele>
        <time>2018-06-03T09:52:38.000Z</time>
      </trkpt>
      <trkpt lat="46.55552" lon="0.34213">
        <ele>181.02</ele>
        <time>2018-06-03T09:52:41.000Z</time>
      </trkpt>
      <trkpt lat="46.55561" lon="0.34208">
        <ele>182.15</ele>
        <time>2018-06-03T09:52:44.000Z</time>
      </trkpt>
      <trkpt lat="46.55571" lon="0.34207">
        <ele>182.48</ele>
        <time>2018-06-03T09:52:47.000Z</time>
      </trkpt>
      <trkpt lat="46.55581" lon="0.34204">
        <ele>182.45</ele>
        <time>2018-06-03T09:52:50.000Z</time>
      </trkpt>
      <trkpt lat="46.5559" lon="0.34202">
        <ele>182.34</ele>
        <time>2018-06-03T09:52:52.000Z</time>
      </trkpt>
      <trkpt lat="46.55603" lon="0.34201">
        <ele>180.74</ele>
        <time>2018-06-03T09:52:55.000Z</time>
      </trkpt>
      <trkpt lat="46.55614" lon="0.34202">
        <ele>179.61</ele>
        <time>2018-06-03T09:52:57.000Z</time>
      </trkpt>
      <trkpt lat="46.55626" lon="0.34202">
        <ele>179.35</ele>
        <time>2018-06-03T09:53:00.000Z</time>
      </trkpt>
      <trkpt lat="46.55635" lon="0.34205">
        <ele>179</ele>
        <time>2018-06-03T09:53:02.000Z</time>
      </trkpt>
      <trkpt lat="46.55644" lon="0.34205">
        <ele>179.36</ele>
        <time>2018-06-03T09:53:04.000Z</time>
      </trkpt>
      <trkpt lat="46.55656" lon="0.34208">
        <ele>179.62</ele>
        <time>2018-06-03T09:53:07.000Z</time>
      </trkpt>
      <trkpt lat="46.55666" lon="0.34207">
        <ele>179.93</ele>
        <time>2018-06-03T09:53:10.000Z</time>
      </trkpt>
      <trkpt lat="46.55674" lon="0.34193">
        <ele>181.19</ele>
        <time>2018-06-03T09:53:13.000Z</time>
      </trkpt>
      <trkpt lat="46.5568" lon="0.3418">
        <ele>181.89</ele>
        <time>2018-06-03T09:53:15.000Z</time>
      </trkpt>
      <trkpt lat="46.55685" lon="0.34166">
        <ele>182.18</ele>
        <time>2018-06-03T09:53:17.000Z</time>
      </trkpt>
      <trkpt lat="46.5569" lon="0.34151">
        <ele>181.94</ele>
        <time>2018-06-03T09:53:19.000Z</time>
      </trkpt>
      <trkpt lat="46.55696" lon="0.34135">
        <ele>182.09</ele>
        <time>2018-06-03T09:53:21.000Z</time>
      </trkpt>
      <trkpt lat="46.55698" lon="0.34116">
        <ele>182.44</ele>
        <time>2018-06-03T09:53:23.000Z</time>
      </trkpt>
      <trkpt lat="46.55701" lon="0.34104">
        <ele>183.12</ele>
        <time>2018-06-03T09:53:25.000Z</time>
      </trkpt>
      <trkpt lat="46.5571" lon="0.3409">
        <ele>185.29</ele>
        <time>2018-06-03T09:53:29.000Z</time>
      </trkpt>
      <trkpt lat="46.55719" lon="0.34087">
        <ele>187.26</ele>
        <time>2018-06-03T09:53:31.000Z</time>
      </trkpt>
      <trkpt lat="46.55729" lon="0.34085">
        <ele>188.36</ele>
        <time>2018-06-03T09:53:33.000Z</time>
      </trkpt>
      <trkpt lat="46.55739" lon="0.34083">
        <ele>188.73</ele>
        <time>2018-06-03T09:53:35.000Z</time>
      </trkpt>
      <trkpt lat="46.5575" lon="0.34082">
        <ele>188.29</ele>
        <time>2018-06-03T09:53:37.000Z</time>
      </trkpt>
      <trkpt lat="46.55763" lon="0.34082">
        <ele>188.21</ele>
        <time>2018-06-03T09:53:39.000Z</time>
      </trkpt>
      <trkpt lat="46.55775" lon="0.34078">
        <ele>188.13</ele>
        <time>2018-06-03T09:53:41.000Z</time>
      </trkpt>
      <trkpt lat="46.55785" lon="0.3407">
        <ele>187.2</ele>
        <time>2018-06-03T09:53:43.000Z</time>
      </trkpt>
      <trkpt lat="46.55795" lon="0.34064">
        <ele>186</ele>
        <time>2018-06-03T09:53:45.000Z</time>
      </trkpt>
      <trkpt lat="46.55804" lon="0.34058">
        <ele>184.42</ele>
        <time>2018-06-03T09:53:47.000Z</time>
      </trkpt>
      <trkpt lat="46.55816" lon="0.3405">
        <ele>182.01</ele>
        <time>2018-06-03T09:53:49.000Z</time>
      </trkpt>
      <trkpt lat="46.55825" lon="0.34046">
        <ele>180.4</ele>
        <time>2018-06-03T09:53:51.000Z</time>
      </trkpt>
      <trkpt lat="46.55837" lon="0.34041">
        <ele>178.63</ele>
        <time>2018-06-03T09:53:53.000Z</time>
      </trkpt>
      <trkpt lat="46.55851" lon="0.3404">
        <ele>176.67</ele>
        <time>2018-06-03T09:53:55.000Z</time>
      </trkpt>
      <trkpt lat="46.55862" lon="0.34041">
        <ele>175.89</ele>
        <time>2018-06-03T09:53:57.000Z</time>
      </trkpt>
      <trkpt lat="46.55877" lon="0.3404">
        <ele>175.09</ele>
        <time>2018-06-03T09:53:59.000Z</time>
      </trkpt>
      <trkpt lat="46.55888" lon="0.34038">
        <ele>174.26</ele>
        <time>2018-06-03T09:54:01.000Z</time>
      </trkpt>
      <trkpt lat="46.55901" lon="0.34035">
        <ele>174.3</ele>
        <time>2018-06-03T09:54:03.000Z</time>
      </trkpt>
      <trkpt lat="46.55911" lon="0.3404">
        <ele>174.29</ele>
        <time>2018-06-03T09:54:06.000Z</time>
      </trkpt>
      <trkpt lat="46.5592" lon="0.34033">
        <ele>174.45</ele>
        <time>2018-06-03T09:54:10.000Z</time>
      </trkpt>
      <trkpt lat="46.55926" lon="0.34017">
        <ele>175.1</ele>
        <time>2018-06-03T09:54:13.000Z</time>
      </trkpt>
      <trkpt lat="46.5593" lon="0.34005">
        <ele>175.79</ele>
        <time>2018-06-03T09:54:15.000Z</time>
      </trkpt>
      <trkpt lat="46.55938" lon="0.33994">
        <ele>175.77</ele>
        <time>2018-06-03T09:54:17.000Z</time>
      </trkpt>
      <trkpt lat="46.55945" lon="0.33984">
        <ele>175.12</ele>
        <time>2018-06-03T09:54:19.000Z</time>
      </trkpt>
      <trkpt lat="46.55954" lon="0.33975">
        <ele>175.06</ele>
        <time>2018-06-03T09:54:22.000Z</time>
      </trkpt>
      <trkpt lat="46.55963" lon="0.33968">
        <ele>174.95</ele>
        <time>2018-06-03T09:54:26.000Z</time>
      </trkpt>
      <trkpt lat="46.55971" lon="0.33961">
        <ele>173.88</ele>
        <time>2018-06-03T09:54:28.000Z</time>
      </trkpt>
      <trkpt lat="46.5598" lon="0.3395">
        <ele>171.31</ele>
        <time>2018-06-03T09:54:30.000Z</time>
      </trkpt>
      <trkpt lat="46.55992" lon="0.33942">
        <ele>168.52</ele>
        <time>2018-06-03T09:54:33.000Z</time>
      </trkpt>
      <trkpt lat="46.56003" lon="0.33936">
        <ele>168.29</ele>
        <time>2018-06-03T09:54:36.000Z</time>
      </trkpt>
      <trkpt lat="46.56015" lon="0.33929">
        <ele>168.11</ele>
        <time>2018-06-03T09:54:39.000Z</time>
      </trkpt>
      <trkpt lat="46.56027" lon="0.33924">
        <ele>165.5</ele>
        <time>2018-06-03T09:54:42.000Z</time>
      </trkpt>
      <trkpt lat="46.56032" lon="0.33904">
        <ele>167.01</ele>
        <time>2018-06-03T09:54:44.000Z</time>
      </trkpt>
      <trkpt lat="46.56039" lon="0.33887">
        <ele>169.83</ele>
        <time>2018-06-03T09:54:46.000Z</time>
      </trkpt>
      <trkpt lat="46.56047" lon="0.33875">
        <ele>172.22</ele>
        <time>2018-06-03T09:54:48.000Z</time>
      </trkpt>
      <trkpt lat="46.56054" lon="0.33864">
        <ele>173.69</ele>
        <time>2018-06-03T09:54:50.000Z</time>
      </trkpt>
      <trkpt lat="46.56066" lon="0.33854">
        <ele>174.23</ele>
        <time>2018-06-03T09:54:52.000Z</time>
      </trkpt>
      <trkpt lat="46.56077" lon="0.33842">
        <ele>173.54</ele>
        <time>2018-06-03T09:54:54.000Z</time>
      </trkpt>
      <trkpt lat="46.56087" lon="0.33831">
        <ele>173.08</ele>
        <time>2018-06-03T09:54:56.000Z</time>
      </trkpt>
      <trkpt lat="46.56097" lon="0.3382">
        <ele>172.24</ele>
        <time>2018-06-03T09:54:58.000Z</time>
      </trkpt>
      <trkpt lat="46.56108" lon="0.33808">
        <ele>171.22</ele>
        <time>2018-06-03T09:55:00.000Z</time>
      </trkpt>
      <trkpt lat="46.56121" lon="0.33796">
        <ele>169.93</ele>
        <time>2018-06-03T09:55:02.000Z</time>
      </trkpt>
      <trkpt lat="46.56133" lon="0.33781">
        <ele>169.73</ele>
        <time>2018-06-03T09:55:04.000Z</time>
      </trkpt>
      <trkpt lat="46.56147" lon="0.33767">
        <ele>170.29</ele>
        <time>2018-06-03T09:55:06.000Z</time>
      </trkpt>
      <trkpt lat="46.5616" lon="0.33753">
        <ele>169.95</ele>
        <time>2018-06-03T09:55:08.000Z</time>
      </trkpt>
      <trkpt lat="46.56172" lon="0.33736">
        <ele>169.51</ele>
        <time>2018-06-03T09:55:10.000Z</time>
      </trkpt>
      <trkpt lat="46.56186" lon="0.33727">
        <ele>169.09</ele>
        <time>2018-06-03T09:55:12.000Z</time>
      </trkpt>
      <trkpt lat="46.56197" lon="0.33721">
        <ele>168.42</ele>
        <time>2018-06-03T09:55:14.000Z</time>
      </trkpt>
      <trkpt lat="46.56211" lon="0.33718">
        <ele>167.65</ele>
        <time>2018-06-03T09:55:16.000Z</time>
      </trkpt>
      <trkpt lat="46.56226" lon="0.33717">
        <ele>166.13</ele>
        <time>2018-06-03T09:55:18.000Z</time>
      </trkpt>
      <trkpt lat="46.56235" lon="0.33717">
        <ele>165.23</ele>
        <time>2018-06-03T09:55:20.000Z</time>
      </trkpt>
      <trkpt lat="46.56231" lon="0.33704">
        <ele>165.08</ele>
        <time>2018-06-03T09:55:30.000Z</time>
      </trkpt>
      <trkpt lat="46.56224" lon="0.33693">
        <ele>164.88</ele>
        <time>2018-06-03T09:55:34.000Z</time>
      </trkpt>
      <trkpt lat="46.56215" lon="0.33683">
        <ele>164.39</ele>
        <time>2018-06-03T09:55:38.000Z</time>
      </trkpt>
      <trkpt lat="46.56211" lon="0.33669">
        <ele>163.65</ele>
        <time>2018-06-03T09:55:43.000Z</time>
      </trkpt>
      <trkpt lat="46.56208" lon="0.33656">
        <ele>163.06</ele>
        <time>2018-06-03T09:55:46.000Z</time>
      </trkpt>
      <trkpt lat="46.56204" lon="0.33642">
        <ele>162.73</ele>
        <time>2018-06-03T09:55:48.000Z</time>
      </trkpt>
      <trkpt lat="46.56203" lon="0.33619">
        <ele>162.32</ele>
        <time>2018-06-03T09:55:50.000Z</time>
      </trkpt>
      <trkpt lat="46.56206" lon="0.33597">
        <ele>161.12</ele>
        <time>2018-06-03T09:55:52.000Z</time>
      </trkpt>
      <trkpt lat="46.5621" lon="0.33583">
        <ele>158.73</ele>
        <time>2018-06-03T09:55:54.000Z</time>
      </trkpt>
      <trkpt lat="46.56217" lon="0.33574">
        <ele>157.92</ele>
        <time>2018-06-03T09:55:57.000Z</time>
      </trkpt>
      <trkpt lat="46.56213" lon="0.33587">
        <ele>152.74</ele>
        <time>2018-06-03T09:56:05.000Z</time>
      </trkpt>
      <trkpt lat="46.5621" lon="0.33601">
        <ele>150.01</ele>
        <time>2018-06-03T09:56:07.000Z</time>
      </trkpt>
      <trkpt lat="46.56202" lon="0.33612">
        <ele>146.06</ele>
        <time>2018-06-03T09:56:09.000Z</time>
      </trkpt>
      <trkpt lat="46.5619" lon="0.33617">
        <ele>144.17</ele>
        <time>2018-06-03T09:56:12.000Z</time>
      </trkpt>
      <trkpt lat="46.56181" lon="0.33616">
        <ele>143.83</ele>
        <time>2018-06-03T09:56:14.000Z</time>
      </trkpt>
      <trkpt lat="46.56171" lon="0.3361">
        <ele>143.41</ele>
        <time>2018-06-03T09:56:16.000Z</time>
      </trkpt>
      <trkpt lat="46.56178" lon="0.33594">
        <ele>142.88</ele>
        <time>2018-06-03T09:56:20.000Z</time>
      </trkpt>
      <trkpt lat="46.56183" lon="0.33583">
        <ele>142.63</ele>
        <time>2018-06-03T09:56:22.000Z</time>
      </trkpt>
      <trkpt lat="46.56192" lon="0.3357">
        <ele>142.04</ele>
        <time>2018-06-03T09:56:25.000Z</time>
      </trkpt>
      <trkpt lat="46.562" lon="0.3356">
        <ele>141.49</ele>
        <time>2018-06-03T09:56:28.000Z</time>
      </trkpt>
      <trkpt lat="46.56207" lon="0.33548">
        <ele>140.9</ele>
        <time>2018-06-03T09:56:31.000Z</time>
      </trkpt>
      <trkpt lat="46.56211" lon="0.33534">
        <ele>140.14</ele>
        <time>2018-06-03T09:56:34.000Z</time>
      </trkpt>
      <trkpt lat="46.56213" lon="0.3352">
        <ele>139.37</ele>
        <time>2018-06-03T09:56:37.000Z</time>
      </trkpt>
      <trkpt lat="46.56219" lon="0.33505">
        <ele>138.38</ele>
        <time>2018-06-03T09:56:40.000Z</time>
      </trkpt>
      <trkpt lat="46.56224" lon="0.33488">
        <ele>133.59</ele>
        <time>2018-06-03T09:56:43.000Z</time>
      </trkpt>
      <trkpt lat="46.56231" lon="0.33476">
        <ele>132.49</ele>
        <time>2018-06-03T09:56:46.000Z</time>
      </trkpt>
      <trkpt lat="46.56236" lon="0.33464">
        <ele>131.49</ele>
        <time>2018-06-03T09:56:49.000Z</time>
      </trkpt>
      <trkpt lat="46.56242" lon="0.33452">
        <ele>130.47</ele>
        <time>2018-06-03T09:56:52.000Z</time>
      </trkpt>
      <trkpt lat="46.56246" lon="0.3344">
        <ele>129.73</ele>
        <time>2018-06-03T09:56:55.000Z</time>
      </trkpt>
      <trkpt lat="46.56251" lon="0.33424">
        <ele>129.31</ele>
        <time>2018-06-03T09:56:58.000Z</time>
      </trkpt>
      <trkpt lat="46.56254" lon="0.33411">
        <ele>129.09</ele>
        <time>2018-06-03T09:57:01.000Z</time>
      </trkpt>
      <trkpt lat="46.56258" lon="0.33398">
        <ele>129.02</ele>
        <time>2018-06-03T09:57:04.000Z</time>
      </trkpt>
      <trkpt lat="46.56262" lon="0.33381">
        <ele>129.07</ele>
        <time>2018-06-03T09:57:07.000Z</time>
      </trkpt>
      <trkpt lat="46.56265" lon="0.33368">
        <ele>129.38</ele>
        <time>2018-06-03T09:57:10.000Z</time>
      </trkpt>
      <trkpt lat="46.56267" lon="0.33353">
        <ele>130.08</ele>
        <time>2018-06-03T09:57:13.000Z</time>
      </trkpt>
      <trkpt lat="46.56271" lon="0.33336">
        <ele>131.08</ele>
        <time>2018-06-03T09:57:16.000Z</time>
      </trkpt>
      <trkpt lat="46.56274" lon="0.3332">
        <ele>131.69</ele>
        <time>2018-06-03T09:57:18.000Z</time>
      </trkpt>
      <trkpt lat="46.56278" lon="0.33305">
        <ele>132.18</ele>
        <time>2018-06-03T09:57:20.000Z</time>
      </trkpt>
      <trkpt lat="46.56282" lon="0.3329">
        <ele>132.62</ele>
        <time>2018-06-03T09:57:22.000Z</time>
      </trkpt>
      <trkpt lat="46.56286" lon="0.33277">
        <ele>132.97</ele>
        <time>2018-06-03T09:57:24.000Z</time>
      </trkpt>
      <trkpt lat="46.56288" lon="0.3326">
        <ele>133.47</ele>
        <time>2018-06-03T09:57:27.000Z</time>
      </trkpt>
      <trkpt lat="46.56289" lon="0.33245">
        <ele>133.99</ele>
        <time>2018-06-03T09:57:30.000Z</time>
      </trkpt>
      <trkpt lat="46.56294" lon="0.3323">
        <ele>134.46</ele>
        <time>2018-06-03T09:57:33.000Z</time>
      </trkpt>
      <trkpt lat="46.56299" lon="0.33215">
        <ele>134.78</ele>
        <time>2018-06-03T09:57:36.000Z</time>
      </trkpt>
      <trkpt lat="46.56304" lon="0.332">
        <ele>134.89</ele>
        <time>2018-06-03T09:57:39.000Z</time>
      </trkpt>
      <trkpt lat="46.56307" lon="0.33184">
        <ele>134.85</ele>
        <time>2018-06-03T09:57:42.000Z</time>
      </trkpt>
      <trkpt lat="46.56311" lon="0.33167">
        <ele>134.8</ele>
        <time>2018-06-03T09:57:45.000Z</time>
      </trkpt>
      <trkpt lat="46.56314" lon="0.33152">
        <ele>134.61</ele>
        <time>2018-06-03T09:57:48.000Z</time>
      </trkpt>
      <trkpt lat="46.56316" lon="0.33137">
        <ele>134.26</ele>
        <time>2018-06-03T09:57:51.000Z</time>
      </trkpt>
      <trkpt lat="46.56319" lon="0.33121">
        <ele>133.91</ele>
        <time>2018-06-03T09:57:54.000Z</time>
      </trkpt>
      <trkpt lat="46.56318" lon="0.33104">
        <ele>133.49</ele>
        <time>2018-06-03T09:57:57.000Z</time>
      </trkpt>
      <trkpt lat="46.56315" lon="0.3309">
        <ele>130.71</ele>
        <time>2018-06-03T09:57:59.000Z</time>
      </trkpt>
      <trkpt lat="46.56312" lon="0.33074">
        <ele>130.36</ele>
        <time>2018-06-03T09:58:02.000Z</time>
      </trkpt>
      <trkpt lat="46.56308" lon="0.33059">
        <ele>129.9</ele>
        <time>2018-06-03T09:58:06.000Z</time>
      </trkpt>
      <trkpt lat="46.56304" lon="0.33043">
        <ele>130</ele>
        <time>2018-06-03T09:58:11.000Z</time>
      </trkpt>
      <trkpt lat="46.56295" lon="0.33028">
        <ele>130.32</ele>
        <time>2018-06-03T09:58:14.000Z</time>
      </trkpt>
      <trkpt lat="46.56289" lon="0.33018">
        <ele>130.65</ele>
        <time>2018-06-03T09:58:16.000Z</time>
      </trkpt>
      <trkpt lat="46.56281" lon="0.3301">
        <ele>130.98</ele>
        <time>2018-06-03T09:58:19.000Z</time>
      </trkpt>
      <trkpt lat="46.56273" lon="0.33002">
        <ele>131.46</ele>
        <time>2018-06-03T09:58:23.000Z</time>
      </trkpt>
      <trkpt lat="46.56264" lon="0.32991">
        <ele>132.46</ele>
        <time>2018-06-03T09:58:27.000Z</time>
      </trkpt>
      <trkpt lat="46.56255" lon="0.32983">
        <ele>133.16</ele>
        <time>2018-06-03T09:58:30.000Z</time>
      </trkpt>
      <trkpt lat="46.56246" lon="0.32977">
        <ele>133.94</ele>
        <time>2018-06-03T09:58:33.000Z</time>
      </trkpt>
      <trkpt lat="46.56237" lon="0.32966">
        <ele>134.94</ele>
        <time>2018-06-03T09:58:36.000Z</time>
      </trkpt>
      <trkpt lat="46.56228" lon="0.32959">
        <ele>136.29</ele>
        <time>2018-06-03T09:58:39.000Z</time>
      </trkpt>
      <trkpt lat="46.5622" lon="0.32952">
        <ele>137.38</ele>
        <time>2018-06-03T09:58:41.000Z</time>
      </trkpt>
      <trkpt lat="46.56212" lon="0.32939">
        <ele>139</ele>
        <time>2018-06-03T09:58:44.000Z</time>
      </trkpt>
      <trkpt lat="46.56204" lon="0.32927">
        <ele>141.14</ele>
        <time>2018-06-03T09:58:48.000Z</time>
      </trkpt>
      <trkpt lat="46.56197" lon="0.32919">
        <ele>142.1</ele>
        <time>2018-06-03T09:58:50.000Z</time>
      </trkpt>
      <trkpt lat="46.56185" lon="0.32915">
        <ele>144.08</ele>
        <time>2018-06-03T09:58:54.000Z</time>
      </trkpt>
      <trkpt lat="46.56175" lon="0.3291">
        <ele>146.38</ele>
        <time>2018-06-03T09:58:58.000Z</time>
      </trkpt>
      <trkpt lat="46.56165" lon="0.32905">
        <ele>147.62</ele>
        <time>2018-06-03T09:59:00.000Z</time>
      </trkpt>
      <trkpt lat="46.56163" lon="0.32892">
        <ele>151.43</ele>
        <time>2018-06-03T09:59:07.000Z</time>
      </trkpt>
      <trkpt lat="46.56163" lon="0.32879">
        <ele>155.82</ele>
        <time>2018-06-03T09:59:32.000Z</time>
      </trkpt>
      <trkpt lat="46.56164" lon="0.32893">
        <ele>153.6</ele>
        <time>2018-06-03T10:00:11.000Z</time>
      </trkpt>
      <trkpt lat="46.56155" lon="0.32897">
        <ele>152.01</ele>
        <time>2018-06-03T10:00:17.000Z</time>
      </trkpt>
      <trkpt lat="46.56144" lon="0.32895">
        <ele>151.03</ele>
        <time>2018-06-03T10:00:20.000Z</time>
      </trkpt>
      <trkpt lat="46.56132" lon="0.32891">
        <ele>149.99</ele>
        <time>2018-06-03T10:00:23.000Z</time>
      </trkpt>
      <trkpt lat="46.56119" lon="0.32886">
        <ele>146.1</ele>
        <time>2018-06-03T10:00:26.000Z</time>
      </trkpt>
      <trkpt lat="46.56106" lon="0.32883">
        <ele>141.03</ele>
        <time>2018-06-03T10:00:28.000Z</time>
      </trkpt>
      <trkpt lat="46.56096" lon="0.32879">
        <ele>139.02</ele>
        <time>2018-06-03T10:00:30.000Z</time>
      </trkpt>
      <trkpt lat="46.56086" lon="0.32874">
        <ele>137.35</ele>
        <time>2018-06-03T10:00:32.000Z</time>
      </trkpt>
      <trkpt lat="46.56074" lon="0.32866">
        <ele>135.47</ele>
        <time>2018-06-03T10:00:34.000Z</time>
      </trkpt>
      <trkpt lat="46.56062" lon="0.3286">
        <ele>135.4</ele>
        <time>2018-06-03T10:00:37.000Z</time>
      </trkpt>
      <trkpt lat="46.56053" lon="0.32855">
        <ele>135.45</ele>
        <time>2018-06-03T10:00:40.000Z</time>
      </trkpt>
      <trkpt lat="46.56043" lon="0.32846">
        <ele>135.57</ele>
        <time>2018-06-03T10:00:43.000Z</time>
      </trkpt>
      <trkpt lat="46.56033" lon="0.32839">
        <ele>135.69</ele>
        <time>2018-06-03T10:00:46.000Z</time>
      </trkpt>
      <trkpt lat="46.56022" lon="0.32831">
        <ele>135.89</ele>
        <time>2018-06-03T10:00:49.000Z</time>
      </trkpt>
      <trkpt lat="46.56012" lon="0.32827">
        <ele>135.99</ele>
        <time>2018-06-03T10:00:52.000Z</time>
      </trkpt>
      <trkpt lat="46.56003" lon="0.32825">
        <ele>136.07</ele>
        <time>2018-06-03T10:00:55.000Z</time>
      </trkpt>
      <trkpt lat="46.55993" lon="0.32823">
        <ele>136.18</ele>
        <time>2018-06-03T10:00:58.000Z</time>
      </trkpt>
      <trkpt lat="46.55983" lon="0.32824">
        <ele>136.18</ele>
        <time>2018-06-03T10:01:02.000Z</time>
      </trkpt>
      <trkpt lat="46.55972" lon="0.32826">
        <ele>136</ele>
        <time>2018-06-03T10:01:06.000Z</time>
      </trkpt>
      <trkpt lat="46.55962" lon="0.32828">
        <ele>135.7</ele>
        <time>2018-06-03T10:01:11.000Z</time>
      </trkpt>
      <trkpt lat="46.55956" lon="0.32839">
        <ele>135.49</ele>
        <time>2018-06-03T10:01:15.000Z</time>
      </trkpt>
      <trkpt lat="46.55957" lon="0.32854">
        <ele>135.32</ele>
        <time>2018-06-03T10:01:19.000Z</time>
      </trkpt>
      <trkpt lat="46.55955" lon="0.32867">
        <ele>135.2</ele>
        <time>2018-06-03T10:01:22.000Z</time>
      </trkpt>
      <trkpt lat="46.55952" lon="0.32882">
        <ele>135.27</ele>
        <time>2018-06-03T10:01:25.000Z</time>
      </trkpt>
      <trkpt lat="46.55951" lon="0.32899">
        <ele>135.48</ele>
        <time>2018-06-03T10:01:28.000Z</time>
      </trkpt>
      <trkpt lat="46.5595" lon="0.32913">
        <ele>135.66</ele>
        <time>2018-06-03T10:01:31.000Z</time>
      </trkpt>
      <trkpt lat="46.55949" lon="0.32928">
        <ele>135.79</ele>
        <time>2018-06-03T10:01:34.000Z</time>
      </trkpt>
      <trkpt lat="46.55944" lon="0.32939">
        <ele>135.82</ele>
        <time>2018-06-03T10:01:37.000Z</time>
      </trkpt>
      <trkpt lat="46.55936" lon="0.3295">
        <ele>135.74</ele>
        <time>2018-06-03T10:01:40.000Z</time>
      </trkpt>
      <trkpt lat="46.5593" lon="0.3296">
        <ele>135.54</ele>
        <time>2018-06-03T10:01:44.000Z</time>
      </trkpt>
      <trkpt lat="46.55938" lon="0.3297">
        <ele>135.05</ele>
        <time>2018-06-03T10:01:51.000Z</time>
      </trkpt>
      <trkpt lat="46.55946" lon="0.32975">
        <ele>134.67</ele>
        <time>2018-06-03T10:01:58.000Z</time>
      </trkpt>
      <trkpt lat="46.55954" lon="0.32965">
        <ele>135</ele>
        <time>2018-06-03T10:02:04.000Z</time>
      </trkpt>
      <trkpt lat="46.55962" lon="0.32957">
        <ele>135.74</ele>
        <time>2018-06-03T10:02:15.000Z</time>
      </trkpt>
    </trkseg>
  </trk>
</gpx>